<?xml version='1.0' encoding='UTF-8'?><gpx version="1.1" creator="JPX - https://github.com/jenetics/jpx" xmlns="http://www.topografix.com/GPX/1/1"><trk><trkseg><trkpt lat="45.3672861" lon="7.6172791"><ele>594.0</ele><time>2026-04-18T08:47:09.949Z</time></trkpt><trkpt lat="45.3672591" lon="7.617364"><ele>594.0</ele><time>2026-04-18T08:47:17.96Z</time></trkpt><trkpt lat="45.3672642" lon="7.6172721"><ele>594.0</ele><time>2026-04-18T08:47:47.95Z</time></trkpt><trkpt lat="45.3673476" lon="7.6172589"><ele>594.0</ele><time>2026-04-18T08:47:48.955Z</time></trkpt><trkpt lat="45.3672845" lon="7.6172466"><ele>594.0</ele><time>2026-04-18T08:47:51.951Z</time></trkpt><trkpt lat="45.3673484" lon="7.6171948"><ele>594.0</ele><time>2026-04-18T08:53:41.943Z</time></trkpt><trkpt lat="45.3674223" lon="7.6171842"><ele>594.0</ele><time>2026-04-18T08:53:43.956Z</time></trkpt><trkpt lat="45.367491" lon="7.6171298"><ele>594.0</ele><time>2026-04-18T08:53:45.948Z</time></trkpt><trkpt lat="45.3675624" lon="7.6170529"><ele>594.0</ele><time>2026-04-18T08:53:47.949Z</time></trkpt><trkpt lat="45.3676368" lon="7.6169767"><ele>594.0</ele><time>2026-04-18T08:53:49.946Z</time></trkpt><trkpt lat="45.3676731" lon="7.6168656"><ele>594.0</ele><time>2026-04-18T08:53:53.951Z</time></trkpt><trkpt lat="45.3676613" lon="7.6167645"><ele>594.0</ele><time>2026-04-18T08:53:54.953Z</time></trkpt><trkpt lat="45.3676242" lon="7.6166641"><ele>594.0</ele><time>2026-04-18T08:53:55.951Z</time></trkpt><trkpt lat="45.3675805" lon="7.6165549"><ele>594.0</ele><time>2026-04-18T08:53:56.956Z</time></trkpt><trkpt lat="45.3675274" lon="7.6164441"><ele>594.0</ele><time>2026-04-18T08:53:57.954Z</time></trkpt><trkpt lat="45.3674876" lon="7.6163213"><ele>594.0</ele><time>2026-04-18T08:53:58.952Z</time></trkpt><trkpt lat="45.3674492" lon="7.6161858"><ele>594.0</ele><time>2026-04-18T08:54:00.018Z</time></trkpt><trkpt lat="45.3674204" lon="7.6160449"><ele>594.0</ele><time>2026-04-18T08:54:00.946Z</time></trkpt><trkpt lat="45.3673843" lon="7.6159291"><ele>594.1666666666666</ele><time>2026-04-18T08:54:02.075Z</time></trkpt><trkpt lat="45.3672996" lon="7.615742"><ele>594.3333333333334</ele><time>2026-04-18T08:54:03.949Z</time></trkpt><trkpt lat="45.3672529" lon="7.6156746"><ele>594.5</ele><time>2026-04-18T08:54:04.946Z</time></trkpt><trkpt lat="45.3671971" lon="7.615624"><ele>594.6666666666667</ele><time>2026-04-18T08:54:07.957Z</time></trkpt><trkpt lat="45.3671111" lon="7.6155917"><ele>594.8333333333334</ele><time>2026-04-18T08:54:10.952Z</time></trkpt><trkpt lat="45.3670419" lon="7.6155965"><ele>595.0</ele><time>2026-04-18T08:54:11.953Z</time></trkpt><trkpt lat="45.366965" lon="7.6155935"><ele>595.0</ele><time>2026-04-18T08:54:12.953Z</time></trkpt><trkpt lat="45.3668819" lon="7.6155816"><ele>595.0</ele><time>2026-04-18T08:54:13.955Z</time></trkpt><trkpt lat="45.3667989" lon="7.6155766"><ele>595.0</ele><time>2026-04-18T08:54:15.036Z</time></trkpt><trkpt lat="45.3666997" lon="7.6155679"><ele>595.0</ele><time>2026-04-18T08:54:16.045Z</time></trkpt><trkpt lat="45.3665982" lon="7.6155603"><ele>595.0</ele><time>2026-04-18T08:54:16.954Z</time></trkpt><trkpt lat="45.3665002" lon="7.6155569"><ele>595.0</ele><time>2026-04-18T08:54:17.954Z</time></trkpt><trkpt lat="45.3664065" lon="7.6155531"><ele>595.0</ele><time>2026-04-18T08:54:18.968Z</time></trkpt><trkpt lat="45.366311" lon="7.6155359"><ele>595.0</ele><time>2026-04-18T08:54:19.936Z</time></trkpt><trkpt lat="45.3662235" lon="7.6155054"><ele>595.0</ele><time>2026-04-18T08:54:20.951Z</time></trkpt><trkpt lat="45.366131" lon="7.6154535"><ele>595.0</ele><time>2026-04-18T08:54:21.946Z</time></trkpt><trkpt lat="45.3660462" lon="7.6153789"><ele>596.2</ele><time>2026-04-18T08:54:22.954Z</time></trkpt><trkpt lat="45.3659577" lon="7.6152977"><ele>597.4</ele><time>2026-04-18T08:54:24.043Z</time></trkpt><trkpt lat="45.365865" lon="7.6152163"><ele>598.6</ele><time>2026-04-18T08:54:24.985Z</time></trkpt><trkpt lat="45.3657727" lon="7.6151512"><ele>599.8</ele><time>2026-04-18T08:54:26.028Z</time></trkpt><trkpt lat="45.3656911" lon="7.6150973"><ele>601.0</ele><time>2026-04-18T08:54:26.943Z</time></trkpt><trkpt lat="45.3656058" lon="7.6150584"><ele>601.0</ele><time>2026-04-18T08:54:27.948Z</time></trkpt><trkpt lat="45.365531" lon="7.6150111"><ele>601.0</ele><time>2026-04-18T08:54:28.944Z</time></trkpt><trkpt lat="45.3654733" lon="7.6149689"><ele>601.0</ele><time>2026-04-18T08:54:29.949Z</time></trkpt><trkpt lat="45.3653543" lon="7.6149709"><ele>601.0</ele><time>2026-04-18T08:54:31.948Z</time></trkpt><trkpt lat="45.3652418" lon="7.6150416"><ele>601.0</ele><time>2026-04-18T08:54:33.95Z</time></trkpt><trkpt lat="45.3651751" lon="7.6150921"><ele>600.0</ele><time>2026-04-18T08:54:34.947Z</time></trkpt><trkpt lat="45.3650996" lon="7.6151273"><ele>599.0</ele><time>2026-04-18T08:54:35.954Z</time></trkpt><trkpt lat="45.3650158" lon="7.6151786"><ele>598.0</ele><time>2026-04-18T08:54:36.947Z</time></trkpt><trkpt lat="45.3649272" lon="7.615233"><ele>597.0</ele><time>2026-04-18T08:54:37.963Z</time></trkpt><trkpt lat="45.3648396" lon="7.6153068"><ele>596.0</ele><time>2026-04-18T08:54:38.951Z</time></trkpt><trkpt lat="45.3647655" lon="7.6153974"><ele>594.4</ele><time>2026-04-18T08:54:39.954Z</time></trkpt><trkpt lat="45.3646971" lon="7.6155013"><ele>592.8</ele><time>2026-04-18T08:54:40.949Z</time></trkpt><trkpt lat="45.3646333" lon="7.6156174"><ele>591.1999999999999</ele><time>2026-04-18T08:54:41.952Z</time></trkpt><trkpt lat="45.3645784" lon="7.6157363"><ele>589.6</ele><time>2026-04-18T08:54:42.945Z</time></trkpt><trkpt lat="45.3645377" lon="7.6158669"><ele>588.0</ele><time>2026-04-18T08:54:43.951Z</time></trkpt><trkpt lat="45.3645109" lon="7.616004"><ele>588.0</ele><time>2026-04-18T08:54:45.069Z</time></trkpt><trkpt lat="45.3645002" lon="7.6161459"><ele>588.0</ele><time>2026-04-18T08:54:46.008Z</time></trkpt><trkpt lat="45.3645103" lon="7.6162872"><ele>588.0</ele><time>2026-04-18T08:54:46.962Z</time></trkpt><trkpt lat="45.3645326" lon="7.6164085"><ele>588.0</ele><time>2026-04-18T08:54:48.037Z</time></trkpt><trkpt lat="45.364572" lon="7.6165333"><ele>588.0</ele><time>2026-04-18T08:54:49.032Z</time></trkpt><trkpt lat="45.3646174" lon="7.6166594"><ele>587.8</ele><time>2026-04-18T08:54:50.034Z</time></trkpt><trkpt lat="45.364661" lon="7.6167828"><ele>587.5999999999999</ele><time>2026-04-18T08:54:50.969Z</time></trkpt><trkpt lat="45.3646927" lon="7.6169158"><ele>587.4000000000001</ele><time>2026-04-18T08:54:51.956Z</time></trkpt><trkpt lat="45.3647302" lon="7.6170503"><ele>587.2</ele><time>2026-04-18T08:54:52.948Z</time></trkpt><trkpt lat="45.3647625" lon="7.617187"><ele>587.0</ele><time>2026-04-18T08:54:54.051Z</time></trkpt><trkpt lat="45.3647891" lon="7.6173223"><ele>587.0</ele><time>2026-04-18T08:54:55.028Z</time></trkpt><trkpt lat="45.3648117" lon="7.617463"><ele>587.0</ele><time>2026-04-18T08:54:55.954Z</time></trkpt><trkpt lat="45.3648356" lon="7.6176206"><ele>587.0</ele><time>2026-04-18T08:54:56.954Z</time></trkpt><trkpt lat="45.3648537" lon="7.6177866"><ele>587.0</ele><time>2026-04-18T08:54:57.957Z</time></trkpt><trkpt lat="45.3648677" lon="7.6179458"><ele>587.0</ele><time>2026-04-18T08:54:58.947Z</time></trkpt><trkpt lat="45.3648761" lon="7.6181118"><ele>587.25</ele><time>2026-04-18T08:54:59.948Z</time></trkpt><trkpt lat="45.3648772" lon="7.6182787"><ele>587.5</ele><time>2026-04-18T08:55:00.953Z</time></trkpt><trkpt lat="45.3648625" lon="7.6184381"><ele>587.75</ele><time>2026-04-18T08:55:01.956Z</time></trkpt><trkpt lat="45.36484" lon="7.6185981"><ele>588.0</ele><time>2026-04-18T08:55:02.952Z</time></trkpt><trkpt lat="45.3648097" lon="7.6187563"><ele>586.75</ele><time>2026-04-18T08:55:03.954Z</time></trkpt><trkpt lat="45.3647787" lon="7.6189158"><ele>585.5</ele><time>2026-04-18T08:55:04.948Z</time></trkpt><trkpt lat="45.3647415" lon="7.6190706"><ele>584.25</ele><time>2026-04-18T08:55:05.942Z</time></trkpt><trkpt lat="45.3646959" lon="7.6192109"><ele>583.0</ele><time>2026-04-18T08:55:06.948Z</time></trkpt><trkpt lat="45.364646" lon="7.6193507"><ele>583.8</ele><time>2026-04-18T08:55:07.959Z</time></trkpt><trkpt lat="45.3645968" lon="7.6194922"><ele>584.5999999999999</ele><time>2026-04-18T08:55:08.952Z</time></trkpt><trkpt lat="45.364547" lon="7.6196292"><ele>585.4000000000001</ele><time>2026-04-18T08:55:09.953Z</time></trkpt><trkpt lat="45.3645" lon="7.6197598"><ele>586.2</ele><time>2026-04-18T08:55:10.948Z</time></trkpt><trkpt lat="45.3644517" lon="7.6198785"><ele>587.0</ele><time>2026-04-18T08:55:11.95Z</time></trkpt><trkpt lat="45.3644084" lon="7.6200046"><ele>587.0</ele><time>2026-04-18T08:55:13.011Z</time></trkpt><trkpt lat="45.3643662" lon="7.6201126"><ele>587.0</ele><time>2026-04-18T08:55:14.029Z</time></trkpt><trkpt lat="45.3643272" lon="7.6202026"><ele>587.0</ele><time>2026-04-18T08:55:15.035Z</time></trkpt><trkpt lat="45.3642737" lon="7.6202756"><ele>587.0</ele><time>2026-04-18T08:55:15.957Z</time></trkpt><trkpt lat="45.364211" lon="7.620326"><ele>587.0</ele><time>2026-04-18T08:55:16.954Z</time></trkpt><trkpt lat="45.3641549" lon="7.6203673"><ele>587.0</ele><time>2026-04-18T08:55:17.958Z</time></trkpt><trkpt lat="45.3640946" lon="7.6203939"><ele>587.0</ele><time>2026-04-18T08:55:18.959Z</time></trkpt><trkpt lat="45.3640294" lon="7.6204037"><ele>586.3333333333333</ele><time>2026-04-18T08:55:19.961Z</time></trkpt><trkpt lat="45.3639628" lon="7.6204121"><ele>585.6666666666666</ele><time>2026-04-18T08:55:20.964Z</time></trkpt><trkpt lat="45.3638562" lon="7.6204311"><ele>585.0</ele><time>2026-04-18T08:55:22.956Z</time></trkpt><trkpt lat="45.3637924" lon="7.6204303"><ele>584.3333333333334</ele><time>2026-04-18T08:55:23.96Z</time></trkpt><trkpt lat="45.363721" lon="7.6204378"><ele>583.6666666666667</ele><time>2026-04-18T08:55:25.034Z</time></trkpt><trkpt lat="45.3636414" lon="7.6204586"><ele>583.0</ele><time>2026-04-18T08:55:25.945Z</time></trkpt><trkpt lat="45.363559" lon="7.6205148"><ele>581.6</ele><time>2026-04-18T08:55:26.956Z</time></trkpt><trkpt lat="45.3634825" lon="7.6205983"><ele>580.1999999999999</ele><time>2026-04-18T08:55:27.962Z</time></trkpt><trkpt lat="45.3634005" lon="7.6206951"><ele>578.8</ele><time>2026-04-18T08:55:28.956Z</time></trkpt><trkpt lat="45.3633278" lon="7.6208103"><ele>577.4</ele><time>2026-04-18T08:55:30.031Z</time></trkpt><trkpt lat="45.3632556" lon="7.6209132"><ele>576.0</ele><time>2026-04-18T08:55:31.032Z</time></trkpt><trkpt lat="45.3631837" lon="7.6210072"><ele>576.0</ele><time>2026-04-18T08:55:31.949Z</time></trkpt><trkpt lat="45.3630915" lon="7.6210794"><ele>576.0</ele><time>2026-04-18T08:55:32.951Z</time></trkpt><trkpt lat="45.3630048" lon="7.6211432"><ele>576.0</ele><time>2026-04-18T08:55:33.946Z</time></trkpt><trkpt lat="45.3629239" lon="7.6212043"><ele>576.0</ele><time>2026-04-18T08:55:34.945Z</time></trkpt><trkpt lat="45.3628448" lon="7.6212817"><ele>576.0</ele><time>2026-04-18T08:55:35.948Z</time></trkpt><trkpt lat="45.3627839" lon="7.6213771"><ele>573.0</ele><time>2026-04-18T08:55:36.949Z</time></trkpt><trkpt lat="45.3627252" lon="7.6214904"><ele>570.0</ele><time>2026-04-18T08:55:37.944Z</time></trkpt><trkpt lat="45.362669" lon="7.6216128"><ele>567.0</ele><time>2026-04-18T08:55:38.94Z</time></trkpt><trkpt lat="45.3626044" lon="7.6217106"><ele>564.0</ele><time>2026-04-18T08:55:39.942Z</time></trkpt><trkpt lat="45.3625198" lon="7.6217774"><ele>561.0</ele><time>2026-04-18T08:55:40.938Z</time></trkpt><trkpt lat="45.3624319" lon="7.6218487"><ele>561.0</ele><time>2026-04-18T08:55:41.946Z</time></trkpt><trkpt lat="45.3623509" lon="7.6219406"><ele>561.0</ele><time>2026-04-18T08:55:43.049Z</time></trkpt><trkpt lat="45.3622699" lon="7.6220605"><ele>561.0</ele><time>2026-04-18T08:55:44.028Z</time></trkpt><trkpt lat="45.3621996" lon="7.6221853"><ele>561.0</ele><time>2026-04-18T08:55:45.029Z</time></trkpt><trkpt lat="45.3621315" lon="7.6223038"><ele>561.0</ele><time>2026-04-18T08:55:45.978Z</time></trkpt><trkpt lat="45.3620644" lon="7.6224221"><ele>557.4</ele><time>2026-04-18T08:55:46.963Z</time></trkpt><trkpt lat="45.362026" lon="7.6225659"><ele>553.8</ele><time>2026-04-18T08:55:47.957Z</time></trkpt><trkpt lat="45.3619891" lon="7.6227153"><ele>550.1999999999999</ele><time>2026-04-18T08:55:48.95Z</time></trkpt><trkpt lat="45.3619579" lon="7.6228498"><ele>546.6</ele><time>2026-04-18T08:55:49.955Z</time></trkpt><trkpt lat="45.3619235" lon="7.6229719"><ele>543.0</ele><time>2026-04-18T08:55:50.956Z</time></trkpt><trkpt lat="45.3618828" lon="7.623104"><ele>542.3333333333334</ele><time>2026-04-18T08:55:51.954Z</time></trkpt><trkpt lat="45.3618482" lon="7.6232314"><ele>541.6666666666666</ele><time>2026-04-18T08:55:52.955Z</time></trkpt><trkpt lat="45.3618354" lon="7.6233566"><ele>541.0</ele><time>2026-04-18T08:55:54.058Z</time></trkpt><trkpt lat="45.3618365" lon="7.6234755"><ele>540.3333333333333</ele><time>2026-04-18T08:55:55.028Z</time></trkpt><trkpt lat="45.3618406" lon="7.6235956"><ele>539.6666666666666</ele><time>2026-04-18T08:55:55.956Z</time></trkpt><trkpt lat="45.3618548" lon="7.6237254"><ele>539.0</ele><time>2026-04-18T08:55:56.952Z</time></trkpt><trkpt lat="45.3618684" lon="7.6238391"><ele>537.6</ele><time>2026-04-18T08:55:57.945Z</time></trkpt><trkpt lat="45.3618857" lon="7.6239474"><ele>536.2</ele><time>2026-04-18T08:55:58.949Z</time></trkpt><trkpt lat="45.3619269" lon="7.6241006"><ele>534.8000000000001</ele><time>2026-04-18T08:56:00.953Z</time></trkpt><trkpt lat="45.3619837" lon="7.6242411"><ele>533.4</ele><time>2026-04-18T08:56:03.033Z</time></trkpt><trkpt lat="45.3619865" lon="7.6244138"><ele>532.0</ele><time>2026-04-18T08:56:04.953Z</time></trkpt><trkpt lat="45.3619674" lon="7.624509"><ele>531.1666666666667</ele><time>2026-04-18T08:56:05.943Z</time></trkpt><trkpt lat="45.3619187" lon="7.6245923"><ele>530.3333333333334</ele><time>2026-04-18T08:56:07Z</time></trkpt><trkpt lat="45.3618589" lon="7.6246862"><ele>529.5</ele><time>2026-04-18T08:56:08.045Z</time></trkpt><trkpt lat="45.3618099" lon="7.6247722"><ele>528.6666666666666</ele><time>2026-04-18T08:56:08.949Z</time></trkpt><trkpt lat="45.3617841" lon="7.6248778"><ele>527.8333333333333</ele><time>2026-04-18T08:56:09.952Z</time></trkpt><trkpt lat="45.3617797" lon="7.6249783"><ele>527.0</ele><time>2026-04-18T08:56:10.95Z</time></trkpt><trkpt lat="45.3617836" lon="7.625081"><ele>527.0</ele><time>2026-04-18T08:56:11.952Z</time></trkpt><trkpt lat="45.3617989" lon="7.625186"><ele>527.0</ele><time>2026-04-18T08:56:13.035Z</time></trkpt><trkpt lat="45.3618355" lon="7.6252988"><ele>527.0</ele><time>2026-04-18T08:56:14.019Z</time></trkpt><trkpt lat="45.3618889" lon="7.6254213"><ele>527.0</ele><time>2026-04-18T08:56:15.025Z</time></trkpt><trkpt lat="45.3619375" lon="7.6255196"><ele>527.0</ele><time>2026-04-18T08:56:15.954Z</time></trkpt><trkpt lat="45.361983" lon="7.6256065"><ele>527.0</ele><time>2026-04-18T08:56:16.956Z</time></trkpt><trkpt lat="45.3620228" lon="7.6257002"><ele>524.8000000000001</ele><time>2026-04-18T08:56:17.949Z</time></trkpt><trkpt lat="45.3620666" lon="7.625851"><ele>522.6</ele><time>2026-04-18T08:56:19.959Z</time></trkpt><trkpt lat="45.3620263" lon="7.6259513"><ele>520.4000000000001</ele><time>2026-04-18T08:56:21.958Z</time></trkpt><trkpt lat="45.3619184" lon="7.6260361"><ele>518.2</ele><time>2026-04-18T08:56:23.978Z</time></trkpt><trkpt lat="45.3618633" lon="7.626135"><ele>516.0</ele><time>2026-04-18T08:56:24.954Z</time></trkpt><trkpt lat="45.3618219" lon="7.6262404"><ele>515.1666666666666</ele><time>2026-04-18T08:56:25.951Z</time></trkpt><trkpt lat="45.361801" lon="7.6263496"><ele>514.3333333333334</ele><time>2026-04-18T08:56:26.956Z</time></trkpt><trkpt lat="45.3618043" lon="7.6264454"><ele>513.5</ele><time>2026-04-18T08:56:27.957Z</time></trkpt><trkpt lat="45.3618207" lon="7.6265377"><ele>512.6666666666667</ele><time>2026-04-18T08:56:28.956Z</time></trkpt><trkpt lat="45.3618692" lon="7.6266258"><ele>511.83333333333337</ele><time>2026-04-18T08:56:29.956Z</time></trkpt><trkpt lat="45.3619312" lon="7.6267126"><ele>511.0</ele><time>2026-04-18T08:56:31.033Z</time></trkpt><trkpt lat="45.3619927" lon="7.6267822"><ele>511.00000000000006</ele><time>2026-04-18T08:56:31.946Z</time></trkpt><trkpt lat="45.3620468" lon="7.6268443"><ele>511.0</ele><time>2026-04-18T08:56:32.955Z</time></trkpt><trkpt lat="45.362078" lon="7.6269364"><ele>511.0</ele><time>2026-04-18T08:56:33.949Z</time></trkpt><trkpt lat="45.362076" lon="7.6270462"><ele>511.0</ele><time>2026-04-18T08:56:34.948Z</time></trkpt><trkpt lat="45.3620569" lon="7.6271671"><ele>511.00000000000006</ele><time>2026-04-18T08:56:35.952Z</time></trkpt><trkpt lat="45.3620663" lon="7.6272771"><ele>511.0</ele><time>2026-04-18T08:56:36.945Z</time></trkpt><trkpt lat="45.362112" lon="7.6273884"><ele>509.0</ele><time>2026-04-18T08:56:38.022Z</time></trkpt><trkpt lat="45.362187" lon="7.6275409"><ele>507.0</ele><time>2026-04-18T08:56:39.028Z</time></trkpt><trkpt lat="45.3622753" lon="7.6276816"><ele>505.0</ele><time>2026-04-18T08:56:39.974Z</time></trkpt><trkpt lat="45.3623328" lon="7.6277896"><ele>503.0</ele><time>2026-04-18T08:56:40.956Z</time></trkpt><trkpt lat="45.3623703" lon="7.6278764"><ele>501.0</ele><time>2026-04-18T08:56:41.948Z</time></trkpt><trkpt lat="45.3623857" lon="7.6279795"><ele>507.20000000000005</ele><time>2026-04-18T08:56:42.947Z</time></trkpt><trkpt lat="45.3623839" lon="7.6280832"><ele>513.4000000000001</ele><time>2026-04-18T08:56:43.948Z</time></trkpt><trkpt lat="45.3623733" lon="7.6282024"><ele>519.6</ele><time>2026-04-18T08:56:44.949Z</time></trkpt><trkpt lat="45.3623364" lon="7.6283283"><ele>525.8000000000001</ele><time>2026-04-18T08:56:45.95Z</time></trkpt><trkpt lat="45.3622843" lon="7.6284686"><ele>532.0</ele><time>2026-04-18T08:56:46.942Z</time></trkpt><trkpt lat="45.3622479" lon="7.6286088"><ele>533.4</ele><time>2026-04-18T08:56:47.955Z</time></trkpt><trkpt lat="45.3622277" lon="7.6287399"><ele>534.8000000000001</ele><time>2026-04-18T08:56:48.939Z</time></trkpt><trkpt lat="45.3622035" lon="7.6288592"><ele>536.2</ele><time>2026-04-18T08:56:50.022Z</time></trkpt><trkpt lat="45.3621727" lon="7.6289854"><ele>537.6</ele><time>2026-04-18T08:56:51.036Z</time></trkpt><trkpt lat="45.3621351" lon="7.6291005"><ele>539.0</ele><time>2026-04-18T08:56:51.949Z</time></trkpt><trkpt lat="45.362076" lon="7.6291996"><ele>531.4</ele><time>2026-04-18T08:56:52.953Z</time></trkpt><trkpt lat="45.3620092" lon="7.6293177"><ele>523.8</ele><time>2026-04-18T08:56:53.945Z</time></trkpt><trkpt lat="45.3619632" lon="7.6294313"><ele>516.2</ele><time>2026-04-18T08:56:55.037Z</time></trkpt><trkpt lat="45.3619193" lon="7.6295378"><ele>508.6</ele><time>2026-04-18T08:56:56.032Z</time></trkpt><trkpt lat="45.3618747" lon="7.6296449"><ele>501.0</ele><time>2026-04-18T08:56:56.977Z</time></trkpt><trkpt lat="45.3618459" lon="7.6297549"><ele>501.0</ele><time>2026-04-18T08:56:58.029Z</time></trkpt><trkpt lat="45.3618356" lon="7.6298796"><ele>501.0</ele><time>2026-04-18T08:56:59.028Z</time></trkpt><trkpt lat="45.3618339" lon="7.6300061"><ele>501.0</ele><time>2026-04-18T08:57:00.032Z</time></trkpt><trkpt lat="45.3618468" lon="7.6301285"><ele>501.0</ele><time>2026-04-18T08:57:01.029Z</time></trkpt><trkpt lat="45.3618634" lon="7.630262"><ele>501.0</ele><time>2026-04-18T08:57:01.95Z</time></trkpt><trkpt lat="45.3618886" lon="7.6303995"><ele>498.4</ele><time>2026-04-18T08:57:03.03Z</time></trkpt><trkpt lat="45.3619239" lon="7.6305312"><ele>495.8</ele><time>2026-04-18T08:57:04.035Z</time></trkpt><trkpt lat="45.3619665" lon="7.6306443"><ele>493.19999999999993</ele><time>2026-04-18T08:57:05.032Z</time></trkpt><trkpt lat="45.3620048" lon="7.630768"><ele>490.59999999999997</ele><time>2026-04-18T08:57:05.95Z</time></trkpt><trkpt lat="45.3620376" lon="7.6308825"><ele>488.0</ele><time>2026-04-18T08:57:06.942Z</time></trkpt><trkpt lat="45.3620687" lon="7.6309871"><ele>488.0</ele><time>2026-04-18T08:57:07.945Z</time></trkpt><trkpt lat="45.3621347" lon="7.6310921"><ele>487.99999999999994</ele><time>2026-04-18T08:57:08.946Z</time></trkpt><trkpt lat="45.3622121" lon="7.6311825"><ele>487.99999999999994</ele><time>2026-04-18T08:57:09.976Z</time></trkpt><trkpt lat="45.3622931" lon="7.6312825"><ele>488.0</ele><time>2026-04-18T08:57:10.951Z</time></trkpt><trkpt lat="45.3623747" lon="7.6313694"><ele>488.0</ele><time>2026-04-18T08:57:11.948Z</time></trkpt><trkpt lat="45.3624388" lon="7.6314737"><ele>488.16666666666663</ele><time>2026-04-18T08:57:12.947Z</time></trkpt><trkpt lat="45.3624872" lon="7.6315824"><ele>488.3333333333333</ele><time>2026-04-18T08:57:13.947Z</time></trkpt><trkpt lat="45.3625366" lon="7.6317032"><ele>488.5</ele><time>2026-04-18T08:57:14.947Z</time></trkpt><trkpt lat="45.3625951" lon="7.6318124"><ele>488.66666666666663</ele><time>2026-04-18T08:57:15.95Z</time></trkpt><trkpt lat="45.3626401" lon="7.6318967"><ele>488.8333333333333</ele><time>2026-04-18T08:57:16.941Z</time></trkpt><trkpt lat="45.362681" lon="7.6319911"><ele>489.0</ele><time>2026-04-18T08:57:17.94Z</time></trkpt><trkpt lat="45.3627174" lon="7.632085"><ele>489.0</ele><time>2026-04-18T08:57:19.032Z</time></trkpt><trkpt lat="45.362747" lon="7.6321897"><ele>489.0</ele><time>2026-04-18T08:57:20.026Z</time></trkpt><trkpt lat="45.3627334" lon="7.6323009"><ele>489.0</ele><time>2026-04-18T08:57:20.975Z</time></trkpt><trkpt lat="45.3626856" lon="7.6324251"><ele>489.0</ele><time>2026-04-18T08:57:21.954Z</time></trkpt><trkpt lat="45.362637" lon="7.6325392"><ele>489.0</ele><time>2026-04-18T08:57:22.953Z</time></trkpt><trkpt lat="45.3625938" lon="7.6326506"><ele>489.0</ele><time>2026-04-18T08:57:23.954Z</time></trkpt><trkpt lat="45.3625695" lon="7.6327433"><ele>487.4</ele><time>2026-04-18T08:57:24.953Z</time></trkpt><trkpt lat="45.3626069" lon="7.6329137"><ele>485.79999999999995</ele><time>2026-04-18T08:57:26.952Z</time></trkpt><trkpt lat="45.3626586" lon="7.6330275"><ele>484.20000000000005</ele><time>2026-04-18T08:57:28.032Z</time></trkpt><trkpt lat="45.362704" lon="7.6331426"><ele>482.6</ele><time>2026-04-18T08:57:29.032Z</time></trkpt><trkpt lat="45.3627571" lon="7.6332451"><ele>481.0</ele><time>2026-04-18T08:57:29.97Z</time></trkpt><trkpt lat="45.3628405" lon="7.6333299"><ele>481.0</ele><time>2026-04-18T08:57:30.956Z</time></trkpt><trkpt lat="45.3629466" lon="7.6334172"><ele>481.0</ele><time>2026-04-18T08:57:31.956Z</time></trkpt><trkpt lat="45.3630531" lon="7.63348"><ele>481.0</ele><time>2026-04-18T08:57:32.948Z</time></trkpt><trkpt lat="45.3631408" lon="7.6335102"><ele>481.0</ele><time>2026-04-18T08:57:33.953Z</time></trkpt><trkpt lat="45.3632052" lon="7.633572"><ele>481.0</ele><time>2026-04-18T08:57:34.951Z</time></trkpt><trkpt lat="45.3632596" lon="7.6336394"><ele>484.25</ele><time>2026-04-18T08:57:35.961Z</time></trkpt><trkpt lat="45.3632965" lon="7.6337415"><ele>487.5</ele><time>2026-04-18T08:57:36.949Z</time></trkpt><trkpt lat="45.3633319" lon="7.6339241"><ele>490.75</ele><time>2026-04-18T08:57:37.956Z</time></trkpt><trkpt lat="45.363371" lon="7.6341117"><ele>494.0</ele><time>2026-04-18T08:57:38.948Z</time></trkpt><trkpt lat="45.3634062" lon="7.6342603"><ele>494.0</ele><time>2026-04-18T08:57:39.956Z</time></trkpt><trkpt lat="45.36343" lon="7.6343742"><ele>494.0</ele><time>2026-04-18T08:57:40.959Z</time></trkpt><trkpt lat="45.3633809" lon="7.634519"><ele>494.0</ele><time>2026-04-18T08:57:43.065Z</time></trkpt><trkpt lat="45.3633162" lon="7.6345843"><ele>494.0</ele><time>2026-04-18T08:57:44.023Z</time></trkpt><trkpt lat="45.3632045" lon="7.6346583"><ele>494.0</ele><time>2026-04-18T08:57:44.983Z</time></trkpt><trkpt lat="45.3630903" lon="7.6347535"><ele>492.8333333333333</ele><time>2026-04-18T08:57:46.032Z</time></trkpt><trkpt lat="45.3629884" lon="7.6348365"><ele>491.66666666666663</ele><time>2026-04-18T08:57:46.95Z</time></trkpt><trkpt lat="45.3629104" lon="7.6349295"><ele>490.5</ele><time>2026-04-18T08:57:48.033Z</time></trkpt><trkpt lat="45.3628528" lon="7.6350083"><ele>489.33333333333337</ele><time>2026-04-18T08:57:49.027Z</time></trkpt><trkpt lat="45.3628085" lon="7.6350819"><ele>488.1666666666667</ele><time>2026-04-18T08:57:50.034Z</time></trkpt><trkpt lat="45.3627573" lon="7.6351434"><ele>487.0</ele><time>2026-04-18T08:57:51.035Z</time></trkpt><trkpt lat="45.3626927" lon="7.6351921"><ele>487.0</ele><time>2026-04-18T08:57:51.968Z</time></trkpt><trkpt lat="45.3626148" lon="7.6352392"><ele>487.00000000000006</ele><time>2026-04-18T08:57:53.029Z</time></trkpt><trkpt lat="45.3625425" lon="7.635297"><ele>487.00000000000006</ele><time>2026-04-18T08:57:54.015Z</time></trkpt><trkpt lat="45.3624614" lon="7.635354"><ele>487.0</ele><time>2026-04-18T08:57:55.043Z</time></trkpt><trkpt lat="45.3623907" lon="7.6354193"><ele>487.0</ele><time>2026-04-18T08:57:56.07Z</time></trkpt><trkpt lat="45.3622531" lon="7.6355424"><ele>487.00000000000006</ele><time>2026-04-18T08:57:58.029Z</time></trkpt><trkpt lat="45.3621971" lon="7.6356275"><ele>487.0</ele><time>2026-04-18T08:57:59.043Z</time></trkpt><trkpt lat="45.3621457" lon="7.6357363"><ele>487.0</ele><time>2026-04-18T08:58:00.024Z</time></trkpt><trkpt lat="45.362095" lon="7.6358272"><ele>487.0</ele><time>2026-04-18T08:58:00.939Z</time></trkpt><trkpt lat="45.362028" lon="7.6359113"><ele>487.00000000000006</ele><time>2026-04-18T08:58:01.953Z</time></trkpt><trkpt lat="45.3619588" lon="7.6359747"><ele>487.0</ele><time>2026-04-18T08:58:02.954Z</time></trkpt><trkpt lat="45.361909" lon="7.6360335"><ele>487.0</ele><time>2026-04-18T08:58:03.951Z</time></trkpt><trkpt lat="45.361819" lon="7.636098"><ele>487.00000000000006</ele><time>2026-04-18T08:58:05.945Z</time></trkpt><trkpt lat="45.3617656" lon="7.6360039"><ele>487.00000000000006</ele><time>2026-04-18T08:58:07.947Z</time></trkpt><trkpt lat="45.3617279" lon="7.6358679"><ele>487.0</ele><time>2026-04-18T08:58:09.951Z</time></trkpt><trkpt lat="45.3616826" lon="7.6357985"><ele>487.0</ele><time>2026-04-18T08:58:10.947Z</time></trkpt><trkpt lat="45.361584" lon="7.6357684"><ele>487.0</ele><time>2026-04-18T08:58:12.952Z</time></trkpt><trkpt lat="45.3615215" lon="7.6358043"><ele>487.00000000000006</ele><time>2026-04-18T08:58:13.946Z</time></trkpt><trkpt lat="45.3614461" lon="7.6358482"><ele>487.00000000000006</ele><time>2026-04-18T08:58:14.948Z</time></trkpt><trkpt lat="45.3613581" lon="7.6359155"><ele>487.0</ele><time>2026-04-18T08:58:15.948Z</time></trkpt><trkpt lat="45.3612473" lon="7.6359763"><ele>487.0</ele><time>2026-04-18T08:58:16.949Z</time></trkpt><trkpt lat="45.3611107" lon="7.6360332"><ele>484.25</ele><time>2026-04-18T08:58:17.954Z</time></trkpt><trkpt lat="45.3609659" lon="7.636087"><ele>481.5</ele><time>2026-04-18T08:58:18.952Z</time></trkpt><trkpt lat="45.3608339" lon="7.6361678"><ele>478.75</ele><time>2026-04-18T08:58:19.953Z</time></trkpt><trkpt lat="45.3607064" lon="7.6362343"><ele>476.0</ele><time>2026-04-18T08:58:20.955Z</time></trkpt><trkpt lat="45.3605834" lon="7.6362842"><ele>474.8333333333333</ele><time>2026-04-18T08:58:21.949Z</time></trkpt><trkpt lat="45.3604813" lon="7.6363474"><ele>473.66666666666663</ele><time>2026-04-18T08:58:22.952Z</time></trkpt><trkpt lat="45.3603916" lon="7.6364067"><ele>472.5</ele><time>2026-04-18T08:58:23.949Z</time></trkpt><trkpt lat="45.3603146" lon="7.6364656"><ele>471.33333333333337</ele><time>2026-04-18T08:58:24.951Z</time></trkpt><trkpt lat="45.360257" lon="7.6365102"><ele>470.1666666666667</ele><time>2026-04-18T08:58:25.944Z</time></trkpt><trkpt lat="45.3603415" lon="7.6365266"><ele>469.0</ele><time>2026-04-18T08:58:33.947Z</time></trkpt><trkpt lat="45.3604679" lon="7.6364833"><ele>469.33333333333337</ele><time>2026-04-18T08:58:35.951Z</time></trkpt><trkpt lat="45.360545" lon="7.6364672"><ele>469.6666666666667</ele><time>2026-04-18T08:58:36.953Z</time></trkpt><trkpt lat="45.3606133" lon="7.636473"><ele>470.0</ele><time>2026-04-18T08:58:37.955Z</time></trkpt><trkpt lat="45.3606974" lon="7.6365135"><ele>470.33333333333337</ele><time>2026-04-18T08:58:39.954Z</time></trkpt><trkpt lat="45.3607046" lon="7.6366618"><ele>470.6666666666667</ele><time>2026-04-18T08:58:42.949Z</time></trkpt><trkpt lat="45.3607065" lon="7.6368018"><ele>471.0</ele><time>2026-04-18T08:58:44.956Z</time></trkpt><trkpt lat="45.3607412" lon="7.6369334"><ele>468.4</ele><time>2026-04-18T08:58:46.955Z</time></trkpt><trkpt lat="45.3608037" lon="7.6370699"><ele>465.8</ele><time>2026-04-18T08:58:48.955Z</time></trkpt><trkpt lat="45.3608612" lon="7.6372033"><ele>463.19999999999993</ele><time>2026-04-18T08:58:50.957Z</time></trkpt><trkpt lat="45.3608858" lon="7.6373402"><ele>460.59999999999997</ele><time>2026-04-18T08:58:52.949Z</time></trkpt><trkpt lat="45.36094" lon="7.6374679"><ele>458.0</ele><time>2026-04-18T08:58:54.949Z</time></trkpt><trkpt lat="45.3610019" lon="7.6375801"><ele>458.0</ele><time>2026-04-18T08:58:56.956Z</time></trkpt><trkpt lat="45.3610939" lon="7.6376322"><ele>457.99999999999994</ele><time>2026-04-18T08:58:59.952Z</time></trkpt><trkpt lat="45.3612077" lon="7.6376359"><ele>457.99999999999994</ele><time>2026-04-18T08:59:01.956Z</time></trkpt><trkpt lat="45.3613132" lon="7.6376717"><ele>458.0</ele><time>2026-04-18T08:59:03.951Z</time></trkpt><trkpt lat="45.3613751" lon="7.6377765"><ele>458.0</ele><time>2026-04-18T08:59:06.945Z</time></trkpt><trkpt lat="45.3613902" lon="7.6379283"><ele>457.16666666666663</ele><time>2026-04-18T08:59:09.036Z</time></trkpt><trkpt lat="45.3613863" lon="7.6380578"><ele>456.3333333333333</ele><time>2026-04-18T08:59:09.96Z</time></trkpt><trkpt lat="45.3613561" lon="7.6381778"><ele>455.5</ele><time>2026-04-18T08:59:11.034Z</time></trkpt><trkpt lat="45.36133" lon="7.638271"><ele>454.66666666666663</ele><time>2026-04-18T08:59:11.967Z</time></trkpt><trkpt lat="45.3613051" lon="7.6383652"><ele>453.8333333333333</ele><time>2026-04-18T08:59:13.016Z</time></trkpt><trkpt lat="45.3612794" lon="7.6384621"><ele>453.0</ele><time>2026-04-18T08:59:13.956Z</time></trkpt><trkpt lat="45.361248" lon="7.6385622"><ele>452.0</ele><time>2026-04-18T08:59:14.957Z</time></trkpt><trkpt lat="45.3612167" lon="7.6386457"><ele>451.0</ele><time>2026-04-18T08:59:15.953Z</time></trkpt><trkpt lat="45.3611534" lon="7.6387575"><ele>450.0</ele><time>2026-04-18T08:59:17.959Z</time></trkpt><trkpt lat="45.3610807" lon="7.6387996"><ele>449.0</ele><time>2026-04-18T08:59:19.954Z</time></trkpt><trkpt lat="45.3609969" lon="7.6388366"><ele>448.0</ele><time>2026-04-18T08:59:21.955Z</time></trkpt><trkpt lat="45.3609512" lon="7.6389034"><ele>447.0</ele><time>2026-04-18T08:59:23.954Z</time></trkpt><trkpt lat="45.3609129" lon="7.6390169"><ele>447.0</ele><time>2026-04-18T08:59:25.967Z</time></trkpt><trkpt lat="45.3608729" lon="7.6391184"><ele>447.00000000000006</ele><time>2026-04-18T08:59:27.961Z</time></trkpt><trkpt lat="45.360871" lon="7.6392132"><ele>447.00000000000006</ele><time>2026-04-18T08:59:28.96Z</time></trkpt><trkpt lat="45.3609062" lon="7.6393621"><ele>447.0</ele><time>2026-04-18T08:59:30.954Z</time></trkpt><trkpt lat="45.360932" lon="7.639521"><ele>447.0</ele><time>2026-04-18T08:59:32.953Z</time></trkpt><trkpt lat="45.3609574" lon="7.6396605"><ele>445.40000000000003</ele><time>2026-04-18T08:59:35.033Z</time></trkpt><trkpt lat="45.3609797" lon="7.6398147"><ele>443.80000000000007</ele><time>2026-04-18T08:59:36.948Z</time></trkpt><trkpt lat="45.3609759" lon="7.6399053"><ele>442.2</ele><time>2026-04-18T08:59:37.95Z</time></trkpt><trkpt lat="45.3609949" lon="7.640081"><ele>440.6</ele><time>2026-04-18T08:59:40.033Z</time></trkpt><trkpt lat="45.3610091" lon="7.6402338"><ele>439.0</ele><time>2026-04-18T08:59:41.956Z</time></trkpt><trkpt lat="45.3609931" lon="7.6404279"><ele>436.83333333333337</ele><time>2026-04-18T08:59:43.959Z</time></trkpt><trkpt lat="45.3609892" lon="7.6405327"><ele>434.6666666666667</ele><time>2026-04-18T08:59:44.962Z</time></trkpt><trkpt lat="45.3609946" lon="7.6406405"><ele>432.5</ele><time>2026-04-18T08:59:45.95Z</time></trkpt><trkpt lat="45.3609676" lon="7.6408178"><ele>430.33333333333337</ele><time>2026-04-18T08:59:47.959Z</time></trkpt><trkpt lat="45.3609524" lon="7.6409048"><ele>428.1666666666667</ele><time>2026-04-18T08:59:48.962Z</time></trkpt><trkpt lat="45.3609401" lon="7.6410019"><ele>426.0</ele><time>2026-04-18T08:59:49.954Z</time></trkpt><trkpt lat="45.3609247" lon="7.641091"><ele>425.1666666666667</ele><time>2026-04-18T08:59:50.959Z</time></trkpt><trkpt lat="45.3608906" lon="7.6411664"><ele>424.33333333333337</ele><time>2026-04-18T08:59:51.967Z</time></trkpt><trkpt lat="45.3608411" lon="7.6412402"><ele>423.5</ele><time>2026-04-18T08:59:53.029Z</time></trkpt><trkpt lat="45.3607891" lon="7.6413092"><ele>422.6666666666667</ele><time>2026-04-18T08:59:54.028Z</time></trkpt><trkpt lat="45.360737" lon="7.6413821"><ele>421.83333333333337</ele><time>2026-04-18T08:59:55.012Z</time></trkpt><trkpt lat="45.3606871" lon="7.6414479"><ele>421.0</ele><time>2026-04-18T08:59:55.944Z</time></trkpt><trkpt lat="45.3605959" lon="7.6415584"><ele>419.50000000000006</ele><time>2026-04-18T08:59:57.966Z</time></trkpt><trkpt lat="45.3604991" lon="7.6416473"><ele>418.0</ele><time>2026-04-18T09:00:00.037Z</time></trkpt><trkpt lat="45.360435" lon="7.6417022"><ele>416.5</ele><time>2026-04-18T09:00:01.031Z</time></trkpt><trkpt lat="45.3603744" lon="7.6417656"><ele>415.0</ele><time>2026-04-18T09:00:01.959Z</time></trkpt><trkpt lat="45.3603087" lon="7.6418086"><ele>413.50000000000006</ele><time>2026-04-18T09:00:02.956Z</time></trkpt><trkpt lat="45.3602534" lon="7.6418662"><ele>412.0</ele><time>2026-04-18T09:00:03.965Z</time></trkpt><trkpt lat="45.3602034" lon="7.6419208"><ele>413.0</ele><time>2026-04-18T09:00:05.032Z</time></trkpt><trkpt lat="45.3601566" lon="7.6419902"><ele>414.0</ele><time>2026-04-18T09:00:06.034Z</time></trkpt><trkpt lat="45.3601091" lon="7.6420661"><ele>415.0</ele><time>2026-04-18T09:00:06.964Z</time></trkpt><trkpt lat="45.3600516" lon="7.6422092"><ele>416.0</ele><time>2026-04-18T09:00:08.961Z</time></trkpt><trkpt lat="45.3600067" lon="7.6423597"><ele>417.0</ele><time>2026-04-18T09:00:11.026Z</time></trkpt><trkpt lat="45.3599909" lon="7.6424982"><ele>417.0</ele><time>2026-04-18T09:00:12.972Z</time></trkpt><trkpt lat="45.3599468" lon="7.6426231"><ele>417.0</ele><time>2026-04-18T09:00:15.023Z</time></trkpt><trkpt lat="45.3599074" lon="7.6427184"><ele>417.0</ele><time>2026-04-18T09:00:16.968Z</time></trkpt><trkpt lat="45.359897" lon="7.6428149"><ele>417.0</ele><time>2026-04-18T09:00:18.957Z</time></trkpt><trkpt lat="45.3599035" lon="7.6429527"><ele>417.0</ele><time>2026-04-18T09:00:21.963Z</time></trkpt><trkpt lat="45.3599344" lon="7.6430534"><ele>417.0</ele><time>2026-04-18T09:00:23.972Z</time></trkpt><trkpt lat="45.35998" lon="7.643155"><ele>414.8</ele><time>2026-04-18T09:00:25.963Z</time></trkpt><trkpt lat="45.3600445" lon="7.6432877"><ele>412.6</ele><time>2026-04-18T09:00:27.966Z</time></trkpt><trkpt lat="45.3600841" lon="7.643413"><ele>410.40000000000003</ele><time>2026-04-18T09:00:29.969Z</time></trkpt><trkpt lat="45.3600776" lon="7.643524"><ele>408.20000000000005</ele><time>2026-04-18T09:00:31.969Z</time></trkpt><trkpt lat="45.3600625" lon="7.6436578"><ele>406.0</ele><time>2026-04-18T09:00:33.965Z</time></trkpt><trkpt lat="45.3600311" lon="7.6437805"><ele>403.33333333333337</ele><time>2026-04-18T09:00:36.033Z</time></trkpt><trkpt lat="45.3600338" lon="7.6438867"><ele>400.6666666666667</ele><time>2026-04-18T09:00:37.963Z</time></trkpt><trkpt lat="45.3600385" lon="7.6440578"><ele>398.0</ele><time>2026-04-18T09:00:39.97Z</time></trkpt><trkpt lat="45.3600554" lon="7.6441566"><ele>395.33333333333337</ele><time>2026-04-18T09:00:40.967Z</time></trkpt><trkpt lat="45.360075" lon="7.6442575"><ele>392.6666666666667</ele><time>2026-04-18T09:00:41.97Z</time></trkpt><trkpt lat="45.3601003" lon="7.6443451"><ele>390.0</ele><time>2026-04-18T09:00:42.97Z</time></trkpt><trkpt lat="45.3601315" lon="7.6444351"><ele>387.5</ele><time>2026-04-18T09:00:44.036Z</time></trkpt><trkpt lat="45.3601607" lon="7.6445189"><ele>385.0</ele><time>2026-04-18T09:00:45.025Z</time></trkpt><trkpt lat="45.360196" lon="7.6446086"><ele>382.5</ele><time>2026-04-18T09:00:46.024Z</time></trkpt><trkpt lat="45.3602367" lon="7.644704"><ele>380.0</ele><time>2026-04-18T09:00:46.958Z</time></trkpt><trkpt lat="45.3602762" lon="7.6448077"><ele>377.5</ele><time>2026-04-18T09:00:47.963Z</time></trkpt><trkpt lat="45.3603052" lon="7.6449232"><ele>375.0</ele><time>2026-04-18T09:00:48.96Z</time></trkpt><trkpt lat="45.3603402" lon="7.6450334"><ele>375.0</ele><time>2026-04-18T09:00:49.965Z</time></trkpt><trkpt lat="45.3603686" lon="7.6451496"><ele>375.0</ele><time>2026-04-18T09:00:50.965Z</time></trkpt><trkpt lat="45.3603933" lon="7.6452718"><ele>375.0</ele><time>2026-04-18T09:00:51.961Z</time></trkpt><trkpt lat="45.360425" lon="7.645383"><ele>375.0</ele><time>2026-04-18T09:00:52.961Z</time></trkpt><trkpt lat="45.3604562" lon="7.6454945"><ele>375.0</ele><time>2026-04-18T09:00:54.079Z</time></trkpt><trkpt lat="45.3605269" lon="7.6457008"><ele>374.6666666666667</ele><time>2026-04-18T09:00:55.964Z</time></trkpt><trkpt lat="45.3605681" lon="7.6457959"><ele>374.3333333333333</ele><time>2026-04-18T09:00:56.966Z</time></trkpt><trkpt lat="45.3606094" lon="7.6458857"><ele>374.0</ele><time>2026-04-18T09:00:57.96Z</time></trkpt><trkpt lat="45.3606601" lon="7.6459754"><ele>373.66666666666663</ele><time>2026-04-18T09:00:58.969Z</time></trkpt><trkpt lat="45.3607087" lon="7.6460642"><ele>373.3333333333333</ele><time>2026-04-18T09:00:59.969Z</time></trkpt><trkpt lat="45.3607581" lon="7.6461492"><ele>373.0</ele><time>2026-04-18T09:01:01.038Z</time></trkpt><trkpt lat="45.3607972" lon="7.646226"><ele>373.0</ele><time>2026-04-18T09:01:01.953Z</time></trkpt><trkpt lat="45.360834" lon="7.6463125"><ele>373.0</ele><time>2026-04-18T09:01:02.954Z</time></trkpt><trkpt lat="45.360873" lon="7.6463964"><ele>373.0</ele><time>2026-04-18T09:01:03.977Z</time></trkpt><trkpt lat="45.3608956" lon="7.6464811"><ele>373.0</ele><time>2026-04-18T09:01:04.959Z</time></trkpt><trkpt lat="45.3608981" lon="7.646585"><ele>373.0</ele><time>2026-04-18T09:01:05.96Z</time></trkpt><trkpt lat="45.3608929" lon="7.6466964"><ele>373.0</ele><time>2026-04-18T09:01:06.962Z</time></trkpt><trkpt lat="45.3608787" lon="7.6468233"><ele>373.0</ele><time>2026-04-18T09:01:07.966Z</time></trkpt><trkpt lat="45.3608625" lon="7.6469359"><ele>372.4</ele><time>2026-04-18T09:01:08.953Z</time></trkpt><trkpt lat="45.3608363" lon="7.6470347"><ele>371.79999999999995</ele><time>2026-04-18T09:01:09.955Z</time></trkpt><trkpt lat="45.3607797" lon="7.6471712"><ele>371.2</ele><time>2026-04-18T09:01:11.96Z</time></trkpt><trkpt lat="45.3607185" lon="7.6472258"><ele>370.6</ele><time>2026-04-18T09:01:13.962Z</time></trkpt><trkpt lat="45.3605605" lon="7.6471915"><ele>370.0</ele><time>2026-04-18T09:01:15.962Z</time></trkpt><trkpt lat="45.3604314" lon="7.647118"><ele>369.66666666666663</ele><time>2026-04-18T09:01:16.96Z</time></trkpt><trkpt lat="45.360287" lon="7.6470271"><ele>369.3333333333333</ele><time>2026-04-18T09:01:17.964Z</time></trkpt><trkpt lat="45.360129" lon="7.6469114"><ele>369.0</ele><time>2026-04-18T09:01:18.955Z</time></trkpt><trkpt lat="45.3599493" lon="7.6467661"><ele>369.0</ele><time>2026-04-18T09:01:19.961Z</time></trkpt><trkpt lat="45.3597796" lon="7.6466518"><ele>369.0</ele><time>2026-04-18T09:01:20.961Z</time></trkpt><trkpt lat="45.3596302" lon="7.646562"><ele>369.0</ele><time>2026-04-18T09:01:21.966Z</time></trkpt><trkpt lat="45.3594836" lon="7.6464638"><ele>369.0</ele><time>2026-04-18T09:01:22.968Z</time></trkpt><trkpt lat="45.3593469" lon="7.6463572"><ele>369.0</ele><time>2026-04-18T09:01:23.962Z</time></trkpt><trkpt lat="45.3592205" lon="7.6462489"><ele>369.0</ele><time>2026-04-18T09:01:24.956Z</time></trkpt><trkpt lat="45.3591024" lon="7.6461332"><ele>369.0</ele><time>2026-04-18T09:01:25.965Z</time></trkpt><trkpt lat="45.3589848" lon="7.6460167"><ele>368.0</ele><time>2026-04-18T09:01:26.963Z</time></trkpt><trkpt lat="45.3588626" lon="7.6459142"><ele>367.0</ele><time>2026-04-18T09:01:27.958Z</time></trkpt><trkpt lat="45.3587422" lon="7.6458164"><ele>366.0</ele><time>2026-04-18T09:01:28.961Z</time></trkpt><trkpt lat="45.3586204" lon="7.6457374"><ele>365.0</ele><time>2026-04-18T09:01:29.961Z</time></trkpt><trkpt lat="45.358512" lon="7.6456508"><ele>365.0</ele><time>2026-04-18T09:01:30.975Z</time></trkpt><trkpt lat="45.3584064" lon="7.6455557"><ele>365.0</ele><time>2026-04-18T09:01:31.96Z</time></trkpt><trkpt lat="45.3583086" lon="7.6454597"><ele>365.0</ele><time>2026-04-18T09:01:32.961Z</time></trkpt><trkpt lat="45.3582187" lon="7.6453359"><ele>365.0</ele><time>2026-04-18T09:01:33.966Z</time></trkpt><trkpt lat="45.3581408" lon="7.6452052"><ele>365.25</ele><time>2026-04-18T09:01:34.963Z</time></trkpt><trkpt lat="45.3580627" lon="7.6450649"><ele>365.5</ele><time>2026-04-18T09:01:35.96Z</time></trkpt><trkpt lat="45.357984" lon="7.6449213"><ele>365.75</ele><time>2026-04-18T09:01:36.961Z</time></trkpt><trkpt lat="45.3579077" lon="7.6448026"><ele>366.0</ele><time>2026-04-18T09:01:37.962Z</time></trkpt><trkpt lat="45.3578245" lon="7.644708"><ele>366.0</ele><time>2026-04-18T09:01:39.029Z</time></trkpt><trkpt lat="45.3577418" lon="7.644625"><ele>366.0</ele><time>2026-04-18T09:01:40.046Z</time></trkpt><trkpt lat="45.357659" lon="7.6445619"><ele>366.0</ele><time>2026-04-18T09:01:41.027Z</time></trkpt><trkpt lat="45.3575874" lon="7.6445181"><ele>366.0</ele><time>2026-04-18T09:01:41.954Z</time></trkpt><trkpt lat="45.3575139" lon="7.6444843"><ele>366.0</ele><time>2026-04-18T09:01:42.96Z</time></trkpt><trkpt lat="45.3574173" lon="7.6444327"><ele>366.6666666666667</ele><time>2026-04-18T09:01:44.949Z</time></trkpt><trkpt lat="45.3574682" lon="7.644346"><ele>367.3333333333333</ele><time>2026-04-18T09:01:48.955Z</time></trkpt><trkpt lat="45.3575417" lon="7.6442969"><ele>368.0</ele><time>2026-04-18T09:01:51.029Z</time></trkpt><trkpt lat="45.3576035" lon="7.6442653"><ele>368.66666666666663</ele><time>2026-04-18T09:01:52.965Z</time></trkpt><trkpt lat="45.3576646" lon="7.6442152"><ele>369.3333333333333</ele><time>2026-04-18T09:01:58.958Z</time></trkpt><trkpt lat="45.3577381" lon="7.6441658"><ele>370.0</ele><time>2026-04-18T09:02:02.953Z</time></trkpt><trkpt lat="45.3578046" lon="7.6441072"><ele>370.0</ele><time>2026-04-18T09:02:06.961Z</time></trkpt><trkpt lat="45.3578687" lon="7.6440882"><ele>370.0</ele><time>2026-04-18T09:02:18.982Z</time></trkpt><trkpt lat="45.3579421" lon="7.6441086"><ele>370.0</ele><time>2026-04-18T09:02:23.962Z</time></trkpt><trkpt lat="45.3579917" lon="7.6440442"><ele>370.0</ele><time>2026-04-18T09:05:08.954Z</time></trkpt><trkpt lat="45.3580616" lon="7.6439799"><ele>370.0</ele><time>2026-04-18T09:05:32.973Z</time></trkpt><trkpt lat="45.358142" lon="7.6439297"><ele>370.0</ele><time>2026-04-18T09:05:36.959Z</time></trkpt><trkpt lat="45.3582182" lon="7.6438761"><ele>370.5</ele><time>2026-04-18T09:05:39.955Z</time></trkpt><trkpt lat="45.3582727" lon="7.6438145"><ele>371.0</ele><time>2026-04-18T09:05:42.968Z</time></trkpt><trkpt lat="45.3583282" lon="7.6437417"><ele>371.5</ele><time>2026-04-18T09:05:46.953Z</time></trkpt><trkpt lat="45.3584029" lon="7.6436602"><ele>372.0</ele><time>2026-04-18T09:05:56.958Z</time></trkpt><trkpt lat="45.3583688" lon="7.6435788"><ele>372.5</ele><time>2026-04-18T09:06:04.962Z</time></trkpt><trkpt lat="45.3583144" lon="7.6434899"><ele>373.0</ele><time>2026-04-18T09:06:08.962Z</time></trkpt><trkpt lat="45.3582909" lon="7.6433935"><ele>374.79999999999995</ele><time>2026-04-18T09:06:15.963Z</time></trkpt><trkpt lat="45.3582979" lon="7.6432976"><ele>376.6</ele><time>2026-04-18T09:07:06.966Z</time></trkpt><trkpt lat="45.3582759" lon="7.6431966"><ele>378.4</ele><time>2026-04-18T09:07:16.973Z</time></trkpt><trkpt lat="45.358219" lon="7.6430465"><ele>380.20000000000005</ele><time>2026-04-18T09:07:23.964Z</time></trkpt><trkpt lat="45.3583223" lon="7.6430046"><ele>382.0</ele><time>2026-04-18T09:10:33.96Z</time></trkpt><trkpt lat="45.3583601" lon="7.6428914"><ele>383.40000000000003</ele><time>2026-04-18T09:10:36.965Z</time></trkpt><trkpt lat="45.3584216" lon="7.6427455"><ele>384.8</ele><time>2026-04-18T09:10:37.958Z</time></trkpt><trkpt lat="45.3584563" lon="7.6426028"><ele>386.2</ele><time>2026-04-18T09:10:38.958Z</time></trkpt><trkpt lat="45.3584896" lon="7.6424886"><ele>387.6</ele><time>2026-04-18T09:10:39.962Z</time></trkpt><trkpt lat="45.3585382" lon="7.642357"><ele>389.0</ele><time>2026-04-18T09:10:40.96Z</time></trkpt><trkpt lat="45.3586036" lon="7.6422256"><ele>389.0</ele><time>2026-04-18T09:10:41.953Z</time></trkpt><trkpt lat="45.3586726" lon="7.6420959"><ele>389.0</ele><time>2026-04-18T09:10:42.964Z</time></trkpt><trkpt lat="45.3587134" lon="7.6419823"><ele>389.0</ele><time>2026-04-18T09:10:43.957Z</time></trkpt><trkpt lat="45.3587183" lon="7.6417905"><ele>389.0</ele><time>2026-04-18T09:10:45.958Z</time></trkpt><trkpt lat="45.3587137" lon="7.6416696"><ele>389.0</ele><time>2026-04-18T09:10:46.956Z</time></trkpt><trkpt lat="45.3587072" lon="7.641556"><ele>391.4</ele><time>2026-04-18T09:10:47.96Z</time></trkpt><trkpt lat="45.3586999" lon="7.6414479"><ele>393.79999999999995</ele><time>2026-04-18T09:10:48.96Z</time></trkpt><trkpt lat="45.3586923" lon="7.6413406"><ele>396.20000000000005</ele><time>2026-04-18T09:10:49.961Z</time></trkpt><trkpt lat="45.3586787" lon="7.6412169"><ele>398.6</ele><time>2026-04-18T09:10:50.96Z</time></trkpt><trkpt lat="45.3586607" lon="7.6410713"><ele>401.0</ele><time>2026-04-18T09:10:51.964Z</time></trkpt><trkpt lat="45.3586445" lon="7.6408988"><ele>404.20000000000005</ele><time>2026-04-18T09:10:52.961Z</time></trkpt><trkpt lat="45.3586135" lon="7.6407661"><ele>407.40000000000003</ele><time>2026-04-18T09:10:53.957Z</time></trkpt><trkpt lat="45.3585824" lon="7.6406191"><ele>410.6</ele><time>2026-04-18T09:10:55.964Z</time></trkpt><trkpt lat="45.3585779" lon="7.6404863"><ele>413.8</ele><time>2026-04-18T09:10:57.951Z</time></trkpt><trkpt lat="45.3586019" lon="7.64036"><ele>417.0</ele><time>2026-04-18T09:10:58.967Z</time></trkpt><trkpt lat="45.3586297" lon="7.6402137"><ele>420.20000000000005</ele><time>2026-04-18T09:10:59.962Z</time></trkpt><trkpt lat="45.3587012" lon="7.6400384"><ele>423.4</ele><time>2026-04-18T09:11:00.958Z</time></trkpt><trkpt lat="45.3587797" lon="7.6398794"><ele>426.59999999999997</ele><time>2026-04-18T09:11:01.959Z</time></trkpt><trkpt lat="45.3588253" lon="7.6397951"><ele>429.79999999999995</ele><time>2026-04-18T09:11:02.965Z</time></trkpt><trkpt lat="45.3588097" lon="7.639662"><ele>433.0</ele><time>2026-04-18T09:11:04.957Z</time></trkpt><trkpt lat="45.3587904" lon="7.6394717"><ele>432.83333333333337</ele><time>2026-04-18T09:11:06.959Z</time></trkpt><trkpt lat="45.358773" lon="7.6392883"><ele>432.6666666666667</ele><time>2026-04-18T09:11:08.964Z</time></trkpt><trkpt lat="45.358778" lon="7.6391904"><ele>432.5</ele><time>2026-04-18T09:11:09.959Z</time></trkpt><trkpt lat="45.3588" lon="7.6390929"><ele>432.33333333333337</ele><time>2026-04-18T09:11:10.959Z</time></trkpt><trkpt lat="45.3588283" lon="7.6389979"><ele>432.1666666666667</ele><time>2026-04-18T09:11:11.961Z</time></trkpt><trkpt lat="45.3588649" lon="7.6388964"><ele>432.0</ele><time>2026-04-18T09:11:12.964Z</time></trkpt><trkpt lat="45.3588973" lon="7.6387796"><ele>432.6</ele><time>2026-04-18T09:11:13.96Z</time></trkpt><trkpt lat="45.3589263" lon="7.6386799"><ele>433.20000000000005</ele><time>2026-04-18T09:11:14.958Z</time></trkpt><trkpt lat="45.3589415" lon="7.6385823"><ele>433.8</ele><time>2026-04-18T09:11:15.959Z</time></trkpt><trkpt lat="45.358944" lon="7.6384092"><ele>434.4</ele><time>2026-04-18T09:11:17.959Z</time></trkpt><trkpt lat="45.3589782" lon="7.638281"><ele>435.0</ele><time>2026-04-18T09:11:19.961Z</time></trkpt><trkpt lat="45.3590536" lon="7.6381554"><ele>437.1666666666667</ele><time>2026-04-18T09:11:21.95Z</time></trkpt><trkpt lat="45.3591161" lon="7.6380897"><ele>439.33333333333337</ele><time>2026-04-18T09:11:23.962Z</time></trkpt><trkpt lat="45.3591959" lon="7.6380869"><ele>441.5</ele><time>2026-04-18T09:11:25.97Z</time></trkpt><trkpt lat="45.3592992" lon="7.6381468"><ele>443.6666666666667</ele><time>2026-04-18T09:11:27.961Z</time></trkpt><trkpt lat="45.3593728" lon="7.6381948"><ele>445.83333333333337</ele><time>2026-04-18T09:11:30.031Z</time></trkpt><trkpt lat="45.3594577" lon="7.6382119"><ele>448.0</ele><time>2026-04-18T09:11:31.962Z</time></trkpt><trkpt lat="45.359524" lon="7.638172"><ele>448.0</ele><time>2026-04-18T09:11:33.951Z</time></trkpt><trkpt lat="45.3595787" lon="7.6381189"><ele>447.99999999999994</ele><time>2026-04-18T09:11:34.948Z</time></trkpt><trkpt lat="45.3596906" lon="7.6380156"><ele>447.99999999999994</ele><time>2026-04-18T09:11:36.958Z</time></trkpt><trkpt lat="45.3597456" lon="7.6379703"><ele>448.0</ele><time>2026-04-18T09:11:37.958Z</time></trkpt><trkpt lat="45.3598361" lon="7.6378783"><ele>448.0</ele><time>2026-04-18T09:11:39.951Z</time></trkpt><trkpt lat="45.3598727" lon="7.6377057"><ele>451.2</ele><time>2026-04-18T09:11:41.956Z</time></trkpt><trkpt lat="45.3598816" lon="7.6376132"><ele>454.4</ele><time>2026-04-18T09:11:42.956Z</time></trkpt><trkpt lat="45.3598762" lon="7.6374191"><ele>457.59999999999997</ele><time>2026-04-18T09:11:44.958Z</time></trkpt><trkpt lat="45.3598559" lon="7.6372942"><ele>460.79999999999995</ele><time>2026-04-18T09:11:45.953Z</time></trkpt><trkpt lat="45.3598565" lon="7.6371358"><ele>464.0</ele><time>2026-04-18T09:11:46.956Z</time></trkpt><trkpt lat="45.3598678" lon="7.636994"><ele>464.0</ele><time>2026-04-18T09:11:47.949Z</time></trkpt><trkpt lat="45.3598905" lon="7.6368739"><ele>464.0</ele><time>2026-04-18T09:11:48.959Z</time></trkpt><trkpt lat="45.3598886" lon="7.6367815"><ele>464.0</ele><time>2026-04-18T09:11:50.944Z</time></trkpt><trkpt lat="45.3598047" lon="7.6367445"><ele>464.0</ele><time>2026-04-18T09:13:06.953Z</time></trkpt><trkpt lat="45.359711" lon="7.6366784"><ele>464.0</ele><time>2026-04-18T09:13:07.955Z</time></trkpt><trkpt lat="45.3595969" lon="7.6365949"><ele>464.0</ele><time>2026-04-18T09:13:08.948Z</time></trkpt><trkpt lat="45.3594986" lon="7.6365024"><ele>464.0</ele><time>2026-04-18T09:13:10.033Z</time></trkpt><trkpt lat="45.3593983" lon="7.6364211"><ele>464.0</ele><time>2026-04-18T09:13:11.034Z</time></trkpt><trkpt lat="45.3592979" lon="7.6363624"><ele>464.0</ele><time>2026-04-18T09:13:11.963Z</time></trkpt><trkpt lat="45.3591912" lon="7.6363157"><ele>464.0</ele><time>2026-04-18T09:13:12.955Z</time></trkpt><trkpt lat="45.3590822" lon="7.636287"><ele>464.0</ele><time>2026-04-18T09:13:13.949Z</time></trkpt><trkpt lat="45.3589713" lon="7.6362672"><ele>464.0</ele><time>2026-04-18T09:13:14.96Z</time></trkpt><trkpt lat="45.3588509" lon="7.6362599"><ele>464.0</ele><time>2026-04-18T09:13:15.956Z</time></trkpt><trkpt lat="45.3587318" lon="7.6362838"><ele>459.4</ele><time>2026-04-18T09:13:16.958Z</time></trkpt><trkpt lat="45.3586118" lon="7.6363261"><ele>454.79999999999995</ele><time>2026-04-18T09:13:18.031Z</time></trkpt><trkpt lat="45.3585058" lon="7.636372"><ele>450.20000000000005</ele><time>2026-04-18T09:13:19.036Z</time></trkpt><trkpt lat="45.3584055" lon="7.6363937"><ele>445.6</ele><time>2026-04-18T09:13:20.032Z</time></trkpt><trkpt lat="45.3583108" lon="7.6364185"><ele>441.0</ele><time>2026-04-18T09:13:20.967Z</time></trkpt><trkpt lat="45.358228" lon="7.6364383"><ele>441.0</ele><time>2026-04-18T09:13:21.955Z</time></trkpt><trkpt lat="45.3581454" lon="7.6364428"><ele>441.0</ele><time>2026-04-18T09:13:22.955Z</time></trkpt><trkpt lat="45.3580731" lon="7.6364064"><ele>441.0</ele><time>2026-04-18T09:13:23.956Z</time></trkpt><trkpt lat="45.3579984" lon="7.6363491"><ele>441.0</ele><time>2026-04-18T09:13:24.958Z</time></trkpt><trkpt lat="45.3579245" lon="7.6362902"><ele>441.0</ele><time>2026-04-18T09:13:26.019Z</time></trkpt><trkpt lat="45.3578576" lon="7.6362346"><ele>441.0</ele><time>2026-04-18T09:13:26.957Z</time></trkpt><trkpt lat="45.357797" lon="7.6362091"><ele>439.8333333333333</ele><time>2026-04-18T09:13:27.943Z</time></trkpt><trkpt lat="45.3577257" lon="7.636208"><ele>438.66666666666663</ele><time>2026-04-18T09:13:28.955Z</time></trkpt><trkpt lat="45.3576536" lon="7.6362155"><ele>437.5</ele><time>2026-04-18T09:13:29.953Z</time></trkpt><trkpt lat="45.3575864" lon="7.6362285"><ele>436.3333333333333</ele><time>2026-04-18T09:13:30.957Z</time></trkpt><trkpt lat="45.3574701" lon="7.6362225"><ele>435.16666666666663</ele><time>2026-04-18T09:13:32.949Z</time></trkpt><trkpt lat="45.3573796" lon="7.6361844"><ele>434.0</ele><time>2026-04-18T09:13:35.03Z</time></trkpt><trkpt lat="45.3573667" lon="7.6360513"><ele>434.0</ele><time>2026-04-18T09:13:36.953Z</time></trkpt><trkpt lat="45.357365" lon="7.6359011"><ele>434.0</ele><time>2026-04-18T09:13:38.954Z</time></trkpt><trkpt lat="45.3573257" lon="7.6358065"><ele>434.0</ele><time>2026-04-18T09:13:39.952Z</time></trkpt><trkpt lat="45.3572554" lon="7.6356897"><ele>434.0</ele><time>2026-04-18T09:13:40.937Z</time></trkpt><trkpt lat="45.35717" lon="7.6355879"><ele>434.0</ele><time>2026-04-18T09:13:41.946Z</time></trkpt><trkpt lat="45.3571196" lon="7.6354934"><ele>433.8333333333333</ele><time>2026-04-18T09:13:42.946Z</time></trkpt><trkpt lat="45.3570683" lon="7.6354042"><ele>433.66666666666663</ele><time>2026-04-18T09:13:44.049Z</time></trkpt><trkpt lat="45.3569907" lon="7.6352971"><ele>433.5</ele><time>2026-04-18T09:13:45.95Z</time></trkpt><trkpt lat="45.3569633" lon="7.6352133"><ele>433.33333333333337</ele><time>2026-04-18T09:13:47.954Z</time></trkpt><trkpt lat="45.3568818" lon="7.6351159"><ele>433.1666666666667</ele><time>2026-04-18T09:13:49.952Z</time></trkpt><trkpt lat="45.3568275" lon="7.6350474"><ele>433.0</ele><time>2026-04-18T09:13:50.948Z</time></trkpt><trkpt lat="45.3567498" lon="7.6349672"><ele>433.4</ele><time>2026-04-18T09:13:51.952Z</time></trkpt><trkpt lat="45.3566555" lon="7.6348849"><ele>433.79999999999995</ele><time>2026-04-18T09:13:52.947Z</time></trkpt><trkpt lat="45.3565766" lon="7.6348092"><ele>434.2</ele><time>2026-04-18T09:13:53.951Z</time></trkpt><trkpt lat="45.3565066" lon="7.6347387"><ele>434.6</ele><time>2026-04-18T09:13:54.951Z</time></trkpt><trkpt lat="45.3564283" lon="7.6346619"><ele>435.0</ele><time>2026-04-18T09:13:55.954Z</time></trkpt><trkpt lat="45.356357" lon="7.6345815"><ele>435.3333333333333</ele><time>2026-04-18T09:13:56.951Z</time></trkpt><trkpt lat="45.3562944" lon="7.6344933"><ele>435.66666666666663</ele><time>2026-04-18T09:13:57.954Z</time></trkpt><trkpt lat="45.3562318" lon="7.6344165"><ele>436.0</ele><time>2026-04-18T09:13:59.031Z</time></trkpt><trkpt lat="45.3561775" lon="7.6343396"><ele>436.3333333333333</ele><time>2026-04-18T09:14:00.032Z</time></trkpt><trkpt lat="45.3561075" lon="7.6342675"><ele>436.66666666666663</ele><time>2026-04-18T09:14:01.041Z</time></trkpt><trkpt lat="45.3560459" lon="7.6342079"><ele>437.0</ele><time>2026-04-18T09:14:01.955Z</time></trkpt><trkpt lat="45.3559667" lon="7.6341244"><ele>436.99999999999994</ele><time>2026-04-18T09:14:03.956Z</time></trkpt><trkpt lat="45.3559183" lon="7.6340371"><ele>437.0</ele><time>2026-04-18T09:14:06.948Z</time></trkpt><trkpt lat="45.3558613" lon="7.6339416"><ele>437.0</ele><time>2026-04-18T09:14:09.037Z</time></trkpt><trkpt lat="45.3557689" lon="7.6338275"><ele>437.0</ele><time>2026-04-18T09:14:10.947Z</time></trkpt><trkpt lat="45.3557125" lon="7.633754"><ele>436.99999999999994</ele><time>2026-04-18T09:14:11.943Z</time></trkpt><trkpt lat="45.3556553" lon="7.6336863"><ele>437.0</ele><time>2026-04-18T09:14:12.939Z</time></trkpt><trkpt lat="45.3555999" lon="7.6336249"><ele>434.3333333333333</ele><time>2026-04-18T09:14:13.95Z</time></trkpt><trkpt lat="45.3555459" lon="7.6335688"><ele>431.66666666666663</ele><time>2026-04-18T09:14:14.942Z</time></trkpt><trkpt lat="45.3554568" lon="7.6334791"><ele>429.0</ele><time>2026-04-18T09:14:16.95Z</time></trkpt><trkpt lat="45.3553791" lon="7.6334405"><ele>426.33333333333337</ele><time>2026-04-18T09:14:18.961Z</time></trkpt><trkpt lat="45.3552794" lon="7.6334633"><ele>423.6666666666667</ele><time>2026-04-18T09:14:20.96Z</time></trkpt><trkpt lat="45.3552184" lon="7.6334878"><ele>421.0</ele><time>2026-04-18T09:14:21.951Z</time></trkpt><trkpt lat="45.3551234" lon="7.6335693"><ele>424.0</ele><time>2026-04-18T09:14:24.026Z</time></trkpt><trkpt lat="45.3550272" lon="7.6336653"><ele>427.0</ele><time>2026-04-18T09:14:25.96Z</time></trkpt><trkpt lat="45.3549754" lon="7.6337239"><ele>430.0</ele><time>2026-04-18T09:14:26.954Z</time></trkpt><trkpt lat="45.354913" lon="7.6338218"><ele>433.0</ele><time>2026-04-18T09:14:28.95Z</time></trkpt><trkpt lat="45.3548498" lon="7.6339353"><ele>436.0</ele><time>2026-04-18T09:14:31.03Z</time></trkpt><trkpt lat="45.3547596" lon="7.6340421"><ele>435.83333333333337</ele><time>2026-04-18T09:14:32.955Z</time></trkpt><trkpt lat="45.3546333" lon="7.6341037"><ele>435.6666666666667</ele><time>2026-04-18T09:14:35.04Z</time></trkpt><trkpt lat="45.354565" lon="7.6341296"><ele>435.5</ele><time>2026-04-18T09:14:35.953Z</time></trkpt><trkpt lat="45.3544991" lon="7.6341433"><ele>435.33333333333337</ele><time>2026-04-18T09:14:36.959Z</time></trkpt><trkpt lat="45.3544356" lon="7.6341367"><ele>435.1666666666667</ele><time>2026-04-18T09:14:37.959Z</time></trkpt><trkpt lat="45.3543735" lon="7.6341188"><ele>435.0</ele><time>2026-04-18T09:14:38.978Z</time></trkpt><trkpt lat="45.3542569" lon="7.6340917"><ele>435.0</ele><time>2026-04-18T09:14:41.021Z</time></trkpt><trkpt lat="45.3541715" lon="7.6340287"><ele>435.0</ele><time>2026-04-18T09:14:42.956Z</time></trkpt><trkpt lat="45.3540934" lon="7.634043"><ele>435.0</ele><time>2026-04-18T09:14:44.953Z</time></trkpt><trkpt lat="45.3540087" lon="7.6340344"><ele>435.0</ele><time>2026-04-18T09:14:46.976Z</time></trkpt><trkpt lat="45.3539314" lon="7.6339362"><ele>435.0</ele><time>2026-04-18T09:14:49.965Z</time></trkpt><trkpt lat="45.3538407" lon="7.633936"><ele>432.8571428571429</ele><time>2026-04-18T09:14:52.961Z</time></trkpt><trkpt lat="45.353779" lon="7.6339783"><ele>430.7142857142857</ele><time>2026-04-18T09:14:55.027Z</time></trkpt><trkpt lat="45.3537379" lon="7.634049"><ele>428.57142857142856</ele><time>2026-04-18T09:14:57.954Z</time></trkpt><trkpt lat="45.3537036" lon="7.6341398"><ele>426.42857142857144</ele><time>2026-04-18T09:15:09.959Z</time></trkpt><trkpt lat="45.3536363" lon="7.6341844"><ele>424.2857142857143</ele><time>2026-04-18T09:15:11.948Z</time></trkpt><trkpt lat="45.3535563" lon="7.6341813"><ele>422.14285714285717</ele><time>2026-04-18T09:15:13.955Z</time></trkpt><trkpt lat="45.3534782" lon="7.6341453"><ele>420.0</ele><time>2026-04-18T09:15:15.952Z</time></trkpt><trkpt lat="45.3533932" lon="7.634153"><ele>420.0</ele><time>2026-04-18T09:15:18.021Z</time></trkpt><trkpt lat="45.3532953" lon="7.6341455"><ele>420.0</ele><time>2026-04-18T09:15:20.036Z</time></trkpt><trkpt lat="45.3531785" lon="7.6341263"><ele>420.0</ele><time>2026-04-18T09:15:21.949Z</time></trkpt><trkpt lat="45.3531033" lon="7.6340985"><ele>420.0</ele><time>2026-04-18T09:15:23.951Z</time></trkpt><trkpt lat="45.3530232" lon="7.6340647"><ele>420.0</ele><time>2026-04-18T09:15:25.968Z</time></trkpt><trkpt lat="45.3529634" lon="7.6339953"><ele>419.1666666666667</ele><time>2026-04-18T09:15:27.953Z</time></trkpt><trkpt lat="45.3529119" lon="7.6338973"><ele>418.33333333333337</ele><time>2026-04-18T09:15:29.958Z</time></trkpt><trkpt lat="45.3528753" lon="7.6337881"><ele>417.5</ele><time>2026-04-18T09:15:31.955Z</time></trkpt><trkpt lat="45.3528448" lon="7.6336823"><ele>416.6666666666667</ele><time>2026-04-18T09:15:33.957Z</time></trkpt><trkpt lat="45.3528244" lon="7.6335633"><ele>415.83333333333337</ele><time>2026-04-18T09:15:35.954Z</time></trkpt><trkpt lat="45.3528324" lon="7.6334388"><ele>415.0</ele><time>2026-04-18T09:15:38.039Z</time></trkpt><trkpt lat="45.3528412" lon="7.6333201"><ele>415.00000000000006</ele><time>2026-04-18T09:15:39.956Z</time></trkpt><trkpt lat="45.3528441" lon="7.6332205"><ele>415.0</ele><time>2026-04-18T09:15:41.959Z</time></trkpt><trkpt lat="45.352869" lon="7.6331051"><ele>415.0</ele><time>2026-04-18T09:15:43.957Z</time></trkpt><trkpt lat="45.3528977" lon="7.6329727"><ele>415.0</ele><time>2026-04-18T09:15:45.952Z</time></trkpt><trkpt lat="45.3529126" lon="7.6328375"><ele>415.00000000000006</ele><time>2026-04-18T09:15:47.956Z</time></trkpt><trkpt lat="45.352917" lon="7.6327149"><ele>415.0</ele><time>2026-04-18T09:15:49.991Z</time></trkpt><trkpt lat="45.3529404" lon="7.6325943"><ele>413.4</ele><time>2026-04-18T09:15:51.961Z</time></trkpt><trkpt lat="45.3529809" lon="7.6325007"><ele>411.8</ele><time>2026-04-18T09:15:53.942Z</time></trkpt><trkpt lat="45.3530327" lon="7.6323832"><ele>410.20000000000005</ele><time>2026-04-18T09:15:55.943Z</time></trkpt><trkpt lat="45.3530899" lon="7.6322598"><ele>408.6</ele><time>2026-04-18T09:15:57.95Z</time></trkpt><trkpt lat="45.3531454" lon="7.6321448"><ele>407.0</ele><time>2026-04-18T09:15:59.946Z</time></trkpt><trkpt lat="45.3532088" lon="7.6320497"><ele>403.8333333333333</ele><time>2026-04-18T09:16:01.946Z</time></trkpt><trkpt lat="45.3532765" lon="7.6319679"><ele>400.66666666666663</ele><time>2026-04-18T09:16:03.953Z</time></trkpt><trkpt lat="45.3533448" lon="7.6318968"><ele>397.5</ele><time>2026-04-18T09:16:05.95Z</time></trkpt><trkpt lat="45.3533947" lon="7.6318347"><ele>394.33333333333337</ele><time>2026-04-18T09:16:07.951Z</time></trkpt><trkpt lat="45.3534442" lon="7.6317663"><ele>391.1666666666667</ele><time>2026-04-18T09:16:09.964Z</time></trkpt><trkpt lat="45.3534911" lon="7.6316842"><ele>388.0</ele><time>2026-04-18T09:16:13.945Z</time></trkpt><trkpt lat="45.3535144" lon="7.6315948"><ele>388.00000000000006</ele><time>2026-04-18T09:16:17.944Z</time></trkpt><trkpt lat="45.3533976" lon="7.6315903"><ele>388.0</ele><time>2026-04-18T09:16:32.944Z</time></trkpt><trkpt lat="45.3533328" lon="7.6315433"><ele>388.0</ele><time>2026-04-18T09:16:36.952Z</time></trkpt><trkpt lat="45.3532569" lon="7.6315025"><ele>388.0</ele><time>2026-04-18T09:16:39.96Z</time></trkpt><trkpt lat="45.3531766" lon="7.6314571"><ele>388.00000000000006</ele><time>2026-04-18T09:16:42.948Z</time></trkpt><trkpt lat="45.3530995" lon="7.6313908"><ele>388.0</ele><time>2026-04-18T09:16:46.035Z</time></trkpt><trkpt lat="45.353032" lon="7.6313281"><ele>388.83333333333337</ele><time>2026-04-18T09:16:48.955Z</time></trkpt><trkpt lat="45.3529659" lon="7.6312807"><ele>389.6666666666667</ele><time>2026-04-18T09:16:51.957Z</time></trkpt><trkpt lat="45.3528595" lon="7.6312466"><ele>390.5</ele><time>2026-04-18T09:16:57.944Z</time></trkpt><trkpt lat="45.3527812" lon="7.631285"><ele>391.33333333333337</ele><time>2026-04-18T09:17:00.956Z</time></trkpt><trkpt lat="45.3527092" lon="7.631256"><ele>392.1666666666667</ele><time>2026-04-18T09:17:02.947Z</time></trkpt><trkpt lat="45.3526208" lon="7.6312308"><ele>393.0</ele><time>2026-04-18T09:17:05.95Z</time></trkpt><trkpt lat="45.3525555" lon="7.6312476"><ele>393.00000000000006</ele><time>2026-04-18T09:17:10.95Z</time></trkpt><trkpt lat="45.3524818" lon="7.6312662"><ele>393.0</ele><time>2026-04-18T09:17:21.958Z</time></trkpt><trkpt lat="45.3524094" lon="7.6312513"><ele>393.0</ele><time>2026-04-18T09:17:24.95Z</time></trkpt><trkpt lat="45.3523561" lon="7.6311906"><ele>393.0</ele><time>2026-04-18T09:18:28.955Z</time></trkpt><trkpt lat="45.3522991" lon="7.6311183"><ele>393.0</ele><time>2026-04-18T09:32:17.964Z</time></trkpt><trkpt lat="45.3522361" lon="7.6311418"><ele>393.00000000000006</ele><time>2026-04-18T09:33:57.948Z</time></trkpt><trkpt lat="45.3521655" lon="7.6311137"><ele>393.0</ele><time>2026-04-18T09:34:03.943Z</time></trkpt><trkpt lat="45.3521311" lon="7.6310248"><ele>391.00000000000006</ele><time>2026-04-18T09:34:08.95Z</time></trkpt><trkpt lat="45.3520674" lon="7.6309815"><ele>389.0</ele><time>2026-04-18T09:34:14.952Z</time></trkpt><trkpt lat="45.3520033" lon="7.6309652"><ele>387.0</ele><time>2026-04-18T09:34:17.951Z</time></trkpt><trkpt lat="45.3519454" lon="7.6309222"><ele>385.0</ele><time>2026-04-18T09:34:20.949Z</time></trkpt><trkpt lat="45.3519022" lon="7.6308283"><ele>383.0</ele><time>2026-04-18T09:34:25.952Z</time></trkpt><trkpt lat="45.3518651" lon="7.6307483"><ele>381.00000000000006</ele><time>2026-04-18T09:34:29.958Z</time></trkpt><trkpt lat="45.3518175" lon="7.6306892"><ele>379.0</ele><time>2026-04-18T09:34:34.94Z</time></trkpt><trkpt lat="45.3517654" lon="7.6306246"><ele>379.0</ele><time>2026-04-18T09:34:39.95Z</time></trkpt><trkpt lat="45.3516903" lon="7.6305633"><ele>379.0</ele><time>2026-04-18T09:34:44.951Z</time></trkpt><trkpt lat="45.3516658" lon="7.630473"><ele>379.0</ele><time>2026-04-18T09:34:50.948Z</time></trkpt><trkpt lat="45.3515908" lon="7.6304134"><ele>379.0</ele><time>2026-04-18T09:34:55.94Z</time></trkpt><trkpt lat="45.3515391" lon="7.6303194"><ele>379.0</ele><time>2026-04-18T09:34:59.033Z</time></trkpt><trkpt lat="45.3514716" lon="7.6302328"><ele>379.0</ele><time>2026-04-18T09:35:01.952Z</time></trkpt><trkpt lat="45.3514182" lon="7.6301685"><ele>377.3333333333333</ele><time>2026-04-18T09:35:03.948Z</time></trkpt><trkpt lat="45.3513535" lon="7.630098"><ele>375.66666666666663</ele><time>2026-04-18T09:35:06.949Z</time></trkpt><trkpt lat="45.3512825" lon="7.6300443"><ele>374.0</ele><time>2026-04-18T09:35:09.949Z</time></trkpt><trkpt lat="45.3512069" lon="7.6300259"><ele>372.3333333333333</ele><time>2026-04-18T09:35:12.954Z</time></trkpt><trkpt lat="45.3511287" lon="7.6300051"><ele>370.6666666666667</ele><time>2026-04-18T09:35:14.954Z</time></trkpt><trkpt lat="45.3510312" lon="7.629976"><ele>369.0</ele><time>2026-04-18T09:35:16.95Z</time></trkpt><trkpt lat="45.3509698" lon="7.6299393"><ele>369.0</ele><time>2026-04-18T09:35:18.033Z</time></trkpt><trkpt lat="45.350876" lon="7.6298618"><ele>369.0</ele><time>2026-04-18T09:35:19.041Z</time></trkpt><trkpt lat="45.350787" lon="7.629807"><ele>369.0</ele><time>2026-04-18T09:35:19.968Z</time></trkpt><trkpt lat="45.3506919" lon="7.6297242"><ele>369.0</ele><time>2026-04-18T09:35:20.962Z</time></trkpt><trkpt lat="45.3505164" lon="7.6295119"><ele>367.75</ele><time>2026-04-18T09:35:21.959Z</time></trkpt><trkpt lat="45.3504293" lon="7.6293653"><ele>366.5</ele><time>2026-04-18T09:35:22.959Z</time></trkpt><trkpt lat="45.3503626" lon="7.6292149"><ele>365.25</ele><time>2026-04-18T09:35:23.963Z</time></trkpt><trkpt lat="45.3502548" lon="7.6290763"><ele>364.0</ele><time>2026-04-18T09:35:24.964Z</time></trkpt><trkpt lat="45.3501579" lon="7.6289658"><ele>364.0</ele><time>2026-04-18T09:35:25.964Z</time></trkpt><trkpt lat="45.3500611" lon="7.6288819"><ele>364.0</ele><time>2026-04-18T09:35:26.967Z</time></trkpt><trkpt lat="45.3499654" lon="7.6288171"><ele>364.0</ele><time>2026-04-18T09:35:27.963Z</time></trkpt><trkpt lat="45.3498761" lon="7.6287501"><ele>364.0</ele><time>2026-04-18T09:35:28.961Z</time></trkpt><trkpt lat="45.3497962" lon="7.6286815"><ele>364.0</ele><time>2026-04-18T09:35:29.962Z</time></trkpt><trkpt lat="45.3497356" lon="7.6286486"><ele>365.6</ele><time>2026-04-18T09:35:30.957Z</time></trkpt><trkpt lat="45.3496692" lon="7.6285762"><ele>367.2</ele><time>2026-04-18T09:35:33.959Z</time></trkpt><trkpt lat="45.3496282" lon="7.6284808"><ele>368.8</ele><time>2026-04-18T09:35:35.972Z</time></trkpt><trkpt lat="45.3495853" lon="7.6283251"><ele>370.40000000000003</ele><time>2026-04-18T09:35:37.968Z</time></trkpt><trkpt lat="45.3495226" lon="7.628207"><ele>372.0</ele><time>2026-04-18T09:35:39.964Z</time></trkpt><trkpt lat="45.3494585" lon="7.6280728"><ele>372.0</ele><time>2026-04-18T09:35:41.97Z</time></trkpt><trkpt lat="45.3494057" lon="7.627938"><ele>372.0</ele><time>2026-04-18T09:35:43.963Z</time></trkpt><trkpt lat="45.3493718" lon="7.6278621"><ele>372.0</ele><time>2026-04-18T09:35:44.966Z</time></trkpt><trkpt lat="45.3492998" lon="7.6277186"><ele>372.0</ele><time>2026-04-18T09:35:46.961Z</time></trkpt><trkpt lat="45.349262" lon="7.6276315"><ele>372.0</ele><time>2026-04-18T09:35:47.967Z</time></trkpt><trkpt lat="45.3492243" lon="7.6275528"><ele>372.0</ele><time>2026-04-18T09:35:48.956Z</time></trkpt><trkpt lat="45.3491948" lon="7.6274671"><ele>373.6666666666667</ele><time>2026-04-18T09:35:49.966Z</time></trkpt><trkpt lat="45.3491646" lon="7.6273569"><ele>375.3333333333333</ele><time>2026-04-18T09:35:52.969Z</time></trkpt><trkpt lat="45.3491473" lon="7.6272617"><ele>377.0</ele><time>2026-04-18T09:35:54.968Z</time></trkpt><trkpt lat="45.349126" lon="7.6271653"><ele>378.66666666666663</ele><time>2026-04-18T09:35:56.969Z</time></trkpt><trkpt lat="45.3492009" lon="7.6271079"><ele>380.3333333333333</ele><time>2026-04-18T09:36:00.944Z</time></trkpt><trkpt lat="45.3493062" lon="7.6271128"><ele>382.0</ele><time>2026-04-18T09:36:02.958Z</time></trkpt><trkpt lat="45.3494449" lon="7.6270969"><ele>382.0</ele><time>2026-04-18T09:36:04.936Z</time></trkpt><trkpt lat="45.3495158" lon="7.6270574"><ele>382.0</ele><time>2026-04-18T09:36:05.955Z</time></trkpt><trkpt lat="45.3495835" lon="7.6270134"><ele>382.0</ele><time>2026-04-18T09:36:06.938Z</time></trkpt><trkpt lat="45.349657" lon="7.6269728"><ele>382.0</ele><time>2026-04-18T09:36:07.941Z</time></trkpt><trkpt lat="45.3497254" lon="7.6269276"><ele>382.0</ele><time>2026-04-18T09:36:08.957Z</time></trkpt><trkpt lat="45.3497914" lon="7.6268774"><ele>382.0</ele><time>2026-04-18T09:36:09.936Z</time></trkpt><trkpt lat="45.3498601" lon="7.6268228"><ele>383.40000000000003</ele><time>2026-04-18T09:36:10.935Z</time></trkpt><trkpt lat="45.3499269" lon="7.6267676"><ele>384.8</ele><time>2026-04-18T09:36:11.955Z</time></trkpt><trkpt lat="45.350028" lon="7.6266939"><ele>386.2</ele><time>2026-04-18T09:36:13.942Z</time></trkpt><trkpt lat="45.3500048" lon="7.6265681"><ele>387.6</ele><time>2026-04-18T09:36:16.951Z</time></trkpt><trkpt lat="45.3499269" lon="7.6264401"><ele>389.0</ele><time>2026-04-18T09:36:18.969Z</time></trkpt><trkpt lat="45.3498842" lon="7.6263594"><ele>389.0</ele><time>2026-04-18T09:36:19.955Z</time></trkpt><trkpt lat="45.349831" lon="7.6262432"><ele>389.0</ele><time>2026-04-18T09:36:21.965Z</time></trkpt><trkpt lat="45.3497743" lon="7.6261845"><ele>389.0</ele><time>2026-04-18T09:36:23.958Z</time></trkpt><trkpt lat="45.3497252" lon="7.6261102"><ele>389.0</ele><time>2026-04-18T09:36:25.99Z</time></trkpt><trkpt lat="45.349686" lon="7.6260236"><ele>389.0</ele><time>2026-04-18T09:36:27.965Z</time></trkpt><trkpt lat="45.3496557" lon="7.6259361"><ele>389.0</ele><time>2026-04-18T09:36:29.953Z</time></trkpt><trkpt lat="45.3496538" lon="7.6258382"><ele>389.0</ele><time>2026-04-18T09:36:31.967Z</time></trkpt><trkpt lat="45.3496958" lon="7.6257247"><ele>391.16666666666663</ele><time>2026-04-18T09:36:34.962Z</time></trkpt><trkpt lat="45.3497708" lon="7.6256627"><ele>393.3333333333333</ele><time>2026-04-18T09:36:36.967Z</time></trkpt><trkpt lat="45.3498406" lon="7.6255765"><ele>395.5</ele><time>2026-04-18T09:36:38.96Z</time></trkpt><trkpt lat="45.3499176" lon="7.6255205"><ele>397.66666666666663</ele><time>2026-04-18T09:36:40.964Z</time></trkpt><trkpt lat="45.3499815" lon="7.6254533"><ele>399.8333333333333</ele><time>2026-04-18T09:36:42.961Z</time></trkpt><trkpt lat="45.350043" lon="7.6254157"><ele>402.0</ele><time>2026-04-18T09:36:45.966Z</time></trkpt><trkpt lat="45.3500128" lon="7.6252999"><ele>404.20000000000005</ele><time>2026-04-18T09:36:52.967Z</time></trkpt><trkpt lat="45.3500588" lon="7.6251034"><ele>406.4</ele><time>2026-04-18T09:36:54.964Z</time></trkpt><trkpt lat="45.3501038" lon="7.6249146"><ele>408.6</ele><time>2026-04-18T09:36:56.963Z</time></trkpt><trkpt lat="45.3501271" lon="7.6248305"><ele>410.79999999999995</ele><time>2026-04-18T09:36:57.966Z</time></trkpt><trkpt lat="45.3501579" lon="7.6247397"><ele>413.0</ele><time>2026-04-18T09:36:58.969Z</time></trkpt><trkpt lat="45.3501966" lon="7.6246634"><ele>412.99999999999994</ele><time>2026-04-18T09:36:59.98Z</time></trkpt><trkpt lat="45.3503022" lon="7.6246005"><ele>413.0</ele><time>2026-04-18T09:37:01.972Z</time></trkpt><trkpt lat="45.3503685" lon="7.6245999"><ele>413.0</ele><time>2026-04-18T09:37:02.968Z</time></trkpt><trkpt lat="45.3504386" lon="7.6245863"><ele>413.0</ele><time>2026-04-18T09:37:03.962Z</time></trkpt><trkpt lat="45.3505084" lon="7.6245623"><ele>412.99999999999994</ele><time>2026-04-18T09:37:04.963Z</time></trkpt><trkpt lat="45.3505824" lon="7.6245637"><ele>413.0</ele><time>2026-04-18T09:37:05.964Z</time></trkpt><trkpt lat="45.3506532" lon="7.6245573"><ele>412.3333333333333</ele><time>2026-04-18T09:37:06.947Z</time></trkpt><trkpt lat="45.350729" lon="7.6245255"><ele>411.66666666666663</ele><time>2026-04-18T09:37:07.96Z</time></trkpt><trkpt lat="45.350797" lon="7.6245015"><ele>411.0</ele><time>2026-04-18T09:37:08.961Z</time></trkpt><trkpt lat="45.3508739" lon="7.6244918"><ele>410.33333333333337</ele><time>2026-04-18T09:37:09.964Z</time></trkpt><trkpt lat="45.3509453" lon="7.624482"><ele>409.6666666666667</ele><time>2026-04-18T09:37:10.959Z</time></trkpt><trkpt lat="45.3510192" lon="7.6244691"><ele>409.0</ele><time>2026-04-18T09:37:11.965Z</time></trkpt><trkpt lat="45.3510973" lon="7.6244282"><ele>409.00000000000006</ele><time>2026-04-18T09:37:12.967Z</time></trkpt><trkpt lat="45.3511675" lon="7.6243733"><ele>409.0</ele><time>2026-04-18T09:37:13.967Z</time></trkpt><trkpt lat="45.3512271" lon="7.6243289"><ele>409.0</ele><time>2026-04-18T09:37:14.961Z</time></trkpt><trkpt lat="45.3512893" lon="7.6242814"><ele>409.0</ele><time>2026-04-18T09:37:16.956Z</time></trkpt><trkpt lat="45.3513348" lon="7.6242056"><ele>409.00000000000006</ele><time>2026-04-18T09:37:19.963Z</time></trkpt><trkpt lat="45.3512906" lon="7.6240985"><ele>409.0</ele><time>2026-04-18T09:37:22.96Z</time></trkpt><trkpt lat="45.3512476" lon="7.6239874"><ele>409.0</ele><time>2026-04-18T09:37:24.962Z</time></trkpt><trkpt lat="45.351181" lon="7.6238555"><ele>409.0</ele><time>2026-04-18T09:37:26.962Z</time></trkpt><trkpt lat="45.3511045" lon="7.6237239"><ele>409.0</ele><time>2026-04-18T09:37:28.956Z</time></trkpt><trkpt lat="45.3510177" lon="7.6236382"><ele>409.0</ele><time>2026-04-18T09:37:29.962Z</time></trkpt><trkpt lat="45.3509429" lon="7.6235837"><ele>409.0</ele><time>2026-04-18T09:37:30.962Z</time></trkpt><trkpt lat="45.3508655" lon="7.6235258"><ele>408.00000000000006</ele><time>2026-04-18T09:37:31.96Z</time></trkpt><trkpt lat="45.3507902" lon="7.62348"><ele>407.0</ele><time>2026-04-18T09:37:32.973Z</time></trkpt><trkpt lat="45.3507182" lon="7.6234419"><ele>406.0</ele><time>2026-04-18T09:37:33.957Z</time></trkpt><trkpt lat="45.3506531" lon="7.6233892"><ele>405.0</ele><time>2026-04-18T09:37:34.964Z</time></trkpt><trkpt lat="45.3505727" lon="7.6233378"><ele>404.00000000000006</ele><time>2026-04-18T09:37:36.961Z</time></trkpt><trkpt lat="45.3504791" lon="7.6233162"><ele>403.0</ele><time>2026-04-18T09:37:38.961Z</time></trkpt><trkpt lat="45.3504372" lon="7.6232442"><ele>403.0</ele><time>2026-04-18T09:37:40.962Z</time></trkpt><trkpt lat="45.3503798" lon="7.6231541"><ele>403.0</ele><time>2026-04-18T09:37:45.955Z</time></trkpt><trkpt lat="45.3503505" lon="7.6230728"><ele>403.0</ele><time>2026-04-18T09:37:47.955Z</time></trkpt><trkpt lat="45.3502887" lon="7.6229715"><ele>403.0</ele><time>2026-04-18T09:37:49.954Z</time></trkpt><trkpt lat="45.3501848" lon="7.6229325"><ele>403.0</ele><time>2026-04-18T09:37:50.957Z</time></trkpt><trkpt lat="45.3500703" lon="7.6229161"><ele>403.0</ele><time>2026-04-18T09:37:51.972Z</time></trkpt><trkpt lat="45.3499264" lon="7.6229107"><ele>403.0</ele><time>2026-04-18T09:37:52.963Z</time></trkpt><trkpt lat="45.3497631" lon="7.622906"><ele>403.0</ele><time>2026-04-18T09:37:53.956Z</time></trkpt><trkpt lat="45.3496112" lon="7.6229058"><ele>401.0</ele><time>2026-04-18T09:37:54.959Z</time></trkpt><trkpt lat="45.3494711" lon="7.622907"><ele>399.0</ele><time>2026-04-18T09:37:55.961Z</time></trkpt><trkpt lat="45.3493361" lon="7.6229138"><ele>397.0</ele><time>2026-04-18T09:37:56.963Z</time></trkpt><trkpt lat="45.3492167" lon="7.6229075"><ele>395.0</ele><time>2026-04-18T09:37:57.958Z</time></trkpt><trkpt lat="45.349121" lon="7.6228974"><ele>394.99999999999994</ele><time>2026-04-18T09:37:58.96Z</time></trkpt><trkpt lat="45.3490191" lon="7.622893"><ele>395.0</ele><time>2026-04-18T09:37:59.952Z</time></trkpt><trkpt lat="45.3489244" lon="7.6228845"><ele>395.0</ele><time>2026-04-18T09:38:00.966Z</time></trkpt><trkpt lat="45.3488447" lon="7.6228747"><ele>395.0</ele><time>2026-04-18T09:38:01.962Z</time></trkpt><trkpt lat="45.3487625" lon="7.6228688"><ele>394.99999999999994</ele><time>2026-04-18T09:38:02.962Z</time></trkpt><trkpt lat="45.3486891" lon="7.6228687"><ele>395.0</ele><time>2026-04-18T09:38:03.966Z</time></trkpt><trkpt lat="45.3486047" lon="7.622849"><ele>393.3333333333333</ele><time>2026-04-18T09:38:04.961Z</time></trkpt><trkpt lat="45.3485442" lon="7.6227871"><ele>391.66666666666663</ele><time>2026-04-18T09:38:05.961Z</time></trkpt><trkpt lat="45.3485085" lon="7.6227087"><ele>390.0</ele><time>2026-04-18T09:38:06.957Z</time></trkpt><trkpt lat="45.3484512" lon="7.6225486"><ele>388.33333333333337</ele><time>2026-04-18T09:38:08.952Z</time></trkpt><trkpt lat="45.3484065" lon="7.6224365"><ele>386.6666666666667</ele><time>2026-04-18T09:38:10.964Z</time></trkpt><trkpt lat="45.3483335" lon="7.6223659"><ele>385.0</ele><time>2026-04-18T09:38:13.968Z</time></trkpt><trkpt lat="45.3482181" lon="7.6223537"><ele>385.0</ele><time>2026-04-18T09:38:15.973Z</time></trkpt><trkpt lat="45.3480997" lon="7.6223579"><ele>385.0</ele><time>2026-04-18T09:38:16.961Z</time></trkpt><trkpt lat="45.3479342" lon="7.6223442"><ele>385.0</ele><time>2026-04-18T09:38:17.964Z</time></trkpt><trkpt lat="45.3477564" lon="7.622318"><ele>384.6666666666667</ele><time>2026-04-18T09:38:18.961Z</time></trkpt><trkpt lat="45.3475865" lon="7.622293"><ele>384.33333333333337</ele><time>2026-04-18T09:38:19.965Z</time></trkpt><trkpt lat="45.3474253" lon="7.622281"><ele>384.0</ele><time>2026-04-18T09:38:20.963Z</time></trkpt><trkpt lat="45.3472798" lon="7.6222659"><ele>381.5</ele><time>2026-04-18T09:38:21.967Z</time></trkpt><trkpt lat="45.34714" lon="7.6222432"><ele>379.0</ele><time>2026-04-18T09:38:22.963Z</time></trkpt><trkpt lat="45.3470182" lon="7.6222265"><ele>376.5</ele><time>2026-04-18T09:38:23.959Z</time></trkpt><trkpt lat="45.3468981" lon="7.6222252"><ele>374.0</ele><time>2026-04-18T09:38:25.03Z</time></trkpt><trkpt lat="45.3467806" lon="7.6222411"><ele>374.0</ele><time>2026-04-18T09:38:25.943Z</time></trkpt><trkpt lat="45.3466757" lon="7.6222713"><ele>374.0</ele><time>2026-04-18T09:38:27.043Z</time></trkpt><trkpt lat="45.346573" lon="7.6223047"><ele>374.0</ele><time>2026-04-18T09:38:28.028Z</time></trkpt><trkpt lat="45.3464705" lon="7.6223202"><ele>374.0</ele><time>2026-04-18T09:38:29.041Z</time></trkpt><trkpt lat="45.3463498" lon="7.6223239"><ele>374.0</ele><time>2026-04-18T09:38:30.027Z</time></trkpt><trkpt lat="45.3462243" lon="7.6222994"><ele>372.5</ele><time>2026-04-18T09:38:30.978Z</time></trkpt><trkpt lat="45.3460971" lon="7.6222548"><ele>371.0</ele><time>2026-04-18T09:38:32.033Z</time></trkpt><trkpt lat="45.3459704" lon="7.6222039"><ele>369.5</ele><time>2026-04-18T09:38:33.073Z</time></trkpt><trkpt lat="45.3458569" lon="7.6221194"><ele>368.0</ele><time>2026-04-18T09:38:34.028Z</time></trkpt><trkpt lat="45.3457677" lon="7.6220232"><ele>367.83333333333337</ele><time>2026-04-18T09:38:35.03Z</time></trkpt><trkpt lat="45.3456896" lon="7.6219194"><ele>367.6666666666667</ele><time>2026-04-18T09:38:35.965Z</time></trkpt><trkpt lat="45.3456303" lon="7.6218352"><ele>367.5</ele><time>2026-04-18T09:38:36.962Z</time></trkpt><trkpt lat="45.3455744" lon="7.6217475"><ele>367.3333333333333</ele><time>2026-04-18T09:38:37.978Z</time></trkpt><trkpt lat="45.345529" lon="7.6216613"><ele>367.16666666666663</ele><time>2026-04-18T09:38:39.043Z</time></trkpt><trkpt lat="45.3454794" lon="7.6215852"><ele>367.0</ele><time>2026-04-18T09:38:40.029Z</time></trkpt><trkpt lat="45.3453683" lon="7.6215314"><ele>367.0</ele><time>2026-04-18T09:38:41.959Z</time></trkpt><trkpt lat="45.3452975" lon="7.6215563"><ele>367.0</ele><time>2026-04-18T09:38:42.94Z</time></trkpt><trkpt lat="45.3452071" lon="7.6215954"><ele>367.0</ele><time>2026-04-18T09:38:43.947Z</time></trkpt><trkpt lat="45.3451061" lon="7.6216228"><ele>367.0</ele><time>2026-04-18T09:38:44.957Z</time></trkpt><trkpt lat="45.34501" lon="7.6216063"><ele>367.0</ele><time>2026-04-18T09:38:45.957Z</time></trkpt><trkpt lat="45.3449278" lon="7.6215393"><ele>367.0</ele><time>2026-04-18T09:38:46.959Z</time></trkpt><trkpt lat="45.3448522" lon="7.6214425"><ele>367.0</ele><time>2026-04-18T09:38:47.961Z</time></trkpt><trkpt lat="45.3447755" lon="7.6213826"><ele>367.0</ele><time>2026-04-18T09:38:48.955Z</time></trkpt><trkpt lat="45.3446989" lon="7.621357"><ele>367.0</ele><time>2026-04-18T09:38:49.943Z</time></trkpt><trkpt lat="45.3446352" lon="7.6213598"><ele>367.0</ele><time>2026-04-18T09:38:50.955Z</time></trkpt><trkpt lat="45.3445182" lon="7.6214304"><ele>366.8</ele><time>2026-04-18T09:38:53.02Z</time></trkpt><trkpt lat="45.3443966" lon="7.6214446"><ele>366.6</ele><time>2026-04-18T09:38:54.947Z</time></trkpt><trkpt lat="45.3443286" lon="7.6214908"><ele>366.40000000000003</ele><time>2026-04-18T09:38:56.951Z</time></trkpt><trkpt lat="45.3442578" lon="7.6215084"><ele>366.20000000000005</ele><time>2026-04-18T09:38:59.034Z</time></trkpt><trkpt lat="45.3442142" lon="7.621439"><ele>366.0</ele><time>2026-04-18T09:39:02.95Z</time></trkpt><trkpt lat="45.3441147" lon="7.6213351"><ele>366.0</ele><time>2026-04-18T09:39:04.951Z</time></trkpt><trkpt lat="45.3440622" lon="7.6212049"><ele>366.0</ele><time>2026-04-18T09:39:06.956Z</time></trkpt><trkpt lat="45.3440417" lon="7.6210668"><ele>366.0</ele><time>2026-04-18T09:39:08.956Z</time></trkpt><trkpt lat="45.3440553" lon="7.620936"><ele>366.0</ele><time>2026-04-18T09:39:10.947Z</time></trkpt><trkpt lat="45.3440877" lon="7.620851"><ele>366.0</ele><time>2026-04-18T09:39:11.951Z</time></trkpt><trkpt lat="45.3441516" lon="7.6207378"><ele>366.4</ele><time>2026-04-18T09:39:13.951Z</time></trkpt><trkpt lat="45.3442089" lon="7.6206575"><ele>366.8</ele><time>2026-04-18T09:39:14.94Z</time></trkpt><trkpt lat="45.3442876" lon="7.6205201"><ele>367.2</ele><time>2026-04-18T09:39:15.957Z</time></trkpt><trkpt lat="45.3443571" lon="7.6204016"><ele>367.59999999999997</ele><time>2026-04-18T09:39:16.952Z</time></trkpt><trkpt lat="45.3444258" lon="7.6202807"><ele>368.0</ele><time>2026-04-18T09:39:18.03Z</time></trkpt><trkpt lat="45.3444948" lon="7.6201282"><ele>368.25</ele><time>2026-04-18T09:39:19.032Z</time></trkpt><trkpt lat="45.3445616" lon="7.619994"><ele>368.5</ele><time>2026-04-18T09:39:20.033Z</time></trkpt><trkpt lat="45.3446188" lon="7.6198467"><ele>368.75</ele><time>2026-04-18T09:39:20.959Z</time></trkpt><trkpt lat="45.3446807" lon="7.6196796"><ele>369.0</ele><time>2026-04-18T09:39:21.958Z</time></trkpt><trkpt lat="45.3447304" lon="7.6195398"><ele>369.0</ele><time>2026-04-18T09:39:22.955Z</time></trkpt><trkpt lat="45.3447921" lon="7.6194051"><ele>369.0</ele><time>2026-04-18T09:39:23.959Z</time></trkpt><trkpt lat="45.3448605" lon="7.6192642"><ele>369.0</ele><time>2026-04-18T09:39:24.956Z</time></trkpt><trkpt lat="45.3449296" lon="7.6191369"><ele>369.0</ele><time>2026-04-18T09:39:25.948Z</time></trkpt><trkpt lat="45.3449729" lon="7.6190477"><ele>369.0</ele><time>2026-04-18T09:39:26.976Z</time></trkpt><trkpt lat="45.3450098" lon="7.6189468"><ele>369.0</ele><time>2026-04-18T09:39:27.96Z</time></trkpt><trkpt lat="45.3450133" lon="7.6188415"><ele>369.0</ele><time>2026-04-18T09:39:28.955Z</time></trkpt><trkpt lat="45.3450135" lon="7.6187374"><ele>369.0</ele><time>2026-04-18T09:39:29.952Z</time></trkpt><trkpt lat="45.3450169" lon="7.6186386"><ele>369.0</ele><time>2026-04-18T09:39:30.957Z</time></trkpt><trkpt lat="45.3450317" lon="7.6185333"><ele>369.0</ele><time>2026-04-18T09:39:31.965Z</time></trkpt><trkpt lat="45.3450774" lon="7.618416"><ele>369.0</ele><time>2026-04-18T09:39:33.027Z</time></trkpt><trkpt lat="45.3451561" lon="7.6182974"><ele>370.5</ele><time>2026-04-18T09:39:33.991Z</time></trkpt><trkpt lat="45.3452322" lon="7.6181939"><ele>372.0</ele><time>2026-04-18T09:39:35.014Z</time></trkpt><trkpt lat="45.3453198" lon="7.6180786"><ele>373.5</ele><time>2026-04-18T09:39:35.99Z</time></trkpt><trkpt lat="45.3454078" lon="7.6179652"><ele>375.0</ele><time>2026-04-18T09:39:36.963Z</time></trkpt><trkpt lat="45.345475" lon="7.6178449"><ele>374.5</ele><time>2026-04-18T09:39:37.96Z</time></trkpt><trkpt lat="45.3455078" lon="7.6176726"><ele>374.0</ele><time>2026-04-18T09:39:38.955Z</time></trkpt><trkpt lat="45.3455394" lon="7.617456"><ele>373.5</ele><time>2026-04-18T09:39:39.997Z</time></trkpt><trkpt lat="45.3455625" lon="7.6172718"><ele>373.0</ele><time>2026-04-18T09:39:40.946Z</time></trkpt><trkpt lat="45.3455826" lon="7.6170824"><ele>374.66666666666663</ele><time>2026-04-18T09:39:42.03Z</time></trkpt><trkpt lat="45.3456095" lon="7.6169574"><ele>376.3333333333333</ele><time>2026-04-18T09:39:43.045Z</time></trkpt><trkpt lat="45.3456482" lon="7.616878"><ele>378.0</ele><time>2026-04-18T09:39:44.035Z</time></trkpt><trkpt lat="45.3456942" lon="7.6167967"><ele>379.6666666666667</ele><time>2026-04-18T09:39:45.951Z</time></trkpt><trkpt lat="45.3457802" lon="7.6167962"><ele>381.33333333333337</ele><time>2026-04-18T09:39:47.954Z</time></trkpt><trkpt lat="45.3458741" lon="7.6168631"><ele>383.0</ele><time>2026-04-18T09:39:48.95Z</time></trkpt><trkpt lat="45.3459915" lon="7.6169186"><ele>383.0</ele><time>2026-04-18T09:39:49.949Z</time></trkpt><trkpt lat="45.3461089" lon="7.616964"><ele>383.0</ele><time>2026-04-18T09:39:50.948Z</time></trkpt><trkpt lat="45.3462106" lon="7.6169659"><ele>383.0</ele><time>2026-04-18T09:39:51.945Z</time></trkpt><trkpt lat="45.3463048" lon="7.6169108"><ele>383.0</ele><time>2026-04-18T09:39:52.962Z</time></trkpt><trkpt lat="45.3464038" lon="7.6168215"><ele>383.0</ele><time>2026-04-18T09:39:53.949Z</time></trkpt><trkpt lat="45.3465082" lon="7.6167085"><ele>383.0</ele><time>2026-04-18T09:39:54.951Z</time></trkpt><trkpt lat="45.3466277" lon="7.6165945"><ele>383.0</ele><time>2026-04-18T09:39:55.952Z</time></trkpt><trkpt lat="45.3467396" lon="7.6164783"><ele>383.0</ele><time>2026-04-18T09:39:56.948Z</time></trkpt><trkpt lat="45.3468462" lon="7.6163583"><ele>383.0</ele><time>2026-04-18T09:39:57.946Z</time></trkpt><trkpt lat="45.3469552" lon="7.6162285"><ele>384.25</ele><time>2026-04-18T09:39:59.033Z</time></trkpt><trkpt lat="45.3470627" lon="7.6160965"><ele>385.5</ele><time>2026-04-18T09:40:00.035Z</time></trkpt><trkpt lat="45.3471441" lon="7.6159699"><ele>386.75</ele><time>2026-04-18T09:40:00.948Z</time></trkpt><trkpt lat="45.3472142" lon="7.6158457"><ele>388.0</ele><time>2026-04-18T09:40:01.955Z</time></trkpt><trkpt lat="45.3472838" lon="7.6157302"><ele>388.00000000000006</ele><time>2026-04-18T09:40:02.951Z</time></trkpt><trkpt lat="45.3473569" lon="7.6156341"><ele>388.0</ele><time>2026-04-18T09:40:03.952Z</time></trkpt><trkpt lat="45.3474278" lon="7.6155557"><ele>388.0</ele><time>2026-04-18T09:40:04.957Z</time></trkpt><trkpt lat="45.3474886" lon="7.6154988"><ele>388.0</ele><time>2026-04-18T09:40:05.952Z</time></trkpt><trkpt lat="45.3475659" lon="7.61546"><ele>388.00000000000006</ele><time>2026-04-18T09:40:06.953Z</time></trkpt><trkpt lat="45.3476547" lon="7.6154355"><ele>388.0</ele><time>2026-04-18T09:40:08.028Z</time></trkpt><trkpt lat="45.3477662" lon="7.6154286"><ele>388.0</ele><time>2026-04-18T09:40:09.035Z</time></trkpt><trkpt lat="45.3478829" lon="7.6154228"><ele>388.0</ele><time>2026-04-18T09:40:10.031Z</time></trkpt><trkpt lat="45.3479877" lon="7.6153999"><ele>388.0</ele><time>2026-04-18T09:40:10.939Z</time></trkpt><trkpt lat="45.3480903" lon="7.6153641"><ele>388.0</ele><time>2026-04-18T09:40:11.939Z</time></trkpt><trkpt lat="45.3481793" lon="7.6153104"><ele>388.0</ele><time>2026-04-18T09:40:12.944Z</time></trkpt><trkpt lat="45.3482729" lon="7.6152694"><ele>389.6666666666667</ele><time>2026-04-18T09:40:14.039Z</time></trkpt><trkpt lat="45.3483601" lon="7.6152352"><ele>391.33333333333337</ele><time>2026-04-18T09:40:15.046Z</time></trkpt><trkpt lat="45.3484254" lon="7.6152169"><ele>393.0</ele><time>2026-04-18T09:40:15.95Z</time></trkpt><trkpt lat="45.3484883" lon="7.6152051"><ele>394.66666666666663</ele><time>2026-04-18T09:40:17.043Z</time></trkpt><trkpt lat="45.3485643" lon="7.6151756"><ele>396.3333333333333</ele><time>2026-04-18T09:40:18.042Z</time></trkpt><trkpt lat="45.3486304" lon="7.61512"><ele>398.0</ele><time>2026-04-18T09:40:19.03Z</time></trkpt><trkpt lat="45.3486884" lon="7.6150356"><ele>398.0</ele><time>2026-04-18T09:40:20.05Z</time></trkpt><trkpt lat="45.3487413" lon="7.6149438"><ele>398.0</ele><time>2026-04-18T09:40:20.953Z</time></trkpt><trkpt lat="45.3487937" lon="7.6148671"><ele>398.0</ele><time>2026-04-18T09:40:21.955Z</time></trkpt><trkpt lat="45.3488442" lon="7.6147814"><ele>398.0</ele><time>2026-04-18T09:40:22.995Z</time></trkpt><trkpt lat="45.3489068" lon="7.6146817"><ele>398.0</ele><time>2026-04-18T09:40:24.031Z</time></trkpt><trkpt lat="45.3489774" lon="7.6145445"><ele>397.8333333333333</ele><time>2026-04-18T09:40:25.953Z</time></trkpt><trkpt lat="45.3490303" lon="7.6144855"><ele>397.66666666666663</ele><time>2026-04-18T09:40:27.952Z</time></trkpt><trkpt lat="45.3491273" lon="7.6145109"><ele>397.5</ele><time>2026-04-18T09:40:30.028Z</time></trkpt><trkpt lat="45.349195" lon="7.6145274"><ele>397.33333333333337</ele><time>2026-04-18T09:40:30.961Z</time></trkpt><trkpt lat="45.3492831" lon="7.6145398"><ele>397.1666666666667</ele><time>2026-04-18T09:40:31.959Z</time></trkpt><trkpt lat="45.3493772" lon="7.6145353"><ele>397.0</ele><time>2026-04-18T09:40:32.977Z</time></trkpt><trkpt lat="45.3494636" lon="7.6145209"><ele>397.00000000000006</ele><time>2026-04-18T09:40:33.961Z</time></trkpt><trkpt lat="45.3495472" lon="7.6144979"><ele>397.0</ele><time>2026-04-18T09:40:34.965Z</time></trkpt><trkpt lat="45.3496261" lon="7.6144803"><ele>397.0</ele><time>2026-04-18T09:40:35.959Z</time></trkpt><trkpt lat="45.3497066" lon="7.6144442"><ele>397.0</ele><time>2026-04-18T09:40:36.96Z</time></trkpt><trkpt lat="45.349768" lon="7.614394"><ele>397.00000000000006</ele><time>2026-04-18T09:40:37.98Z</time></trkpt><trkpt lat="45.3498428" lon="7.6143317"><ele>397.0</ele><time>2026-04-18T09:40:38.965Z</time></trkpt><trkpt lat="45.3499197" lon="7.6142517"><ele>395.8</ele><time>2026-04-18T09:40:39.959Z</time></trkpt><trkpt lat="45.3499966" lon="7.614147"><ele>394.6</ele><time>2026-04-18T09:40:40.96Z</time></trkpt><trkpt lat="45.3500719" lon="7.6140413"><ele>393.40000000000003</ele><time>2026-04-18T09:40:41.954Z</time></trkpt><trkpt lat="45.3501583" lon="7.6139425"><ele>392.20000000000005</ele><time>2026-04-18T09:40:42.946Z</time></trkpt><trkpt lat="45.3502225" lon="7.6138312"><ele>391.0</ele><time>2026-04-18T09:40:43.97Z</time></trkpt><trkpt lat="45.3502695" lon="7.6137321"><ele>393.00000000000006</ele><time>2026-04-18T09:40:44.966Z</time></trkpt><trkpt lat="45.3503308" lon="7.6136477"><ele>395.0</ele><time>2026-04-18T09:40:45.958Z</time></trkpt><trkpt lat="45.3504001" lon="7.6135921"><ele>397.0</ele><time>2026-04-18T09:40:46.961Z</time></trkpt><trkpt lat="45.3504636" lon="7.6135346"><ele>399.0</ele><time>2026-04-18T09:40:47.964Z</time></trkpt><trkpt lat="45.3505438" lon="7.6134954"><ele>401.00000000000006</ele><time>2026-04-18T09:40:48.964Z</time></trkpt><trkpt lat="45.350631" lon="7.61344"><ele>403.0</ele><time>2026-04-18T09:40:49.958Z</time></trkpt><trkpt lat="45.3507114" lon="7.6133887"><ele>403.6666666666667</ele><time>2026-04-18T09:40:50.957Z</time></trkpt><trkpt lat="45.3507891" lon="7.6133417"><ele>404.33333333333337</ele><time>2026-04-18T09:40:51.962Z</time></trkpt><trkpt lat="45.3508624" lon="7.613292"><ele>405.0</ele><time>2026-04-18T09:40:53.029Z</time></trkpt><trkpt lat="45.3509319" lon="7.6132316"><ele>405.66666666666663</ele><time>2026-04-18T09:40:53.957Z</time></trkpt><trkpt lat="45.3510007" lon="7.6131698"><ele>406.3333333333333</ele><time>2026-04-18T09:40:54.962Z</time></trkpt><trkpt lat="45.3510768" lon="7.6130863"><ele>407.0</ele><time>2026-04-18T09:40:55.956Z</time></trkpt><trkpt lat="45.351142" lon="7.6130085"><ele>407.0</ele><time>2026-04-18T09:40:56.963Z</time></trkpt><trkpt lat="45.3511916" lon="7.6129018"><ele>407.0</ele><time>2026-04-18T09:40:57.96Z</time></trkpt><trkpt lat="45.3512293" lon="7.6128173"><ele>407.0</ele><time>2026-04-18T09:40:58.981Z</time></trkpt><trkpt lat="45.351267" lon="7.6126932"><ele>407.0</ele><time>2026-04-18T09:41:00.045Z</time></trkpt><trkpt lat="45.351297" lon="7.6125276"><ele>407.0</ele><time>2026-04-18T09:41:00.949Z</time></trkpt><trkpt lat="45.3513133" lon="7.6124155"><ele>407.99999999999994</ele><time>2026-04-18T09:41:02.032Z</time></trkpt><trkpt lat="45.3513204" lon="7.6123242"><ele>409.0</ele><time>2026-04-18T09:41:03.036Z</time></trkpt><trkpt lat="45.3513391" lon="7.6122138"><ele>410.0</ele><time>2026-04-18T09:41:04.039Z</time></trkpt><trkpt lat="45.3513652" lon="7.6121094"><ele>411.0</ele><time>2026-04-18T09:41:04.997Z</time></trkpt><trkpt lat="45.3513933" lon="7.6119905"><ele>411.99999999999994</ele><time>2026-04-18T09:41:05.948Z</time></trkpt><trkpt lat="45.351397" lon="7.6118298"><ele>413.0</ele><time>2026-04-18T09:41:07.951Z</time></trkpt><trkpt lat="45.3513565" lon="7.6116507"><ele>414.99999999999994</ele><time>2026-04-18T09:41:09.95Z</time></trkpt><trkpt lat="45.351326" lon="7.6115629"><ele>417.0</ele><time>2026-04-18T09:41:10.947Z</time></trkpt><trkpt lat="45.3512788" lon="7.6114535"><ele>419.0</ele><time>2026-04-18T09:41:13.043Z</time></trkpt><trkpt lat="45.3512817" lon="7.6113313"><ele>421.0</ele><time>2026-04-18T09:41:14.944Z</time></trkpt><trkpt lat="45.3513206" lon="7.611218"><ele>422.99999999999994</ele><time>2026-04-18T09:41:16.947Z</time></trkpt><trkpt lat="45.3513601" lon="7.6111191"><ele>425.0</ele><time>2026-04-18T09:41:19.023Z</time></trkpt><trkpt lat="45.3513945" lon="7.611044"><ele>424.99999999999994</ele><time>2026-04-18T09:41:20.948Z</time></trkpt><trkpt lat="45.3514445" lon="7.6109499"><ele>425.0</ele><time>2026-04-18T09:41:25.947Z</time></trkpt><trkpt lat="45.3515177" lon="7.6108164"><ele>425.0</ele><time>2026-04-18T09:42:21.935Z</time></trkpt><trkpt lat="45.3515986" lon="7.6108037"><ele>425.0</ele><time>2026-04-18T09:42:38.949Z</time></trkpt><trkpt lat="45.3515285" lon="7.6107899"><ele>424.99999999999994</ele><time>2026-04-18T09:43:36.949Z</time></trkpt><trkpt lat="45.3514661" lon="7.6108462"><ele>425.0</ele><time>2026-04-18T09:44:34.954Z</time></trkpt><trkpt lat="45.3514138" lon="7.6109039"><ele>425.0</ele><time>2026-04-18T09:44:38.946Z</time></trkpt><trkpt lat="45.3513473" lon="7.6109566"><ele>425.0</ele><time>2026-04-18T09:44:42.957Z</time></trkpt><trkpt lat="45.351383" lon="7.6108641"><ele>425.0</ele><time>2026-04-18T09:44:47.965Z</time></trkpt><trkpt lat="45.3514438" lon="7.6107015"><ele>425.0</ele><time>2026-04-18T09:44:49.957Z</time></trkpt><trkpt lat="45.3514834" lon="7.6105888"><ele>425.0</ele><time>2026-04-18T09:44:50.95Z</time></trkpt><trkpt lat="45.3515319" lon="7.6104785"><ele>425.0</ele><time>2026-04-18T09:44:51.96Z</time></trkpt><trkpt lat="45.3516087" lon="7.6103804"><ele>425.0</ele><time>2026-04-18T09:44:53.958Z</time></trkpt><trkpt lat="45.3516399" lon="7.6102728"><ele>425.0</ele><time>2026-04-18T09:44:55.955Z</time></trkpt><trkpt lat="45.3516445" lon="7.6101336"><ele>425.0</ele><time>2026-04-18T09:44:57.993Z</time></trkpt><trkpt lat="45.3516526" lon="7.6100061"><ele>425.0</ele><time>2026-04-18T09:44:59.954Z</time></trkpt><trkpt lat="45.3517028" lon="7.6098703"><ele>428.6</ele><time>2026-04-18T09:45:01.958Z</time></trkpt><trkpt lat="45.3517794" lon="7.6096998"><ele>432.2</ele><time>2026-04-18T09:45:03.955Z</time></trkpt><trkpt lat="45.3518341" lon="7.6096048"><ele>435.79999999999995</ele><time>2026-04-18T09:45:04.963Z</time></trkpt><trkpt lat="45.3518951" lon="7.6095187"><ele>439.4</ele><time>2026-04-18T09:45:05.953Z</time></trkpt><trkpt lat="45.3519676" lon="7.6094415"><ele>443.0</ele><time>2026-04-18T09:45:06.952Z</time></trkpt><trkpt lat="45.3520406" lon="7.6093842"><ele>444.2</ele><time>2026-04-18T09:45:07.951Z</time></trkpt><trkpt lat="45.3521163" lon="7.6093291"><ele>445.4</ele><time>2026-04-18T09:45:08.96Z</time></trkpt><trkpt lat="45.3521892" lon="7.609256"><ele>446.59999999999997</ele><time>2026-04-18T09:45:09.955Z</time></trkpt><trkpt lat="45.3522763" lon="7.6091774"><ele>447.79999999999995</ele><time>2026-04-18T09:45:10.953Z</time></trkpt><trkpt lat="45.3523553" lon="7.6091161"><ele>449.0</ele><time>2026-04-18T09:45:11.954Z</time></trkpt><trkpt lat="45.3524335" lon="7.6090698"><ele>448.99999999999994</ele><time>2026-04-18T09:45:12.952Z</time></trkpt><trkpt lat="45.352518" lon="7.6090214"><ele>449.0</ele><time>2026-04-18T09:45:13.957Z</time></trkpt><trkpt lat="45.3526014" lon="7.6089915"><ele>449.0</ele><time>2026-04-18T09:45:14.961Z</time></trkpt><trkpt lat="45.352681" lon="7.6089414"><ele>449.0</ele><time>2026-04-18T09:45:15.946Z</time></trkpt><trkpt lat="45.3527506" lon="7.6088698"><ele>448.99999999999994</ele><time>2026-04-18T09:45:16.956Z</time></trkpt><trkpt lat="45.3528111" lon="7.6087849"><ele>449.0</ele><time>2026-04-18T09:45:17.952Z</time></trkpt><trkpt lat="45.3528531" lon="7.6086998"><ele>448.49999999999994</ele><time>2026-04-18T09:45:18.945Z</time></trkpt><trkpt lat="45.3528703" lon="7.6085968"><ele>448.0</ele><time>2026-04-18T09:45:19.96Z</time></trkpt><trkpt lat="45.3528881" lon="7.6084977"><ele>447.5</ele><time>2026-04-18T09:45:20.954Z</time></trkpt><trkpt lat="45.3529138" lon="7.6084092"><ele>447.0</ele><time>2026-04-18T09:45:21.955Z</time></trkpt><trkpt lat="45.3529536" lon="7.608327"><ele>446.49999999999994</ele><time>2026-04-18T09:45:22.955Z</time></trkpt><trkpt lat="45.3530346" lon="7.6081853"><ele>446.0</ele><time>2026-04-18T09:45:24.95Z</time></trkpt><trkpt lat="45.3530927" lon="7.6081041"><ele>445.99999999999994</ele><time>2026-04-18T09:45:25.947Z</time></trkpt><trkpt lat="45.3531409" lon="7.6080202"><ele>446.0</ele><time>2026-04-18T09:45:26.953Z</time></trkpt><trkpt lat="45.3531846" lon="7.6079315"><ele>446.0</ele><time>2026-04-18T09:45:27.957Z</time></trkpt><trkpt lat="45.3532257" lon="7.6078199"><ele>446.0</ele><time>2026-04-18T09:45:28.953Z</time></trkpt><trkpt lat="45.3532704" lon="7.6077037"><ele>445.99999999999994</ele><time>2026-04-18T09:45:29.966Z</time></trkpt><trkpt lat="45.3533035" lon="7.6075712"><ele>446.0</ele><time>2026-04-18T09:45:30.953Z</time></trkpt><trkpt lat="45.3533279" lon="7.6074404"><ele>450.0</ele><time>2026-04-18T09:45:31.954Z</time></trkpt><trkpt lat="45.3533501" lon="7.6072965"><ele>454.0</ele><time>2026-04-18T09:45:32.96Z</time></trkpt><trkpt lat="45.3533779" lon="7.607156"><ele>458.0</ele><time>2026-04-18T09:45:33.958Z</time></trkpt><trkpt lat="45.3534098" lon="7.6070286"><ele>462.0</ele><time>2026-04-18T09:45:34.954Z</time></trkpt><trkpt lat="45.3534545" lon="7.6068935"><ele>466.0</ele><time>2026-04-18T09:45:35.962Z</time></trkpt><trkpt lat="45.3535059" lon="7.6067728"><ele>467.7142857142857</ele><time>2026-04-18T09:45:36.956Z</time></trkpt><trkpt lat="45.3535605" lon="7.6066863"><ele>469.42857142857144</ele><time>2026-04-18T09:45:37.954Z</time></trkpt><trkpt lat="45.3536003" lon="7.606603"><ele>471.14285714285717</ele><time>2026-04-18T09:45:38.951Z</time></trkpt><trkpt lat="45.3536429" lon="7.6064992"><ele>472.8571428571429</ele><time>2026-04-18T09:45:39.949Z</time></trkpt><trkpt lat="45.3536768" lon="7.6064137"><ele>474.57142857142856</ele><time>2026-04-18T09:45:40.952Z</time></trkpt><trkpt lat="45.3536888" lon="7.6063159"><ele>476.28571428571433</ele><time>2026-04-18T09:45:41.959Z</time></trkpt><trkpt lat="45.3536857" lon="7.6062125"><ele>478.00000000000006</ele><time>2026-04-18T09:45:42.954Z</time></trkpt><trkpt lat="45.3537196" lon="7.6061239"><ele>479.50000000000006</ele><time>2026-04-18T09:45:43.963Z</time></trkpt><trkpt lat="45.3537521" lon="7.6060385"><ele>481.0</ele><time>2026-04-18T09:45:44.955Z</time></trkpt><trkpt lat="45.3537855" lon="7.6058921"><ele>482.5</ele><time>2026-04-18T09:45:46.958Z</time></trkpt><trkpt lat="45.3537825" lon="7.6057983"><ele>484.0</ele><time>2026-04-18T09:45:47.957Z</time></trkpt><trkpt lat="45.3537633" lon="7.605702"><ele>485.50000000000006</ele><time>2026-04-18T09:45:48.956Z</time></trkpt><trkpt lat="45.3537351" lon="7.605603"><ele>487.0</ele><time>2026-04-18T09:45:49.954Z</time></trkpt><trkpt lat="45.353701" lon="7.605513"><ele>487.0</ele><time>2026-04-18T09:45:50.952Z</time></trkpt><trkpt lat="45.3536667" lon="7.6054258"><ele>487.0</ele><time>2026-04-18T09:45:51.948Z</time></trkpt><trkpt lat="45.3536222" lon="7.605334"><ele>487.0</ele><time>2026-04-18T09:45:52.951Z</time></trkpt><trkpt lat="45.3535844" lon="7.6052506"><ele>487.0</ele><time>2026-04-18T09:45:53.965Z</time></trkpt><trkpt lat="45.353547" lon="7.6051666"><ele>487.0</ele><time>2026-04-18T09:45:54.957Z</time></trkpt><trkpt lat="45.3535314" lon="7.605079"><ele>487.0</ele><time>2026-04-18T09:45:55.956Z</time></trkpt><trkpt lat="45.3535219" lon="7.604952"><ele>487.0</ele><time>2026-04-18T09:45:57.971Z</time></trkpt><trkpt lat="45.3534763" lon="7.6048551"><ele>486.0</ele><time>2026-04-18T09:45:59.951Z</time></trkpt><trkpt lat="45.3534239" lon="7.604783"><ele>485.0</ele><time>2026-04-18T09:46:00.95Z</time></trkpt><trkpt lat="45.3533681" lon="7.6047024"><ele>484.0</ele><time>2026-04-18T09:46:01.949Z</time></trkpt><trkpt lat="45.3533207" lon="7.6046331"><ele>483.0</ele><time>2026-04-18T09:46:02.949Z</time></trkpt><trkpt lat="45.3532904" lon="7.6045472"><ele>482.0</ele><time>2026-04-18T09:46:03.953Z</time></trkpt><trkpt lat="45.3532753" lon="7.6044475"><ele>481.0</ele><time>2026-04-18T09:46:04.961Z</time></trkpt><trkpt lat="45.3532765" lon="7.6043261"><ele>480.0</ele><time>2026-04-18T09:46:05.95Z</time></trkpt><trkpt lat="45.3532854" lon="7.6042019"><ele>479.0</ele><time>2026-04-18T09:46:06.949Z</time></trkpt><trkpt lat="45.3532971" lon="7.6040835"><ele>478.0</ele><time>2026-04-18T09:46:07.956Z</time></trkpt><trkpt lat="45.3533127" lon="7.6039646"><ele>477.0</ele><time>2026-04-18T09:46:08.952Z</time></trkpt><trkpt lat="45.3533577" lon="7.6038518"><ele>476.0</ele><time>2026-04-18T09:46:09.956Z</time></trkpt><trkpt lat="45.3533987" lon="7.6037674"><ele>475.0</ele><time>2026-04-18T09:46:10.959Z</time></trkpt><trkpt lat="45.3534279" lon="7.6036721"><ele>474.0</ele><time>2026-04-18T09:46:11.959Z</time></trkpt><trkpt lat="45.3534392" lon="7.6035731"><ele>474.0</ele><time>2026-04-18T09:46:12.962Z</time></trkpt><trkpt lat="45.3534284" lon="7.6034467"><ele>474.0</ele><time>2026-04-18T09:46:13.957Z</time></trkpt><trkpt lat="45.3534011" lon="7.6033317"><ele>474.0</ele><time>2026-04-18T09:46:14.955Z</time></trkpt><trkpt lat="45.3533779" lon="7.6032426"><ele>474.0</ele><time>2026-04-18T09:46:15.958Z</time></trkpt><trkpt lat="45.3533403" lon="7.6030849"><ele>474.0</ele><time>2026-04-18T09:46:17.958Z</time></trkpt><trkpt lat="45.3533081" lon="7.6029207"><ele>476.4</ele><time>2026-04-18T09:46:19.952Z</time></trkpt><trkpt lat="45.3533211" lon="7.6028104"><ele>478.79999999999995</ele><time>2026-04-18T09:46:20.953Z</time></trkpt><trkpt lat="45.3533571" lon="7.6027239"><ele>481.20000000000005</ele><time>2026-04-18T09:46:21.957Z</time></trkpt><trkpt lat="45.3534257" lon="7.6026186"><ele>483.6</ele><time>2026-04-18T09:46:22.956Z</time></trkpt><trkpt lat="45.3535086" lon="7.6024955"><ele>486.0</ele><time>2026-04-18T09:46:23.959Z</time></trkpt><trkpt lat="45.3535965" lon="7.6023723"><ele>486.0</ele><time>2026-04-18T09:46:24.956Z</time></trkpt><trkpt lat="45.3536843" lon="7.602264"><ele>486.0</ele><time>2026-04-18T09:46:25.953Z</time></trkpt><trkpt lat="45.3537236" lon="7.602184"><ele>486.0</ele><time>2026-04-18T09:46:26.962Z</time></trkpt><trkpt lat="45.353733" lon="7.6020701"><ele>486.0</ele><time>2026-04-18T09:46:28.956Z</time></trkpt><trkpt lat="45.3536125" lon="7.6020923"><ele>486.0</ele><time>2026-04-18T09:46:32.958Z</time></trkpt><trkpt lat="45.3535357" lon="7.602131"><ele>486.0</ele><time>2026-04-18T09:46:33.955Z</time></trkpt><trkpt lat="45.3534566" lon="7.6021607"><ele>486.0</ele><time>2026-04-18T09:46:34.957Z</time></trkpt><trkpt lat="45.3533889" lon="7.6021703"><ele>486.0</ele><time>2026-04-18T09:46:35.958Z</time></trkpt><trkpt lat="45.3533099" lon="7.6021666"><ele>486.0</ele><time>2026-04-18T09:46:36.961Z</time></trkpt><trkpt lat="45.3532451" lon="7.6021673"><ele>486.0</ele><time>2026-04-18T09:46:37.956Z</time></trkpt><trkpt lat="45.3531508" lon="7.6020836"><ele>486.0</ele><time>2026-04-18T09:46:39.951Z</time></trkpt><trkpt lat="45.3531304" lon="7.6019801"><ele>488.6666666666667</ele><time>2026-04-18T09:46:40.952Z</time></trkpt><trkpt lat="45.3531277" lon="7.6018707"><ele>491.33333333333337</ele><time>2026-04-18T09:46:41.949Z</time></trkpt><trkpt lat="45.3531436" lon="7.601743"><ele>494.0</ele><time>2026-04-18T09:46:42.951Z</time></trkpt><trkpt lat="45.3531709" lon="7.6016281"><ele>496.6666666666667</ele><time>2026-04-18T09:46:43.951Z</time></trkpt><trkpt lat="45.3532232" lon="7.6015217"><ele>499.33333333333337</ele><time>2026-04-18T09:46:44.953Z</time></trkpt><trkpt lat="45.3532919" lon="7.6014639"><ele>502.0</ele><time>2026-04-18T09:46:45.957Z</time></trkpt><trkpt lat="45.3533902" lon="7.6014217"><ele>502.00000000000006</ele><time>2026-04-18T09:46:46.948Z</time></trkpt><trkpt lat="45.3534928" lon="7.6013918"><ele>502.0</ele><time>2026-04-18T09:46:47.954Z</time></trkpt><trkpt lat="45.3535782" lon="7.6013684"><ele>502.0</ele><time>2026-04-18T09:46:48.957Z</time></trkpt><trkpt lat="45.3536633" lon="7.601335"><ele>502.0</ele><time>2026-04-18T09:46:49.952Z</time></trkpt><trkpt lat="45.353743" lon="7.6012984"><ele>502.00000000000006</ele><time>2026-04-18T09:46:50.949Z</time></trkpt><trkpt lat="45.3538118" lon="7.6012477"><ele>502.0</ele><time>2026-04-18T09:46:51.953Z</time></trkpt><trkpt lat="45.3538786" lon="7.6011918"><ele>504.83333333333337</ele><time>2026-04-18T09:46:52.957Z</time></trkpt><trkpt lat="45.353955" lon="7.6011337"><ele>507.6666666666667</ele><time>2026-04-18T09:46:53.97Z</time></trkpt><trkpt lat="45.3540066" lon="7.6010783"><ele>510.5</ele><time>2026-04-18T09:46:54.958Z</time></trkpt><trkpt lat="45.3541093" lon="7.6010004"><ele>513.3333333333334</ele><time>2026-04-18T09:46:56.959Z</time></trkpt><trkpt lat="45.354179" lon="7.6009839"><ele>516.1666666666666</ele><time>2026-04-18T09:46:57.965Z</time></trkpt><trkpt lat="45.3542805" lon="7.60098"><ele>519.0</ele><time>2026-04-18T09:46:59.967Z</time></trkpt><trkpt lat="45.3543702" lon="7.6009797"><ele>519.0</ele><time>2026-04-18T09:47:01.955Z</time></trkpt><trkpt lat="45.3544477" lon="7.6009323"><ele>519.0</ele><time>2026-04-18T09:47:03.949Z</time></trkpt><trkpt lat="45.3544446" lon="7.6008013"><ele>519.0</ele><time>2026-04-18T09:47:05.952Z</time></trkpt><trkpt lat="45.3543455" lon="7.6006075"><ele>519.0</ele><time>2026-04-18T09:47:06.954Z</time></trkpt><trkpt lat="45.3542573" lon="7.6004316"><ele>520.8</ele><time>2026-04-18T09:47:07.954Z</time></trkpt><trkpt lat="45.3541857" lon="7.6002669"><ele>522.5999999999999</ele><time>2026-04-18T09:47:08.954Z</time></trkpt><trkpt lat="45.3541264" lon="7.6001315"><ele>524.4</ele><time>2026-04-18T09:47:09.958Z</time></trkpt><trkpt lat="45.3540822" lon="7.6000078"><ele>526.1999999999999</ele><time>2026-04-18T09:47:10.959Z</time></trkpt><trkpt lat="45.3540523" lon="7.5998856"><ele>528.0</ele><time>2026-04-18T09:47:11.961Z</time></trkpt><trkpt lat="45.3540248" lon="7.5997632"><ele>528.0</ele><time>2026-04-18T09:47:12.957Z</time></trkpt><trkpt lat="45.3540005" lon="7.5996502"><ele>528.0</ele><time>2026-04-18T09:47:13.96Z</time></trkpt><trkpt lat="45.3539824" lon="7.5995428"><ele>528.0</ele><time>2026-04-18T09:47:14.958Z</time></trkpt><trkpt lat="45.353974" lon="7.5994342"><ele>528.0</ele><time>2026-04-18T09:47:15.955Z</time></trkpt><trkpt lat="45.353983" lon="7.5993145"><ele>528.0</ele><time>2026-04-18T09:47:16.955Z</time></trkpt><trkpt lat="45.3540025" lon="7.5992076"><ele>528.0</ele><time>2026-04-18T09:47:17.954Z</time></trkpt><trkpt lat="45.3540381" lon="7.5990999"><ele>529.8</ele><time>2026-04-18T09:47:18.952Z</time></trkpt><trkpt lat="45.3540668" lon="7.5989999"><ele>531.5999999999999</ele><time>2026-04-18T09:47:19.954Z</time></trkpt><trkpt lat="45.3540871" lon="7.5989119"><ele>533.4000000000001</ele><time>2026-04-18T09:47:20.962Z</time></trkpt><trkpt lat="45.3541325" lon="7.5987931"><ele>535.2</ele><time>2026-04-18T09:47:22.954Z</time></trkpt><trkpt lat="45.3541341" lon="7.5986727"><ele>537.0</ele><time>2026-04-18T09:47:25.958Z</time></trkpt><trkpt lat="45.3540588" lon="7.5988234"><ele>537.0</ele><time>2026-04-18T09:47:30.96Z</time></trkpt><trkpt lat="45.353988" lon="7.5989058"><ele>537.0</ele><time>2026-04-18T09:47:31.957Z</time></trkpt><trkpt lat="45.3539043" lon="7.5989785"><ele>537.0</ele><time>2026-04-18T09:47:32.958Z</time></trkpt><trkpt lat="45.353811" lon="7.5990606"><ele>537.0</ele><time>2026-04-18T09:47:33.955Z</time></trkpt><trkpt lat="45.3537247" lon="7.599155"><ele>537.0</ele><time>2026-04-18T09:47:34.941Z</time></trkpt><trkpt lat="45.3536335" lon="7.5992485"><ele>540.8000000000001</ele><time>2026-04-18T09:47:35.98Z</time></trkpt><trkpt lat="45.3535616" lon="7.5993174"><ele>544.6</ele><time>2026-04-18T09:47:36.941Z</time></trkpt><trkpt lat="45.353472" lon="7.5993864"><ele>548.4000000000001</ele><time>2026-04-18T09:47:37.955Z</time></trkpt><trkpt lat="45.3533709" lon="7.5994321"><ele>552.2</ele><time>2026-04-18T09:47:38.951Z</time></trkpt><trkpt lat="45.3532766" lon="7.5994546"><ele>556.0</ele><time>2026-04-18T09:47:39.98Z</time></trkpt><trkpt lat="45.3531613" lon="7.599467"><ele>556.0</ele><time>2026-04-18T09:47:40.949Z</time></trkpt><trkpt lat="45.3530464" lon="7.5994711"><ele>556.0</ele><time>2026-04-18T09:47:41.952Z</time></trkpt><trkpt lat="45.3529359" lon="7.5994815"><ele>556.0</ele><time>2026-04-18T09:47:42.95Z</time></trkpt><trkpt lat="45.3528401" lon="7.5994506"><ele>556.0</ele><time>2026-04-18T09:47:43.949Z</time></trkpt><trkpt lat="45.3527535" lon="7.5994092"><ele>556.0</ele><time>2026-04-18T09:47:44.953Z</time></trkpt><trkpt lat="45.3526776" lon="7.599355"><ele>556.6666666666667</ele><time>2026-04-18T09:47:45.953Z</time></trkpt><trkpt lat="45.3526141" lon="7.5992691"><ele>557.3333333333334</ele><time>2026-04-18T09:47:46.955Z</time></trkpt><trkpt lat="45.3525476" lon="7.5992004"><ele>558.0</ele><time>2026-04-18T09:47:47.95Z</time></trkpt><trkpt lat="45.3524954" lon="7.5991228"><ele>558.6666666666666</ele><time>2026-04-18T09:47:48.96Z</time></trkpt><trkpt lat="45.3524556" lon="7.5990404"><ele>559.3333333333333</ele><time>2026-04-18T09:47:50.95Z</time></trkpt><trkpt lat="45.3523916" lon="7.5990738"><ele>560.0</ele><time>2026-04-18T09:47:57.953Z</time></trkpt><trkpt lat="45.3522983" lon="7.5991036"><ele>563.2</ele><time>2026-04-18T09:47:59.967Z</time></trkpt><trkpt lat="45.3521684" lon="7.5991232"><ele>566.4</ele><time>2026-04-18T09:48:01.964Z</time></trkpt><trkpt lat="45.3520732" lon="7.5990868"><ele>569.6</ele><time>2026-04-18T09:48:03.953Z</time></trkpt><trkpt lat="45.3520286" lon="7.5989298"><ele>572.8</ele><time>2026-04-18T09:48:06.952Z</time></trkpt><trkpt lat="45.3520737" lon="7.598825"><ele>576.0</ele><time>2026-04-18T09:48:07.956Z</time></trkpt><trkpt lat="45.3521362" lon="7.5986632"><ele>576.75</ele><time>2026-04-18T09:48:08.956Z</time></trkpt><trkpt lat="45.3521906" lon="7.5984874"><ele>577.5</ele><time>2026-04-18T09:48:09.964Z</time></trkpt><trkpt lat="45.3522449" lon="7.5983403"><ele>578.25</ele><time>2026-04-18T09:48:10.953Z</time></trkpt><trkpt lat="45.3523075" lon="7.5981966"><ele>579.0</ele><time>2026-04-18T09:48:11.953Z</time></trkpt><trkpt lat="45.3523587" lon="7.5980853"><ele>579.0</ele><time>2026-04-18T09:48:12.949Z</time></trkpt><trkpt lat="45.3524087" lon="7.5979526"><ele>579.0</ele><time>2026-04-18T09:48:13.957Z</time></trkpt><trkpt lat="45.3524667" lon="7.59783"><ele>579.0</ele><time>2026-04-18T09:48:14.951Z</time></trkpt><trkpt lat="45.352527" lon="7.5977762"><ele>579.0</ele><time>2026-04-18T09:48:15.954Z</time></trkpt><trkpt lat="45.3525918" lon="7.5977566"><ele>579.0</ele><time>2026-04-18T09:48:16.958Z</time></trkpt><trkpt lat="45.3526591" lon="7.5977009"><ele>579.0</ele><time>2026-04-18T09:48:17.957Z</time></trkpt><trkpt lat="45.3527464" lon="7.5975998"><ele>583.4</ele><time>2026-04-18T09:48:18.961Z</time></trkpt><trkpt lat="45.3528209" lon="7.5974866"><ele>587.8</ele><time>2026-04-18T09:48:19.957Z</time></trkpt><trkpt lat="45.3528745" lon="7.5973574"><ele>592.2</ele><time>2026-04-18T09:48:20.963Z</time></trkpt><trkpt lat="45.352936" lon="7.5972234"><ele>596.6</ele><time>2026-04-18T09:48:21.959Z</time></trkpt><trkpt lat="45.3530077" lon="7.597098"><ele>601.0</ele><time>2026-04-18T09:48:22.954Z</time></trkpt><trkpt lat="45.3530766" lon="7.596984"><ele>601.0</ele><time>2026-04-18T09:48:23.959Z</time></trkpt><trkpt lat="45.35314" lon="7.5968815"><ele>601.0</ele><time>2026-04-18T09:48:24.95Z</time></trkpt><trkpt lat="45.3531942" lon="7.5967968"><ele>601.0</ele><time>2026-04-18T09:48:25.956Z</time></trkpt><trkpt lat="45.3532466" lon="7.5967137"><ele>601.0</ele><time>2026-04-18T09:48:26.959Z</time></trkpt><trkpt lat="45.3532975" lon="7.5966469"><ele>601.0</ele><time>2026-04-18T09:48:27.958Z</time></trkpt><trkpt lat="45.3533582" lon="7.5965203"><ele>601.0</ele><time>2026-04-18T09:48:29.955Z</time></trkpt><trkpt lat="45.3534924" lon="7.5965073"><ele>601.0</ele><time>2026-04-18T09:48:32.954Z</time></trkpt><trkpt lat="45.3535658" lon="7.5964689"><ele>601.0</ele><time>2026-04-18T09:48:33.95Z</time></trkpt><trkpt lat="45.3536547" lon="7.5964293"><ele>601.0</ele><time>2026-04-18T09:48:34.954Z</time></trkpt><trkpt lat="45.3537414" lon="7.596396"><ele>601.0</ele><time>2026-04-18T09:48:35.956Z</time></trkpt><trkpt lat="45.3538285" lon="7.5963645"><ele>601.0</ele><time>2026-04-18T09:48:36.964Z</time></trkpt><trkpt lat="45.3539134" lon="7.5963265"><ele>601.0</ele><time>2026-04-18T09:48:37.955Z</time></trkpt><trkpt lat="45.3539827" lon="7.5962683"><ele>601.4285714285714</ele><time>2026-04-18T09:48:38.962Z</time></trkpt><trkpt lat="45.3540629" lon="7.5962311"><ele>601.8571428571429</ele><time>2026-04-18T09:48:39.959Z</time></trkpt><trkpt lat="45.3541314" lon="7.5961891"><ele>602.2857142857143</ele><time>2026-04-18T09:48:40.957Z</time></trkpt><trkpt lat="45.3542012" lon="7.5961585"><ele>602.7142857142858</ele><time>2026-04-18T09:48:41.963Z</time></trkpt><trkpt lat="45.3542723" lon="7.5961332"><ele>603.1428571428571</ele><time>2026-04-18T09:48:42.956Z</time></trkpt><trkpt lat="45.3543447" lon="7.5961179"><ele>603.5714285714287</ele><time>2026-04-18T09:48:43.954Z</time></trkpt><trkpt lat="45.3544114" lon="7.596106"><ele>604.0</ele><time>2026-04-18T09:48:44.957Z</time></trkpt><trkpt lat="45.354474" lon="7.5960925"><ele>604.0000000000001</ele><time>2026-04-18T09:48:45.953Z</time></trkpt><trkpt lat="45.3545436" lon="7.5960741"><ele>604.0</ele><time>2026-04-18T09:48:46.959Z</time></trkpt><trkpt lat="45.3546038" lon="7.5960461"><ele>604.0</ele><time>2026-04-18T09:48:47.96Z</time></trkpt><trkpt lat="45.3546667" lon="7.59602"><ele>604.0</ele><time>2026-04-18T09:48:48.962Z</time></trkpt><trkpt lat="45.3547356" lon="7.5959762"><ele>604.0</ele><time>2026-04-18T09:48:49.952Z</time></trkpt><trkpt lat="45.3547914" lon="7.5958928"><ele>604.0000000000001</ele><time>2026-04-18T09:48:50.96Z</time></trkpt><trkpt lat="45.3548391" lon="7.595805"><ele>604.0</ele><time>2026-04-18T09:48:51.956Z</time></trkpt><trkpt lat="45.3548744" lon="7.5957165"><ele>601.8333333333334</ele><time>2026-04-18T09:48:52.95Z</time></trkpt><trkpt lat="45.354903" lon="7.5956268"><ele>599.6666666666667</ele><time>2026-04-18T09:48:53.952Z</time></trkpt><trkpt lat="45.3549377" lon="7.59555"><ele>597.5</ele><time>2026-04-18T09:48:54.945Z</time></trkpt><trkpt lat="45.3549759" lon="7.5954683"><ele>595.3333333333334</ele><time>2026-04-18T09:48:55.957Z</time></trkpt><trkpt lat="45.3550554" lon="7.5954005"><ele>593.1666666666666</ele><time>2026-04-18T09:48:56.952Z</time></trkpt><trkpt lat="45.3551454" lon="7.5953503"><ele>591.0</ele><time>2026-04-18T09:48:57.964Z</time></trkpt><trkpt lat="45.3552387" lon="7.5953402"><ele>591.6666666666666</ele><time>2026-04-18T09:48:58.964Z</time></trkpt><trkpt lat="45.3553445" lon="7.5953351"><ele>592.3333333333334</ele><time>2026-04-18T09:48:59.948Z</time></trkpt><trkpt lat="45.3554223" lon="7.5953238"><ele>593.0</ele><time>2026-04-18T09:49:00.949Z</time></trkpt><trkpt lat="45.3555004" lon="7.5953115"><ele>593.6666666666667</ele><time>2026-04-18T09:49:01.946Z</time></trkpt><trkpt lat="45.3555692" lon="7.5953041"><ele>594.3333333333334</ele><time>2026-04-18T09:49:02.947Z</time></trkpt><trkpt lat="45.3556352" lon="7.5952878"><ele>595.0</ele><time>2026-04-18T09:49:03.944Z</time></trkpt><trkpt lat="45.3557227" lon="7.5952201"><ele>591.0</ele><time>2026-04-18T09:49:05.949Z</time></trkpt><trkpt lat="45.3557676" lon="7.5953533"><ele>587.0</ele><time>2026-04-18T09:49:07.952Z</time></trkpt><trkpt lat="45.355815" lon="7.5954623"><ele>583.0</ele><time>2026-04-18T09:49:08.955Z</time></trkpt><trkpt lat="45.35587" lon="7.5955869"><ele>579.0</ele><time>2026-04-18T09:49:09.952Z</time></trkpt><trkpt lat="45.3559312" lon="7.5957096"><ele>575.0</ele><time>2026-04-18T09:49:10.947Z</time></trkpt><trkpt lat="45.3559953" lon="7.5958254"><ele>575.0</ele><time>2026-04-18T09:49:11.945Z</time></trkpt><trkpt lat="45.3560798" lon="7.5959107"><ele>575.0</ele><time>2026-04-18T09:49:12.953Z</time></trkpt><trkpt lat="45.3561838" lon="7.5959796"><ele>575.0</ele><time>2026-04-18T09:49:13.951Z</time></trkpt><trkpt lat="45.3562933" lon="7.5960419"><ele>575.0</ele><time>2026-04-18T09:49:14.957Z</time></trkpt><trkpt lat="45.3563717" lon="7.5960986"><ele>575.0</ele><time>2026-04-18T09:49:15.95Z</time></trkpt><trkpt lat="45.356473" lon="7.5961453"><ele>571.8</ele><time>2026-04-18T09:49:16.952Z</time></trkpt><trkpt lat="45.3565841" lon="7.5961883"><ele>568.6</ele><time>2026-04-18T09:49:17.955Z</time></trkpt><trkpt lat="45.3566869" lon="7.5962169"><ele>565.4</ele><time>2026-04-18T09:49:18.957Z</time></trkpt><trkpt lat="45.3567931" lon="7.5962392"><ele>562.2</ele><time>2026-04-18T09:49:19.963Z</time></trkpt><trkpt lat="45.3568895" lon="7.5962386"><ele>559.0</ele><time>2026-04-18T09:49:20.954Z</time></trkpt><trkpt lat="45.3569792" lon="7.5962453"><ele>559.0</ele><time>2026-04-18T09:49:21.954Z</time></trkpt><trkpt lat="45.3570695" lon="7.5962444"><ele>559.0</ele><time>2026-04-18T09:49:22.953Z</time></trkpt><trkpt lat="45.3571681" lon="7.5962278"><ele>559.0</ele><time>2026-04-18T09:49:23.963Z</time></trkpt><trkpt lat="45.3572644" lon="7.5962028"><ele>559.0</ele><time>2026-04-18T09:49:24.96Z</time></trkpt><trkpt lat="45.3573556" lon="7.5961736"><ele>559.0</ele><time>2026-04-18T09:49:25.966Z</time></trkpt><trkpt lat="45.3574598" lon="7.5961406"><ele>562.6</ele><time>2026-04-18T09:49:26.955Z</time></trkpt><trkpt lat="45.3575543" lon="7.5960952"><ele>566.2</ele><time>2026-04-18T09:49:27.952Z</time></trkpt><trkpt lat="45.3576256" lon="7.5960428"><ele>569.8000000000001</ele><time>2026-04-18T09:49:28.953Z</time></trkpt><trkpt lat="45.3576783" lon="7.5959673"><ele>573.4</ele><time>2026-04-18T09:49:29.95Z</time></trkpt><trkpt lat="45.357761" lon="7.5958907"><ele>577.0</ele><time>2026-04-18T09:49:31.959Z</time></trkpt><trkpt lat="45.3578536" lon="7.5958423"><ele>577.0</ele><time>2026-04-18T09:49:33.953Z</time></trkpt><trkpt lat="45.3580231" lon="7.5959423"><ele>577.0</ele><time>2026-04-18T09:49:35.956Z</time></trkpt><trkpt lat="45.3581419" lon="7.596059"><ele>577.0</ele><time>2026-04-18T09:49:36.959Z</time></trkpt><trkpt lat="45.3582337" lon="7.5961464"><ele>577.0</ele><time>2026-04-18T09:49:37.962Z</time></trkpt><trkpt lat="45.3583215" lon="7.5962107"><ele>573.2</ele><time>2026-04-18T09:49:38.953Z</time></trkpt><trkpt lat="45.3584268" lon="7.5962557"><ele>569.4000000000001</ele><time>2026-04-18T09:49:39.955Z</time></trkpt><trkpt lat="45.3585275" lon="7.5962728"><ele>565.5999999999999</ele><time>2026-04-18T09:49:40.953Z</time></trkpt><trkpt lat="45.3586445" lon="7.5962614"><ele>561.8</ele><time>2026-04-18T09:49:41.964Z</time></trkpt><trkpt lat="45.3587269" lon="7.5962499"><ele>558.0</ele><time>2026-04-18T09:49:42.961Z</time></trkpt><trkpt lat="45.3587923" lon="7.5962119"><ele>560.0</ele><time>2026-04-18T09:49:43.958Z</time></trkpt><trkpt lat="45.3588499" lon="7.5961678"><ele>562.0</ele><time>2026-04-18T09:49:44.955Z</time></trkpt><trkpt lat="45.3589083" lon="7.5961179"><ele>564.0</ele><time>2026-04-18T09:49:45.957Z</time></trkpt><trkpt lat="45.3589821" lon="7.5961274"><ele>566.0</ele><time>2026-04-18T09:49:47.955Z</time></trkpt><trkpt lat="45.3589918" lon="7.5962916"><ele>568.0</ele><time>2026-04-18T09:49:49.956Z</time></trkpt><trkpt lat="45.3589559" lon="7.5964103"><ele>570.0</ele><time>2026-04-18T09:49:50.942Z</time></trkpt><trkpt lat="45.3589168" lon="7.5965629"><ele>571.0</ele><time>2026-04-18T09:49:51.955Z</time></trkpt><trkpt lat="45.3588724" lon="7.5967587"><ele>572.0</ele><time>2026-04-18T09:49:52.958Z</time></trkpt><trkpt lat="45.3588274" lon="7.5969596"><ele>573.0</ele><time>2026-04-18T09:49:53.955Z</time></trkpt><trkpt lat="45.3588" lon="7.5971617"><ele>574.0</ele><time>2026-04-18T09:49:54.946Z</time></trkpt><trkpt lat="45.3587842" lon="7.5973442"><ele>573.75</ele><time>2026-04-18T09:49:55.956Z</time></trkpt><trkpt lat="45.3587842" lon="7.597513"><ele>573.5</ele><time>2026-04-18T09:49:56.964Z</time></trkpt><trkpt lat="45.3588246" lon="7.5976659"><ele>573.25</ele><time>2026-04-18T09:49:57.966Z</time></trkpt><trkpt lat="45.3588798" lon="7.5978058"><ele>573.0</ele><time>2026-04-18T09:49:58.954Z</time></trkpt><trkpt lat="45.3589387" lon="7.5979413"><ele>573.0</ele><time>2026-04-18T09:49:59.961Z</time></trkpt><trkpt lat="45.3589873" lon="7.5980708"><ele>573.0</ele><time>2026-04-18T09:50:00.959Z</time></trkpt><trkpt lat="45.3590324" lon="7.5981816"><ele>573.0</ele><time>2026-04-18T09:50:01.959Z</time></trkpt><trkpt lat="45.3590825" lon="7.5982989"><ele>573.0</ele><time>2026-04-18T09:50:02.959Z</time></trkpt><trkpt lat="45.359162" lon="7.5983928"><ele>573.0</ele><time>2026-04-18T09:50:03.954Z</time></trkpt><trkpt lat="45.3592574" lon="7.5984692"><ele>573.0</ele><time>2026-04-18T09:50:04.961Z</time></trkpt><trkpt lat="45.3593523" lon="7.5985211"><ele>573.0</ele><time>2026-04-18T09:50:05.955Z</time></trkpt><trkpt lat="45.3594368" lon="7.5985712"><ele>573.0</ele><time>2026-04-18T09:50:06.947Z</time></trkpt><trkpt lat="45.3595032" lon="7.5986168"><ele>573.0</ele><time>2026-04-18T09:50:07.954Z</time></trkpt><trkpt lat="45.3595973" lon="7.5986421"><ele>573.0</ele><time>2026-04-18T09:50:09.951Z</time></trkpt><trkpt lat="45.3596165" lon="7.5985446"><ele>573.0</ele><time>2026-04-18T09:50:12.942Z</time></trkpt><trkpt lat="45.3595518" lon="7.5983998"><ele>573.0</ele><time>2026-04-18T09:50:13.953Z</time></trkpt><trkpt lat="45.3594961" lon="7.5982513"><ele>573.0</ele><time>2026-04-18T09:50:14.96Z</time></trkpt><trkpt lat="45.3594376" lon="7.5981032"><ele>573.0</ele><time>2026-04-18T09:50:15.956Z</time></trkpt><trkpt lat="45.3593855" lon="7.5979682"><ele>573.0</ele><time>2026-04-18T09:50:16.961Z</time></trkpt><trkpt lat="45.3593504" lon="7.5978438"><ele>573.0</ele><time>2026-04-18T09:50:17.961Z</time></trkpt><trkpt lat="45.3593398" lon="7.5976988"><ele>574.4</ele><time>2026-04-18T09:50:18.957Z</time></trkpt><trkpt lat="45.3593348" lon="7.5975471"><ele>575.8</ele><time>2026-04-18T09:50:19.952Z</time></trkpt><trkpt lat="45.3593431" lon="7.5973988"><ele>577.2</ele><time>2026-04-18T09:50:20.947Z</time></trkpt><trkpt lat="45.3593676" lon="7.5972799"><ele>578.6</ele><time>2026-04-18T09:50:21.947Z</time></trkpt><trkpt lat="45.3594089" lon="7.5971447"><ele>580.0</ele><time>2026-04-18T09:50:23.962Z</time></trkpt><trkpt lat="45.3594529" lon="7.5970755"><ele>580.0</ele><time>2026-04-18T09:50:25.952Z</time></trkpt><trkpt lat="45.3594649" lon="7.5972352"><ele>580.0</ele><time>2026-04-18T09:50:28.949Z</time></trkpt><trkpt lat="45.3594945" lon="7.5973931"><ele>580.0</ele><time>2026-04-18T09:50:29.948Z</time></trkpt><trkpt lat="45.3595346" lon="7.5975227"><ele>580.0</ele><time>2026-04-18T09:50:30.951Z</time></trkpt><trkpt lat="45.3595785" lon="7.5976575"><ele>580.0</ele><time>2026-04-18T09:50:31.96Z</time></trkpt><trkpt lat="45.3596459" lon="7.5977814"><ele>582.8333333333334</ele><time>2026-04-18T09:50:32.959Z</time></trkpt><trkpt lat="45.3597412" lon="7.5978423"><ele>585.6666666666667</ele><time>2026-04-18T09:50:33.956Z</time></trkpt><trkpt lat="45.3598358" lon="7.5978867"><ele>588.5</ele><time>2026-04-18T09:50:34.953Z</time></trkpt><trkpt lat="45.3599167" lon="7.597929"><ele>591.3333333333334</ele><time>2026-04-18T09:50:35.959Z</time></trkpt><trkpt lat="45.359989" lon="7.5979442"><ele>594.1666666666666</ele><time>2026-04-18T09:50:36.956Z</time></trkpt><trkpt lat="45.3600655" lon="7.5979562"><ele>597.0</ele><time>2026-04-18T09:50:37.958Z</time></trkpt><trkpt lat="45.3601314" lon="7.5979852"><ele>597.0</ele><time>2026-04-18T09:50:38.954Z</time></trkpt><trkpt lat="45.3602595" lon="7.5980309"><ele>597.0</ele><time>2026-04-18T09:50:40.949Z</time></trkpt><trkpt lat="45.3603207" lon="7.5980712"><ele>597.0</ele><time>2026-04-18T09:50:41.958Z</time></trkpt><trkpt lat="45.3604386" lon="7.598129"><ele>597.0</ele><time>2026-04-18T09:50:43.951Z</time></trkpt><trkpt lat="45.3605425" lon="7.5981586"><ele>597.0</ele><time>2026-04-18T09:50:45.957Z</time></trkpt><trkpt lat="45.3605942" lon="7.5982407"><ele>597.0</ele><time>2026-04-18T09:50:47.97Z</time></trkpt><trkpt lat="45.3605965" lon="7.5983403"><ele>597.0</ele><time>2026-04-18T09:50:48.949Z</time></trkpt><trkpt lat="45.3605376" lon="7.5985295"><ele>597.0</ele><time>2026-04-18T09:50:50.952Z</time></trkpt><trkpt lat="45.3605046" lon="7.5986282"><ele>597.0</ele><time>2026-04-18T09:50:51.952Z</time></trkpt><trkpt lat="45.3604673" lon="7.5987161"><ele>597.0</ele><time>2026-04-18T09:50:52.956Z</time></trkpt><trkpt lat="45.3604466" lon="7.5988309"><ele>597.0</ele><time>2026-04-18T09:50:53.955Z</time></trkpt><trkpt lat="45.360437" lon="7.5989477"><ele>598.8333333333334</ele><time>2026-04-18T09:50:54.959Z</time></trkpt><trkpt lat="45.3604466" lon="7.5990552"><ele>600.6666666666666</ele><time>2026-04-18T09:50:55.958Z</time></trkpt><trkpt lat="45.3604867" lon="7.59914"><ele>602.5</ele><time>2026-04-18T09:50:56.953Z</time></trkpt><trkpt lat="45.360528" lon="7.5992239"><ele>604.3333333333333</ele><time>2026-04-18T09:50:57.956Z</time></trkpt><trkpt lat="45.3605693" lon="7.5993008"><ele>606.1666666666666</ele><time>2026-04-18T09:50:58.958Z</time></trkpt><trkpt lat="45.3606057" lon="7.5993807"><ele>608.0</ele><time>2026-04-18T09:50:59.962Z</time></trkpt><trkpt lat="45.3606655" lon="7.59952"><ele>608.0</ele><time>2026-04-18T09:51:01.96Z</time></trkpt><trkpt lat="45.3607922" lon="7.5995797"><ele>608.0</ele><time>2026-04-18T09:51:03.96Z</time></trkpt><trkpt lat="45.3609088" lon="7.5995585"><ele>608.0</ele><time>2026-04-18T09:51:04.966Z</time></trkpt><trkpt lat="45.3610173" lon="7.5995415"><ele>608.0</ele><time>2026-04-18T09:51:05.957Z</time></trkpt><trkpt lat="45.3611221" lon="7.5995088"><ele>609.3333333333333</ele><time>2026-04-18T09:51:06.947Z</time></trkpt><trkpt lat="45.3612247" lon="7.5994641"><ele>610.6666666666666</ele><time>2026-04-18T09:51:07.975Z</time></trkpt><trkpt lat="45.3613139" lon="7.5994368"><ele>612.0</ele><time>2026-04-18T09:51:08.959Z</time></trkpt><trkpt lat="45.3613848" lon="7.5994031"><ele>613.3333333333334</ele><time>2026-04-18T09:51:09.956Z</time></trkpt><trkpt lat="45.3614645" lon="7.5993447"><ele>614.6666666666667</ele><time>2026-04-18T09:51:11.966Z</time></trkpt><trkpt lat="45.3615255" lon="7.5993042"><ele>616.0</ele><time>2026-04-18T09:51:13.955Z</time></trkpt><trkpt lat="45.3615286" lon="7.5994264"><ele>619.2</ele><time>2026-04-18T09:51:21.951Z</time></trkpt><trkpt lat="45.3615539" lon="7.5995161"><ele>622.4000000000001</ele><time>2026-04-18T09:51:23.957Z</time></trkpt><trkpt lat="45.3616138" lon="7.5996342"><ele>625.6</ele><time>2026-04-18T09:51:25.955Z</time></trkpt><trkpt lat="45.3616881" lon="7.5997405"><ele>628.8000000000001</ele><time>2026-04-18T09:51:27.963Z</time></trkpt><trkpt lat="45.3617788" lon="7.5998391"><ele>632.0</ele><time>2026-04-18T09:51:29.958Z</time></trkpt><trkpt lat="45.3619078" lon="7.5999079"><ele>632.0</ele><time>2026-04-18T09:51:31.957Z</time></trkpt><trkpt lat="45.3620424" lon="7.6000564"><ele>632.0</ele><time>2026-04-18T09:51:32.956Z</time></trkpt><trkpt lat="45.3621348" lon="7.6000925"><ele>632.0</ele><time>2026-04-18T09:51:34.961Z</time></trkpt><trkpt lat="45.3622092" lon="7.60007"><ele>632.0</ele><time>2026-04-18T09:51:37.958Z</time></trkpt><trkpt lat="45.3621257" lon="7.6000599"><ele>632.0</ele><time>2026-04-18T09:51:43.965Z</time></trkpt><trkpt lat="45.3621257" lon="7.5999522"><ele>632.0</ele><time>2026-04-18T09:51:45.96Z</time></trkpt><trkpt lat="45.3621793" lon="7.5998386"><ele>632.0</ele><time>2026-04-18T09:51:47.957Z</time></trkpt><trkpt lat="45.3622037" lon="7.5997194"><ele>632.0</ele><time>2026-04-18T09:51:49.953Z</time></trkpt><trkpt lat="45.3622357" lon="7.5996254"><ele>632.0</ele><time>2026-04-18T09:51:51.956Z</time></trkpt><trkpt lat="45.362336" lon="7.5996327"><ele>632.0</ele><time>2026-04-18T09:51:54.956Z</time></trkpt><trkpt lat="45.3624296" lon="7.5996973"><ele>636.8</ele><time>2026-04-18T09:51:56.958Z</time></trkpt><trkpt lat="45.3625087" lon="7.5998061"><ele>641.6</ele><time>2026-04-18T09:51:58.955Z</time></trkpt><trkpt lat="45.3625917" lon="7.5999013"><ele>646.4</ele><time>2026-04-18T09:52:00.955Z</time></trkpt><trkpt lat="45.3626412" lon="7.6000007"><ele>651.1999999999999</ele><time>2026-04-18T09:52:02.954Z</time></trkpt><trkpt lat="45.3627436" lon="7.6000781"><ele>656.0</ele><time>2026-04-18T09:52:04.952Z</time></trkpt><trkpt lat="45.3628584" lon="7.6001458"><ele>655.9999999999999</ele><time>2026-04-18T09:52:06.961Z</time></trkpt><trkpt lat="45.3629211" lon="7.6001934"><ele>656.0</ele><time>2026-04-18T09:52:07.945Z</time></trkpt><trkpt lat="45.3629841" lon="7.6002392"><ele>656.0</ele><time>2026-04-18T09:52:08.961Z</time></trkpt><trkpt lat="45.3630408" lon="7.6002874"><ele>656.0</ele><time>2026-04-18T09:52:09.953Z</time></trkpt><trkpt lat="45.3630975" lon="7.600335"><ele>656.0</ele><time>2026-04-18T09:52:10.961Z</time></trkpt><trkpt lat="45.3631506" lon="7.6003907"><ele>655.9999999999999</ele><time>2026-04-18T09:52:11.958Z</time></trkpt><trkpt lat="45.3632102" lon="7.6004319"><ele>656.0</ele><time>2026-04-18T09:52:12.953Z</time></trkpt><trkpt lat="45.3632832" lon="7.6004509"><ele>654.1999999999999</ele><time>2026-04-18T09:52:13.967Z</time></trkpt><trkpt lat="45.3633564" lon="7.6004574"><ele>652.4</ele><time>2026-04-18T09:52:14.959Z</time></trkpt><trkpt lat="45.3634277" lon="7.6004546"><ele>650.6</ele><time>2026-04-18T09:52:16.042Z</time></trkpt><trkpt lat="45.3635555" lon="7.6004447"><ele>648.8</ele><time>2026-04-18T09:52:18.026Z</time></trkpt><trkpt lat="45.3636862" lon="7.6004253"><ele>647.0</ele><time>2026-04-18T09:52:20.041Z</time></trkpt><trkpt lat="45.3638061" lon="7.6003873"><ele>653.3333333333333</ele><time>2026-04-18T09:52:21.965Z</time></trkpt><trkpt lat="45.3638836" lon="7.6003253"><ele>659.6666666666666</ele><time>2026-04-18T09:52:23.955Z</time></trkpt><trkpt lat="45.3639494" lon="7.6003012"><ele>666.0</ele><time>2026-04-18T09:52:25.986Z</time></trkpt><trkpt lat="45.3640351" lon="7.6002961"><ele>672.3333333333334</ele><time>2026-04-18T09:52:28.032Z</time></trkpt><trkpt lat="45.3641045" lon="7.6002739"><ele>678.6666666666667</ele><time>2026-04-18T09:52:29.937Z</time></trkpt><trkpt lat="45.3641781" lon="7.6002375"><ele>685.0</ele><time>2026-04-18T09:52:32.946Z</time></trkpt><trkpt lat="45.3642518" lon="7.600277"><ele>678.2</ele><time>2026-04-18T09:52:36.952Z</time></trkpt><trkpt lat="45.3643268" lon="7.6003598"><ele>671.4</ele><time>2026-04-18T09:52:39.954Z</time></trkpt><trkpt lat="45.3644115" lon="7.6004118"><ele>664.5999999999999</ele><time>2026-04-18T09:52:41.952Z</time></trkpt><trkpt lat="45.3645049" lon="7.6004765"><ele>657.8</ele><time>2026-04-18T09:52:43.972Z</time></trkpt><trkpt lat="45.364605" lon="7.6005325"><ele>651.0</ele><time>2026-04-18T09:52:45.952Z</time></trkpt><trkpt lat="45.3646867" lon="7.600581"><ele>655.2857142857143</ele><time>2026-04-18T09:52:47.948Z</time></trkpt><trkpt lat="45.3647561" lon="7.600624"><ele>659.5714285714286</ele><time>2026-04-18T09:52:49.945Z</time></trkpt><trkpt lat="45.3648352" lon="7.6006461"><ele>663.8571428571429</ele><time>2026-04-18T09:52:51.96Z</time></trkpt><trkpt lat="45.3649024" lon="7.6006791"><ele>668.1428571428571</ele><time>2026-04-18T09:52:53.95Z</time></trkpt><trkpt lat="45.364971" lon="7.6007122"><ele>672.4285714285714</ele><time>2026-04-18T09:52:55.95Z</time></trkpt><trkpt lat="45.3650216" lon="7.6007705"><ele>676.7142857142858</ele><time>2026-04-18T09:52:57.959Z</time></trkpt><trkpt lat="45.3650687" lon="7.6008614"><ele>681.0</ele><time>2026-04-18T09:52:59.954Z</time></trkpt><trkpt lat="45.365088" lon="7.600969"><ele>681.0</ele><time>2026-04-18T09:53:01.945Z</time></trkpt><trkpt lat="45.3650893" lon="7.6010785"><ele>681.0</ele><time>2026-04-18T09:53:03.961Z</time></trkpt><trkpt lat="45.3650716" lon="7.6011723"><ele>681.0</ele><time>2026-04-18T09:53:05.951Z</time></trkpt><trkpt lat="45.3650442" lon="7.6013237"><ele>681.0</ele><time>2026-04-18T09:53:07.955Z</time></trkpt><trkpt lat="45.3650181" lon="7.6014784"><ele>681.0</ele><time>2026-04-18T09:53:09.952Z</time></trkpt><trkpt lat="45.3649971" lon="7.6015777"><ele>681.0</ele><time>2026-04-18T09:53:11.951Z</time></trkpt><trkpt lat="45.3649956" lon="7.601723"><ele>679.4</ele><time>2026-04-18T09:53:13.957Z</time></trkpt><trkpt lat="45.3650151" lon="7.6018491"><ele>677.8</ele><time>2026-04-18T09:53:15.954Z</time></trkpt><trkpt lat="45.3650311" lon="7.6019833"><ele>676.1999999999999</ele><time>2026-04-18T09:53:17.944Z</time></trkpt><trkpt lat="45.3650422" lon="7.6020761"><ele>674.5999999999999</ele><time>2026-04-18T09:53:21.948Z</time></trkpt><trkpt lat="45.3650583" lon="7.602194"><ele>673.0</ele><time>2026-04-18T09:53:23.951Z</time></trkpt><trkpt lat="45.3651101" lon="7.6024147"><ele>673.0</ele><time>2026-04-18T09:54:16.952Z</time></trkpt><trkpt lat="45.3651597" lon="7.6024972"><ele>673.0</ele><time>2026-04-18T09:54:18.947Z</time></trkpt><trkpt lat="45.3652285" lon="7.602602"><ele>673.0</ele><time>2026-04-18T09:54:20.947Z</time></trkpt><trkpt lat="45.3653184" lon="7.6026891"><ele>673.0</ele><time>2026-04-18T09:54:22.949Z</time></trkpt><trkpt lat="45.3654507" lon="7.6027614"><ele>673.0</ele><time>2026-04-18T09:54:24.945Z</time></trkpt><trkpt lat="45.3655885" lon="7.6029744"><ele>676.0</ele><time>2026-04-18T09:54:25.955Z</time></trkpt><trkpt lat="45.365672" lon="7.6030675"><ele>679.0</ele><time>2026-04-18T09:54:26.949Z</time></trkpt><trkpt lat="45.3657842" lon="7.6030878"><ele>682.0</ele><time>2026-04-18T09:54:28.948Z</time></trkpt><trkpt lat="45.3658762" lon="7.6030819"><ele>685.0</ele><time>2026-04-18T09:54:30.948Z</time></trkpt><trkpt lat="45.3659526" lon="7.6030634"><ele>688.0</ele><time>2026-04-18T09:54:32.951Z</time></trkpt><trkpt lat="45.3660358" lon="7.6030631"><ele>688.0</ele><time>2026-04-18T09:54:35.957Z</time></trkpt><trkpt lat="45.3660781" lon="7.6031525"><ele>688.0</ele><time>2026-04-18T09:54:37.954Z</time></trkpt><trkpt lat="45.3661336" lon="7.603272"><ele>688.0</ele><time>2026-04-18T09:54:39.953Z</time></trkpt><trkpt lat="45.366172" lon="7.6033646"><ele>688.0</ele><time>2026-04-18T09:54:40.955Z</time></trkpt><trkpt lat="45.3662173" lon="7.6034472"><ele>688.0</ele><time>2026-04-18T09:54:41.939Z</time></trkpt><trkpt lat="45.3662691" lon="7.6035134"><ele>688.0</ele><time>2026-04-18T09:54:43.019Z</time></trkpt><trkpt lat="45.3663222" lon="7.6035775"><ele>689.25</ele><time>2026-04-18T09:54:43.945Z</time></trkpt><trkpt lat="45.3664116" lon="7.6036829"><ele>690.5</ele><time>2026-04-18T09:54:45.946Z</time></trkpt><trkpt lat="45.3664986" lon="7.6037895"><ele>691.75</ele><time>2026-04-18T09:54:47.953Z</time></trkpt><trkpt lat="45.366583" lon="7.6039018"><ele>693.0</ele><time>2026-04-18T09:54:49.944Z</time></trkpt><trkpt lat="45.3666429" lon="7.6040256"><ele>693.0</ele><time>2026-04-18T09:54:51.95Z</time></trkpt><trkpt lat="45.3666837" lon="7.6041633"><ele>693.0</ele><time>2026-04-18T09:54:54.017Z</time></trkpt><trkpt lat="45.3667057" lon="7.6043108"><ele>693.0</ele><time>2026-04-18T09:54:55.963Z</time></trkpt><trkpt lat="45.366731" lon="7.6044433"><ele>693.0</ele><time>2026-04-18T09:54:57.968Z</time></trkpt><trkpt lat="45.3667693" lon="7.6045629"><ele>693.0</ele><time>2026-04-18T09:55:00.973Z</time></trkpt><trkpt lat="45.3668484" lon="7.6046083"><ele>693.0</ele><time>2026-04-18T09:55:03.962Z</time></trkpt><trkpt lat="45.3669426" lon="7.604593"><ele>693.0</ele><time>2026-04-18T09:55:05.967Z</time></trkpt><trkpt lat="45.367028" lon="7.6045806"><ele>693.0</ele><time>2026-04-18T09:55:07.969Z</time></trkpt><trkpt lat="45.3671026" lon="7.6045609"><ele>693.0</ele><time>2026-04-18T09:55:10.975Z</time></trkpt><trkpt lat="45.3671444" lon="7.6044927"><ele>693.0</ele><time>2026-04-18T09:55:15.962Z</time></trkpt><trkpt lat="45.3671523" lon="7.6043708"><ele>693.0</ele><time>2026-04-18T09:55:17.959Z</time></trkpt><trkpt lat="45.3671507" lon="7.6042621"><ele>693.0</ele><time>2026-04-18T09:55:19.964Z</time></trkpt><trkpt lat="45.3671404" lon="7.6041613"><ele>693.0</ele><time>2026-04-18T09:55:20.966Z</time></trkpt><trkpt lat="45.3671126" lon="7.603986"><ele>693.0</ele><time>2026-04-18T09:55:22.969Z</time></trkpt><trkpt lat="45.3670933" lon="7.6038713"><ele>693.0</ele><time>2026-04-18T09:55:23.965Z</time></trkpt><trkpt lat="45.367088" lon="7.6037627"><ele>693.0</ele><time>2026-04-18T09:55:24.968Z</time></trkpt><trkpt lat="45.3670739" lon="7.6036636"><ele>693.0</ele><time>2026-04-18T09:55:25.969Z</time></trkpt><trkpt lat="45.3670616" lon="7.6035515"><ele>693.8333333333334</ele><time>2026-04-18T09:55:26.972Z</time></trkpt><trkpt lat="45.3670508" lon="7.6034427"><ele>694.6666666666666</ele><time>2026-04-18T09:55:27.974Z</time></trkpt><trkpt lat="45.3670228" lon="7.6033543"><ele>695.5</ele><time>2026-04-18T09:55:28.968Z</time></trkpt><trkpt lat="45.3669732" lon="7.6032092"><ele>696.3333333333333</ele><time>2026-04-18T09:55:30.97Z</time></trkpt><trkpt lat="45.3669238" lon="7.6031443"><ele>697.1666666666666</ele><time>2026-04-18T09:55:31.962Z</time></trkpt><trkpt lat="45.3668695" lon="7.6030836"><ele>698.0</ele><time>2026-04-18T09:55:32.96Z</time></trkpt><trkpt lat="45.3668056" lon="7.6030178"><ele>698.0</ele><time>2026-04-18T09:55:33.96Z</time></trkpt><trkpt lat="45.3667401" lon="7.6029558"><ele>698.0</ele><time>2026-04-18T09:55:34.965Z</time></trkpt><trkpt lat="45.3666731" lon="7.6028865"><ele>698.0</ele><time>2026-04-18T09:55:35.968Z</time></trkpt><trkpt lat="45.3666054" lon="7.6028014"><ele>698.0</ele><time>2026-04-18T09:55:36.965Z</time></trkpt><trkpt lat="45.36655" lon="7.6026987"><ele>698.0</ele><time>2026-04-18T09:55:37.97Z</time></trkpt><trkpt lat="45.3664977" lon="7.6025734"><ele>698.0</ele><time>2026-04-18T09:55:38.963Z</time></trkpt><trkpt lat="45.3664492" lon="7.6024501"><ele>697.6666666666666</ele><time>2026-04-18T09:55:39.959Z</time></trkpt><trkpt lat="45.3664045" lon="7.6023202"><ele>697.3333333333333</ele><time>2026-04-18T09:55:40.963Z</time></trkpt><trkpt lat="45.36637" lon="7.6022117"><ele>697.0</ele><time>2026-04-18T09:55:41.968Z</time></trkpt><trkpt lat="45.3663518" lon="7.602105"><ele>696.6666666666666</ele><time>2026-04-18T09:55:42.961Z</time></trkpt><trkpt lat="45.3663344" lon="7.6019977"><ele>696.3333333333334</ele><time>2026-04-18T09:55:43.966Z</time></trkpt><trkpt lat="45.3663089" lon="7.6018886"><ele>696.0</ele><time>2026-04-18T09:55:44.965Z</time></trkpt><trkpt lat="45.3662823" lon="7.6017699"><ele>698.4</ele><time>2026-04-18T09:55:45.972Z</time></trkpt><trkpt lat="45.3662513" lon="7.6016489"><ele>700.8</ele><time>2026-04-18T09:55:46.964Z</time></trkpt><trkpt lat="45.3662289" lon="7.6015106"><ele>703.1999999999999</ele><time>2026-04-18T09:55:47.97Z</time></trkpt><trkpt lat="45.366209" lon="7.6013753"><ele>705.5999999999999</ele><time>2026-04-18T09:55:48.959Z</time></trkpt><trkpt lat="45.3662153" lon="7.6012279"><ele>708.0</ele><time>2026-04-18T09:55:49.962Z</time></trkpt><trkpt lat="45.366232" lon="7.601083"><ele>710.8</ele><time>2026-04-18T09:55:50.962Z</time></trkpt><trkpt lat="45.3662436" lon="7.6009339"><ele>713.5999999999999</ele><time>2026-04-18T09:55:51.976Z</time></trkpt><trkpt lat="45.3662579" lon="7.6007717"><ele>716.4000000000001</ele><time>2026-04-18T09:55:52.964Z</time></trkpt><trkpt lat="45.3662581" lon="7.6006081"><ele>719.2</ele><time>2026-04-18T09:55:53.965Z</time></trkpt><trkpt lat="45.3662438" lon="7.6004621"><ele>722.0</ele><time>2026-04-18T09:55:54.969Z</time></trkpt><trkpt lat="45.3662288" lon="7.6003277"><ele>724.6666666666666</ele><time>2026-04-18T09:55:55.959Z</time></trkpt><trkpt lat="45.3662173" lon="7.6002202"><ele>727.3333333333333</ele><time>2026-04-18T09:55:56.973Z</time></trkpt><trkpt lat="45.3662252" lon="7.6001038"><ele>730.0</ele><time>2026-04-18T09:55:58.027Z</time></trkpt><trkpt lat="45.3662418" lon="7.5999835"><ele>732.6666666666666</ele><time>2026-04-18T09:55:59.028Z</time></trkpt><trkpt lat="45.3662618" lon="7.5998711"><ele>735.3333333333334</ele><time>2026-04-18T09:56:00.031Z</time></trkpt><trkpt lat="45.3662822" lon="7.5997658"><ele>738.0</ele><time>2026-04-18T09:56:00.952Z</time></trkpt><trkpt lat="45.3663066" lon="7.5996509"><ele>738.0</ele><time>2026-04-18T09:56:01.955Z</time></trkpt><trkpt lat="45.3663389" lon="7.5995503"><ele>738.0</ele><time>2026-04-18T09:56:02.944Z</time></trkpt><trkpt lat="45.3663662" lon="7.599437"><ele>738.0</ele><time>2026-04-18T09:56:03.948Z</time></trkpt><trkpt lat="45.3664014" lon="7.5993038"><ele>738.0</ele><time>2026-04-18T09:56:04.948Z</time></trkpt><trkpt lat="45.3664229" lon="7.599168"><ele>738.0</ele><time>2026-04-18T09:56:05.958Z</time></trkpt><trkpt lat="45.3664402" lon="7.5990379"><ele>740.6666666666666</ele><time>2026-04-18T09:56:06.945Z</time></trkpt><trkpt lat="45.3664671" lon="7.5988944"><ele>743.3333333333334</ele><time>2026-04-18T09:56:07.955Z</time></trkpt><trkpt lat="45.3664915" lon="7.5987732"><ele>746.0</ele><time>2026-04-18T09:56:08.98Z</time></trkpt><trkpt lat="45.366509" lon="7.5986716"><ele>748.6666666666667</ele><time>2026-04-18T09:56:09.949Z</time></trkpt><trkpt lat="45.3665201" lon="7.5985735"><ele>751.3333333333334</ele><time>2026-04-18T09:56:11.031Z</time></trkpt><trkpt lat="45.366536" lon="7.598483"><ele>754.0</ele><time>2026-04-18T09:56:11.949Z</time></trkpt><trkpt lat="45.3665485" lon="7.5983724"><ele>755.5</ele><time>2026-04-18T09:56:12.955Z</time></trkpt><trkpt lat="45.3665612" lon="7.5982512"><ele>757.0</ele><time>2026-04-18T09:56:13.963Z</time></trkpt><trkpt lat="45.3665713" lon="7.5981392"><ele>758.5</ele><time>2026-04-18T09:56:15.029Z</time></trkpt><trkpt lat="45.3665817" lon="7.5980304"><ele>760.0</ele><time>2026-04-18T09:56:16.04Z</time></trkpt><trkpt lat="45.3665903" lon="7.5979158"><ele>761.5</ele><time>2026-04-18T09:56:16.958Z</time></trkpt><trkpt lat="45.3665936" lon="7.5977912"><ele>763.0</ele><time>2026-04-18T09:56:17.95Z</time></trkpt><trkpt lat="45.366589" lon="7.5976704"><ele>764.5999999999999</ele><time>2026-04-18T09:56:18.966Z</time></trkpt><trkpt lat="45.3665798" lon="7.5975628"><ele>766.1999999999999</ele><time>2026-04-18T09:56:20.032Z</time></trkpt><trkpt lat="45.3665771" lon="7.5974426"><ele>767.8</ele><time>2026-04-18T09:56:21.031Z</time></trkpt><trkpt lat="45.3665812" lon="7.5972986"><ele>769.4</ele><time>2026-04-18T09:56:21.955Z</time></trkpt><trkpt lat="45.3665858" lon="7.5971593"><ele>771.0</ele><time>2026-04-18T09:56:22.957Z</time></trkpt><trkpt lat="45.3665913" lon="7.5970089"><ele>772.0</ele><time>2026-04-18T09:56:23.952Z</time></trkpt><trkpt lat="45.3665902" lon="7.5968685"><ele>773.0</ele><time>2026-04-18T09:56:25.027Z</time></trkpt><trkpt lat="45.3665871" lon="7.5967073"><ele>774.0</ele><time>2026-04-18T09:56:26.001Z</time></trkpt><trkpt lat="45.3665709" lon="7.5965473"><ele>775.0</ele><time>2026-04-18T09:56:26.957Z</time></trkpt><trkpt lat="45.3665503" lon="7.596395"><ele>776.0</ele><time>2026-04-18T09:56:28.029Z</time></trkpt><trkpt lat="45.3665293" lon="7.5962436"><ele>776.5999999999999</ele><time>2026-04-18T09:56:29.031Z</time></trkpt><trkpt lat="45.3665125" lon="7.5960891"><ele>777.2</ele><time>2026-04-18T09:56:29.966Z</time></trkpt><trkpt lat="45.366513" lon="7.5959459"><ele>777.8</ele><time>2026-04-18T09:56:30.958Z</time></trkpt><trkpt lat="45.3665154" lon="7.59582"><ele>778.4000000000001</ele><time>2026-04-18T09:56:31.957Z</time></trkpt><trkpt lat="45.366519" lon="7.5956892"><ele>779.0</ele><time>2026-04-18T09:56:32.985Z</time></trkpt><trkpt lat="45.3665188" lon="7.5955797"><ele>779.0000000000001</ele><time>2026-04-18T09:56:33.96Z</time></trkpt><trkpt lat="45.3664957" lon="7.5954867"><ele>779.0</ele><time>2026-04-18T09:56:34.962Z</time></trkpt><trkpt lat="45.3664607" lon="7.5953661"><ele>779.0</ele><time>2026-04-18T09:56:35.964Z</time></trkpt><trkpt lat="45.3664242" lon="7.5952678"><ele>779.0</ele><time>2026-04-18T09:56:36.96Z</time></trkpt><trkpt lat="45.3663993" lon="7.595175"><ele>779.0</ele><time>2026-04-18T09:56:37.961Z</time></trkpt><trkpt lat="45.3663689" lon="7.5950812"><ele>779.0000000000001</ele><time>2026-04-18T09:56:39.964Z</time></trkpt><trkpt lat="45.3663561" lon="7.5949885"><ele>779.0</ele><time>2026-04-18T09:56:41.972Z</time></trkpt><trkpt lat="45.3663928" lon="7.5949084"><ele>780.0000000000001</ele><time>2026-04-18T09:56:44.971Z</time></trkpt><trkpt lat="45.3664299" lon="7.5948339"><ele>781.0</ele><time>2026-04-18T09:56:46.97Z</time></trkpt><trkpt lat="45.3664577" lon="7.5947432"><ele>782.0</ele><time>2026-04-18T09:56:49.038Z</time></trkpt><trkpt lat="45.3664952" lon="7.5946529"><ele>783.0</ele><time>2026-04-18T09:56:50.951Z</time></trkpt><trkpt lat="45.3665222" lon="7.5945597"><ele>784.0</ele><time>2026-04-18T09:56:52.951Z</time></trkpt><trkpt lat="45.3665623" lon="7.5944551"><ele>785.0000000000001</ele><time>2026-04-18T09:56:54.951Z</time></trkpt><trkpt lat="45.3666249" lon="7.5943754"><ele>786.0</ele><time>2026-04-18T09:56:56.953Z</time></trkpt><trkpt lat="45.3666964" lon="7.5943399"><ele>786.5</ele><time>2026-04-18T09:56:58.946Z</time></trkpt><trkpt lat="45.3667608" lon="7.5943415"><ele>787.0</ele><time>2026-04-18T09:57:01.014Z</time></trkpt><trkpt lat="45.3668349" lon="7.5943415"><ele>787.5</ele><time>2026-04-18T09:57:02.949Z</time></trkpt><trkpt lat="45.3669055" lon="7.5943367"><ele>788.0</ele><time>2026-04-18T09:57:04.952Z</time></trkpt><trkpt lat="45.3669746" lon="7.5943363"><ele>788.5</ele><time>2026-04-18T09:57:06.952Z</time></trkpt><trkpt lat="45.3670774" lon="7.5943935"><ele>789.0</ele><time>2026-04-18T09:58:21.964Z</time></trkpt><trkpt lat="45.3671395" lon="7.5943636"><ele>785.6666666666666</ele><time>2026-04-18T09:58:24.964Z</time></trkpt><trkpt lat="45.3672118" lon="7.5944202"><ele>782.3333333333333</ele><time>2026-04-18T09:58:31.967Z</time></trkpt><trkpt lat="45.3672564" lon="7.5944899"><ele>779.0</ele><time>2026-04-18T09:58:41.968Z</time></trkpt><trkpt lat="45.3673148" lon="7.5945713"><ele>775.6666666666666</ele><time>2026-04-18T09:58:44.969Z</time></trkpt><trkpt lat="45.3673694" lon="7.5946283"><ele>772.3333333333333</ele><time>2026-04-18T09:58:47.967Z</time></trkpt><trkpt lat="45.3674416" lon="7.5946566"><ele>769.0</ele><time>2026-04-18T09:59:31.942Z</time></trkpt><trkpt lat="45.3676143" lon="7.5946407"><ele>768.1666666666666</ele><time>2026-04-18T09:59:46.959Z</time></trkpt><trkpt lat="45.3676707" lon="7.5947061"><ele>767.3333333333333</ele><time>2026-04-18T09:59:56.962Z</time></trkpt><trkpt lat="45.367686" lon="7.5948274"><ele>766.5</ele><time>2026-04-18T10:01:07.958Z</time></trkpt><trkpt lat="45.3677012" lon="7.5949148"><ele>765.6666666666666</ele><time>2026-04-18T10:01:14.956Z</time></trkpt><trkpt lat="45.3677322" lon="7.5950073"><ele>764.8333333333333</ele><time>2026-04-18T10:01:55.96Z</time></trkpt><trkpt lat="45.3677869" lon="7.5950756"><ele>764.0</ele><time>2026-04-18T10:02:00.956Z</time></trkpt><trkpt lat="45.3678226" lon="7.5951888"><ele>764.0</ele><time>2026-04-18T10:02:46.95Z</time></trkpt><trkpt lat="45.367856" lon="7.5952792"><ele>764.0</ele><time>2026-04-18T10:02:53.953Z</time></trkpt><trkpt lat="45.3678997" lon="7.59536"><ele>764.0</ele><time>2026-04-18T10:02:59.955Z</time></trkpt><trkpt lat="45.3679419" lon="7.5954415"><ele>764.0</ele><time>2026-04-18T10:03:03.956Z</time></trkpt><trkpt lat="45.3680038" lon="7.5955543"><ele>764.0</ele><time>2026-04-18T10:03:10.956Z</time></trkpt><trkpt lat="45.3680571" lon="7.595636"><ele>764.0</ele><time>2026-04-18T10:03:14.948Z</time></trkpt><trkpt lat="45.3680955" lon="7.5957284"><ele>757.1428571428572</ele><time>2026-04-18T10:03:48.954Z</time></trkpt><trkpt lat="45.3681559" lon="7.5957865"><ele>750.2857142857142</ele><time>2026-04-18T10:03:58.955Z</time></trkpt><trkpt lat="45.3682109" lon="7.5958431"><ele>743.4285714285714</ele><time>2026-04-18T10:04:03.957Z</time></trkpt><trkpt lat="45.3682623" lon="7.5959258"><ele>736.5714285714287</ele><time>2026-04-18T10:04:08.952Z</time></trkpt><trkpt lat="45.3683072" lon="7.5960016"><ele>729.7142857142858</ele><time>2026-04-18T10:04:12.952Z</time></trkpt><trkpt lat="45.3683476" lon="7.596079"><ele>722.8571428571429</ele><time>2026-04-18T10:04:16.937Z</time></trkpt><trkpt lat="45.3683983" lon="7.5961718"><ele>716.0</ele><time>2026-04-18T10:04:21.955Z</time></trkpt><trkpt lat="45.3684365" lon="7.5962447"><ele>714.1666666666666</ele><time>2026-04-18T10:04:23.954Z</time></trkpt><trkpt lat="45.3684771" lon="7.5963586"><ele>712.3333333333333</ele><time>2026-04-18T10:04:25.951Z</time></trkpt><trkpt lat="45.3685373" lon="7.59644"><ele>710.5</ele><time>2026-04-18T10:04:27.957Z</time></trkpt><trkpt lat="45.3686043" lon="7.5965238"><ele>708.6666666666666</ele><time>2026-04-18T10:04:29.947Z</time></trkpt><trkpt lat="45.3686706" lon="7.5965809"><ele>706.8333333333334</ele><time>2026-04-18T10:04:32.95Z</time></trkpt><trkpt lat="45.3687196" lon="7.5966507"><ele>705.0</ele><time>2026-04-18T10:04:37.955Z</time></trkpt><trkpt lat="45.3687589" lon="7.5967265"><ele>705.0</ele><time>2026-04-18T10:04:40.948Z</time></trkpt><trkpt lat="45.3688384" lon="7.596859"><ele>705.0</ele><time>2026-04-18T10:07:52.942Z</time></trkpt><trkpt lat="45.3688935" lon="7.5967953"><ele>705.0</ele><time>2026-04-18T10:09:59.96Z</time></trkpt><trkpt lat="45.3688835" lon="7.5966383"><ele>705.0</ele><time>2026-04-18T10:10:01.96Z</time></trkpt><trkpt lat="45.3688727" lon="7.5964884"><ele>705.0</ele><time>2026-04-18T10:10:03.962Z</time></trkpt><trkpt lat="45.3688929" lon="7.5963391"><ele>697.8</ele><time>2026-04-18T10:10:05.964Z</time></trkpt><trkpt lat="45.3689192" lon="7.5962018"><ele>690.6</ele><time>2026-04-18T10:10:07.939Z</time></trkpt><trkpt lat="45.3689387" lon="7.5960692"><ele>683.4000000000001</ele><time>2026-04-18T10:10:09.951Z</time></trkpt><trkpt lat="45.3689624" lon="7.5959398"><ele>676.2</ele><time>2026-04-18T10:10:11.956Z</time></trkpt><trkpt lat="45.3689841" lon="7.5958349"><ele>669.0</ele><time>2026-04-18T10:10:13.967Z</time></trkpt><trkpt lat="45.3690176" lon="7.5957038"><ele>669.0</ele><time>2026-04-18T10:10:15.964Z</time></trkpt><trkpt lat="45.3690219" lon="7.5955551"><ele>669.0</ele><time>2026-04-18T10:10:17.945Z</time></trkpt><trkpt lat="45.3690527" lon="7.5954051"><ele>669.0</ele><time>2026-04-18T10:10:19.952Z</time></trkpt><trkpt lat="45.3690798" lon="7.5952684"><ele>669.0</ele><time>2026-04-18T10:10:21.937Z</time></trkpt><trkpt lat="45.3690988" lon="7.5951139"><ele>669.0</ele><time>2026-04-18T10:10:23.955Z</time></trkpt><trkpt lat="45.3691155" lon="7.594963"><ele>668.6</ele><time>2026-04-18T10:10:25.949Z</time></trkpt><trkpt lat="45.3691308" lon="7.5948217"><ele>668.2</ele><time>2026-04-18T10:10:27.939Z</time></trkpt><trkpt lat="45.3691545" lon="7.5946699"><ele>667.8000000000001</ele><time>2026-04-18T10:10:29.947Z</time></trkpt><trkpt lat="45.3691785" lon="7.5945091"><ele>667.4000000000001</ele><time>2026-04-18T10:10:31.937Z</time></trkpt><trkpt lat="45.3692049" lon="7.5943695"><ele>667.0</ele><time>2026-04-18T10:10:33.959Z</time></trkpt><trkpt lat="45.3692623" lon="7.5942134"><ele>667.0</ele><time>2026-04-18T10:10:35.953Z</time></trkpt><trkpt lat="45.3692897" lon="7.5941258"><ele>667.0</ele><time>2026-04-18T10:10:36.954Z</time></trkpt><trkpt lat="45.3693195" lon="7.5940359"><ele>667.0</ele><time>2026-04-18T10:10:37.949Z</time></trkpt><trkpt lat="45.3693501" lon="7.5939415"><ele>667.0</ele><time>2026-04-18T10:10:38.944Z</time></trkpt><trkpt lat="45.3693815" lon="7.5938593"><ele>667.0</ele><time>2026-04-18T10:10:39.944Z</time></trkpt><trkpt lat="45.3694202" lon="7.5936954"><ele>667.0</ele><time>2026-04-18T10:10:41.95Z</time></trkpt><trkpt lat="45.3694527" lon="7.5935404"><ele>666.0</ele><time>2026-04-18T10:10:43.948Z</time></trkpt><trkpt lat="45.3694794" lon="7.5933941"><ele>665.0</ele><time>2026-04-18T10:10:45.948Z</time></trkpt><trkpt lat="45.3694951" lon="7.5932668"><ele>664.0</ele><time>2026-04-18T10:10:47.952Z</time></trkpt><trkpt lat="45.3695045" lon="7.5931549"><ele>663.0</ele><time>2026-04-18T10:10:49.941Z</time></trkpt><trkpt lat="45.3695367" lon="7.5930282"><ele>662.0</ele><time>2026-04-18T10:10:51.95Z</time></trkpt><trkpt lat="45.3695843" lon="7.5928684"><ele>659.8</ele><time>2026-04-18T10:10:53.949Z</time></trkpt><trkpt lat="45.369631" lon="7.5927032"><ele>657.6</ele><time>2026-04-18T10:10:55.954Z</time></trkpt><trkpt lat="45.3696454" lon="7.5926135"><ele>655.4</ele><time>2026-04-18T10:10:56.948Z</time></trkpt><trkpt lat="45.3696741" lon="7.5924539"><ele>653.1999999999999</ele><time>2026-04-18T10:10:58.953Z</time></trkpt><trkpt lat="45.3696857" lon="7.5923644"><ele>651.0</ele><time>2026-04-18T10:10:59.948Z</time></trkpt><trkpt lat="45.3697285" lon="7.5922166"><ele>649.8</ele><time>2026-04-18T10:11:01.954Z</time></trkpt><trkpt lat="45.3697846" lon="7.5920855"><ele>648.5999999999999</ele><time>2026-04-18T10:11:03.948Z</time></trkpt><trkpt lat="45.3698436" lon="7.5919707"><ele>647.4</ele><time>2026-04-18T10:11:05.955Z</time></trkpt><trkpt lat="45.3699019" lon="7.5918577"><ele>646.2</ele><time>2026-04-18T10:11:07.941Z</time></trkpt><trkpt lat="45.3699517" lon="7.5917342"><ele>645.0</ele><time>2026-04-18T10:11:09.951Z</time></trkpt><trkpt lat="45.3700302" lon="7.5916977"><ele>645.0</ele><time>2026-04-18T10:11:11.95Z</time></trkpt><trkpt lat="45.3701269" lon="7.5916887"><ele>645.0</ele><time>2026-04-18T10:11:13.956Z</time></trkpt><trkpt lat="45.3702046" lon="7.5917007"><ele>645.0</ele><time>2026-04-18T10:11:15.948Z</time></trkpt><trkpt lat="45.3702337" lon="7.5917868"><ele>645.0</ele><time>2026-04-18T10:11:17.948Z</time></trkpt><trkpt lat="45.3702684" lon="7.5918738"><ele>645.0</ele><time>2026-04-18T10:11:22.955Z</time></trkpt><trkpt lat="45.3702086" lon="7.5918127"><ele>645.0</ele><time>2026-04-18T10:12:27.952Z</time></trkpt><trkpt lat="45.3701489" lon="7.5917422"><ele>645.0</ele><time>2026-04-18T10:12:31.037Z</time></trkpt><trkpt lat="45.3700727" lon="7.5917753"><ele>645.0</ele><time>2026-04-18T10:12:34.956Z</time></trkpt><trkpt lat="45.3700326" lon="7.5918891"><ele>645.0</ele><time>2026-04-18T10:12:36.956Z</time></trkpt><trkpt lat="45.3699877" lon="7.5919731"><ele>645.0</ele><time>2026-04-18T10:12:38.944Z</time></trkpt><trkpt lat="45.3699275" lon="7.5920611"><ele>645.0</ele><time>2026-04-18T10:12:41.953Z</time></trkpt><trkpt lat="45.3698801" lon="7.592142"><ele>645.0</ele><time>2026-04-18T10:12:43.955Z</time></trkpt><trkpt lat="45.3698692" lon="7.5922472"><ele>644.3333333333334</ele><time>2026-04-18T10:12:45.956Z</time></trkpt><trkpt lat="45.3698586" lon="7.5923724"><ele>643.6666666666666</ele><time>2026-04-18T10:12:47.951Z</time></trkpt><trkpt lat="45.3698498" lon="7.5925148"><ele>643.0</ele><time>2026-04-18T10:12:49.955Z</time></trkpt><trkpt lat="45.3698332" lon="7.5926027"><ele>642.3333333333333</ele><time>2026-04-18T10:12:50.951Z</time></trkpt><trkpt lat="45.3697943" lon="7.5926948"><ele>641.6666666666666</ele><time>2026-04-18T10:12:51.942Z</time></trkpt><trkpt lat="45.3697599" lon="7.5927735"><ele>641.0</ele><time>2026-04-18T10:12:52.957Z</time></trkpt><trkpt lat="45.3697258" lon="7.592907"><ele>640.4</ele><time>2026-04-18T10:12:54.941Z</time></trkpt><trkpt lat="45.3697178" lon="7.5930099"><ele>639.8</ele><time>2026-04-18T10:12:56.947Z</time></trkpt><trkpt lat="45.3697139" lon="7.5931336"><ele>639.1999999999999</ele><time>2026-04-18T10:12:58.945Z</time></trkpt><trkpt lat="45.3697003" lon="7.5932755"><ele>638.5999999999999</ele><time>2026-04-18T10:13:00.952Z</time></trkpt><trkpt lat="45.3696844" lon="7.593473"><ele>638.0</ele><time>2026-04-18T10:13:02.949Z</time></trkpt><trkpt lat="45.3696625" lon="7.5936092"><ele>643.8</ele><time>2026-04-18T10:13:04.016Z</time></trkpt><trkpt lat="45.369636" lon="7.5937679"><ele>649.5999999999999</ele><time>2026-04-18T10:13:05.026Z</time></trkpt><trkpt lat="45.3696183" lon="7.5939129"><ele>655.4000000000001</ele><time>2026-04-18T10:13:06.023Z</time></trkpt><trkpt lat="45.3695853" lon="7.5940426"><ele>661.2</ele><time>2026-04-18T10:13:07.008Z</time></trkpt><trkpt lat="45.3695562" lon="7.5941887"><ele>667.0</ele><time>2026-04-18T10:13:07.954Z</time></trkpt><trkpt lat="45.3695252" lon="7.594329"><ele>667.0</ele><time>2026-04-18T10:13:08.947Z</time></trkpt><trkpt lat="45.3694997" lon="7.5944492"><ele>667.0</ele><time>2026-04-18T10:13:09.964Z</time></trkpt><trkpt lat="45.3694921" lon="7.5945885"><ele>667.0</ele><time>2026-04-18T10:13:11.03Z</time></trkpt><trkpt lat="45.3694605" lon="7.5947294"><ele>667.0</ele><time>2026-04-18T10:13:12.031Z</time></trkpt><trkpt lat="45.3693919" lon="7.5948835"><ele>667.0</ele><time>2026-04-18T10:13:12.941Z</time></trkpt><trkpt lat="45.3693462" lon="7.5950248"><ele>666.8333333333334</ele><time>2026-04-18T10:13:13.952Z</time></trkpt><trkpt lat="45.3693366" lon="7.5951502"><ele>666.6666666666667</ele><time>2026-04-18T10:13:14.988Z</time></trkpt><trkpt lat="45.3693202" lon="7.5952521"><ele>666.5</ele><time>2026-04-18T10:13:16.032Z</time></trkpt><trkpt lat="45.3693046" lon="7.5953596"><ele>666.3333333333334</ele><time>2026-04-18T10:13:17.032Z</time></trkpt><trkpt lat="45.3692943" lon="7.5954804"><ele>666.1666666666666</ele><time>2026-04-18T10:13:17.95Z</time></trkpt><trkpt lat="45.3692782" lon="7.5955956"><ele>666.0</ele><time>2026-04-18T10:13:18.946Z</time></trkpt><trkpt lat="45.3692628" lon="7.5957026"><ele>666.4285714285714</ele><time>2026-04-18T10:13:19.976Z</time></trkpt><trkpt lat="45.3692524" lon="7.5958028"><ele>666.8571428571428</ele><time>2026-04-18T10:13:21.015Z</time></trkpt><trkpt lat="45.3692445" lon="7.5959023"><ele>667.2857142857142</ele><time>2026-04-18T10:13:22.016Z</time></trkpt><trkpt lat="45.3692372" lon="7.5960059"><ele>667.7142857142858</ele><time>2026-04-18T10:13:22.951Z</time></trkpt><trkpt lat="45.3692294" lon="7.5961058"><ele>668.1428571428571</ele><time>2026-04-18T10:13:23.956Z</time></trkpt><trkpt lat="45.3692153" lon="7.5962194"><ele>668.5714285714286</ele><time>2026-04-18T10:13:24.968Z</time></trkpt><trkpt lat="45.3691943" lon="7.5963061"><ele>669.0</ele><time>2026-04-18T10:13:26.03Z</time></trkpt><trkpt lat="45.3691446" lon="7.5964564"><ele>668.0</ele><time>2026-04-18T10:13:27.954Z</time></trkpt><trkpt lat="45.3691107" lon="7.5966109"><ele>667.0</ele><time>2026-04-18T10:13:29.956Z</time></trkpt><trkpt lat="45.3690655" lon="7.596742"><ele>666.0</ele><time>2026-04-18T10:13:32.02Z</time></trkpt><trkpt lat="45.3690049" lon="7.5967809"><ele>665.0</ele><time>2026-04-18T10:13:34.971Z</time></trkpt><trkpt lat="45.3689814" lon="7.596889"><ele>664.0</ele><time>2026-04-18T10:13:54.96Z</time></trkpt><trkpt lat="45.3689568" lon="7.597015"><ele>664.0</ele><time>2026-04-18T10:13:56.962Z</time></trkpt><trkpt lat="45.368921" lon="7.5971389"><ele>664.0</ele><time>2026-04-18T10:13:58.954Z</time></trkpt><trkpt lat="45.3689108" lon="7.5972274"><ele>664.0</ele><time>2026-04-18T10:14:00.952Z</time></trkpt><trkpt lat="45.3689122" lon="7.5973179"><ele>664.0</ele><time>2026-04-18T10:14:02.963Z</time></trkpt><trkpt lat="45.3689298" lon="7.5974072"><ele>664.0</ele><time>2026-04-18T10:14:04.959Z</time></trkpt><trkpt lat="45.368954" lon="7.5975241"><ele>664.0</ele><time>2026-04-18T10:14:07.96Z</time></trkpt><trkpt lat="45.3690154" lon="7.5975911"><ele>664.0</ele><time>2026-04-18T10:14:09.958Z</time></trkpt><trkpt lat="45.3690628" lon="7.5976613"><ele>664.0</ele><time>2026-04-18T10:14:11.955Z</time></trkpt><trkpt lat="45.3690997" lon="7.5977364"><ele>664.0</ele><time>2026-04-18T10:14:13.952Z</time></trkpt><trkpt lat="45.3691387" lon="7.5978196"><ele>664.0</ele><time>2026-04-18T10:14:17.026Z</time></trkpt><trkpt lat="45.3692029" lon="7.5979071"><ele>664.0</ele><time>2026-04-18T10:14:19.973Z</time></trkpt><trkpt lat="45.369227" lon="7.5980218"><ele>664.0</ele><time>2026-04-18T10:14:22.955Z</time></trkpt><trkpt lat="45.3692039" lon="7.5981289"><ele>664.0</ele><time>2026-04-18T10:14:26.951Z</time></trkpt><trkpt lat="45.3691321" lon="7.59815"><ele>662.8333333333334</ele><time>2026-04-18T10:14:30.948Z</time></trkpt><trkpt lat="45.3690635" lon="7.598142"><ele>661.6666666666667</ele><time>2026-04-18T10:14:35.952Z</time></trkpt><trkpt lat="45.3689971" lon="7.5981628"><ele>660.5</ele><time>2026-04-18T10:14:39.978Z</time></trkpt><trkpt lat="45.3689219" lon="7.5981818"><ele>659.3333333333334</ele><time>2026-04-18T10:14:42.953Z</time></trkpt><trkpt lat="45.3689024" lon="7.5982762"><ele>658.1666666666666</ele><time>2026-04-18T10:14:47.95Z</time></trkpt><trkpt lat="45.3688565" lon="7.5984231"><ele>657.0</ele><time>2026-04-18T10:15:05.946Z</time></trkpt><trkpt lat="45.3688243" lon="7.5985098"><ele>659.1428571428571</ele><time>2026-04-18T10:15:10.943Z</time></trkpt><trkpt lat="45.3687718" lon="7.5985612"><ele>661.2857142857143</ele><time>2026-04-18T10:16:02.945Z</time></trkpt><trkpt lat="45.3687326" lon="7.5986587"><ele>663.4285714285714</ele><time>2026-04-18T10:17:56.957Z</time></trkpt><trkpt lat="45.3686963" lon="7.5987472"><ele>665.5714285714286</ele><time>2026-04-18T10:17:59.943Z</time></trkpt><trkpt lat="45.3686505" lon="7.5988168"><ele>667.7142857142858</ele><time>2026-04-18T10:18:03.953Z</time></trkpt><trkpt lat="45.3685899" lon="7.5989006"><ele>669.8571428571429</ele><time>2026-04-18T10:18:06.95Z</time></trkpt><trkpt lat="45.3685637" lon="7.5989915"><ele>672.0</ele><time>2026-04-18T10:18:09.995Z</time></trkpt><trkpt lat="45.3685285" lon="7.599094"><ele>672.0</ele><time>2026-04-18T10:18:12.937Z</time></trkpt><trkpt lat="45.3685284" lon="7.5991967"><ele>672.0</ele><time>2026-04-18T10:18:15.946Z</time></trkpt><trkpt lat="45.3685037" lon="7.5993119"><ele>672.0</ele><time>2026-04-18T10:18:20.03Z</time></trkpt><trkpt lat="45.3684946" lon="7.5994342"><ele>672.0</ele><time>2026-04-18T10:18:22.953Z</time></trkpt><trkpt lat="45.3685053" lon="7.5995455"><ele>672.0</ele><time>2026-04-18T10:18:25.954Z</time></trkpt><trkpt lat="45.3685214" lon="7.5996461"><ele>672.0</ele><time>2026-04-18T10:18:28.945Z</time></trkpt><trkpt lat="45.3685193" lon="7.5997681"><ele>670.1428571428571</ele><time>2026-04-18T10:18:31.948Z</time></trkpt><trkpt lat="45.3685402" lon="7.5998822"><ele>668.2857142857142</ele><time>2026-04-18T10:18:34.947Z</time></trkpt><trkpt lat="45.3685414" lon="7.5999773"><ele>666.4285714285714</ele><time>2026-04-18T10:18:36.946Z</time></trkpt><trkpt lat="45.3685627" lon="7.6000675"><ele>664.5714285714286</ele><time>2026-04-18T10:18:38.933Z</time></trkpt><trkpt lat="45.3685789" lon="7.6001822"><ele>662.7142857142857</ele><time>2026-04-18T10:18:41.948Z</time></trkpt><trkpt lat="45.368589" lon="7.6002866"><ele>660.8571428571429</ele><time>2026-04-18T10:18:43.952Z</time></trkpt><trkpt lat="45.3685981" lon="7.6003855"><ele>659.0</ele><time>2026-04-18T10:18:47.936Z</time></trkpt><trkpt lat="45.3686119" lon="7.6005034"><ele>657.1666666666666</ele><time>2026-04-18T10:18:52.946Z</time></trkpt><trkpt lat="45.3685854" lon="7.6006061"><ele>655.3333333333333</ele><time>2026-04-18T10:19:34.955Z</time></trkpt><trkpt lat="45.3685513" lon="7.6007094"><ele>653.5</ele><time>2026-04-18T10:19:49.954Z</time></trkpt><trkpt lat="45.3685858" lon="7.600797"><ele>651.6666666666666</ele><time>2026-04-18T10:19:58.946Z</time></trkpt><trkpt lat="45.3685876" lon="7.6008887"><ele>649.8333333333334</ele><time>2026-04-18T10:20:00.949Z</time></trkpt><trkpt lat="45.3685674" lon="7.6010287"><ele>648.0</ele><time>2026-04-18T10:20:03.948Z</time></trkpt><trkpt lat="45.3685422" lon="7.6011488"><ele>646.0</ele><time>2026-04-18T10:20:05.958Z</time></trkpt><trkpt lat="45.3685157" lon="7.6012549"><ele>644.0</ele><time>2026-04-18T10:20:07.953Z</time></trkpt><trkpt lat="45.3685111" lon="7.6013485"><ele>642.0</ele><time>2026-04-18T10:20:09.948Z</time></trkpt><trkpt lat="45.3684902" lon="7.6014544"><ele>640.0</ele><time>2026-04-18T10:20:12.037Z</time></trkpt><trkpt lat="45.3684531" lon="7.6015817"><ele>638.0</ele><time>2026-04-18T10:20:13.95Z</time></trkpt><trkpt lat="45.3684232" lon="7.6017268"><ele>636.0</ele><time>2026-04-18T10:20:15.949Z</time></trkpt><trkpt lat="45.3683903" lon="7.6018577"><ele>636.0</ele><time>2026-04-18T10:20:17.945Z</time></trkpt><trkpt lat="45.3683693" lon="7.6019603"><ele>636.0</ele><time>2026-04-18T10:20:19.976Z</time></trkpt><trkpt lat="45.3683538" lon="7.6020731"><ele>636.0</ele><time>2026-04-18T10:20:22.967Z</time></trkpt><trkpt lat="45.368324" lon="7.6021864"><ele>636.0</ele><time>2026-04-18T10:20:25.971Z</time></trkpt><trkpt lat="45.3683067" lon="7.6023"><ele>636.0</ele><time>2026-04-18T10:20:28.971Z</time></trkpt><trkpt lat="45.3682854" lon="7.6024332"><ele>636.0</ele><time>2026-04-18T10:20:31.984Z</time></trkpt><trkpt lat="45.3682697" lon="7.6025309"><ele>633.5</ele><time>2026-04-18T10:20:33.965Z</time></trkpt><trkpt lat="45.3682538" lon="7.6026254"><ele>631.0</ele><time>2026-04-18T10:20:35.971Z</time></trkpt><trkpt lat="45.3682305" lon="7.6027448"><ele>628.5</ele><time>2026-04-18T10:20:38.972Z</time></trkpt><trkpt lat="45.368205" lon="7.6028355"><ele>626.0</ele><time>2026-04-18T10:20:42.033Z</time></trkpt><trkpt lat="45.3681759" lon="7.6029297"><ele>623.5</ele><time>2026-04-18T10:20:44.952Z</time></trkpt><trkpt lat="45.3681588" lon="7.6030515"><ele>621.0</ele><time>2026-04-18T10:20:47.954Z</time></trkpt><trkpt lat="45.3681373" lon="7.6031571"><ele>620.1666666666666</ele><time>2026-04-18T10:20:49.942Z</time></trkpt><trkpt lat="45.3681096" lon="7.6032555"><ele>619.3333333333334</ele><time>2026-04-18T10:20:50.952Z</time></trkpt><trkpt lat="45.3680945" lon="7.6033705"><ele>618.5</ele><time>2026-04-18T10:20:52.941Z</time></trkpt><trkpt lat="45.3680856" lon="7.6034811"><ele>617.6666666666667</ele><time>2026-04-18T10:20:54.963Z</time></trkpt><trkpt lat="45.3680917" lon="7.60361"><ele>616.8333333333334</ele><time>2026-04-18T10:20:57.943Z</time></trkpt><trkpt lat="45.3681093" lon="7.6037103"><ele>616.0</ele><time>2026-04-18T10:21:01.949Z</time></trkpt><trkpt lat="45.3681256" lon="7.6038078"><ele>616.0</ele><time>2026-04-18T10:21:05.955Z</time></trkpt><trkpt lat="45.3681254" lon="7.6039241"><ele>616.0</ele><time>2026-04-18T10:21:08.945Z</time></trkpt><trkpt lat="45.3681209" lon="7.6040336"><ele>616.0</ele><time>2026-04-18T10:21:11.948Z</time></trkpt><trkpt lat="45.3681383" lon="7.6041482"><ele>616.0</ele><time>2026-04-18T10:21:14.951Z</time></trkpt><trkpt lat="45.3681631" lon="7.6042719"><ele>616.0</ele><time>2026-04-18T10:21:20.938Z</time></trkpt><trkpt lat="45.3681511" lon="7.6043616"><ele>616.0</ele><time>2026-04-18T10:21:39.959Z</time></trkpt><trkpt lat="45.3681839" lon="7.6044483"><ele>616.0</ele><time>2026-04-18T10:21:45.966Z</time></trkpt><trkpt lat="45.3682487" lon="7.6044956"><ele>616.0</ele><time>2026-04-18T10:21:54.962Z</time></trkpt><trkpt lat="45.3682805" lon="7.6045978"><ele>616.0</ele><time>2026-04-18T10:21:58.964Z</time></trkpt><trkpt lat="45.3683554" lon="7.6046666"><ele>616.0</ele><time>2026-04-18T10:22:06.961Z</time></trkpt><trkpt lat="45.3684099" lon="7.6047477"><ele>616.0</ele><time>2026-04-18T10:22:09.95Z</time></trkpt><trkpt lat="45.368467" lon="7.6048434"><ele>616.0</ele><time>2026-04-18T10:22:12.957Z</time></trkpt><trkpt lat="45.3685181" lon="7.6049478"><ele>619.3333333333334</ele><time>2026-04-18T10:22:16.043Z</time></trkpt><trkpt lat="45.3685642" lon="7.6050395"><ele>622.6666666666667</ele><time>2026-04-18T10:22:18.958Z</time></trkpt><trkpt lat="45.3686207" lon="7.6051209"><ele>626.0</ele><time>2026-04-18T10:22:22.958Z</time></trkpt><trkpt lat="45.3686643" lon="7.6051934"><ele>629.3333333333334</ele><time>2026-04-18T10:22:27.025Z</time></trkpt><trkpt lat="45.3686904" lon="7.6053088"><ele>632.6666666666666</ele><time>2026-04-18T10:22:29.971Z</time></trkpt><trkpt lat="45.3687274" lon="7.6054132"><ele>636.0</ele><time>2026-04-18T10:22:32.95Z</time></trkpt><trkpt lat="45.3687693" lon="7.6055172"><ele>640.1666666666666</ele><time>2026-04-18T10:22:36.013Z</time></trkpt><trkpt lat="45.3688156" lon="7.6056114"><ele>644.3333333333334</ele><time>2026-04-18T10:22:38.935Z</time></trkpt><trkpt lat="45.3688666" lon="7.6056896"><ele>648.5</ele><time>2026-04-18T10:22:42.936Z</time></trkpt><trkpt lat="45.3689099" lon="7.6057889"><ele>652.6666666666667</ele><time>2026-04-18T10:22:50.949Z</time></trkpt><trkpt lat="45.368945" lon="7.6058653"><ele>656.8333333333334</ele><time>2026-04-18T10:22:56.95Z</time></trkpt><trkpt lat="45.3689821" lon="7.605946"><ele>661.0</ele><time>2026-04-18T10:23:02.947Z</time></trkpt><trkpt lat="45.3689089" lon="7.6059"><ele>661.0</ele><time>2026-04-18T10:23:27.954Z</time></trkpt><trkpt lat="45.3688641" lon="7.6058286"><ele>661.0</ele><time>2026-04-18T10:23:34.948Z</time></trkpt><trkpt lat="45.3688488" lon="7.6057344"><ele>661.0</ele><time>2026-04-18T10:23:41.942Z</time></trkpt><trkpt lat="45.3688245" lon="7.6056512"><ele>661.0</ele><time>2026-04-18T10:23:47.943Z</time></trkpt><trkpt lat="45.3687768" lon="7.6055847"><ele>661.0</ele><time>2026-04-18T10:23:57.955Z</time></trkpt><trkpt lat="45.3687447" lon="7.6055023"><ele>661.0</ele><time>2026-04-18T10:25:22.941Z</time></trkpt><trkpt lat="45.3686997" lon="7.6054239"><ele>661.0</ele><time>2026-04-18T10:25:28.95Z</time></trkpt><trkpt lat="45.3686621" lon="7.6053471"><ele>657.4285714285714</ele><time>2026-04-18T10:25:37.94Z</time></trkpt><trkpt lat="45.3686136" lon="7.6052849"><ele>653.8571428571429</ele><time>2026-04-18T10:25:50.948Z</time></trkpt><trkpt lat="45.3685703" lon="7.605219"><ele>650.2857142857142</ele><time>2026-04-18T10:25:58.955Z</time></trkpt><trkpt lat="45.3685381" lon="7.6051377"><ele>646.7142857142858</ele><time>2026-04-18T10:26:07.951Z</time></trkpt><trkpt lat="45.3684929" lon="7.6050701"><ele>643.1428571428572</ele><time>2026-04-18T10:26:27.946Z</time></trkpt><trkpt lat="45.3684276" lon="7.6049879"><ele>639.5714285714286</ele><time>2026-04-18T10:27:22.951Z</time></trkpt><trkpt lat="45.3684585" lon="7.6050732"><ele>636.0</ele><time>2026-04-18T10:27:25.941Z</time></trkpt><trkpt lat="45.368493" lon="7.6051556"><ele>636.0</ele><time>2026-04-18T10:27:28.941Z</time></trkpt><trkpt lat="45.3685584" lon="7.6052212"><ele>636.0</ele><time>2026-04-18T10:27:31.948Z</time></trkpt><trkpt lat="45.3686281" lon="7.6052453"><ele>636.0</ele><time>2026-04-18T10:27:34.94Z</time></trkpt><trkpt lat="45.368681" lon="7.6052993"><ele>636.0</ele><time>2026-04-18T10:27:39.947Z</time></trkpt><trkpt lat="45.3686954" lon="7.6053968"><ele>636.0</ele><time>2026-04-18T10:28:07.944Z</time></trkpt><trkpt lat="45.3687449" lon="7.6054862"><ele>636.0</ele><time>2026-04-18T10:28:11.941Z</time></trkpt><trkpt lat="45.3687556" lon="7.6055862"><ele>636.0</ele><time>2026-04-18T10:28:15.942Z</time></trkpt><trkpt lat="45.3687879" lon="7.6056725"><ele>640.1666666666666</ele><time>2026-04-18T10:28:20.958Z</time></trkpt><trkpt lat="45.3688133" lon="7.6057666"><ele>644.3333333333334</ele><time>2026-04-18T10:28:26.95Z</time></trkpt><trkpt lat="45.3688492" lon="7.6058609"><ele>648.5</ele><time>2026-04-18T10:28:33.949Z</time></trkpt><trkpt lat="45.3689201" lon="7.6058771"><ele>652.6666666666667</ele><time>2026-04-18T10:28:47.034Z</time></trkpt><trkpt lat="45.3689764" lon="7.605963"><ele>656.8333333333334</ele><time>2026-04-18T10:29:19.727Z</time></trkpt><trkpt lat="45.3690473" lon="7.605994"><ele>661.0</ele><time>2026-04-18T10:31:34.948Z</time></trkpt><trkpt lat="45.369121" lon="7.6060464"><ele>654.5</ele><time>2026-04-18T10:31:37.948Z</time></trkpt><trkpt lat="45.3691891" lon="7.6060896"><ele>648.0</ele><time>2026-04-18T10:31:40.942Z</time></trkpt><trkpt lat="45.3692442" lon="7.6061431"><ele>641.5</ele><time>2026-04-18T10:31:42.953Z</time></trkpt><trkpt lat="45.3692832" lon="7.6062185"><ele>635.0</ele><time>2026-04-18T10:31:44.954Z</time></trkpt><trkpt lat="45.3693481" lon="7.6062842"><ele>628.5</ele><time>2026-04-18T10:31:47.949Z</time></trkpt><trkpt lat="45.3694317" lon="7.6063557"><ele>622.0</ele><time>2026-04-18T10:31:51.048Z</time></trkpt><trkpt lat="45.3695007" lon="7.606435"><ele>622.0</ele><time>2026-04-18T10:31:53.954Z</time></trkpt><trkpt lat="45.3695494" lon="7.6065062"><ele>622.0</ele><time>2026-04-18T10:31:55.953Z</time></trkpt><trkpt lat="45.3696179" lon="7.6065968"><ele>622.0</ele><time>2026-04-18T10:31:58.959Z</time></trkpt><trkpt lat="45.3696794" lon="7.6066858"><ele>622.0</ele><time>2026-04-18T10:32:00.957Z</time></trkpt><trkpt lat="45.3697207" lon="7.6067625"><ele>622.0</ele><time>2026-04-18T10:32:02.958Z</time></trkpt><trkpt lat="45.3697603" lon="7.6068434"><ele>622.0</ele><time>2026-04-18T10:32:04.947Z</time></trkpt><trkpt lat="45.3697897" lon="7.6069536"><ele>616.1666666666667</ele><time>2026-04-18T10:32:07.948Z</time></trkpt><trkpt lat="45.3698262" lon="7.6070598"><ele>610.3333333333334</ele><time>2026-04-18T10:32:10.951Z</time></trkpt><trkpt lat="45.3698588" lon="7.607176"><ele>604.5</ele><time>2026-04-18T10:32:13.952Z</time></trkpt><trkpt lat="45.3698994" lon="7.6072581"><ele>598.6666666666666</ele><time>2026-04-18T10:32:16.947Z</time></trkpt><trkpt lat="45.3699514" lon="7.6073708"><ele>592.8333333333333</ele><time>2026-04-18T10:32:19.954Z</time></trkpt><trkpt lat="45.3699874" lon="7.6074706"><ele>587.0</ele><time>2026-04-18T10:32:22.066Z</time></trkpt><trkpt lat="45.3700354" lon="7.6075591"><ele>587.0</ele><time>2026-04-18T10:32:23.954Z</time></trkpt><trkpt lat="45.3700778" lon="7.6076434"><ele>587.0</ele><time>2026-04-18T10:32:25.952Z</time></trkpt><trkpt lat="45.3700996" lon="7.6077296"><ele>587.0</ele><time>2026-04-18T10:32:27.945Z</time></trkpt><trkpt lat="45.370125" lon="7.6078471"><ele>587.0</ele><time>2026-04-18T10:32:30.945Z</time></trkpt><trkpt lat="45.3701451" lon="7.6079733"><ele>587.0</ele><time>2026-04-18T10:32:32.961Z</time></trkpt><trkpt lat="45.3701882" lon="7.6081841"><ele>587.1666666666666</ele><time>2026-04-18T10:32:34.951Z</time></trkpt><trkpt lat="45.3702187" lon="7.6083794"><ele>587.3333333333333</ele><time>2026-04-18T10:32:37.046Z</time></trkpt><trkpt lat="45.3702172" lon="7.6084875"><ele>587.5</ele><time>2026-04-18T10:32:37.965Z</time></trkpt><trkpt lat="45.3702023" lon="7.6086112"><ele>587.6666666666666</ele><time>2026-04-18T10:32:39.983Z</time></trkpt><trkpt lat="45.3701964" lon="7.6087108"><ele>587.8333333333334</ele><time>2026-04-18T10:32:41.962Z</time></trkpt><trkpt lat="45.3701786" lon="7.6088106"><ele>588.0</ele><time>2026-04-18T10:32:43.965Z</time></trkpt><trkpt lat="45.3701769" lon="7.6089043"><ele>588.1999999999999</ele><time>2026-04-18T10:32:45.962Z</time></trkpt><trkpt lat="45.3701981" lon="7.6090298"><ele>588.4</ele><time>2026-04-18T10:32:47.962Z</time></trkpt><trkpt lat="45.3702087" lon="7.6091502"><ele>588.5999999999999</ele><time>2026-04-18T10:32:50.952Z</time></trkpt><trkpt lat="45.3702043" lon="7.6092515"><ele>588.8</ele><time>2026-04-18T10:32:52.964Z</time></trkpt><trkpt lat="45.3701903" lon="7.6093607"><ele>589.0</ele><time>2026-04-18T10:32:54.962Z</time></trkpt><trkpt lat="45.3702011" lon="7.6095778"><ele>589.25</ele><time>2026-04-18T10:32:56.965Z</time></trkpt><trkpt lat="45.3701926" lon="7.6097871"><ele>589.5</ele><time>2026-04-18T10:32:57.96Z</time></trkpt><trkpt lat="45.370228" lon="7.6099487"><ele>589.75</ele><time>2026-04-18T10:32:58.958Z</time></trkpt><trkpt lat="45.3702769" lon="7.6101096"><ele>590.0</ele><time>2026-04-18T10:32:59.962Z</time></trkpt><trkpt lat="45.3703223" lon="7.6102335"><ele>589.3333333333333</ele><time>2026-04-18T10:33:00.959Z</time></trkpt><trkpt lat="45.3703464" lon="7.6103521"><ele>588.6666666666666</ele><time>2026-04-18T10:33:01.957Z</time></trkpt><trkpt lat="45.3703522" lon="7.6104539"><ele>588.0</ele><time>2026-04-18T10:33:02.964Z</time></trkpt><trkpt lat="45.3703503" lon="7.6106065"><ele>587.3333333333334</ele><time>2026-04-18T10:33:04.961Z</time></trkpt><trkpt lat="45.3703363" lon="7.6107151"><ele>586.6666666666667</ele><time>2026-04-18T10:33:05.965Z</time></trkpt><trkpt lat="45.3703193" lon="7.6108356"><ele>586.0</ele><time>2026-04-18T10:33:06.955Z</time></trkpt><trkpt lat="45.3702996" lon="7.6109436"><ele>586.0</ele><time>2026-04-18T10:33:07.962Z</time></trkpt><trkpt lat="45.3702636" lon="7.6110389"><ele>586.0</ele><time>2026-04-18T10:33:08.968Z</time></trkpt><trkpt lat="45.370214" lon="7.6111205"><ele>586.0</ele><time>2026-04-18T10:33:09.965Z</time></trkpt><trkpt lat="45.370163" lon="7.6111836"><ele>586.0</ele><time>2026-04-18T10:33:10.964Z</time></trkpt><trkpt lat="45.3701142" lon="7.6112469"><ele>586.0</ele><time>2026-04-18T10:33:11.965Z</time></trkpt><trkpt lat="45.3700382" lon="7.6113839"><ele>586.0</ele><time>2026-04-18T10:33:13.965Z</time></trkpt><trkpt lat="45.3699973" lon="7.6114623"><ele>585.1666666666667</ele><time>2026-04-18T10:33:14.966Z</time></trkpt><trkpt lat="45.3699291" lon="7.6115309"><ele>584.3333333333334</ele><time>2026-04-18T10:33:15.961Z</time></trkpt><trkpt lat="45.3698715" lon="7.6115813"><ele>583.5</ele><time>2026-04-18T10:33:16.961Z</time></trkpt><trkpt lat="45.3697985" lon="7.6116402"><ele>582.6666666666666</ele><time>2026-04-18T10:33:18.966Z</time></trkpt><trkpt lat="45.369734" lon="7.611684"><ele>581.8333333333333</ele><time>2026-04-18T10:33:20.968Z</time></trkpt><trkpt lat="45.3696711" lon="7.6117457"><ele>581.0</ele><time>2026-04-18T10:33:22.969Z</time></trkpt><trkpt lat="45.3696295" lon="7.6118688"><ele>582.6666666666666</ele><time>2026-04-18T10:33:24.951Z</time></trkpt><trkpt lat="45.3695961" lon="7.6119779"><ele>584.3333333333333</ele><time>2026-04-18T10:33:26.958Z</time></trkpt><trkpt lat="45.3695649" lon="7.6120591"><ele>586.0</ele><time>2026-04-18T10:33:28.961Z</time></trkpt><trkpt lat="45.3695437" lon="7.6121503"><ele>587.6666666666666</ele><time>2026-04-18T10:33:43.972Z</time></trkpt><trkpt lat="45.3695181" lon="7.612251"><ele>589.3333333333334</ele><time>2026-04-18T10:33:47.967Z</time></trkpt><trkpt lat="45.3695118" lon="7.6123468"><ele>591.0</ele><time>2026-04-18T10:34:04.946Z</time></trkpt><trkpt lat="45.3694731" lon="7.6124953"><ele>591.0</ele><time>2026-04-18T10:34:06.951Z</time></trkpt><trkpt lat="45.3694381" lon="7.6125906"><ele>591.0</ele><time>2026-04-18T10:34:07.945Z</time></trkpt><trkpt lat="45.3693901" lon="7.6127066"><ele>591.0</ele><time>2026-04-18T10:34:09.038Z</time></trkpt><trkpt lat="45.3693121" lon="7.612877"><ele>591.0</ele><time>2026-04-18T10:34:09.953Z</time></trkpt><trkpt lat="45.3692242" lon="7.6129789"><ele>591.0</ele><time>2026-04-18T10:34:10.953Z</time></trkpt><trkpt lat="45.3691267" lon="7.6130428"><ele>589.8333333333334</ele><time>2026-04-18T10:34:11.952Z</time></trkpt><trkpt lat="45.3690416" lon="7.6130936"><ele>588.6666666666666</ele><time>2026-04-18T10:34:12.944Z</time></trkpt><trkpt lat="45.3689759" lon="7.6131408"><ele>587.5</ele><time>2026-04-18T10:34:13.95Z</time></trkpt><trkpt lat="45.3689145" lon="7.6131897"><ele>586.3333333333333</ele><time>2026-04-18T10:34:14.954Z</time></trkpt><trkpt lat="45.3688246" lon="7.6132641"><ele>585.1666666666666</ele><time>2026-04-18T10:34:17.039Z</time></trkpt><trkpt lat="45.368775" lon="7.6133713"><ele>584.0</ele><time>2026-04-18T10:34:18.951Z</time></trkpt><trkpt lat="45.3687144" lon="7.6135301"><ele>584.6666666666666</ele><time>2026-04-18T10:34:20.964Z</time></trkpt><trkpt lat="45.3686867" lon="7.6136216"><ele>585.3333333333333</ele><time>2026-04-18T10:34:22.036Z</time></trkpt><trkpt lat="45.3686528" lon="7.6137142"><ele>586.0</ele><time>2026-04-18T10:34:22.982Z</time></trkpt><trkpt lat="45.3685959" lon="7.6138032"><ele>586.6666666666666</ele><time>2026-04-18T10:34:23.956Z</time></trkpt><trkpt lat="45.3685343" lon="7.6138921"><ele>587.3333333333334</ele><time>2026-04-18T10:34:24.965Z</time></trkpt><trkpt lat="45.3684707" lon="7.6139742"><ele>588.0</ele><time>2026-04-18T10:34:25.957Z</time></trkpt><trkpt lat="45.3683869" lon="7.6140551"><ele>588.0</ele><time>2026-04-18T10:34:26.965Z</time></trkpt><trkpt lat="45.368287" lon="7.614127"><ele>588.0</ele><time>2026-04-18T10:34:27.966Z</time></trkpt><trkpt lat="45.3681872" lon="7.6141963"><ele>588.0</ele><time>2026-04-18T10:34:28.957Z</time></trkpt><trkpt lat="45.3680888" lon="7.6142709"><ele>588.0</ele><time>2026-04-18T10:34:29.968Z</time></trkpt><trkpt lat="45.3679917" lon="7.6143671"><ele>588.1999999999999</ele><time>2026-04-18T10:34:30.973Z</time></trkpt><trkpt lat="45.3679012" lon="7.6144422"><ele>588.4</ele><time>2026-04-18T10:34:31.968Z</time></trkpt><trkpt lat="45.3678101" lon="7.614505"><ele>588.5999999999999</ele><time>2026-04-18T10:34:32.963Z</time></trkpt><trkpt lat="45.3677154" lon="7.6145606"><ele>588.8</ele><time>2026-04-18T10:34:33.963Z</time></trkpt><trkpt lat="45.3676152" lon="7.6146166"><ele>589.0</ele><time>2026-04-18T10:34:34.964Z</time></trkpt><trkpt lat="45.3675322" lon="7.6146659"><ele>589.0</ele><time>2026-04-18T10:34:35.967Z</time></trkpt><trkpt lat="45.3674525" lon="7.6147039"><ele>589.0</ele><time>2026-04-18T10:34:36.963Z</time></trkpt><trkpt lat="45.3673869" lon="7.6147295"><ele>589.0</ele><time>2026-04-18T10:34:37.969Z</time></trkpt><trkpt lat="45.3672698" lon="7.6147807"><ele>589.0</ele><time>2026-04-18T10:34:39.975Z</time></trkpt><trkpt lat="45.3671925" lon="7.6148341"><ele>589.0</ele><time>2026-04-18T10:34:41.97Z</time></trkpt><trkpt lat="45.3671533" lon="7.6149177"><ele>589.0</ele><time>2026-04-18T10:34:43.961Z</time></trkpt><trkpt lat="45.3671344" lon="7.615008"><ele>589.2857142857142</ele><time>2026-04-18T10:34:44.963Z</time></trkpt><trkpt lat="45.3671249" lon="7.6150978"><ele>589.5714285714286</ele><time>2026-04-18T10:34:45.965Z</time></trkpt><trkpt lat="45.3671422" lon="7.6151924"><ele>589.8571428571429</ele><time>2026-04-18T10:34:46.963Z</time></trkpt><trkpt lat="45.3671544" lon="7.615283"><ele>590.1428571428571</ele><time>2026-04-18T10:34:47.959Z</time></trkpt><trkpt lat="45.3671753" lon="7.6154278"><ele>590.4285714285714</ele><time>2026-04-18T10:34:49.959Z</time></trkpt><trkpt lat="45.3671909" lon="7.6155187"><ele>590.7142857142857</ele><time>2026-04-18T10:34:50.971Z</time></trkpt><trkpt lat="45.3672214" lon="7.6156049"><ele>591.0</ele><time>2026-04-18T10:34:51.971Z</time></trkpt><trkpt lat="45.367259" lon="7.6157158"><ele>591.0</ele><time>2026-04-18T10:34:52.965Z</time></trkpt><trkpt lat="45.3673188" lon="7.6158355"><ele>591.0</ele><time>2026-04-18T10:34:53.965Z</time></trkpt><trkpt lat="45.3673763" lon="7.6159855"><ele>591.0</ele><time>2026-04-18T10:34:55.038Z</time></trkpt><trkpt lat="45.3674318" lon="7.6161427"><ele>591.0</ele><time>2026-04-18T10:34:55.959Z</time></trkpt><trkpt lat="45.3674815" lon="7.6162852"><ele>591.5</ele><time>2026-04-18T10:34:56.945Z</time></trkpt><trkpt lat="45.3675206" lon="7.6164207"><ele>592.0</ele><time>2026-04-18T10:34:57.943Z</time></trkpt><trkpt lat="45.3675593" lon="7.616547"><ele>592.5</ele><time>2026-04-18T10:34:58.941Z</time></trkpt><trkpt lat="45.3676157" lon="7.6166419"><ele>593.0</ele><time>2026-04-18T10:34:59.947Z</time></trkpt><trkpt lat="45.3676632" lon="7.616735"><ele>593.5</ele><time>2026-04-18T10:35:00.943Z</time></trkpt><trkpt lat="45.3677066" lon="7.6168225"><ele>594.0</ele><time>2026-04-18T10:35:02.045Z</time></trkpt><trkpt lat="45.3677622" lon="7.6168823"><ele>594.0</ele><time>2026-04-18T10:35:02.952Z</time></trkpt><trkpt lat="45.3678512" lon="7.6168462"><ele>594.0</ele><time>2026-04-18T10:35:04.951Z</time></trkpt><trkpt lat="45.3679049" lon="7.6167853"><ele>594.0</ele><time>2026-04-18T10:35:06.037Z</time></trkpt><trkpt lat="45.3679909" lon="7.6166865"><ele>594.0</ele><time>2026-04-18T10:35:07.963Z</time></trkpt><trkpt lat="45.3680544" lon="7.6166351"><ele>594.0</ele><time>2026-04-18T10:35:11.956Z</time></trkpt><trkpt lat="45.3681035" lon="7.616578"><ele>594.0</ele><time>2026-04-18T10:36:26.945Z</time></trkpt><trkpt lat="45.3681397" lon="7.6164955"><ele>591.0</ele><time>2026-04-18T10:39:02.953Z</time></trkpt><trkpt lat="45.3681284" lon="7.616587"><ele>591.0</ele><time>2026-04-18T10:39:08.952Z</time></trkpt><trkpt lat="45.3681108" lon="7.6166752"><ele>591.0</ele><time>2026-04-18T10:39:16.939Z</time></trkpt><trkpt lat="45.3680772" lon="7.6168084"><ele>591.0</ele><time>2026-04-18T10:41:31.959Z</time></trkpt></trkseg><trkseg><trkpt lat="45.368023" lon="7.6166508"><ele>594.0</ele><time>2026-04-18T11:50:40.961Z</time></trkpt><trkpt lat="45.3679559" lon="7.6166797"><ele>594.0</ele><time>2026-04-18T11:50:41.953Z</time></trkpt><trkpt lat="45.3678464" lon="7.6167488"><ele>594.0</ele><time>2026-04-18T11:50:44.024Z</time></trkpt><trkpt lat="45.3677747" lon="7.6168683"><ele>594.0</ele><time>2026-04-18T11:50:46.029Z</time></trkpt><trkpt lat="45.3676739" lon="7.6169801"><ele>594.0</ele><time>2026-04-18T11:50:47.969Z</time></trkpt><trkpt lat="45.3675821" lon="7.6170501"><ele>594.0</ele><time>2026-04-18T11:50:50.032Z</time></trkpt><trkpt lat="45.3675032" lon="7.6171175"><ele>594.0</ele><time>2026-04-18T11:50:52.016Z</time></trkpt><trkpt lat="45.3674249" lon="7.617189"><ele>594.0</ele><time>2026-04-18T11:50:54.954Z</time></trkpt><trkpt lat="45.3673626" lon="7.6172721"><ele>594.0</ele><time>2026-04-18T11:50:56.957Z</time></trkpt><trkpt lat="45.3672983" lon="7.6173097"><ele>594.0</ele><time>2026-04-18T11:50:58.955Z</time></trkpt><trkpt lat="45.367266" lon="7.6172188"><ele>594.0</ele><time>2026-04-18T11:51:01.958Z</time></trkpt><trkpt lat="45.3672869" lon="7.6171269"><ele>594.0</ele><time>2026-04-18T11:53:41.953Z</time></trkpt><trkpt lat="45.3673529" lon="7.6171015"><ele>594.0</ele><time>2026-04-18T11:53:46.957Z</time></trkpt><trkpt lat="45.3674127" lon="7.6170701"><ele>594.0</ele><time>2026-04-18T11:53:49.959Z</time></trkpt><trkpt lat="45.3674943" lon="7.6170353"><ele>594.0</ele><time>2026-04-18T11:53:52.955Z</time></trkpt><trkpt lat="45.3675551" lon="7.6169763"><ele>594.0</ele><time>2026-04-18T11:53:54.943Z</time></trkpt><trkpt lat="45.3676223" lon="7.6169291"><ele>594.0</ele><time>2026-04-18T11:53:57.948Z</time></trkpt><trkpt lat="45.3676878" lon="7.6169619"><ele>594.0</ele><time>2026-04-18T11:54:49.953Z</time></trkpt><trkpt lat="45.3676498" lon="7.6168352"><ele>594.0</ele><time>2026-04-18T11:54:51.949Z</time></trkpt><trkpt lat="45.3676028" lon="7.6167492"><ele>594.0</ele><time>2026-04-18T11:54:52.946Z</time></trkpt><trkpt lat="45.3675648" lon="7.616667"><ele>594.0</ele><time>2026-04-18T11:54:53.953Z</time></trkpt><trkpt lat="45.3675221" lon="7.6165845"><ele>594.0</ele><time>2026-04-18T11:54:54.958Z</time></trkpt><trkpt lat="45.3674809" lon="7.6164813"><ele>594.0</ele><time>2026-04-18T11:54:55.955Z</time></trkpt><trkpt lat="45.3674445" lon="7.6163761"><ele>594.0</ele><time>2026-04-18T11:54:56.951Z</time></trkpt><trkpt lat="45.3674151" lon="7.6162514"><ele>594.1666666666666</ele><time>2026-04-18T11:54:57.954Z</time></trkpt><trkpt lat="45.367386" lon="7.6161396"><ele>594.3333333333334</ele><time>2026-04-18T11:54:58.951Z</time></trkpt><trkpt lat="45.3673555" lon="7.616041"><ele>594.5</ele><time>2026-04-18T11:54:59.941Z</time></trkpt><trkpt lat="45.3673252" lon="7.6159569"><ele>594.6666666666667</ele><time>2026-04-18T11:55:00.955Z</time></trkpt><trkpt lat="45.3672871" lon="7.6158705"><ele>594.8333333333334</ele><time>2026-04-18T11:55:01.957Z</time></trkpt><trkpt lat="45.3672385" lon="7.6157873"><ele>595.0</ele><time>2026-04-18T11:55:02.955Z</time></trkpt><trkpt lat="45.3671861" lon="7.615693"><ele>595.0</ele><time>2026-04-18T11:55:03.958Z</time></trkpt><trkpt lat="45.3671336" lon="7.6155892"><ele>595.0</ele><time>2026-04-18T11:55:04.951Z</time></trkpt><trkpt lat="45.3670922" lon="7.6154769"><ele>595.0</ele><time>2026-04-18T11:55:05.953Z</time></trkpt><trkpt lat="45.3670656" lon="7.6153648"><ele>595.0</ele><time>2026-04-18T11:55:06.956Z</time></trkpt><trkpt lat="45.3670348" lon="7.6152608"><ele>595.0</ele><time>2026-04-18T11:55:07.955Z</time></trkpt><trkpt lat="45.3670056" lon="7.6151719"><ele>595.0</ele><time>2026-04-18T11:55:08.951Z</time></trkpt><trkpt lat="45.3670004" lon="7.6150751"><ele>595.8</ele><time>2026-04-18T11:55:09.958Z</time></trkpt><trkpt lat="45.3670114" lon="7.6149243"><ele>596.6</ele><time>2026-04-18T11:55:11.962Z</time></trkpt><trkpt lat="45.3670559" lon="7.6148345"><ele>597.4</ele><time>2026-04-18T11:55:13.948Z</time></trkpt><trkpt lat="45.3671539" lon="7.6147409"><ele>598.2</ele><time>2026-04-18T11:55:15.942Z</time></trkpt><trkpt lat="45.3672367" lon="7.6146959"><ele>599.0</ele><time>2026-04-18T11:55:16.955Z</time></trkpt><trkpt lat="45.3673198" lon="7.6146283"><ele>599.0</ele><time>2026-04-18T11:55:17.953Z</time></trkpt><trkpt lat="45.3674012" lon="7.6145734"><ele>599.0</ele><time>2026-04-18T11:55:18.953Z</time></trkpt><trkpt lat="45.3674972" lon="7.6145317"><ele>599.0</ele><time>2026-04-18T11:55:19.952Z</time></trkpt><trkpt lat="45.3675892" lon="7.6144905"><ele>599.0</ele><time>2026-04-18T11:55:20.959Z</time></trkpt><trkpt lat="45.3676646" lon="7.6144461"><ele>599.0</ele><time>2026-04-18T11:55:21.954Z</time></trkpt><trkpt lat="45.3677436" lon="7.6143737"><ele>599.0</ele><time>2026-04-18T11:55:22.952Z</time></trkpt><trkpt lat="45.3678136" lon="7.6143062"><ele>599.0</ele><time>2026-04-18T11:55:23.957Z</time></trkpt><trkpt lat="45.3678893" lon="7.6142563"><ele>599.0</ele><time>2026-04-18T11:55:24.944Z</time></trkpt><trkpt lat="45.3679644" lon="7.6142025"><ele>599.0</ele><time>2026-04-18T11:55:25.96Z</time></trkpt><trkpt lat="45.3680453" lon="7.6141385"><ele>599.0</ele><time>2026-04-18T11:55:26.954Z</time></trkpt><trkpt lat="45.3681209" lon="7.6140692"><ele>599.0</ele><time>2026-04-18T11:55:27.95Z</time></trkpt><trkpt lat="45.3681917" lon="7.6139908"><ele>599.1666666666666</ele><time>2026-04-18T11:55:28.958Z</time></trkpt><trkpt lat="45.3682642" lon="7.6139082"><ele>599.3333333333333</ele><time>2026-04-18T11:55:29.957Z</time></trkpt><trkpt lat="45.3683282" lon="7.6138191"><ele>599.5</ele><time>2026-04-18T11:55:30.956Z</time></trkpt><trkpt lat="45.3683811" lon="7.6137233"><ele>599.6666666666666</ele><time>2026-04-18T11:55:31.952Z</time></trkpt><trkpt lat="45.3684188" lon="7.6136405"><ele>599.8333333333334</ele><time>2026-04-18T11:55:32.954Z</time></trkpt><trkpt lat="45.368453" lon="7.6135516"><ele>600.0</ele><time>2026-04-18T11:55:33.952Z</time></trkpt><trkpt lat="45.3684883" lon="7.613468"><ele>600.0</ele><time>2026-04-18T11:55:35.03Z</time></trkpt><trkpt lat="45.3685154" lon="7.6133855"><ele>600.0</ele><time>2026-04-18T11:55:36.034Z</time></trkpt><trkpt lat="45.3685949" lon="7.613246"><ele>600.0</ele><time>2026-04-18T11:55:37.956Z</time></trkpt><trkpt lat="45.3686861" lon="7.6131745"><ele>600.0</ele><time>2026-04-18T11:55:38.957Z</time></trkpt><trkpt lat="45.3688136" lon="7.613095"><ele>600.0</ele><time>2026-04-18T11:55:39.976Z</time></trkpt><trkpt lat="45.3689482" lon="7.6130424"><ele>598.2</ele><time>2026-04-18T11:55:41.029Z</time></trkpt><trkpt lat="45.3690586" lon="7.6129599"><ele>596.4</ele><time>2026-04-18T11:55:42.031Z</time></trkpt><trkpt lat="45.3691533" lon="7.6128983"><ele>594.6</ele><time>2026-04-18T11:55:42.965Z</time></trkpt><trkpt lat="45.3692373" lon="7.6128275"><ele>592.8</ele><time>2026-04-18T11:55:43.966Z</time></trkpt><trkpt lat="45.3693188" lon="7.6127628"><ele>591.0</ele><time>2026-04-18T11:55:44.974Z</time></trkpt><trkpt lat="45.369391" lon="7.6127134"><ele>591.0</ele><time>2026-04-18T11:55:46.032Z</time></trkpt><trkpt lat="45.3694593" lon="7.6126398"><ele>591.0</ele><time>2026-04-18T11:55:47.028Z</time></trkpt><trkpt lat="45.3694969" lon="7.6125626"><ele>591.0</ele><time>2026-04-18T11:55:47.949Z</time></trkpt><trkpt lat="45.369583" lon="7.6124491"><ele>591.0</ele><time>2026-04-18T11:55:49.971Z</time></trkpt><trkpt lat="45.3696892" lon="7.6123803"><ele>591.0</ele><time>2026-04-18T11:55:52.04Z</time></trkpt><trkpt lat="45.369768" lon="7.6122582"><ele>589.3333333333334</ele><time>2026-04-18T11:55:53.957Z</time></trkpt><trkpt lat="45.3698057" lon="7.6121191"><ele>587.6666666666666</ele><time>2026-04-18T11:55:55.951Z</time></trkpt><trkpt lat="45.3698589" lon="7.6120115"><ele>586.0</ele><time>2026-04-18T11:55:57.953Z</time></trkpt><trkpt lat="45.3699374" lon="7.6119557"><ele>584.3333333333333</ele><time>2026-04-18T11:55:59.967Z</time></trkpt><trkpt lat="45.3700067" lon="7.6119361"><ele>582.6666666666666</ele><time>2026-04-18T11:56:00.965Z</time></trkpt><trkpt lat="45.3700801" lon="7.6118866"><ele>581.0</ele><time>2026-04-18T11:56:01.95Z</time></trkpt><trkpt lat="45.370157" lon="7.6118402"><ele>581.0</ele><time>2026-04-18T11:56:02.95Z</time></trkpt><trkpt lat="45.3702213" lon="7.6117779"><ele>581.0</ele><time>2026-04-18T11:56:03.949Z</time></trkpt><trkpt lat="45.3702848" lon="7.6117109"><ele>581.0</ele><time>2026-04-18T11:56:04.949Z</time></trkpt><trkpt lat="45.3703397" lon="7.6116601"><ele>581.0</ele><time>2026-04-18T11:56:05.955Z</time></trkpt><trkpt lat="45.3704258" lon="7.6116006"><ele>581.0</ele><time>2026-04-18T11:56:07.954Z</time></trkpt><trkpt lat="45.3704914" lon="7.6115445"><ele>581.0</ele><time>2026-04-18T11:56:09.956Z</time></trkpt><trkpt lat="45.3705614" lon="7.6114758"><ele>577.5</ele><time>2026-04-18T11:56:11.957Z</time></trkpt><trkpt lat="45.3706302" lon="7.611415"><ele>574.0</ele><time>2026-04-18T11:56:13.943Z</time></trkpt><trkpt lat="45.3707152" lon="7.61138"><ele>570.5</ele><time>2026-04-18T11:56:16.948Z</time></trkpt><trkpt lat="45.3707943" lon="7.6113503"><ele>567.0</ele><time>2026-04-18T11:56:18.945Z</time></trkpt><trkpt lat="45.3708929" lon="7.611318"><ele>563.5</ele><time>2026-04-18T11:56:20.952Z</time></trkpt><trkpt lat="45.3709755" lon="7.6112945"><ele>560.0</ele><time>2026-04-18T11:56:22.961Z</time></trkpt><trkpt lat="45.3710236" lon="7.6112336"><ele>559.0</ele><time>2026-04-18T11:56:26.952Z</time></trkpt><trkpt lat="45.3710241" lon="7.6111246"><ele>558.0</ele><time>2026-04-18T11:56:29.958Z</time></trkpt><trkpt lat="45.3709898" lon="7.61097"><ele>557.0</ele><time>2026-04-18T11:56:31.957Z</time></trkpt><trkpt lat="45.3709668" lon="7.6108733"><ele>556.0</ele><time>2026-04-18T11:56:32.957Z</time></trkpt><trkpt lat="45.3709315" lon="7.6107788"><ele>555.0</ele><time>2026-04-18T11:56:33.956Z</time></trkpt><trkpt lat="45.3709005" lon="7.6106799"><ele>554.0</ele><time>2026-04-18T11:56:34.951Z</time></trkpt><trkpt lat="45.3708713" lon="7.6105899"><ele>554.0</ele><time>2026-04-18T11:56:35.948Z</time></trkpt><trkpt lat="45.3708438" lon="7.6104947"><ele>554.0</ele><time>2026-04-18T11:56:36.954Z</time></trkpt><trkpt lat="45.3708236" lon="7.6103917"><ele>554.0</ele><time>2026-04-18T11:56:37.95Z</time></trkpt><trkpt lat="45.3708244" lon="7.6102852"><ele>554.0</ele><time>2026-04-18T11:56:38.957Z</time></trkpt><trkpt lat="45.3708489" lon="7.6101982"><ele>554.0</ele><time>2026-04-18T11:56:39.954Z</time></trkpt><trkpt lat="45.3709259" lon="7.61007"><ele>554.0</ele><time>2026-04-18T11:56:41.948Z</time></trkpt><trkpt lat="45.3710241" lon="7.6099983"><ele>553.3333333333333</ele><time>2026-04-18T11:56:43.94Z</time></trkpt><trkpt lat="45.3711331" lon="7.6099957"><ele>552.6666666666666</ele><time>2026-04-18T11:56:45.943Z</time></trkpt><trkpt lat="45.3711974" lon="7.6100202"><ele>552.0</ele><time>2026-04-18T11:56:46.947Z</time></trkpt><trkpt lat="45.3712587" lon="7.6100499"><ele>551.3333333333334</ele><time>2026-04-18T11:56:47.952Z</time></trkpt><trkpt lat="45.3713662" lon="7.6100634"><ele>550.6666666666667</ele><time>2026-04-18T11:56:49.95Z</time></trkpt><trkpt lat="45.3714493" lon="7.610099"><ele>550.0</ele><time>2026-04-18T11:56:52.948Z</time></trkpt><trkpt lat="45.3715144" lon="7.6100895"><ele>550.0</ele><time>2026-04-18T11:56:56.957Z</time></trkpt><trkpt lat="45.3714157" lon="7.6100405"><ele>550.0</ele><time>2026-04-18T11:57:00.957Z</time></trkpt><trkpt lat="45.3713576" lon="7.6099859"><ele>550.0</ele><time>2026-04-18T11:57:02.955Z</time></trkpt><trkpt lat="45.3712958" lon="7.6099125"><ele>550.0</ele><time>2026-04-18T11:57:04.952Z</time></trkpt><trkpt lat="45.3712228" lon="7.6098347"><ele>550.0</ele><time>2026-04-18T11:57:06.955Z</time></trkpt><trkpt lat="45.3711775" lon="7.609756"><ele>550.0</ele><time>2026-04-18T11:57:09.95Z</time></trkpt><trkpt lat="45.3711515" lon="7.609635"><ele>550.0</ele><time>2026-04-18T11:57:12.947Z</time></trkpt><trkpt lat="45.371176" lon="7.6095016"><ele>550.0</ele><time>2026-04-18T11:57:17.958Z</time></trkpt><trkpt lat="45.3711889" lon="7.6093914"><ele>550.0</ele><time>2026-04-18T11:57:19.957Z</time></trkpt><trkpt lat="45.3712194" lon="7.6093104"><ele>550.0</ele><time>2026-04-18T11:57:21.953Z</time></trkpt><trkpt lat="45.3712459" lon="7.6092142"><ele>550.0</ele><time>2026-04-18T11:57:23.952Z</time></trkpt><trkpt lat="45.3712986" lon="7.6091189"><ele>550.0</ele><time>2026-04-18T11:57:25.956Z</time></trkpt><trkpt lat="45.3713438" lon="7.6090485"><ele>554.0</ele><time>2026-04-18T11:57:27.959Z</time></trkpt><trkpt lat="45.3714182" lon="7.6089851"><ele>558.0</ele><time>2026-04-18T11:58:04.949Z</time></trkpt><trkpt lat="45.3714761" lon="7.6089158"><ele>562.0</ele><time>2026-04-18T11:58:19.954Z</time></trkpt><trkpt lat="45.3715311" lon="7.6088421"><ele>566.0</ele><time>2026-04-18T11:58:29.945Z</time></trkpt><trkpt lat="45.3716046" lon="7.6088096"><ele>570.0</ele><time>2026-04-18T11:58:51.958Z</time></trkpt><trkpt lat="45.371563" lon="7.6089008"><ele>574.0</ele><time>2026-04-18T12:00:49.948Z</time></trkpt><trkpt lat="45.3715265" lon="7.6090016"><ele>574.0</ele><time>2026-04-18T12:00:55.951Z</time></trkpt><trkpt lat="45.3714889" lon="7.6090894"><ele>574.0</ele><time>2026-04-18T12:01:03.945Z</time></trkpt><trkpt lat="45.3714636" lon="7.6091885"><ele>574.0</ele><time>2026-04-18T12:01:08.956Z</time></trkpt><trkpt lat="45.3714368" lon="7.6092978"><ele>574.0</ele><time>2026-04-18T12:01:14.957Z</time></trkpt><trkpt lat="45.3713967" lon="7.6093833"><ele>574.0</ele><time>2026-04-18T12:01:18.948Z</time></trkpt><trkpt lat="45.3713467" lon="7.6094626"><ele>574.0</ele><time>2026-04-18T12:01:23.952Z</time></trkpt><trkpt lat="45.3713543" lon="7.60956"><ele>574.0</ele><time>2026-04-18T12:01:29.957Z</time></trkpt><trkpt lat="45.3713741" lon="7.6096641"><ele>572.1428571428571</ele><time>2026-04-18T12:01:34.96Z</time></trkpt><trkpt lat="45.3714179" lon="7.6097577"><ele>570.2857142857142</ele><time>2026-04-18T12:01:38.947Z</time></trkpt><trkpt lat="45.371466" lon="7.6098275"><ele>568.4285714285714</ele><time>2026-04-18T12:01:41.951Z</time></trkpt><trkpt lat="45.3714854" lon="7.6099281"><ele>566.5714285714286</ele><time>2026-04-18T12:01:44.953Z</time></trkpt><trkpt lat="45.3715204" lon="7.6100124"><ele>564.7142857142857</ele><time>2026-04-18T12:01:48.954Z</time></trkpt><trkpt lat="45.3715842" lon="7.6100747"><ele>562.8571428571429</ele><time>2026-04-18T12:01:50.951Z</time></trkpt><trkpt lat="45.3716413" lon="7.6101422"><ele>561.0</ele><time>2026-04-18T12:01:51.958Z</time></trkpt><trkpt lat="45.3717202" lon="7.6102408"><ele>557.4</ele><time>2026-04-18T12:01:53.953Z</time></trkpt><trkpt lat="45.3717871" lon="7.6103318"><ele>553.8</ele><time>2026-04-18T12:01:55.953Z</time></trkpt><trkpt lat="45.3718569" lon="7.6104544"><ele>550.1999999999999</ele><time>2026-04-18T12:01:57.95Z</time></trkpt><trkpt lat="45.3719045" lon="7.6105548"><ele>546.6</ele><time>2026-04-18T12:01:59.952Z</time></trkpt><trkpt lat="45.3719558" lon="7.6106466"><ele>543.0</ele><time>2026-04-18T12:02:01.961Z</time></trkpt><trkpt lat="45.372055" lon="7.6107693"><ele>543.0</ele><time>2026-04-18T12:02:03.946Z</time></trkpt><trkpt lat="45.372099" lon="7.6109029"><ele>543.0</ele><time>2026-04-18T12:02:05.954Z</time></trkpt><trkpt lat="45.3721579" lon="7.6110208"><ele>543.0</ele><time>2026-04-18T12:02:07.955Z</time></trkpt><trkpt lat="45.3722256" lon="7.6109899"><ele>543.0</ele><time>2026-04-18T12:02:12.942Z</time></trkpt><trkpt lat="45.3722409" lon="7.610889"><ele>543.0</ele><time>2026-04-18T12:02:14.953Z</time></trkpt><trkpt lat="45.3722898" lon="7.610797"><ele>543.0</ele><time>2026-04-18T12:02:16.95Z</time></trkpt><trkpt lat="45.3723497" lon="7.6108273"><ele>545.0</ele><time>2026-04-18T12:02:18.956Z</time></trkpt><trkpt lat="45.3723837" lon="7.6110097"><ele>547.0</ele><time>2026-04-18T12:02:20.956Z</time></trkpt><trkpt lat="45.3724061" lon="7.6111049"><ele>549.0</ele><time>2026-04-18T12:02:21.95Z</time></trkpt><trkpt lat="45.3724983" lon="7.6112172"><ele>551.0</ele><time>2026-04-18T12:02:23.955Z</time></trkpt><trkpt lat="45.372594" lon="7.6113103"><ele>553.0</ele><time>2026-04-18T12:02:25.953Z</time></trkpt><trkpt lat="45.3727084" lon="7.6113257"><ele>553.0</ele><time>2026-04-18T12:02:27.944Z</time></trkpt><trkpt lat="45.3728219" lon="7.6113665"><ele>553.0</ele><time>2026-04-18T12:02:29.953Z</time></trkpt><trkpt lat="45.3729104" lon="7.6114256"><ele>553.0</ele><time>2026-04-18T12:02:31.959Z</time></trkpt><trkpt lat="45.3730349" lon="7.6114669"><ele>553.0</ele><time>2026-04-18T12:02:33.948Z</time></trkpt><trkpt lat="45.3731572" lon="7.611439"><ele>555.3333333333334</ele><time>2026-04-18T12:02:35.957Z</time></trkpt><trkpt lat="45.37323" lon="7.6114054"><ele>557.6666666666667</ele><time>2026-04-18T12:02:36.95Z</time></trkpt><trkpt lat="45.3733007" lon="7.6113793"><ele>560.0</ele><time>2026-04-18T12:02:37.956Z</time></trkpt><trkpt lat="45.3733808" lon="7.6113599"><ele>562.3333333333334</ele><time>2026-04-18T12:02:38.95Z</time></trkpt><trkpt lat="45.3734626" lon="7.6113514"><ele>564.6666666666666</ele><time>2026-04-18T12:02:39.957Z</time></trkpt><trkpt lat="45.3735451" lon="7.6113458"><ele>567.0</ele><time>2026-04-18T12:02:40.955Z</time></trkpt><trkpt lat="45.3736306" lon="7.6113443"><ele>567.0</ele><time>2026-04-18T12:02:41.943Z</time></trkpt><trkpt lat="45.3737197" lon="7.6113397"><ele>567.0</ele><time>2026-04-18T12:02:42.946Z</time></trkpt><trkpt lat="45.3738001" lon="7.6113354"><ele>567.0</ele><time>2026-04-18T12:02:43.952Z</time></trkpt><trkpt lat="45.373883" lon="7.6113372"><ele>567.0</ele><time>2026-04-18T12:02:44.953Z</time></trkpt><trkpt lat="45.3739684" lon="7.6113393"><ele>567.0</ele><time>2026-04-18T12:02:45.952Z</time></trkpt><trkpt lat="45.374048" lon="7.6113414"><ele>567.0</ele><time>2026-04-18T12:02:46.956Z</time></trkpt><trkpt lat="45.3741289" lon="7.611352"><ele>567.4285714285714</ele><time>2026-04-18T12:02:47.954Z</time></trkpt><trkpt lat="45.3742038" lon="7.6113636"><ele>567.8571428571429</ele><time>2026-04-18T12:02:48.954Z</time></trkpt><trkpt lat="45.3742784" lon="7.6113719"><ele>568.2857142857142</ele><time>2026-04-18T12:02:49.956Z</time></trkpt><trkpt lat="45.3743526" lon="7.6113667"><ele>568.7142857142858</ele><time>2026-04-18T12:02:50.953Z</time></trkpt><trkpt lat="45.3744264" lon="7.6113582"><ele>569.1428571428571</ele><time>2026-04-18T12:02:51.956Z</time></trkpt><trkpt lat="45.3744947" lon="7.611342"><ele>569.5714285714286</ele><time>2026-04-18T12:02:52.956Z</time></trkpt><trkpt lat="45.3745665" lon="7.611322"><ele>570.0</ele><time>2026-04-18T12:02:53.951Z</time></trkpt><trkpt lat="45.374632" lon="7.6113054"><ele>569.8</ele><time>2026-04-18T12:02:54.942Z</time></trkpt><trkpt lat="45.3747421" lon="7.6112754"><ele>569.6</ele><time>2026-04-18T12:02:56.957Z</time></trkpt><trkpt lat="45.3748521" lon="7.6112391"><ele>569.4</ele><time>2026-04-18T12:02:58.949Z</time></trkpt><trkpt lat="45.3749582" lon="7.6112164"><ele>569.2</ele><time>2026-04-18T12:03:00.95Z</time></trkpt><trkpt lat="45.3750566" lon="7.6111859"><ele>569.0</ele><time>2026-04-18T12:03:02.954Z</time></trkpt><trkpt lat="45.3751477" lon="7.611144"><ele>569.0</ele><time>2026-04-18T12:03:04.955Z</time></trkpt><trkpt lat="45.375232" lon="7.6111252"><ele>569.0</ele><time>2026-04-18T12:03:06.949Z</time></trkpt><trkpt lat="45.3752686" lon="7.611015"><ele>569.0</ele><time>2026-04-18T12:03:09.956Z</time></trkpt><trkpt lat="45.3752583" lon="7.6108639"><ele>569.0</ele><time>2026-04-18T12:03:11.941Z</time></trkpt><trkpt lat="45.3752491" lon="7.6107648"><ele>569.0</ele><time>2026-04-18T12:03:12.953Z</time></trkpt><trkpt lat="45.3752452" lon="7.61066"><ele>569.0</ele><time>2026-04-18T12:03:13.947Z</time></trkpt><trkpt lat="45.3752288" lon="7.6105486"><ele>569.0</ele><time>2026-04-18T12:03:14.957Z</time></trkpt><trkpt lat="45.375205" lon="7.6104348"><ele>569.0</ele><time>2026-04-18T12:03:15.952Z</time></trkpt><trkpt lat="45.3751682" lon="7.6103167"><ele>569.0</ele><time>2026-04-18T12:03:16.949Z</time></trkpt><trkpt lat="45.3751215" lon="7.6101971"><ele>569.0</ele><time>2026-04-18T12:03:17.95Z</time></trkpt><trkpt lat="45.375074" lon="7.6100791"><ele>569.0</ele><time>2026-04-18T12:03:18.958Z</time></trkpt><trkpt lat="45.3750267" lon="7.6099611"><ele>569.0</ele><time>2026-04-18T12:03:19.951Z</time></trkpt><trkpt lat="45.3749692" lon="7.609853"><ele>569.0</ele><time>2026-04-18T12:03:20.956Z</time></trkpt><trkpt lat="45.3749153" lon="7.6097521"><ele>569.0</ele><time>2026-04-18T12:03:21.959Z</time></trkpt><trkpt lat="45.3748464" lon="7.609638"><ele>569.0</ele><time>2026-04-18T12:03:22.951Z</time></trkpt><trkpt lat="45.3747769" lon="7.6095175"><ele>569.0</ele><time>2026-04-18T12:03:23.955Z</time></trkpt><trkpt lat="45.3746942" lon="7.6094033"><ele>572.2</ele><time>2026-04-18T12:03:24.959Z</time></trkpt><trkpt lat="45.3746089" lon="7.6092982"><ele>575.4</ele><time>2026-04-18T12:03:25.959Z</time></trkpt><trkpt lat="45.3745246" lon="7.6091958"><ele>578.6</ele><time>2026-04-18T12:03:26.958Z</time></trkpt><trkpt lat="45.3744479" lon="7.6090999"><ele>581.8</ele><time>2026-04-18T12:03:27.962Z</time></trkpt><trkpt lat="45.3743688" lon="7.6090157"><ele>585.0</ele><time>2026-04-18T12:03:28.949Z</time></trkpt><trkpt lat="45.3742807" lon="7.6089449"><ele>585.0</ele><time>2026-04-18T12:03:29.96Z</time></trkpt><trkpt lat="45.3741811" lon="7.6089003"><ele>585.0</ele><time>2026-04-18T12:03:30.956Z</time></trkpt><trkpt lat="45.3740848" lon="7.6088537"><ele>585.0</ele><time>2026-04-18T12:03:31.956Z</time></trkpt><trkpt lat="45.3740103" lon="7.6087917"><ele>585.0</ele><time>2026-04-18T12:03:32.953Z</time></trkpt><trkpt lat="45.3739524" lon="7.6087016"><ele>585.0</ele><time>2026-04-18T12:03:33.947Z</time></trkpt><trkpt lat="45.3739045" lon="7.6086063"><ele>586.2</ele><time>2026-04-18T12:03:34.953Z</time></trkpt><trkpt lat="45.3738487" lon="7.6085003"><ele>587.4</ele><time>2026-04-18T12:03:35.953Z</time></trkpt><trkpt lat="45.3737888" lon="7.6083815"><ele>588.6</ele><time>2026-04-18T12:03:36.941Z</time></trkpt><trkpt lat="45.3737056" lon="7.6082641"><ele>589.8</ele><time>2026-04-18T12:03:37.959Z</time></trkpt><trkpt lat="45.3736114" lon="7.6081376"><ele>591.0</ele><time>2026-04-18T12:03:38.944Z</time></trkpt><trkpt lat="45.3735397" lon="7.6080155"><ele>591.0</ele><time>2026-04-18T12:03:39.941Z</time></trkpt><trkpt lat="45.3734873" lon="7.6079016"><ele>591.0</ele><time>2026-04-18T12:03:40.947Z</time></trkpt><trkpt lat="45.3734552" lon="7.6077819"><ele>591.0</ele><time>2026-04-18T12:03:41.957Z</time></trkpt><trkpt lat="45.3734391" lon="7.6076564"><ele>591.0</ele><time>2026-04-18T12:03:42.945Z</time></trkpt><trkpt lat="45.3734407" lon="7.60752"><ele>591.0</ele><time>2026-04-18T12:03:43.953Z</time></trkpt><trkpt lat="45.3734435" lon="7.6073786"><ele>591.4</ele><time>2026-04-18T12:03:44.95Z</time></trkpt><trkpt lat="45.3734254" lon="7.6072436"><ele>591.8</ele><time>2026-04-18T12:03:45.949Z</time></trkpt><trkpt lat="45.3733865" lon="7.607119"><ele>592.1999999999999</ele><time>2026-04-18T12:03:46.951Z</time></trkpt><trkpt lat="45.3733314" lon="7.6069953"><ele>592.6</ele><time>2026-04-18T12:03:47.948Z</time></trkpt><trkpt lat="45.3732793" lon="7.6068781"><ele>593.0</ele><time>2026-04-18T12:03:48.948Z</time></trkpt><trkpt lat="45.3732418" lon="7.6067583"><ele>593.5</ele><time>2026-04-18T12:03:49.961Z</time></trkpt><trkpt lat="45.3732132" lon="7.6066626"><ele>594.0</ele><time>2026-04-18T12:03:50.952Z</time></trkpt><trkpt lat="45.3731981" lon="7.6065615"><ele>594.5</ele><time>2026-04-18T12:03:51.954Z</time></trkpt><trkpt lat="45.3731949" lon="7.6064444"><ele>595.0</ele><time>2026-04-18T12:03:52.947Z</time></trkpt><trkpt lat="45.3731991" lon="7.6063202"><ele>595.5</ele><time>2026-04-18T12:03:53.95Z</time></trkpt><trkpt lat="45.3732007" lon="7.6061916"><ele>596.0</ele><time>2026-04-18T12:03:54.949Z</time></trkpt><trkpt lat="45.3732056" lon="7.606051"><ele>597.2</ele><time>2026-04-18T12:03:55.953Z</time></trkpt><trkpt lat="45.3732077" lon="7.6059067"><ele>598.4000000000001</ele><time>2026-04-18T12:03:56.957Z</time></trkpt><trkpt lat="45.3731973" lon="7.6057656"><ele>599.6</ele><time>2026-04-18T12:03:57.956Z</time></trkpt><trkpt lat="45.3731871" lon="7.6056439"><ele>600.8000000000001</ele><time>2026-04-18T12:03:58.953Z</time></trkpt><trkpt lat="45.3731557" lon="7.6055473"><ele>602.0</ele><time>2026-04-18T12:03:59.955Z</time></trkpt><trkpt lat="45.3731195" lon="7.6054308"><ele>601.5</ele><time>2026-04-18T12:04:00.95Z</time></trkpt><trkpt lat="45.3730927" lon="7.6052986"><ele>601.0</ele><time>2026-04-18T12:04:01.955Z</time></trkpt><trkpt lat="45.3730605" lon="7.6051392"><ele>600.5</ele><time>2026-04-18T12:04:02.956Z</time></trkpt><trkpt lat="45.3730155" lon="7.6049613"><ele>600.0</ele><time>2026-04-18T12:04:03.961Z</time></trkpt><trkpt lat="45.3729648" lon="7.6047953"><ele>601.0</ele><time>2026-04-18T12:04:04.958Z</time></trkpt><trkpt lat="45.3729317" lon="7.6046298"><ele>602.0</ele><time>2026-04-18T12:04:05.956Z</time></trkpt><trkpt lat="45.3728988" lon="7.6044637"><ele>603.0</ele><time>2026-04-18T12:04:06.953Z</time></trkpt><trkpt lat="45.3728788" lon="7.6042952"><ele>604.0</ele><time>2026-04-18T12:04:07.95Z</time></trkpt><trkpt lat="45.372866" lon="7.6041376"><ele>605.5</ele><time>2026-04-18T12:04:08.953Z</time></trkpt><trkpt lat="45.3728637" lon="7.6039688"><ele>607.0</ele><time>2026-04-18T12:04:09.951Z</time></trkpt><trkpt lat="45.3728531" lon="7.6038074"><ele>608.5</ele><time>2026-04-18T12:04:10.948Z</time></trkpt><trkpt lat="45.372846" lon="7.6036466"><ele>610.0</ele><time>2026-04-18T12:04:11.946Z</time></trkpt><trkpt lat="45.3728396" lon="7.6034868"><ele>611.25</ele><time>2026-04-18T12:04:12.957Z</time></trkpt><trkpt lat="45.3728434" lon="7.6033351"><ele>612.5</ele><time>2026-04-18T12:04:13.951Z</time></trkpt><trkpt lat="45.3728418" lon="7.6031706"><ele>613.75</ele><time>2026-04-18T12:04:15.047Z</time></trkpt><trkpt lat="45.3728402" lon="7.6030059"><ele>615.0</ele><time>2026-04-18T12:04:16.025Z</time></trkpt><trkpt lat="45.3728255" lon="7.6028416"><ele>616.5</ele><time>2026-04-18T12:04:16.967Z</time></trkpt><trkpt lat="45.3728069" lon="7.6026715"><ele>618.0</ele><time>2026-04-18T12:04:17.954Z</time></trkpt><trkpt lat="45.3728004" lon="7.6024999"><ele>619.5</ele><time>2026-04-18T12:04:18.958Z</time></trkpt><trkpt lat="45.3727965" lon="7.6023339"><ele>621.0</ele><time>2026-04-18T12:04:19.96Z</time></trkpt><trkpt lat="45.3728127" lon="7.602176"><ele>621.0</ele><time>2026-04-18T12:04:20.98Z</time></trkpt><trkpt lat="45.3728367" lon="7.6020075"><ele>621.0</ele><time>2026-04-18T12:04:21.95Z</time></trkpt><trkpt lat="45.3728611" lon="7.6018426"><ele>621.0</ele><time>2026-04-18T12:04:22.96Z</time></trkpt><trkpt lat="45.3728936" lon="7.6016749"><ele>621.0</ele><time>2026-04-18T12:04:23.956Z</time></trkpt><trkpt lat="45.3729229" lon="7.6015197"><ele>622.0</ele><time>2026-04-18T12:04:24.953Z</time></trkpt><trkpt lat="45.3729562" lon="7.601363"><ele>623.0</ele><time>2026-04-18T12:04:25.955Z</time></trkpt><trkpt lat="45.3729843" lon="7.601211"><ele>624.0</ele><time>2026-04-18T12:04:27.035Z</time></trkpt><trkpt lat="45.3730031" lon="7.6010661"><ele>625.0</ele><time>2026-04-18T12:04:27.957Z</time></trkpt><trkpt lat="45.3730156" lon="7.6009267"><ele>626.0</ele><time>2026-04-18T12:04:28.956Z</time></trkpt><trkpt lat="45.373027" lon="7.6007797"><ele>626.6</ele><time>2026-04-18T12:04:29.967Z</time></trkpt><trkpt lat="45.3730345" lon="7.6006429"><ele>627.2</ele><time>2026-04-18T12:04:30.958Z</time></trkpt><trkpt lat="45.373037" lon="7.6005141"><ele>627.8</ele><time>2026-04-18T12:04:32.031Z</time></trkpt><trkpt lat="45.3730342" lon="7.6004044"><ele>628.4</ele><time>2026-04-18T12:04:32.953Z</time></trkpt><trkpt lat="45.3730551" lon="7.6002492"><ele>629.0</ele><time>2026-04-18T12:04:34.956Z</time></trkpt><trkpt lat="45.3731133" lon="7.6000869"><ele>629.4</ele><time>2026-04-18T12:04:36.952Z</time></trkpt><trkpt lat="45.3731496" lon="7.5999563"><ele>629.8</ele><time>2026-04-18T12:04:37.936Z</time></trkpt><trkpt lat="45.3731798" lon="7.5998035"><ele>630.2</ele><time>2026-04-18T12:04:39.044Z</time></trkpt><trkpt lat="45.3732057" lon="7.5996493"><ele>630.6</ele><time>2026-04-18T12:04:40.031Z</time></trkpt><trkpt lat="45.3732153" lon="7.599497"><ele>631.0</ele><time>2026-04-18T12:04:40.958Z</time></trkpt><trkpt lat="45.3732152" lon="7.5993457"><ele>631.6</ele><time>2026-04-18T12:04:41.96Z</time></trkpt><trkpt lat="45.3732079" lon="7.5992003"><ele>632.2</ele><time>2026-04-18T12:04:42.948Z</time></trkpt><trkpt lat="45.3731903" lon="7.5990572"><ele>632.8</ele><time>2026-04-18T12:04:43.948Z</time></trkpt><trkpt lat="45.3731703" lon="7.5989133"><ele>633.4</ele><time>2026-04-18T12:04:44.95Z</time></trkpt><trkpt lat="45.3731444" lon="7.5987701"><ele>634.0</ele><time>2026-04-18T12:04:45.951Z</time></trkpt><trkpt lat="45.3731303" lon="7.5986227"><ele>635.2</ele><time>2026-04-18T12:04:47.034Z</time></trkpt><trkpt lat="45.3731411" lon="7.5984753"><ele>636.4</ele><time>2026-04-18T12:04:47.959Z</time></trkpt><trkpt lat="45.3731702" lon="7.5983261"><ele>637.6</ele><time>2026-04-18T12:04:48.961Z</time></trkpt><trkpt lat="45.3732045" lon="7.598185"><ele>638.8</ele><time>2026-04-18T12:04:49.987Z</time></trkpt><trkpt lat="45.373237" lon="7.5980477"><ele>640.0</ele><time>2026-04-18T12:04:50.965Z</time></trkpt><trkpt lat="45.3732591" lon="7.5979021"><ele>641.4</ele><time>2026-04-18T12:04:51.957Z</time></trkpt><trkpt lat="45.373263" lon="7.597758"><ele>642.8</ele><time>2026-04-18T12:04:52.961Z</time></trkpt><trkpt lat="45.3732516" lon="7.5976147"><ele>644.2</ele><time>2026-04-18T12:04:53.965Z</time></trkpt><trkpt lat="45.3732351" lon="7.5974695"><ele>645.6</ele><time>2026-04-18T12:04:55.001Z</time></trkpt><trkpt lat="45.3732187" lon="7.5973253"><ele>647.0</ele><time>2026-04-18T12:04:55.958Z</time></trkpt><trkpt lat="45.3731984" lon="7.5971729"><ele>647.0</ele><time>2026-04-18T12:04:57.037Z</time></trkpt><trkpt lat="45.3731899" lon="7.5970222"><ele>647.0</ele><time>2026-04-18T12:04:57.959Z</time></trkpt><trkpt lat="45.3731897" lon="7.5968862"><ele>647.0</ele><time>2026-04-18T12:04:58.959Z</time></trkpt><trkpt lat="45.3731957" lon="7.5967535"><ele>647.0</ele><time>2026-04-18T12:04:59.954Z</time></trkpt><trkpt lat="45.3732142" lon="7.5966357"><ele>647.0</ele><time>2026-04-18T12:05:00.96Z</time></trkpt><trkpt lat="45.3732295" lon="7.5965407"><ele>647.0</ele><time>2026-04-18T12:05:02.017Z</time></trkpt><trkpt lat="45.3732498" lon="7.5964413"><ele>647.4000000000001</ele><time>2026-04-18T12:05:02.957Z</time></trkpt><trkpt lat="45.3732693" lon="7.5962924"><ele>647.8000000000001</ele><time>2026-04-18T12:05:04.954Z</time></trkpt><trkpt lat="45.3732324" lon="7.5961779"><ele>648.2</ele><time>2026-04-18T12:05:06.953Z</time></trkpt><trkpt lat="45.3731916" lon="7.5960876"><ele>648.6</ele><time>2026-04-18T12:05:07.956Z</time></trkpt><trkpt lat="45.3731536" lon="7.5959725"><ele>649.0</ele><time>2026-04-18T12:05:08.946Z</time></trkpt><trkpt lat="45.3731338" lon="7.5958414"><ele>649.5</ele><time>2026-04-18T12:05:09.954Z</time></trkpt><trkpt lat="45.3731367" lon="7.5956698"><ele>650.0</ele><time>2026-04-18T12:05:11.03Z</time></trkpt><trkpt lat="45.3731554" lon="7.5954875"><ele>650.5</ele><time>2026-04-18T12:05:12.031Z</time></trkpt><trkpt lat="45.373167" lon="7.5953139"><ele>651.0</ele><time>2026-04-18T12:05:12.955Z</time></trkpt><trkpt lat="45.3731748" lon="7.5951352"><ele>651.1999999999999</ele><time>2026-04-18T12:05:13.956Z</time></trkpt><trkpt lat="45.3731825" lon="7.5949721"><ele>651.4</ele><time>2026-04-18T12:05:14.952Z</time></trkpt><trkpt lat="45.37319" lon="7.5948273"><ele>651.6</ele><time>2026-04-18T12:05:15.947Z</time></trkpt><trkpt lat="45.373184" lon="7.5946901"><ele>651.8</ele><time>2026-04-18T12:05:16.96Z</time></trkpt><trkpt lat="45.3731579" lon="7.5945653"><ele>652.0</ele><time>2026-04-18T12:05:17.981Z</time></trkpt><trkpt lat="45.3731228" lon="7.5944406"><ele>652.5</ele><time>2026-04-18T12:05:18.955Z</time></trkpt><trkpt lat="45.3730831" lon="7.5943168"><ele>653.0</ele><time>2026-04-18T12:05:19.962Z</time></trkpt><trkpt lat="45.3730406" lon="7.5942075"><ele>653.5</ele><time>2026-04-18T12:05:20.955Z</time></trkpt><trkpt lat="45.3730036" lon="7.5941105"><ele>654.0</ele><time>2026-04-18T12:05:21.956Z</time></trkpt><trkpt lat="45.3729776" lon="7.5940143"><ele>654.5</ele><time>2026-04-18T12:05:22.958Z</time></trkpt><trkpt lat="45.3729719" lon="7.5939236"><ele>655.0</ele><time>2026-04-18T12:05:23.953Z</time></trkpt><trkpt lat="45.3729727" lon="7.5938269"><ele>654.3333333333334</ele><time>2026-04-18T12:05:24.956Z</time></trkpt><trkpt lat="45.3729607" lon="7.5937221"><ele>653.6666666666667</ele><time>2026-04-18T12:05:25.955Z</time></trkpt><trkpt lat="45.3729379" lon="7.593618"><ele>653.0</ele><time>2026-04-18T12:05:26.959Z</time></trkpt><trkpt lat="45.3728992" lon="7.5935062"><ele>652.3333333333334</ele><time>2026-04-18T12:05:27.954Z</time></trkpt><trkpt lat="45.3728523" lon="7.5934058"><ele>651.6666666666666</ele><time>2026-04-18T12:05:28.958Z</time></trkpt><trkpt lat="45.3727982" lon="7.5933003"><ele>651.0</ele><time>2026-04-18T12:05:29.954Z</time></trkpt><trkpt lat="45.3727372" lon="7.5932082"><ele>651.0</ele><time>2026-04-18T12:05:30.956Z</time></trkpt><trkpt lat="45.3726722" lon="7.5931058"><ele>651.0</ele><time>2026-04-18T12:05:31.959Z</time></trkpt><trkpt lat="45.372599" lon="7.592994"><ele>651.0</ele><time>2026-04-18T12:05:32.946Z</time></trkpt><trkpt lat="45.3725198" lon="7.5929118"><ele>651.0</ele><time>2026-04-18T12:05:33.95Z</time></trkpt><trkpt lat="45.3724506" lon="7.5928456"><ele>651.0</ele><time>2026-04-18T12:05:34.948Z</time></trkpt><trkpt lat="45.3723716" lon="7.5928077"><ele>653.4</ele><time>2026-04-18T12:05:35.957Z</time></trkpt><trkpt lat="45.3722817" lon="7.5928033"><ele>655.8</ele><time>2026-04-18T12:05:36.967Z</time></trkpt><trkpt lat="45.372184" lon="7.5928238"><ele>658.1999999999999</ele><time>2026-04-18T12:05:37.957Z</time></trkpt><trkpt lat="45.3720806" lon="7.5928622"><ele>660.5999999999999</ele><time>2026-04-18T12:05:38.955Z</time></trkpt><trkpt lat="45.3719832" lon="7.5929253"><ele>663.0</ele><time>2026-04-18T12:05:39.945Z</time></trkpt><trkpt lat="45.3718835" lon="7.5929997"><ele>663.0</ele><time>2026-04-18T12:05:40.959Z</time></trkpt><trkpt lat="45.3717973" lon="7.5930784"><ele>663.0</ele><time>2026-04-18T12:05:41.96Z</time></trkpt><trkpt lat="45.3717238" lon="7.5931372"><ele>663.0</ele><time>2026-04-18T12:05:42.958Z</time></trkpt><trkpt lat="45.3716411" lon="7.5931905"><ele>663.0</ele><time>2026-04-18T12:05:44.037Z</time></trkpt><trkpt lat="45.3715669" lon="7.5932406"><ele>663.0</ele><time>2026-04-18T12:05:45.027Z</time></trkpt><trkpt lat="45.3715039" lon="7.5932946"><ele>663.0</ele><time>2026-04-18T12:05:46.029Z</time></trkpt><trkpt lat="45.3714454" lon="7.5933388"><ele>662.2</ele><time>2026-04-18T12:05:46.957Z</time></trkpt><trkpt lat="45.3713555" lon="7.5934636"><ele>661.4</ele><time>2026-04-18T12:05:48.948Z</time></trkpt><trkpt lat="45.3713146" lon="7.5935429"><ele>660.6</ele><time>2026-04-18T12:05:50.032Z</time></trkpt><trkpt lat="45.3712462" lon="7.5936856"><ele>659.8000000000001</ele><time>2026-04-18T12:05:52.034Z</time></trkpt><trkpt lat="45.3711637" lon="7.5938073"><ele>659.0</ele><time>2026-04-18T12:05:53.953Z</time></trkpt><trkpt lat="45.3711171" lon="7.5938853"><ele>657.8333333333333</ele><time>2026-04-18T12:05:54.982Z</time></trkpt><trkpt lat="45.3710783" lon="7.5939746"><ele>656.6666666666666</ele><time>2026-04-18T12:05:55.954Z</time></trkpt><trkpt lat="45.37103" lon="7.5940587"><ele>655.5</ele><time>2026-04-18T12:05:57.044Z</time></trkpt><trkpt lat="45.3709771" lon="7.5941352"><ele>654.3333333333334</ele><time>2026-04-18T12:05:57.963Z</time></trkpt><trkpt lat="45.370913" lon="7.5942607"><ele>653.1666666666667</ele><time>2026-04-18T12:05:59.975Z</time></trkpt><trkpt lat="45.3708326" lon="7.5943636"><ele>652.0</ele><time>2026-04-18T12:06:01.939Z</time></trkpt><trkpt lat="45.3707463" lon="7.5943982"><ele>652.0</ele><time>2026-04-18T12:06:03.946Z</time></trkpt><trkpt lat="45.3706558" lon="7.5943582"><ele>652.0</ele><time>2026-04-18T12:06:05.951Z</time></trkpt><trkpt lat="45.3705861" lon="7.59423"><ele>652.0</ele><time>2026-04-18T12:06:07.948Z</time></trkpt><trkpt lat="45.3705494" lon="7.5941152"><ele>652.0</ele><time>2026-04-18T12:06:08.946Z</time></trkpt><trkpt lat="45.3705176" lon="7.5939746"><ele>652.0</ele><time>2026-04-18T12:06:09.952Z</time></trkpt><trkpt lat="45.370489" lon="7.5938286"><ele>649.2</ele><time>2026-04-18T12:06:10.951Z</time></trkpt><trkpt lat="45.3704543" lon="7.5936926"><ele>646.4000000000001</ele><time>2026-04-18T12:06:11.953Z</time></trkpt><trkpt lat="45.37042" lon="7.5935622"><ele>643.5999999999999</ele><time>2026-04-18T12:06:12.947Z</time></trkpt><trkpt lat="45.3703931" lon="7.5934397"><ele>640.8</ele><time>2026-04-18T12:06:13.958Z</time></trkpt><trkpt lat="45.3703716" lon="7.5933175"><ele>638.0</ele><time>2026-04-18T12:06:14.951Z</time></trkpt><trkpt lat="45.3703611" lon="7.5931902"><ele>638.0</ele><time>2026-04-18T12:06:15.985Z</time></trkpt><trkpt lat="45.3703623" lon="7.5930448"><ele>638.0</ele><time>2026-04-18T12:06:16.953Z</time></trkpt><trkpt lat="45.3703534" lon="7.5929248"><ele>638.0</ele><time>2026-04-18T12:06:17.945Z</time></trkpt><trkpt lat="45.3703464" lon="7.5928104"><ele>638.0</ele><time>2026-04-18T12:06:18.952Z</time></trkpt><trkpt lat="45.3703442" lon="7.59269"><ele>638.0</ele><time>2026-04-18T12:06:19.955Z</time></trkpt><trkpt lat="45.3703393" lon="7.5925771"><ele>638.0</ele><time>2026-04-18T12:06:20.95Z</time></trkpt><trkpt lat="45.3703197" lon="7.5924786"><ele>638.75</ele><time>2026-04-18T12:06:22.046Z</time></trkpt><trkpt lat="45.3702821" lon="7.5923022"><ele>639.5</ele><time>2026-04-18T12:06:24.04Z</time></trkpt><trkpt lat="45.3702412" lon="7.5921375"><ele>640.25</ele><time>2026-04-18T12:06:26.023Z</time></trkpt><trkpt lat="45.3701881" lon="7.591963"><ele>641.0</ele><time>2026-04-18T12:06:28.951Z</time></trkpt><trkpt lat="45.3701439" lon="7.5918672"><ele>641.6666666666666</ele><time>2026-04-18T12:06:30.95Z</time></trkpt><trkpt lat="45.3700992" lon="7.5917828"><ele>642.3333333333333</ele><time>2026-04-18T12:06:32.952Z</time></trkpt><trkpt lat="45.3700364" lon="7.5918253"><ele>643.0</ele><time>2026-04-18T12:06:36.951Z</time></trkpt><trkpt lat="45.3700106" lon="7.5919204"><ele>643.6666666666666</ele><time>2026-04-18T12:06:38.957Z</time></trkpt><trkpt lat="45.3699454" lon="7.5919977"><ele>644.3333333333334</ele><time>2026-04-18T12:06:41.012Z</time></trkpt><trkpt lat="45.369865" lon="7.5920052"><ele>645.0</ele><time>2026-04-18T12:06:43.948Z</time></trkpt><trkpt lat="45.3698134" lon="7.5919032"><ele>645.0</ele><time>2026-04-18T12:06:46.956Z</time></trkpt><trkpt lat="45.3697872" lon="7.5917909"><ele>645.0</ele><time>2026-04-18T12:06:48.952Z</time></trkpt><trkpt lat="45.3697661" lon="7.5916504"><ele>645.0</ele><time>2026-04-18T12:06:50.953Z</time></trkpt><trkpt lat="45.3697572" lon="7.5914882"><ele>645.0</ele><time>2026-04-18T12:06:52.955Z</time></trkpt><trkpt lat="45.3697517" lon="7.5913911"><ele>645.0</ele><time>2026-04-18T12:06:53.948Z</time></trkpt><trkpt lat="45.3697317" lon="7.5912503"><ele>646.0</ele><time>2026-04-18T12:06:54.943Z</time></trkpt><trkpt lat="45.3697317" lon="7.5911403"><ele>647.0</ele><time>2026-04-18T12:06:55.951Z</time></trkpt><trkpt lat="45.3697435" lon="7.5910304"><ele>648.0</ele><time>2026-04-18T12:06:56.954Z</time></trkpt><trkpt lat="45.3697561" lon="7.590939"><ele>649.0</ele><time>2026-04-18T12:06:57.948Z</time></trkpt><trkpt lat="45.3697784" lon="7.5908548"><ele>650.0</ele><time>2026-04-18T12:06:58.96Z</time></trkpt><trkpt lat="45.3697614" lon="7.5907662"><ele>651.0</ele><time>2026-04-18T12:07:00.955Z</time></trkpt><trkpt lat="45.3697149" lon="7.5906838"><ele>652.0</ele><time>2026-04-18T12:07:02.951Z</time></trkpt><trkpt lat="45.3696729" lon="7.5905379"><ele>652.8333333333334</ele><time>2026-04-18T12:07:04.953Z</time></trkpt><trkpt lat="45.3696824" lon="7.5904262"><ele>653.6666666666667</ele><time>2026-04-18T12:07:05.956Z</time></trkpt><trkpt lat="45.3696712" lon="7.5902761"><ele>654.5</ele><time>2026-04-18T12:07:07.949Z</time></trkpt><trkpt lat="45.3696351" lon="7.5901134"><ele>655.3333333333334</ele><time>2026-04-18T12:07:09.949Z</time></trkpt><trkpt lat="45.3696076" lon="7.5900169"><ele>656.1666666666666</ele><time>2026-04-18T12:07:10.95Z</time></trkpt><trkpt lat="45.3695693" lon="7.5899421"><ele>657.0</ele><time>2026-04-18T12:07:11.944Z</time></trkpt><trkpt lat="45.3695302" lon="7.5898658"><ele>658.1666666666666</ele><time>2026-04-18T12:07:12.952Z</time></trkpt><trkpt lat="45.3694858" lon="7.589727"><ele>659.3333333333334</ele><time>2026-04-18T12:07:14.942Z</time></trkpt><trkpt lat="45.3694554" lon="7.5896127"><ele>660.5</ele><time>2026-04-18T12:07:16.954Z</time></trkpt><trkpt lat="45.3693914" lon="7.5895423"><ele>661.6666666666667</ele><time>2026-04-18T12:07:19.951Z</time></trkpt><trkpt lat="45.3693175" lon="7.5895705"><ele>662.8333333333334</ele><time>2026-04-18T12:07:21.962Z</time></trkpt><trkpt lat="45.3692392" lon="7.5895882"><ele>664.0</ele><time>2026-04-18T12:07:23.95Z</time></trkpt><trkpt lat="45.3692014" lon="7.5895019"><ele>665.0</ele><time>2026-04-18T12:07:25.958Z</time></trkpt><trkpt lat="45.3691251" lon="7.5894444"><ele>666.0</ele><time>2026-04-18T12:07:27.952Z</time></trkpt><trkpt lat="45.3690441" lon="7.589423"><ele>667.0</ele><time>2026-04-18T12:07:28.951Z</time></trkpt><trkpt lat="45.3689762" lon="7.5894057"><ele>668.0</ele><time>2026-04-18T12:07:29.958Z</time></trkpt><trkpt lat="45.3688674" lon="7.589424"><ele>669.0</ele><time>2026-04-18T12:07:31.956Z</time></trkpt><trkpt lat="45.3688068" lon="7.5893716"><ele>670.0</ele><time>2026-04-18T12:07:32.955Z</time></trkpt><trkpt lat="45.3687469" lon="7.5892749"><ele>671.8</ele><time>2026-04-18T12:07:33.956Z</time></trkpt><trkpt lat="45.3686959" lon="7.5891618"><ele>673.6</ele><time>2026-04-18T12:07:34.953Z</time></trkpt><trkpt lat="45.3686233" lon="7.5890478"><ele>675.4000000000001</ele><time>2026-04-18T12:07:35.96Z</time></trkpt><trkpt lat="45.3685425" lon="7.5888994"><ele>677.2</ele><time>2026-04-18T12:07:36.958Z</time></trkpt><trkpt lat="45.3684803" lon="7.5887699"><ele>679.0</ele><time>2026-04-18T12:07:37.957Z</time></trkpt><trkpt lat="45.3684227" lon="7.5886616"><ele>679.8333333333334</ele><time>2026-04-18T12:07:38.953Z</time></trkpt><trkpt lat="45.3683748" lon="7.5885594"><ele>680.6666666666667</ele><time>2026-04-18T12:07:39.95Z</time></trkpt><trkpt lat="45.3683403" lon="7.5884661"><ele>681.5</ele><time>2026-04-18T12:07:40.949Z</time></trkpt><trkpt lat="45.3683063" lon="7.5883801"><ele>682.3333333333334</ele><time>2026-04-18T12:07:41.963Z</time></trkpt><trkpt lat="45.3682747" lon="7.5883"><ele>683.1666666666666</ele><time>2026-04-18T12:07:42.948Z</time></trkpt><trkpt lat="45.3682211" lon="7.5881635"><ele>684.0</ele><time>2026-04-18T12:07:44.95Z</time></trkpt><trkpt lat="45.3681948" lon="7.5880547"><ele>683.9999999999999</ele><time>2026-04-18T12:07:46.944Z</time></trkpt><trkpt lat="45.3681457" lon="7.5879478"><ele>684.0</ele><time>2026-04-18T12:07:49.952Z</time></trkpt><trkpt lat="45.3680973" lon="7.5878629"><ele>684.0</ele><time>2026-04-18T12:07:52.952Z</time></trkpt><trkpt lat="45.3680726" lon="7.5877497"><ele>684.0</ele><time>2026-04-18T12:07:56.96Z</time></trkpt><trkpt lat="45.3680292" lon="7.5876826"><ele>684.0</ele><time>2026-04-18T12:07:59.022Z</time></trkpt><trkpt lat="45.3679697" lon="7.5876413"><ele>683.9999999999999</ele><time>2026-04-18T12:08:00.956Z</time></trkpt><trkpt lat="45.3679157" lon="7.5875842"><ele>684.0</ele><time>2026-04-18T12:08:02.951Z</time></trkpt><trkpt lat="45.3678984" lon="7.5874711"><ele>687.4000000000001</ele><time>2026-04-18T12:08:06.035Z</time></trkpt><trkpt lat="45.3679287" lon="7.5873604"><ele>690.8</ele><time>2026-04-18T12:08:08.958Z</time></trkpt><trkpt lat="45.3679485" lon="7.5872198"><ele>694.2</ele><time>2026-04-18T12:08:11.961Z</time></trkpt><trkpt lat="45.3679584" lon="7.5870887"><ele>697.5999999999999</ele><time>2026-04-18T12:08:13.954Z</time></trkpt><trkpt lat="45.367977" lon="7.5869056"><ele>701.0</ele><time>2026-04-18T12:08:15.954Z</time></trkpt><trkpt lat="45.3680122" lon="7.5867363"><ele>699.8</ele><time>2026-04-18T12:08:17.035Z</time></trkpt><trkpt lat="45.3680425" lon="7.5866307"><ele>698.5999999999999</ele><time>2026-04-18T12:08:17.952Z</time></trkpt><trkpt lat="45.3680792" lon="7.5865198"><ele>697.4</ele><time>2026-04-18T12:08:19.988Z</time></trkpt><trkpt lat="45.3680904" lon="7.5863612"><ele>696.2</ele><time>2026-04-18T12:08:22.952Z</time></trkpt><trkpt lat="45.3681295" lon="7.5862221"><ele>695.0</ele><time>2026-04-18T12:08:24.968Z</time></trkpt><trkpt lat="45.3681591" lon="7.5861361"><ele>695.0000000000001</ele><time>2026-04-18T12:08:25.956Z</time></trkpt><trkpt lat="45.3682087" lon="7.586067"><ele>695.0</ele><time>2026-04-18T12:08:27.035Z</time></trkpt><trkpt lat="45.3682671" lon="7.5860177"><ele>695.0</ele><time>2026-04-18T12:08:27.954Z</time></trkpt><trkpt lat="45.3683403" lon="7.5859717"><ele>695.0</ele><time>2026-04-18T12:08:29.951Z</time></trkpt><trkpt lat="45.3683923" lon="7.5859112"><ele>695.0</ele><time>2026-04-18T12:08:32.948Z</time></trkpt><trkpt lat="45.3683937" lon="7.5858112"><ele>695.0000000000001</ele><time>2026-04-18T12:08:36.935Z</time></trkpt><trkpt lat="45.3683305" lon="7.5857473"><ele>695.0</ele><time>2026-04-18T12:08:38.948Z</time></trkpt><trkpt lat="45.368272" lon="7.5856927"><ele>695.0</ele><time>2026-04-18T12:08:40.957Z</time></trkpt><trkpt lat="45.3682212" lon="7.5856164"><ele>695.0</ele><time>2026-04-18T12:08:42.937Z</time></trkpt><trkpt lat="45.3681852" lon="7.585536"><ele>695.0</ele><time>2026-04-18T12:08:44.966Z</time></trkpt><trkpt lat="45.3681525" lon="7.5854551"><ele>695.0</ele><time>2026-04-18T12:08:46.94Z</time></trkpt><trkpt lat="45.3680691" lon="7.5853761"><ele>695.0</ele><time>2026-04-18T12:08:49.935Z</time></trkpt><trkpt lat="45.3680014" lon="7.5853185"><ele>695.0</ele><time>2026-04-18T12:08:51.946Z</time></trkpt><trkpt lat="45.3679547" lon="7.5852139"><ele>697.6</ele><time>2026-04-18T12:08:53.931Z</time></trkpt><trkpt lat="45.367908" lon="7.5851093"><ele>700.2</ele><time>2026-04-18T12:08:55.938Z</time></trkpt><trkpt lat="45.3678658" lon="7.5849993"><ele>702.8</ele><time>2026-04-18T12:08:57.949Z</time></trkpt><trkpt lat="45.367867" lon="7.5848125"><ele>705.4</ele><time>2026-04-18T12:08:59.947Z</time></trkpt><trkpt lat="45.367867" lon="7.5847137"><ele>708.0</ele><time>2026-04-18T12:09:00.939Z</time></trkpt><trkpt lat="45.3678697" lon="7.5846036"><ele>709.4</ele><time>2026-04-18T12:09:01.952Z</time></trkpt><trkpt lat="45.3678689" lon="7.5845088"><ele>710.8</ele><time>2026-04-18T12:09:02.938Z</time></trkpt><trkpt lat="45.3678727" lon="7.5843521"><ele>712.2</ele><time>2026-04-18T12:09:04.947Z</time></trkpt><trkpt lat="45.3678655" lon="7.5842059"><ele>713.6</ele><time>2026-04-18T12:09:06.942Z</time></trkpt><trkpt lat="45.3678645" lon="7.584098"><ele>715.0</ele><time>2026-04-18T12:09:08.949Z</time></trkpt><trkpt lat="45.3678649" lon="7.5839372"><ele>715.0</ele><time>2026-04-18T12:09:10.941Z</time></trkpt><trkpt lat="45.3678758" lon="7.5837884"><ele>715.0</ele><time>2026-04-18T12:09:12.934Z</time></trkpt><trkpt lat="45.3678948" lon="7.5836286"><ele>715.0</ele><time>2026-04-18T12:09:14.944Z</time></trkpt><trkpt lat="45.3679036" lon="7.5834646"><ele>715.0</ele><time>2026-04-18T12:09:16.941Z</time></trkpt><trkpt lat="45.3678874" lon="7.5833712"><ele>715.0</ele><time>2026-04-18T12:09:17.938Z</time></trkpt><trkpt lat="45.3678789" lon="7.5832795"><ele>715.3333333333334</ele><time>2026-04-18T12:09:18.94Z</time></trkpt><trkpt lat="45.3678679" lon="7.5831823"><ele>715.6666666666667</ele><time>2026-04-18T12:09:19.944Z</time></trkpt><trkpt lat="45.3678546" lon="7.5830619"><ele>716.0</ele><time>2026-04-18T12:09:20.949Z</time></trkpt><trkpt lat="45.3678342" lon="7.5829402"><ele>716.3333333333334</ele><time>2026-04-18T12:09:21.949Z</time></trkpt><trkpt lat="45.3678202" lon="7.5828014"><ele>716.6666666666666</ele><time>2026-04-18T12:09:22.945Z</time></trkpt><trkpt lat="45.3678068" lon="7.5826641"><ele>717.0</ele><time>2026-04-18T12:09:23.943Z</time></trkpt><trkpt lat="45.3678021" lon="7.5825266"><ele>718.5</ele><time>2026-04-18T12:09:24.949Z</time></trkpt><trkpt lat="45.3677963" lon="7.5823931"><ele>720.0</ele><time>2026-04-18T12:09:25.946Z</time></trkpt><trkpt lat="45.3677872" lon="7.5822726"><ele>721.5</ele><time>2026-04-18T12:09:26.949Z</time></trkpt><trkpt lat="45.3677885" lon="7.5821801"><ele>723.0</ele><time>2026-04-18T12:09:27.949Z</time></trkpt><trkpt lat="45.3678241" lon="7.5820648"><ele>724.5</ele><time>2026-04-18T12:09:29.948Z</time></trkpt><trkpt lat="45.3679398" lon="7.5820547"><ele>726.0</ele><time>2026-04-18T12:09:31.948Z</time></trkpt><trkpt lat="45.3680195" lon="7.5820702"><ele>724.5999999999999</ele><time>2026-04-18T12:09:32.941Z</time></trkpt><trkpt lat="45.368108" lon="7.5820908"><ele>723.2</ele><time>2026-04-18T12:09:33.945Z</time></trkpt><trkpt lat="45.3682038" lon="7.5821161"><ele>721.8</ele><time>2026-04-18T12:09:34.951Z</time></trkpt><trkpt lat="45.3683116" lon="7.5821311"><ele>720.4000000000001</ele><time>2026-04-18T12:09:35.943Z</time></trkpt><trkpt lat="45.3684152" lon="7.5821414"><ele>719.0</ele><time>2026-04-18T12:09:36.951Z</time></trkpt><trkpt lat="45.3685132" lon="7.5821505"><ele>719.0</ele><time>2026-04-18T12:09:37.949Z</time></trkpt><trkpt lat="45.3686019" lon="7.5821585"><ele>719.0</ele><time>2026-04-18T12:09:38.95Z</time></trkpt><trkpt lat="45.3686896" lon="7.5821668"><ele>719.0</ele><time>2026-04-18T12:09:39.946Z</time></trkpt><trkpt lat="45.3687727" lon="7.5821851"><ele>719.0</ele><time>2026-04-18T12:09:40.946Z</time></trkpt><trkpt lat="45.3688568" lon="7.5822076"><ele>719.0</ele><time>2026-04-18T12:09:41.949Z</time></trkpt><trkpt lat="45.3689288" lon="7.5822249"><ele>719.0</ele><time>2026-04-18T12:09:42.947Z</time></trkpt><trkpt lat="45.3690105" lon="7.5822412"><ele>719.2857142857142</ele><time>2026-04-18T12:09:43.95Z</time></trkpt><trkpt lat="45.3690853" lon="7.5822435"><ele>719.5714285714286</ele><time>2026-04-18T12:09:44.947Z</time></trkpt><trkpt lat="45.3691536" lon="7.5822195"><ele>719.8571428571429</ele><time>2026-04-18T12:09:45.944Z</time></trkpt><trkpt lat="45.3692058" lon="7.5821545"><ele>720.1428571428571</ele><time>2026-04-18T12:09:46.939Z</time></trkpt><trkpt lat="45.3692353" lon="7.582063"><ele>720.4285714285714</ele><time>2026-04-18T12:09:47.938Z</time></trkpt><trkpt lat="45.3692824" lon="7.5819752"><ele>720.7142857142857</ele><time>2026-04-18T12:09:48.944Z</time></trkpt><trkpt lat="45.3693256" lon="7.5819006"><ele>721.0</ele><time>2026-04-18T12:09:49.937Z</time></trkpt><trkpt lat="45.3693764" lon="7.5818213"><ele>721.2857142857143</ele><time>2026-04-18T12:09:50.941Z</time></trkpt><trkpt lat="45.3694198" lon="7.5817498"><ele>721.5714285714286</ele><time>2026-04-18T12:09:51.935Z</time></trkpt><trkpt lat="45.369476" lon="7.5816805"><ele>721.8571428571429</ele><time>2026-04-18T12:09:52.945Z</time></trkpt><trkpt lat="45.3695307" lon="7.5816277"><ele>722.1428571428571</ele><time>2026-04-18T12:09:53.944Z</time></trkpt><trkpt lat="45.3695819" lon="7.5815615"><ele>722.4285714285714</ele><time>2026-04-18T12:09:55.945Z</time></trkpt><trkpt lat="45.3695733" lon="7.581472"><ele>722.7142857142858</ele><time>2026-04-18T12:09:59.01Z</time></trkpt><trkpt lat="45.3695336" lon="7.5813992"><ele>723.0</ele><time>2026-04-18T12:10:00.931Z</time></trkpt><trkpt lat="45.3694706" lon="7.5813215"><ele>723.0</ele><time>2026-04-18T12:10:03.944Z</time></trkpt><trkpt lat="45.3694252" lon="7.5812515"><ele>723.0</ele><time>2026-04-18T12:10:06.945Z</time></trkpt><trkpt lat="45.3694039" lon="7.5811137"><ele>723.0</ele><time>2026-04-18T12:10:09.949Z</time></trkpt><trkpt lat="45.3694151" lon="7.5809932"><ele>723.0</ele><time>2026-04-18T12:10:12.017Z</time></trkpt><trkpt lat="45.3694282" lon="7.5808835"><ele>723.0</ele><time>2026-04-18T12:10:13.947Z</time></trkpt><trkpt lat="45.3694102" lon="7.5807573"><ele>723.0</ele><time>2026-04-18T12:10:15.945Z</time></trkpt><trkpt lat="45.3693943" lon="7.5806698"><ele>724.3333333333334</ele><time>2026-04-18T12:10:16.943Z</time></trkpt><trkpt lat="45.3693671" lon="7.580573"><ele>725.6666666666666</ele><time>2026-04-18T12:10:17.946Z</time></trkpt><trkpt lat="45.3693402" lon="7.5804918"><ele>727.0</ele><time>2026-04-18T12:10:18.939Z</time></trkpt><trkpt lat="45.3692919" lon="7.5803626"><ele>728.3333333333333</ele><time>2026-04-18T12:10:21.015Z</time></trkpt><trkpt lat="45.3692631" lon="7.5802468"><ele>729.6666666666666</ele><time>2026-04-18T12:10:22.958Z</time></trkpt><trkpt lat="45.369215" lon="7.5801244"><ele>731.0</ele><time>2026-04-18T12:10:24.95Z</time></trkpt><trkpt lat="45.3692037" lon="7.5799876"><ele>732.5</ele><time>2026-04-18T12:10:27.054Z</time></trkpt><trkpt lat="45.3692502" lon="7.5797713"><ele>734.0</ele><time>2026-04-18T12:10:28.957Z</time></trkpt><trkpt lat="45.3692975" lon="7.5796415"><ele>735.5</ele><time>2026-04-18T12:10:29.951Z</time></trkpt><trkpt lat="45.3693622" lon="7.5794993"><ele>737.0</ele><time>2026-04-18T12:10:30.951Z</time></trkpt><trkpt lat="45.3694318" lon="7.5793613"><ele>739.0</ele><time>2026-04-18T12:10:31.955Z</time></trkpt><trkpt lat="45.369522" lon="7.5792419"><ele>741.0</ele><time>2026-04-18T12:10:32.953Z</time></trkpt><trkpt lat="45.3696281" lon="7.5790998"><ele>743.0</ele><time>2026-04-18T12:10:33.992Z</time></trkpt><trkpt lat="45.3697422" lon="7.5789676"><ele>745.0</ele><time>2026-04-18T12:10:34.967Z</time></trkpt><trkpt lat="45.3698499" lon="7.5788572"><ele>746.8333333333334</ele><time>2026-04-18T12:10:35.956Z</time></trkpt><trkpt lat="45.3699367" lon="7.5787328"><ele>748.6666666666667</ele><time>2026-04-18T12:10:37.022Z</time></trkpt><trkpt lat="45.3700004" lon="7.578634"><ele>750.5</ele><time>2026-04-18T12:10:37.953Z</time></trkpt><trkpt lat="45.3700392" lon="7.5785618"><ele>752.3333333333334</ele><time>2026-04-18T12:10:39.948Z</time></trkpt><trkpt lat="45.3700065" lon="7.578465"><ele>754.1666666666666</ele><time>2026-04-18T12:11:14.954Z</time></trkpt><trkpt lat="45.3700009" lon="7.578365"><ele>756.0</ele><time>2026-04-18T12:11:17.958Z</time></trkpt><trkpt lat="45.3699819" lon="7.5782523"><ele>758.0</ele><time>2026-04-18T12:11:21.956Z</time></trkpt><trkpt lat="45.3699424" lon="7.5781642"><ele>760.0</ele><time>2026-04-18T12:11:25.029Z</time></trkpt><trkpt lat="45.3699654" lon="7.5780576"><ele>762.0</ele><time>2026-04-18T12:11:27.985Z</time></trkpt><trkpt lat="45.3700022" lon="7.5779724"><ele>764.0</ele><time>2026-04-18T12:11:29.958Z</time></trkpt><trkpt lat="45.3700553" lon="7.5779109"><ele>766.0</ele><time>2026-04-18T12:11:32.952Z</time></trkpt><trkpt lat="45.3701018" lon="7.5778162"><ele>768.0</ele><time>2026-04-18T12:11:34.953Z</time></trkpt><trkpt lat="45.3701647" lon="7.5777319"><ele>769.5</ele><time>2026-04-18T12:11:37.959Z</time></trkpt><trkpt lat="45.370243" lon="7.5776098"><ele>771.0</ele><time>2026-04-18T12:11:39.973Z</time></trkpt><trkpt lat="45.370266" lon="7.577516"><ele>772.5</ele><time>2026-04-18T12:11:42.956Z</time></trkpt><trkpt lat="45.3702709" lon="7.5774141"><ele>774.0</ele><time>2026-04-18T12:11:46.053Z</time></trkpt><trkpt lat="45.3702613" lon="7.5773127"><ele>775.5</ele><time>2026-04-18T12:14:23.953Z</time></trkpt><trkpt lat="45.3702659" lon="7.5771515"><ele>777.0</ele><time>2026-04-18T12:14:25.956Z</time></trkpt><trkpt lat="45.370273" lon="7.5770471"><ele>778.8333333333334</ele><time>2026-04-18T12:14:28.959Z</time></trkpt><trkpt lat="45.370279" lon="7.5769459"><ele>780.6666666666667</ele><time>2026-04-18T12:14:31.951Z</time></trkpt><trkpt lat="45.3702667" lon="7.576832"><ele>782.5</ele><time>2026-04-18T12:14:34.943Z</time></trkpt><trkpt lat="45.370227" lon="7.57674"><ele>784.3333333333334</ele><time>2026-04-18T12:14:47.96Z</time></trkpt><trkpt lat="45.3702512" lon="7.5766304"><ele>786.1666666666667</ele><time>2026-04-18T12:14:50.954Z</time></trkpt><trkpt lat="45.3702855" lon="7.5765303"><ele>788.0</ele><time>2026-04-18T12:15:00.952Z</time></trkpt><trkpt lat="45.3703039" lon="7.5764036"><ele>788.0000000000001</ele><time>2026-04-18T12:15:34.956Z</time></trkpt><trkpt lat="45.3703594" lon="7.5764937"><ele>788.0</ele><time>2026-04-18T12:15:57.955Z</time></trkpt><trkpt lat="45.3703046" lon="7.5764444"><ele>788.0</ele><time>2026-04-18T12:16:11.95Z</time></trkpt><trkpt lat="45.3703264" lon="7.5763517"><ele>788.0</ele><time>2026-04-18T12:16:18.958Z</time></trkpt><trkpt lat="45.3703669" lon="7.5762491"><ele>788.0000000000001</ele><time>2026-04-18T12:16:39.955Z</time></trkpt><trkpt lat="45.3703356" lon="7.5761672"><ele>788.0</ele><time>2026-04-18T12:17:05.955Z</time></trkpt><trkpt lat="45.370286" lon="7.5760473"><ele>790.8333333333334</ele><time>2026-04-18T12:17:07.95Z</time></trkpt><trkpt lat="45.3702407" lon="7.575953"><ele>793.6666666666667</ele><time>2026-04-18T12:17:09.959Z</time></trkpt><trkpt lat="45.3701939" lon="7.5758885"><ele>796.5</ele><time>2026-04-18T12:17:11.955Z</time></trkpt><trkpt lat="45.3701439" lon="7.5757803"><ele>799.3333333333333</ele><time>2026-04-18T12:17:14.96Z</time></trkpt><trkpt lat="45.3700992" lon="7.5756704"><ele>802.1666666666666</ele><time>2026-04-18T12:17:17.95Z</time></trkpt><trkpt lat="45.3700666" lon="7.5755653"><ele>805.0</ele><time>2026-04-18T12:17:19.957Z</time></trkpt><trkpt lat="45.3700442" lon="7.5754671"><ele>804.9999999999999</ele><time>2026-04-18T12:17:21.945Z</time></trkpt><trkpt lat="45.3700281" lon="7.5753655"><ele>805.0</ele><time>2026-04-18T12:17:23.959Z</time></trkpt><trkpt lat="45.3700102" lon="7.5752683"><ele>805.0</ele><time>2026-04-18T12:17:25.959Z</time></trkpt><trkpt lat="45.3700261" lon="7.5751526"><ele>805.0</ele><time>2026-04-18T12:17:27.95Z</time></trkpt><trkpt lat="45.3700484" lon="7.5750637"><ele>804.9999999999999</ele><time>2026-04-18T12:17:28.96Z</time></trkpt><trkpt lat="45.3700859" lon="7.5749068"><ele>805.0</ele><time>2026-04-18T12:17:30.951Z</time></trkpt><trkpt lat="45.3701458" lon="7.5747839"><ele>805.8333333333333</ele><time>2026-04-18T12:17:32.948Z</time></trkpt><trkpt lat="45.3701938" lon="7.5747246"><ele>806.6666666666666</ele><time>2026-04-18T12:17:33.953Z</time></trkpt><trkpt lat="45.370258" lon="7.5746137"><ele>807.5</ele><time>2026-04-18T12:17:35.953Z</time></trkpt><trkpt lat="45.3702974" lon="7.5745392"><ele>808.3333333333333</ele><time>2026-04-18T12:17:36.955Z</time></trkpt><trkpt lat="45.3703437" lon="7.5744721"><ele>809.1666666666666</ele><time>2026-04-18T12:17:37.954Z</time></trkpt><trkpt lat="45.3704184" lon="7.5743804"><ele>810.0</ele><time>2026-04-18T12:17:39.952Z</time></trkpt><trkpt lat="45.370474" lon="7.5743002"><ele>809.9999999999999</ele><time>2026-04-18T12:17:41.936Z</time></trkpt><trkpt lat="45.3705193" lon="7.5742133"><ele>810.0</ele><time>2026-04-18T12:17:44.957Z</time></trkpt><trkpt lat="45.370556" lon="7.5741242"><ele>810.0</ele><time>2026-04-18T12:17:46.951Z</time></trkpt><trkpt lat="45.3705939" lon="7.5740354"><ele>810.0</ele><time>2026-04-18T12:17:48.962Z</time></trkpt><trkpt lat="45.370619" lon="7.5739488"><ele>810.0</ele><time>2026-04-18T12:17:50.954Z</time></trkpt><trkpt lat="45.3706589" lon="7.5738699"><ele>809.9999999999999</ele><time>2026-04-18T12:17:54.958Z</time></trkpt><trkpt lat="45.3705906" lon="7.5738472"><ele>810.0</ele><time>2026-04-18T12:19:17.957Z</time></trkpt><trkpt lat="45.3705435" lon="7.5737877"><ele>810.0</ele><time>2026-04-18T12:19:19.965Z</time></trkpt><trkpt lat="45.3704896" lon="7.5737186"><ele>810.0</ele><time>2026-04-18T12:19:21.97Z</time></trkpt><trkpt lat="45.3704406" lon="7.5736175"><ele>810.0</ele><time>2026-04-18T12:19:23.963Z</time></trkpt><trkpt lat="45.3703949" lon="7.5735214"><ele>810.0</ele><time>2026-04-18T12:19:25.961Z</time></trkpt><trkpt lat="45.3703481" lon="7.5734017"><ele>810.0</ele><time>2026-04-18T12:19:27.97Z</time></trkpt><trkpt lat="45.3703028" lon="7.573267"><ele>810.0</ele><time>2026-04-18T12:19:30.032Z</time></trkpt><trkpt lat="45.3702943" lon="7.5731276"><ele>811.0</ele><time>2026-04-18T12:19:32.04Z</time></trkpt><trkpt lat="45.3702994" lon="7.572969"><ele>812.0</ele><time>2026-04-18T12:19:33.954Z</time></trkpt><trkpt lat="45.3703127" lon="7.5728287"><ele>813.0</ele><time>2026-04-18T12:19:35.95Z</time></trkpt><trkpt lat="45.3703358" lon="7.5727444"><ele>814.0</ele><time>2026-04-18T12:19:36.954Z</time></trkpt><trkpt lat="45.3703747" lon="7.57266"><ele>815.0</ele><time>2026-04-18T12:19:37.949Z</time></trkpt><trkpt lat="45.3704142" lon="7.5725616"><ele>816.0</ele><time>2026-04-18T12:19:38.942Z</time></trkpt><trkpt lat="45.3704598" lon="7.5724645"><ele>817.0</ele><time>2026-04-18T12:19:39.952Z</time></trkpt><trkpt lat="45.3704988" lon="7.5723843"><ele>818.0</ele><time>2026-04-18T12:19:40.948Z</time></trkpt><trkpt lat="45.3705401" lon="7.5723155"><ele>819.0</ele><time>2026-04-18T12:19:41.943Z</time></trkpt><trkpt lat="45.370605" lon="7.5722051"><ele>820.0</ele><time>2026-04-18T12:19:43.951Z</time></trkpt><trkpt lat="45.3706476" lon="7.5720996"><ele>821.0</ele><time>2026-04-18T12:19:46.948Z</time></trkpt><trkpt lat="45.3706912" lon="7.5720288"><ele>822.0</ele><time>2026-04-18T12:19:49.951Z</time></trkpt><trkpt lat="45.3707516" lon="7.5719829"><ele>826.0</ele><time>2026-04-18T12:19:54.957Z</time></trkpt><trkpt lat="45.370805" lon="7.5718987"><ele>830.0</ele><time>2026-04-18T12:21:22.95Z</time></trkpt><trkpt lat="45.370855" lon="7.5717797"><ele>834.0</ele><time>2026-04-18T12:22:06.947Z</time></trkpt><trkpt lat="45.3708326" lon="7.5718768"><ele>838.0</ele><time>2026-04-18T12:22:08.941Z</time></trkpt><trkpt lat="45.3708667" lon="7.5720206"><ele>842.0</ele><time>2026-04-18T12:22:10.945Z</time></trkpt><trkpt lat="45.3709283" lon="7.5721835"><ele>845.0</ele><time>2026-04-18T12:22:12.936Z</time></trkpt><trkpt lat="45.3709787" lon="7.5723335"><ele>848.0</ele><time>2026-04-18T12:22:14.95Z</time></trkpt><trkpt lat="45.3709896" lon="7.5724854"><ele>851.0</ele><time>2026-04-18T12:22:16.952Z</time></trkpt><trkpt lat="45.3709583" lon="7.5726175"><ele>854.0</ele><time>2026-04-18T12:22:18.954Z</time></trkpt><trkpt lat="45.3709324" lon="7.5727251"><ele>857.0</ele><time>2026-04-18T12:22:22.941Z</time></trkpt><trkpt lat="45.3708795" lon="7.5727873"><ele>857.0</ele><time>2026-04-18T12:22:43.948Z</time></trkpt><trkpt lat="45.3708717" lon="7.5726961"><ele>857.0</ele><time>2026-04-18T12:22:59.948Z</time></trkpt><trkpt lat="45.3708647" lon="7.5726046"><ele>857.0</ele><time>2026-04-18T12:23:31.946Z</time></trkpt><trkpt lat="45.3708585" lon="7.5726971"><ele>857.0</ele><time>2026-04-18T12:27:33.948Z</time></trkpt><trkpt lat="45.370897" lon="7.5727764"><ele>857.0</ele><time>2026-04-18T12:27:57.952Z</time></trkpt><trkpt lat="45.3709235" lon="7.572871"><ele>857.0</ele><time>2026-04-18T12:30:18.957Z</time></trkpt><trkpt lat="45.3709854" lon="7.5729224"><ele>857.0</ele><time>2026-04-18T12:30:46.461Z</time></trkpt><trkpt lat="45.3709317" lon="7.5728733"><ele>857.0000000000001</ele><time>2026-04-18T12:33:56.974Z</time></trkpt><trkpt lat="45.3709956" lon="7.5728639"><ele>857.0</ele><time>2026-04-18T12:36:08.962Z</time></trkpt><trkpt lat="45.3710824" lon="7.5728839"><ele>857.0</ele><time>2026-04-18T12:36:12.965Z</time></trkpt><trkpt lat="45.3711549" lon="7.5728577"><ele>857.0</ele><time>2026-04-18T12:36:14.971Z</time></trkpt><trkpt lat="45.3712484" lon="7.572822"><ele>857.0000000000001</ele><time>2026-04-18T12:36:15.961Z</time></trkpt><trkpt lat="45.3713188" lon="7.5728148"><ele>857.0</ele><time>2026-04-18T12:36:16.969Z</time></trkpt><trkpt lat="45.3713889" lon="7.5727953"><ele>861.5000000000001</ele><time>2026-04-18T12:36:17.953Z</time></trkpt><trkpt lat="45.3714523" lon="7.5727614"><ele>866.0</ele><time>2026-04-18T12:36:18.962Z</time></trkpt><trkpt lat="45.3715596" lon="7.5726793"><ele>870.5</ele><time>2026-04-18T12:36:20.967Z</time></trkpt><trkpt lat="45.3716289" lon="7.5725872"><ele>875.0</ele><time>2026-04-18T12:36:22.959Z</time></trkpt><trkpt lat="45.3716759" lon="7.5725272"><ele>879.5000000000001</ele><time>2026-04-18T12:36:24.958Z</time></trkpt><trkpt lat="45.3717497" lon="7.5724665"><ele>884.0</ele><time>2026-04-18T12:36:26.963Z</time></trkpt><trkpt lat="45.3718112" lon="7.5723925"><ele>884.0</ele><time>2026-04-18T12:36:28.963Z</time></trkpt><trkpt lat="45.3718781" lon="7.5723173"><ele>884.0000000000001</ele><time>2026-04-18T12:36:30.965Z</time></trkpt><trkpt lat="45.3719479" lon="7.5722599"><ele>884.0000000000001</ele><time>2026-04-18T12:36:31.961Z</time></trkpt><trkpt lat="45.3720506" lon="7.5721578"><ele>884.0</ele><time>2026-04-18T12:36:33.958Z</time></trkpt><trkpt lat="45.3721552" lon="7.5720639"><ele>884.0</ele><time>2026-04-18T12:36:35.966Z</time></trkpt><trkpt lat="45.3722473" lon="7.5719437"><ele>888.2</ele><time>2026-04-18T12:36:37.962Z</time></trkpt><trkpt lat="45.3723302" lon="7.5718211"><ele>892.4000000000001</ele><time>2026-04-18T12:36:39.963Z</time></trkpt><trkpt lat="45.3724224" lon="7.5716872"><ele>896.6</ele><time>2026-04-18T12:36:41.963Z</time></trkpt><trkpt lat="45.3724707" lon="7.5716092"><ele>900.8</ele><time>2026-04-18T12:36:42.962Z</time></trkpt><trkpt lat="45.3725121" lon="7.571539"><ele>905.0</ele><time>2026-04-18T12:36:43.964Z</time></trkpt><trkpt lat="45.3725521" lon="7.5714643"><ele>905.0000000000001</ele><time>2026-04-18T12:36:44.961Z</time></trkpt><trkpt lat="45.3726109" lon="7.5713565"><ele>905.0</ele><time>2026-04-18T12:36:46.959Z</time></trkpt><trkpt lat="45.3726593" lon="7.5712746"><ele>905.0</ele><time>2026-04-18T12:36:48.959Z</time></trkpt><trkpt lat="45.3727157" lon="7.5712312"><ele>905.0</ele><time>2026-04-18T12:36:50.96Z</time></trkpt><trkpt lat="45.3727919" lon="7.5711694"><ele>905.0000000000001</ele><time>2026-04-18T12:36:52.967Z</time></trkpt><trkpt lat="45.3728581" lon="7.5711285"><ele>905.0</ele><time>2026-04-18T12:36:54.959Z</time></trkpt><trkpt lat="45.3729253" lon="7.5710742"><ele>904.5714285714286</ele><time>2026-04-18T12:36:56.96Z</time></trkpt><trkpt lat="45.3729884" lon="7.5710156"><ele>904.1428571428571</ele><time>2026-04-18T12:36:58.955Z</time></trkpt><trkpt lat="45.373046" lon="7.570954"><ele>903.7142857142857</ele><time>2026-04-18T12:37:00.961Z</time></trkpt><trkpt lat="45.3731115" lon="7.5709219"><ele>903.2857142857142</ele><time>2026-04-18T12:37:02.959Z</time></trkpt><trkpt lat="45.3731871" lon="7.5708923"><ele>902.8571428571429</ele><time>2026-04-18T12:37:05.967Z</time></trkpt><trkpt lat="45.3732236" lon="7.5707886"><ele>902.4285714285713</ele><time>2026-04-18T12:37:08.965Z</time></trkpt><trkpt lat="45.373242" lon="7.570692"><ele>902.0</ele><time>2026-04-18T12:37:10.963Z</time></trkpt><trkpt lat="45.3732519" lon="7.5705863"><ele>905.0000000000001</ele><time>2026-04-18T12:37:13.965Z</time></trkpt><trkpt lat="45.3732371" lon="7.5704948"><ele>908.0</ele><time>2026-04-18T12:37:16.966Z</time></trkpt><trkpt lat="45.3732085" lon="7.5703873"><ele>911.0</ele><time>2026-04-18T12:38:50.959Z</time></trkpt><trkpt lat="45.3732272" lon="7.5701855"><ele>914.0</ele><time>2026-04-18T12:38:52.961Z</time></trkpt><trkpt lat="45.373257" lon="7.5700839"><ele>917.0000000000001</ele><time>2026-04-18T12:38:53.955Z</time></trkpt><trkpt lat="45.3732838" lon="7.569994"><ele>920.0</ele><time>2026-04-18T12:38:54.962Z</time></trkpt><trkpt lat="45.3733129" lon="7.5698956"><ele>920.8333333333334</ele><time>2026-04-18T12:38:55.95Z</time></trkpt><trkpt lat="45.3733366" lon="7.5698022"><ele>921.6666666666667</ele><time>2026-04-18T12:38:56.96Z</time></trkpt><trkpt lat="45.3733628" lon="7.569646"><ele>922.5</ele><time>2026-04-18T12:38:58.966Z</time></trkpt><trkpt lat="45.3733998" lon="7.5695447"><ele>923.3333333333333</ele><time>2026-04-18T12:39:00.962Z</time></trkpt><trkpt lat="45.3734266" lon="7.5694578"><ele>924.1666666666666</ele><time>2026-04-18T12:39:02.964Z</time></trkpt><trkpt lat="45.3734526" lon="7.5693544"><ele>925.0</ele><time>2026-04-18T12:39:04.968Z</time></trkpt><trkpt lat="45.3735017" lon="7.5692062"><ele>925.0</ele><time>2026-04-18T12:39:06.958Z</time></trkpt><trkpt lat="45.3735135" lon="7.5690982"><ele>925.0</ele><time>2026-04-18T12:39:08.966Z</time></trkpt><trkpt lat="45.3735187" lon="7.5689911"><ele>925.0</ele><time>2026-04-18T12:39:10.959Z</time></trkpt><trkpt lat="45.3735507" lon="7.5688812"><ele>925.0</ele><time>2026-04-18T12:39:12.958Z</time></trkpt><trkpt lat="45.3705906" lon="7.5738472"><ele>911.8333333333333</ele><time>2026-04-18T12:19:17.957Z</time></trkpt><trkpt lat="45.3705435" lon="7.5737877"><ele>898.6666666666666</ele><time>2026-04-18T12:19:19.965Z</time></trkpt><trkpt lat="45.3704896" lon="7.5737186"><ele>885.5</ele><time>2026-04-18T12:19:21.97Z</time></trkpt><trkpt lat="45.3704406" lon="7.5736175"><ele>872.3333333333333</ele><time>2026-04-18T12:19:23.963Z</time></trkpt><trkpt lat="45.3703949" lon="7.5735214"><ele>859.1666666666666</ele><time>2026-04-18T12:19:25.961Z</time></trkpt><trkpt lat="45.3703481" lon="7.5734017"><ele>846.0</ele><time>2026-04-18T12:19:27.97Z</time></trkpt><trkpt lat="45.3703028" lon="7.573267"><ele>842.0</ele><time>2026-04-18T12:19:30.032Z</time></trkpt><trkpt lat="45.3702943" lon="7.5731276"><ele>838.0</ele><time>2026-04-18T12:19:32.04Z</time></trkpt><trkpt lat="45.3702994" lon="7.572969"><ele>834.0</ele><time>2026-04-18T12:19:33.954Z</time></trkpt><trkpt lat="45.3703127" lon="7.5728287"><ele>830.0</ele><time>2026-04-18T12:19:35.95Z</time></trkpt><trkpt lat="45.3703358" lon="7.5727444"><ele>826.0</ele><time>2026-04-18T12:19:36.954Z</time></trkpt><trkpt lat="45.3703747" lon="7.57266"><ele>822.0</ele><time>2026-04-18T12:19:37.949Z</time></trkpt><trkpt lat="45.3704142" lon="7.5725616"><ele>822.0</ele><time>2026-04-18T12:19:38.942Z</time></trkpt><trkpt lat="45.3704598" lon="7.5724645"><ele>822.0</ele><time>2026-04-18T12:19:39.952Z</time></trkpt><trkpt lat="45.3704988" lon="7.5723843"><ele>822.0</ele><time>2026-04-18T12:19:40.948Z</time></trkpt><trkpt lat="45.3705401" lon="7.5723155"><ele>822.0</ele><time>2026-04-18T12:19:41.943Z</time></trkpt><trkpt lat="45.370605" lon="7.5722051"><ele>822.0</ele><time>2026-04-18T12:19:43.951Z</time></trkpt><trkpt lat="45.3706476" lon="7.5720996"><ele>822.0</ele><time>2026-04-18T12:19:46.948Z</time></trkpt><trkpt lat="45.3706912" lon="7.5720288"><ele>825.3333333333334</ele><time>2026-04-18T12:19:49.951Z</time></trkpt><trkpt lat="45.3707516" lon="7.5719829"><ele>828.6666666666667</ele><time>2026-04-18T12:19:54.957Z</time></trkpt><trkpt lat="45.370805" lon="7.5718987"><ele>832.0</ele><time>2026-04-18T12:21:22.95Z</time></trkpt><trkpt lat="45.370855" lon="7.5717797"><ele>835.3333333333334</ele><time>2026-04-18T12:22:06.947Z</time></trkpt><trkpt lat="45.3708326" lon="7.5718768"><ele>838.6666666666667</ele><time>2026-04-18T12:22:08.941Z</time></trkpt><trkpt lat="45.3708667" lon="7.5720206"><ele>842.0</ele><time>2026-04-18T12:22:10.945Z</time></trkpt><trkpt lat="45.3709283" lon="7.5721835"><ele>845.0</ele><time>2026-04-18T12:22:12.936Z</time></trkpt><trkpt lat="45.3709787" lon="7.5723335"><ele>848.0</ele><time>2026-04-18T12:22:14.95Z</time></trkpt><trkpt lat="45.3709896" lon="7.5724854"><ele>851.0</ele><time>2026-04-18T12:22:16.952Z</time></trkpt><trkpt lat="45.3709583" lon="7.5726175"><ele>854.0</ele><time>2026-04-18T12:22:18.954Z</time></trkpt><trkpt lat="45.3709324" lon="7.5727251"><ele>857.0</ele><time>2026-04-18T12:22:22.941Z</time></trkpt><trkpt lat="45.3708795" lon="7.5727873"><ele>857.0</ele><time>2026-04-18T12:22:43.948Z</time></trkpt><trkpt lat="45.3708717" lon="7.5726961"><ele>857.0</ele><time>2026-04-18T12:22:59.948Z</time></trkpt><trkpt lat="45.3708647" lon="7.5726046"><ele>857.0</ele><time>2026-04-18T12:23:31.946Z</time></trkpt><trkpt lat="45.3708585" lon="7.5726971"><ele>857.0</ele><time>2026-04-18T12:27:33.948Z</time></trkpt><trkpt lat="45.370897" lon="7.5727764"><ele>857.0</ele><time>2026-04-18T12:27:57.952Z</time></trkpt><trkpt lat="45.3709235" lon="7.572871"><ele>857.0</ele><time>2026-04-18T12:30:18.957Z</time></trkpt><trkpt lat="45.3709854" lon="7.5729224"><ele>857.0</ele><time>2026-04-18T12:30:46.461Z</time></trkpt><trkpt lat="45.3709317" lon="7.5728733"><ele>857.0000000000001</ele><time>2026-04-18T12:33:56.974Z</time></trkpt><trkpt lat="45.3709956" lon="7.5728639"><ele>857.0</ele><time>2026-04-18T12:36:08.962Z</time></trkpt><trkpt lat="45.3710824" lon="7.5728839"><ele>857.0</ele><time>2026-04-18T12:36:12.965Z</time></trkpt><trkpt lat="45.3711549" lon="7.5728577"><ele>857.0</ele><time>2026-04-18T12:36:14.971Z</time></trkpt><trkpt lat="45.3712484" lon="7.572822"><ele>857.0000000000001</ele><time>2026-04-18T12:36:15.961Z</time></trkpt><trkpt lat="45.3713188" lon="7.5728148"><ele>857.0</ele><time>2026-04-18T12:36:16.969Z</time></trkpt><trkpt lat="45.3713889" lon="7.5727953"><ele>861.5000000000001</ele><time>2026-04-18T12:36:17.953Z</time></trkpt><trkpt lat="45.3714523" lon="7.5727614"><ele>866.0</ele><time>2026-04-18T12:36:18.962Z</time></trkpt><trkpt lat="45.3715596" lon="7.5726793"><ele>870.5</ele><time>2026-04-18T12:36:20.967Z</time></trkpt><trkpt lat="45.3716289" lon="7.5725872"><ele>875.0</ele><time>2026-04-18T12:36:22.959Z</time></trkpt><trkpt lat="45.3716759" lon="7.5725272"><ele>879.5000000000001</ele><time>2026-04-18T12:36:24.958Z</time></trkpt><trkpt lat="45.3717497" lon="7.5724665"><ele>884.0</ele><time>2026-04-18T12:36:26.963Z</time></trkpt><trkpt lat="45.3718112" lon="7.5723925"><ele>884.0</ele><time>2026-04-18T12:36:28.963Z</time></trkpt><trkpt lat="45.3718781" lon="7.5723173"><ele>884.0000000000001</ele><time>2026-04-18T12:36:30.965Z</time></trkpt><trkpt lat="45.3719479" lon="7.5722599"><ele>884.0000000000001</ele><time>2026-04-18T12:36:31.961Z</time></trkpt><trkpt lat="45.3720506" lon="7.5721578"><ele>884.0</ele><time>2026-04-18T12:36:33.958Z</time></trkpt><trkpt lat="45.3721552" lon="7.5720639"><ele>884.0</ele><time>2026-04-18T12:36:35.966Z</time></trkpt><trkpt lat="45.3722473" lon="7.5719437"><ele>888.2</ele><time>2026-04-18T12:36:37.962Z</time></trkpt><trkpt lat="45.3723302" lon="7.5718211"><ele>892.4000000000001</ele><time>2026-04-18T12:36:39.963Z</time></trkpt><trkpt lat="45.3724224" lon="7.5716872"><ele>896.6</ele><time>2026-04-18T12:36:41.963Z</time></trkpt><trkpt lat="45.3724707" lon="7.5716092"><ele>900.8</ele><time>2026-04-18T12:36:42.962Z</time></trkpt><trkpt lat="45.3725121" lon="7.571539"><ele>905.0</ele><time>2026-04-18T12:36:43.964Z</time></trkpt><trkpt lat="45.3725521" lon="7.5714643"><ele>905.0000000000001</ele><time>2026-04-18T12:36:44.961Z</time></trkpt><trkpt lat="45.3726109" lon="7.5713565"><ele>905.0</ele><time>2026-04-18T12:36:46.959Z</time></trkpt><trkpt lat="45.3726593" lon="7.5712746"><ele>905.0</ele><time>2026-04-18T12:36:48.959Z</time></trkpt><trkpt lat="45.3727157" lon="7.5712312"><ele>905.0</ele><time>2026-04-18T12:36:50.96Z</time></trkpt><trkpt lat="45.3727919" lon="7.5711694"><ele>905.0000000000001</ele><time>2026-04-18T12:36:52.967Z</time></trkpt><trkpt lat="45.3728581" lon="7.5711285"><ele>905.0</ele><time>2026-04-18T12:36:54.959Z</time></trkpt><trkpt lat="45.3729253" lon="7.5710742"><ele>904.5714285714286</ele><time>2026-04-18T12:36:56.96Z</time></trkpt><trkpt lat="45.3729884" lon="7.5710156"><ele>904.1428571428571</ele><time>2026-04-18T12:36:58.955Z</time></trkpt><trkpt lat="45.373046" lon="7.570954"><ele>903.7142857142857</ele><time>2026-04-18T12:37:00.961Z</time></trkpt><trkpt lat="45.3731115" lon="7.5709219"><ele>903.2857142857142</ele><time>2026-04-18T12:37:02.959Z</time></trkpt><trkpt lat="45.3731871" lon="7.5708923"><ele>902.8571428571429</ele><time>2026-04-18T12:37:05.967Z</time></trkpt><trkpt lat="45.3732236" lon="7.5707886"><ele>902.4285714285713</ele><time>2026-04-18T12:37:08.965Z</time></trkpt><trkpt lat="45.373242" lon="7.570692"><ele>902.0</ele><time>2026-04-18T12:37:10.963Z</time></trkpt><trkpt lat="45.3732519" lon="7.5705863"><ele>905.0000000000001</ele><time>2026-04-18T12:37:13.965Z</time></trkpt><trkpt lat="45.3732371" lon="7.5704948"><ele>908.0</ele><time>2026-04-18T12:37:16.966Z</time></trkpt><trkpt lat="45.3732085" lon="7.5703873"><ele>911.0</ele><time>2026-04-18T12:38:50.959Z</time></trkpt><trkpt lat="45.3732272" lon="7.5701855"><ele>914.0</ele><time>2026-04-18T12:38:52.961Z</time></trkpt><trkpt lat="45.373257" lon="7.5700839"><ele>917.0000000000001</ele><time>2026-04-18T12:38:53.955Z</time></trkpt><trkpt lat="45.3732838" lon="7.569994"><ele>920.0</ele><time>2026-04-18T12:38:54.962Z</time></trkpt><trkpt lat="45.3733129" lon="7.5698956"><ele>920.8333333333334</ele><time>2026-04-18T12:38:55.95Z</time></trkpt><trkpt lat="45.3733366" lon="7.5698022"><ele>921.6666666666667</ele><time>2026-04-18T12:38:56.96Z</time></trkpt><trkpt lat="45.3733628" lon="7.569646"><ele>922.5</ele><time>2026-04-18T12:38:58.966Z</time></trkpt><trkpt lat="45.3733998" lon="7.5695447"><ele>923.3333333333333</ele><time>2026-04-18T12:39:00.962Z</time></trkpt><trkpt lat="45.3734266" lon="7.5694578"><ele>924.1666666666666</ele><time>2026-04-18T12:39:02.964Z</time></trkpt><trkpt lat="45.3734526" lon="7.5693544"><ele>925.0</ele><time>2026-04-18T12:39:04.968Z</time></trkpt><trkpt lat="45.3735017" lon="7.5692062"><ele>924.9999999999999</ele><time>2026-04-18T12:39:06.958Z</time></trkpt><trkpt lat="45.3735135" lon="7.5690982"><ele>925.0</ele><time>2026-04-18T12:39:08.966Z</time></trkpt><trkpt lat="45.3735187" lon="7.5689911"><ele>925.0</ele><time>2026-04-18T12:39:10.959Z</time></trkpt><trkpt lat="45.3735507" lon="7.5688812"><ele>925.0</ele><time>2026-04-18T12:39:12.958Z</time></trkpt><trkpt lat="45.3735953" lon="7.5687745"><ele>924.9999999999999</ele><time>2026-04-18T12:39:14.957Z</time></trkpt><trkpt lat="45.3736159" lon="7.5686728"><ele>925.0</ele><time>2026-04-18T12:39:16.956Z</time></trkpt><trkpt lat="45.3736595" lon="7.5685447"><ele>925.1666666666666</ele><time>2026-04-18T12:39:18.973Z</time></trkpt><trkpt lat="45.3736747" lon="7.5684339"><ele>925.3333333333333</ele><time>2026-04-18T12:39:21.967Z</time></trkpt><trkpt lat="45.3736762" lon="7.5683442"><ele>925.5</ele><time>2026-04-18T12:39:23.957Z</time></trkpt><trkpt lat="45.3736574" lon="7.5682532"><ele>925.6666666666667</ele><time>2026-04-18T12:39:25.954Z</time></trkpt><trkpt lat="45.3736343" lon="7.5681479"><ele>925.8333333333334</ele><time>2026-04-18T12:39:27.965Z</time></trkpt><trkpt lat="45.3736172" lon="7.5680302"><ele>926.0</ele><time>2026-04-18T12:39:29.962Z</time></trkpt><trkpt lat="45.373622" lon="7.5679035"><ele>925.6666666666667</ele><time>2026-04-18T12:39:31.956Z</time></trkpt><trkpt lat="45.3736137" lon="7.567782"><ele>925.3333333333334</ele><time>2026-04-18T12:39:33.965Z</time></trkpt><trkpt lat="45.3736263" lon="7.5676395"><ele>925.0</ele><time>2026-04-18T12:39:35.961Z</time></trkpt><trkpt lat="45.3736481" lon="7.5675482"><ele>924.6666666666667</ele><time>2026-04-18T12:39:37.958Z</time></trkpt><trkpt lat="45.3736957" lon="7.5674703"><ele>924.3333333333334</ele><time>2026-04-18T12:39:39.963Z</time></trkpt><trkpt lat="45.3737358" lon="7.5673557"><ele>924.0</ele><time>2026-04-18T12:39:41.963Z</time></trkpt><trkpt lat="45.3737644" lon="7.5672551"><ele>924.0</ele><time>2026-04-18T12:39:43.966Z</time></trkpt><trkpt lat="45.3737878" lon="7.5671353"><ele>924.0</ele><time>2026-04-18T12:39:46.958Z</time></trkpt><trkpt lat="45.3738012" lon="7.5670425"><ele>924.0</ele><time>2026-04-18T12:39:48.961Z</time></trkpt><trkpt lat="45.373838" lon="7.5669527"><ele>924.0</ele><time>2026-04-18T12:39:51.964Z</time></trkpt><trkpt lat="45.3739006" lon="7.5668605"><ele>924.0</ele><time>2026-04-18T12:39:54.957Z</time></trkpt><trkpt lat="45.3739628" lon="7.5668042"><ele>924.0</ele><time>2026-04-18T12:39:56.958Z</time></trkpt><trkpt lat="45.3740243" lon="7.5667483"><ele>929.5</ele><time>2026-04-18T12:39:58.963Z</time></trkpt><trkpt lat="45.3740736" lon="7.5666673"><ele>935.0</ele><time>2026-04-18T12:40:00.96Z</time></trkpt><trkpt lat="45.3741166" lon="7.5665972"><ele>940.5</ele><time>2026-04-18T12:40:02.962Z</time></trkpt><trkpt lat="45.3741704" lon="7.5665217"><ele>946.0</ele><time>2026-04-18T12:40:04.968Z</time></trkpt><trkpt lat="45.3742487" lon="7.5664015"><ele>951.5</ele><time>2026-04-18T12:40:06.962Z</time></trkpt><trkpt lat="45.3743101" lon="7.5663411"><ele>957.0</ele><time>2026-04-18T12:40:08.964Z</time></trkpt><trkpt lat="45.374376" lon="7.5662882"><ele>957.0</ele><time>2026-04-18T12:40:10.955Z</time></trkpt><trkpt lat="45.3744711" lon="7.5662494"><ele>957.0</ele><time>2026-04-18T12:40:12.959Z</time></trkpt><trkpt lat="45.3745491" lon="7.5662587"><ele>957.0</ele><time>2026-04-18T12:40:14.961Z</time></trkpt><trkpt lat="45.3746067" lon="7.5662949"><ele>957.0</ele><time>2026-04-18T12:40:16.955Z</time></trkpt><trkpt lat="45.374678" lon="7.5663659"><ele>957.0</ele><time>2026-04-18T12:40:18.961Z</time></trkpt><trkpt lat="45.3747604" lon="7.5664764"><ele>957.0</ele><time>2026-04-18T12:40:20.962Z</time></trkpt><trkpt lat="45.3748005" lon="7.5665473"><ele>962.1666666666666</ele><time>2026-04-18T12:40:21.966Z</time></trkpt><trkpt lat="45.3748709" lon="7.5666809"><ele>967.3333333333333</ele><time>2026-04-18T12:40:23.959Z</time></trkpt><trkpt lat="45.3749049" lon="7.5667646"><ele>972.5</ele><time>2026-04-18T12:40:25.96Z</time></trkpt><trkpt lat="45.3749248" lon="7.5668875"><ele>977.6666666666666</ele><time>2026-04-18T12:40:28.96Z</time></trkpt><trkpt lat="45.3749428" lon="7.5670054"><ele>982.8333333333333</ele><time>2026-04-18T12:40:30.956Z</time></trkpt><trkpt lat="45.3749929" lon="7.5670648"><ele>988.0</ele><time>2026-04-18T12:40:32.958Z</time></trkpt><trkpt lat="45.3750352" lon="7.5671438"><ele>989.6666666666666</ele><time>2026-04-18T12:40:49.964Z</time></trkpt><trkpt lat="45.3750312" lon="7.5672343"><ele>991.3333333333333</ele><time>2026-04-18T12:40:53.967Z</time></trkpt><trkpt lat="45.375064" lon="7.5673213"><ele>993.0</ele><time>2026-04-18T12:40:55.962Z</time></trkpt><trkpt lat="45.3751101" lon="7.5674173"><ele>994.6666666666667</ele><time>2026-04-18T12:40:57.963Z</time></trkpt><trkpt lat="45.3751602" lon="7.5675282"><ele>996.3333333333334</ele><time>2026-04-18T12:40:59.961Z</time></trkpt><trkpt lat="45.3752164" lon="7.5675926"><ele>998.0</ele><time>2026-04-18T12:41:01.962Z</time></trkpt><trkpt lat="45.3752907" lon="7.5676551"><ele>998.0</ele><time>2026-04-18T12:41:04.023Z</time></trkpt><trkpt lat="45.375369" lon="7.5677454"><ele>998.0</ele><time>2026-04-18T12:41:05.961Z</time></trkpt><trkpt lat="45.3754209" lon="7.5678392"><ele>998.0</ele><time>2026-04-18T12:41:07.957Z</time></trkpt><trkpt lat="45.3754416" lon="7.5679766"><ele>998.0</ele><time>2026-04-18T12:41:09.967Z</time></trkpt><trkpt lat="45.3754476" lon="7.5681054"><ele>998.0</ele><time>2026-04-18T12:41:11.952Z</time></trkpt><trkpt lat="45.375478" lon="7.5682079"><ele>1001.3333333333334</ele><time>2026-04-18T12:41:13.989Z</time></trkpt><trkpt lat="45.3755334" lon="7.5682798"><ele>1004.6666666666667</ele><time>2026-04-18T12:41:16.964Z</time></trkpt><trkpt lat="45.3755951" lon="7.5683192"><ele>1008.0</ele><time>2026-04-18T12:41:18.96Z</time></trkpt><trkpt lat="45.3756676" lon="7.568365"><ele>1011.3333333333333</ele><time>2026-04-18T12:41:20.97Z</time></trkpt><trkpt lat="45.3757587" lon="7.5683762"><ele>1014.6666666666666</ele><time>2026-04-18T12:41:23.964Z</time></trkpt><trkpt lat="45.3758487" lon="7.5683826"><ele>1018.0</ele><time>2026-04-18T12:41:26.96Z</time></trkpt><trkpt lat="45.3759299" lon="7.5683916"><ele>1017.9999999999999</ele><time>2026-04-18T12:41:30.97Z</time></trkpt><trkpt lat="45.3760047" lon="7.5684136"><ele>1018.0</ele><time>2026-04-18T12:41:34.96Z</time></trkpt><trkpt lat="45.3760886" lon="7.5683782"><ele>1018.0</ele><time>2026-04-18T12:41:37.966Z</time></trkpt><trkpt lat="45.3761566" lon="7.5683375"><ele>1018.0</ele><time>2026-04-18T12:41:39.967Z</time></trkpt><trkpt lat="45.3762345" lon="7.568294"><ele>1017.9999999999999</ele><time>2026-04-18T12:41:41.963Z</time></trkpt><trkpt lat="45.3763173" lon="7.5682319"><ele>1018.0</ele><time>2026-04-18T12:41:43.961Z</time></trkpt><trkpt lat="45.3763903" lon="7.5681651"><ele>1022.1666666666666</ele><time>2026-04-18T12:41:45.973Z</time></trkpt><trkpt lat="45.3764981" lon="7.5681081"><ele>1026.3333333333333</ele><time>2026-04-18T12:41:47.971Z</time></trkpt><trkpt lat="45.37656" lon="7.5680873"><ele>1030.5</ele><time>2026-04-18T12:41:48.956Z</time></trkpt><trkpt lat="45.3766301" lon="7.5680909"><ele>1034.6666666666667</ele><time>2026-04-18T12:41:49.965Z</time></trkpt><trkpt lat="45.3767069" lon="7.5680847"><ele>1038.8333333333335</ele><time>2026-04-18T12:41:50.96Z</time></trkpt><trkpt lat="45.3768284" lon="7.5680753"><ele>1043.0</ele><time>2026-04-18T12:41:52.964Z</time></trkpt><trkpt lat="45.3769064" lon="7.5680766"><ele>1043.0</ele><time>2026-04-18T12:41:54.965Z</time></trkpt><trkpt lat="45.3769784" lon="7.5680366"><ele>1043.0</ele><time>2026-04-18T12:41:56.952Z</time></trkpt><trkpt lat="45.3770551" lon="7.5679449"><ele>1043.0</ele><time>2026-04-18T12:41:58.961Z</time></trkpt><trkpt lat="45.3771064" lon="7.5678584"><ele>1043.0</ele><time>2026-04-18T12:42:00.963Z</time></trkpt><trkpt lat="45.3771695" lon="7.5677887"><ele>1043.0</ele><time>2026-04-18T12:42:02.964Z</time></trkpt><trkpt lat="45.377238" lon="7.56773"><ele>1043.0</ele><time>2026-04-18T12:42:04.961Z</time></trkpt><trkpt lat="45.377304" lon="7.5677061"><ele>1048.0</ele><time>2026-04-18T12:42:07.96Z</time></trkpt><trkpt lat="45.3773205" lon="7.5677936"><ele>1053.0</ele><time>2026-04-18T12:42:10.951Z</time></trkpt><trkpt lat="45.3772889" lon="7.5678751"><ele>1058.0</ele><time>2026-04-18T12:42:43.953Z</time></trkpt><trkpt lat="45.3774907" lon="7.5678077"><ele>1063.0</ele><time>2026-04-18T12:56:22.61Z</time></trkpt><trkpt lat="45.3773812" lon="7.5677874"><ele>1068.0</ele><time>2026-04-18T12:56:25.957Z</time></trkpt><trkpt lat="45.3773421" lon="7.567871"><ele>1068.0</ele><time>2026-04-18T13:04:42.945Z</time></trkpt><trkpt lat="45.3774085" lon="7.5679449"><ele>1068.0</ele><time>2026-04-18T13:04:46.937Z</time></trkpt><trkpt lat="45.3774478" lon="7.5678586"><ele>1068.0</ele><time>2026-04-18T13:05:33.956Z</time></trkpt><trkpt lat="45.3774958" lon="7.5677466"><ele>1068.0</ele><time>2026-04-18T13:05:36.951Z</time></trkpt><trkpt lat="45.377534" lon="7.567664"><ele>1068.0</ele><time>2026-04-18T13:05:38.962Z</time></trkpt><trkpt lat="45.3775618" lon="7.5675698"><ele>1068.0</ele><time>2026-04-18T13:05:40.949Z</time></trkpt><trkpt lat="45.3775862" lon="7.5674838"><ele>1068.0</ele><time>2026-04-18T13:05:42.957Z</time></trkpt><trkpt lat="45.3776269" lon="7.567405"><ele>1068.0</ele><time>2026-04-18T13:05:44.958Z</time></trkpt><trkpt lat="45.3776723" lon="7.5673191"><ele>1068.0</ele><time>2026-04-18T13:05:46.956Z</time></trkpt><trkpt lat="45.3777316" lon="7.5672324"><ele>1068.0</ele><time>2026-04-18T13:05:49.952Z</time></trkpt><trkpt lat="45.3777781" lon="7.5671429"><ele>1068.0</ele><time>2026-04-18T13:05:52.949Z</time></trkpt><trkpt lat="45.3778355" lon="7.5670802"><ele>1068.0</ele><time>2026-04-18T13:05:54.961Z</time></trkpt><trkpt lat="45.3779042" lon="7.5670306"><ele>1066.8333333333333</ele><time>2026-04-18T13:05:56.94Z</time></trkpt><trkpt lat="45.3779671" lon="7.5669708"><ele>1065.6666666666667</ele><time>2026-04-18T13:05:58.938Z</time></trkpt><trkpt lat="45.3780265" lon="7.5669358"><ele>1064.5</ele><time>2026-04-18T13:06:01.957Z</time></trkpt><trkpt lat="45.3780872" lon="7.5668388"><ele>1063.3333333333335</ele><time>2026-04-18T13:06:04.955Z</time></trkpt><trkpt lat="45.3781264" lon="7.5667591"><ele>1062.1666666666667</ele><time>2026-04-18T13:06:07.949Z</time></trkpt><trkpt lat="45.3781584" lon="7.5666517"><ele>1061.0</ele><time>2026-04-18T13:06:11.95Z</time></trkpt><trkpt lat="45.3781897" lon="7.5665347"><ele>1066.6666666666667</ele><time>2026-04-18T13:06:14.969Z</time></trkpt><trkpt lat="45.3782255" lon="7.5664223"><ele>1072.3333333333335</ele><time>2026-04-18T13:06:17.955Z</time></trkpt><trkpt lat="45.3782232" lon="7.5663053"><ele>1078.0</ele><time>2026-04-18T13:06:20.943Z</time></trkpt><trkpt lat="45.3782138" lon="7.5662123"><ele>1083.6666666666667</ele><time>2026-04-18T13:06:22.948Z</time></trkpt><trkpt lat="45.378221" lon="7.566086"><ele>1089.3333333333333</ele><time>2026-04-18T13:06:25.958Z</time></trkpt><trkpt lat="45.378226" lon="7.5659834"><ele>1095.0</ele><time>2026-04-18T13:06:28.955Z</time></trkpt><trkpt lat="45.3782351" lon="7.5658447"><ele>1094.9999999999998</ele><time>2026-04-18T13:06:56.948Z</time></trkpt><trkpt lat="45.378237" lon="7.5657528"><ele>1095.0</ele><time>2026-04-18T13:06:58.954Z</time></trkpt><trkpt lat="45.3782336" lon="7.5656562"><ele>1095.0</ele><time>2026-04-18T13:07:00.946Z</time></trkpt><trkpt lat="45.3782171" lon="7.5655692"><ele>1095.0</ele><time>2026-04-18T13:07:02.961Z</time></trkpt><trkpt lat="45.3781798" lon="7.5654653"><ele>1095.0</ele><time>2026-04-18T13:07:05.958Z</time></trkpt><trkpt lat="45.3781589" lon="7.5653603"><ele>1094.9999999999998</ele><time>2026-04-18T13:07:07.955Z</time></trkpt><trkpt lat="45.3781316" lon="7.5652403"><ele>1095.0</ele><time>2026-04-18T13:07:09.957Z</time></trkpt><trkpt lat="45.3781041" lon="7.5651328"><ele>1096.5</ele><time>2026-04-18T13:07:11.941Z</time></trkpt><trkpt lat="45.3780683" lon="7.5650145"><ele>1098.0</ele><time>2026-04-18T13:07:14.951Z</time></trkpt><trkpt lat="45.3780104" lon="7.5649543"><ele>1099.5</ele><time>2026-04-18T13:07:18.95Z</time></trkpt><trkpt lat="45.3780649" lon="7.5649065"><ele>1101.0</ele><time>2026-04-18T13:07:33.959Z</time></trkpt><trkpt lat="45.3781217" lon="7.5648272"><ele>1102.5</ele><time>2026-04-18T13:07:41.951Z</time></trkpt><trkpt lat="45.3781669" lon="7.5647523"><ele>1104.0</ele><time>2026-04-18T13:07:43.942Z</time></trkpt><trkpt lat="45.3782664" lon="7.5646729"><ele>1104.0</ele><time>2026-04-18T13:07:45.949Z</time></trkpt><trkpt lat="45.3783271" lon="7.5646397"><ele>1104.0</ele><time>2026-04-18T13:07:46.96Z</time></trkpt><trkpt lat="45.3784428" lon="7.5645991"><ele>1104.0</ele><time>2026-04-18T13:07:48.951Z</time></trkpt><trkpt lat="45.3785234" lon="7.5645856"><ele>1104.0</ele><time>2026-04-18T13:07:50.95Z</time></trkpt><trkpt lat="45.3786043" lon="7.5645544"><ele>1104.0</ele><time>2026-04-18T13:07:53.959Z</time></trkpt><trkpt lat="45.3786673" lon="7.5645143"><ele>1104.0</ele><time>2026-04-18T13:07:55.952Z</time></trkpt><trkpt lat="45.3787452" lon="7.5644592"><ele>1104.8333333333333</ele><time>2026-04-18T13:07:57.957Z</time></trkpt><trkpt lat="45.3788285" lon="7.5644225"><ele>1105.6666666666667</ele><time>2026-04-18T13:07:59.952Z</time></trkpt><trkpt lat="45.3789201" lon="7.5643877"><ele>1106.5</ele><time>2026-04-18T13:08:01.948Z</time></trkpt><trkpt lat="45.3790094" lon="7.5643961"><ele>1107.3333333333335</ele><time>2026-04-18T13:08:03.944Z</time></trkpt><trkpt lat="45.3790682" lon="7.5644579"><ele>1108.1666666666667</ele><time>2026-04-18T13:08:05.953Z</time></trkpt><trkpt lat="45.379123" lon="7.5645092"><ele>1109.0</ele><time>2026-04-18T13:08:07.969Z</time></trkpt><trkpt lat="45.3791734" lon="7.5645811"><ele>1113.5</ele><time>2026-04-18T13:08:12.953Z</time></trkpt><trkpt lat="45.379251" lon="7.564598"><ele>1118.0</ele><time>2026-04-18T13:12:29.954Z</time></trkpt><trkpt lat="45.3793522" lon="7.5646275"><ele>1122.5</ele><time>2026-04-18T13:12:31.942Z</time></trkpt><trkpt lat="45.3794473" lon="7.5646508"><ele>1127.0</ele><time>2026-04-18T13:12:33.943Z</time></trkpt><trkpt lat="45.3795281" lon="7.5646893"><ele>1131.5</ele><time>2026-04-18T13:12:35.953Z</time></trkpt><trkpt lat="45.3795894" lon="7.5647207"><ele>1136.0</ele><time>2026-04-18T13:12:37.956Z</time></trkpt><trkpt lat="45.3796659" lon="7.5647707"><ele>1141.8333333333335</ele><time>2026-04-18T13:12:39.949Z</time></trkpt><trkpt lat="45.3797606" lon="7.5647918"><ele>1147.6666666666667</ele><time>2026-04-18T13:12:41.944Z</time></trkpt><trkpt lat="45.3798393" lon="7.564765"><ele>1153.5</ele><time>2026-04-18T13:12:43.957Z</time></trkpt><trkpt lat="45.3799116" lon="7.5647347"><ele>1159.3333333333333</ele><time>2026-04-18T13:12:45.959Z</time></trkpt><trkpt lat="45.3800028" lon="7.5646952"><ele>1165.1666666666665</ele><time>2026-04-18T13:12:47.944Z</time></trkpt><trkpt lat="45.3800829" lon="7.5646512"><ele>1171.0</ele><time>2026-04-18T13:12:49.953Z</time></trkpt><trkpt lat="45.3801623" lon="7.564616"><ele>1171.0</ele><time>2026-04-18T13:12:51.955Z</time></trkpt><trkpt lat="45.3802441" lon="7.5646002"><ele>1171.0</ele><time>2026-04-18T13:12:53.951Z</time></trkpt><trkpt lat="45.3803144" lon="7.564589"><ele>1171.0</ele><time>2026-04-18T13:12:55.956Z</time></trkpt><trkpt lat="45.3803811" lon="7.5646405"><ele>1171.0</ele><time>2026-04-18T13:12:58.955Z</time></trkpt><trkpt lat="45.3804481" lon="7.5647183"><ele>1171.0</ele><time>2026-04-18T13:13:02.948Z</time></trkpt><trkpt lat="45.3805074" lon="7.5647773"><ele>1171.0</ele><time>2026-04-18T13:13:05.946Z</time></trkpt><trkpt lat="45.3805402" lon="7.5648546"><ele>1175.8333333333333</ele><time>2026-04-18T13:13:07.956Z</time></trkpt><trkpt lat="45.3806153" lon="7.5649471"><ele>1180.6666666666665</ele><time>2026-04-18T13:13:09.954Z</time></trkpt><trkpt lat="45.3807107" lon="7.5650244"><ele>1185.5</ele><time>2026-04-18T13:13:11.949Z</time></trkpt><trkpt lat="45.3807748" lon="7.565086"><ele>1190.3333333333333</ele><time>2026-04-18T13:13:13.962Z</time></trkpt><trkpt lat="45.3808127" lon="7.5651821"><ele>1195.1666666666667</ele><time>2026-04-18T13:13:15.942Z</time></trkpt><trkpt lat="45.3808407" lon="7.5652731"><ele>1200.0</ele><time>2026-04-18T13:13:17.957Z</time></trkpt><trkpt lat="45.3808334" lon="7.5653864"><ele>1200.0</ele><time>2026-04-18T13:13:20.955Z</time></trkpt><trkpt lat="45.3807704" lon="7.5653794"><ele>1200.0</ele><time>2026-04-18T13:13:23.959Z</time></trkpt><trkpt lat="45.3807626" lon="7.5652809"><ele>1200.0</ele><time>2026-04-18T13:13:59.949Z</time></trkpt><trkpt lat="45.380809" lon="7.5651903"><ele>1200.0</ele><time>2026-04-18T13:19:46.955Z</time></trkpt><trkpt lat="45.380878" lon="7.5652729"><ele>1200.0</ele><time>2026-04-18T13:19:52.944Z</time></trkpt><trkpt lat="45.3809847" lon="7.5652661"><ele>1200.0</ele><time>2026-04-18T13:19:55.011Z</time></trkpt><trkpt lat="45.3810649" lon="7.5652615"><ele>1200.0</ele><time>2026-04-18T13:19:57.028Z</time></trkpt><trkpt lat="45.3811473" lon="7.5652657"><ele>1200.0</ele><time>2026-04-18T13:19:58.957Z</time></trkpt><trkpt lat="45.3812179" lon="7.5652641"><ele>1200.0</ele><time>2026-04-18T13:20:00.956Z</time></trkpt><trkpt lat="45.3812902" lon="7.5652675"><ele>1200.0</ele><time>2026-04-18T13:20:02.956Z</time></trkpt><trkpt lat="45.3813742" lon="7.5652498"><ele>1200.0</ele><time>2026-04-18T13:20:04.961Z</time></trkpt><trkpt lat="45.3814515" lon="7.5652283"><ele>1200.0</ele><time>2026-04-18T13:20:06.95Z</time></trkpt><trkpt lat="45.3815384" lon="7.5652224"><ele>1204.3333333333333</ele><time>2026-04-18T13:20:09.948Z</time></trkpt><trkpt lat="45.381601" lon="7.565196"><ele>1208.6666666666667</ele><time>2026-04-18T13:20:11.953Z</time></trkpt><trkpt lat="45.3816667" lon="7.5651601"><ele>1213.0</ele><time>2026-04-18T13:20:13.947Z</time></trkpt><trkpt lat="45.3817345" lon="7.5651463"><ele>1217.3333333333335</ele><time>2026-04-18T13:20:16.026Z</time></trkpt><trkpt lat="45.3818106" lon="7.5651286"><ele>1221.6666666666667</ele><time>2026-04-18T13:20:17.954Z</time></trkpt><trkpt lat="45.3819163" lon="7.5650953"><ele>1226.0</ele><time>2026-04-18T13:20:19.955Z</time></trkpt><trkpt lat="45.3820081" lon="7.5650695"><ele>1226.0</ele><time>2026-04-18T13:20:21.952Z</time></trkpt><trkpt lat="45.3820707" lon="7.5650543"><ele>1226.0</ele><time>2026-04-18T13:20:23.953Z</time></trkpt><trkpt lat="45.3821316" lon="7.5650209"><ele>1226.0</ele><time>2026-04-18T13:20:26.958Z</time></trkpt><trkpt lat="45.3821978" lon="7.5649675"><ele>1226.0</ele><time>2026-04-18T13:20:28.94Z</time></trkpt><trkpt lat="45.3822811" lon="7.5649199"><ele>1226.0</ele><time>2026-04-18T13:20:30.937Z</time></trkpt><trkpt lat="45.3823711" lon="7.5648477"><ele>1226.0</ele><time>2026-04-18T13:20:32.941Z</time></trkpt><trkpt lat="45.3824463" lon="7.5647984"><ele>1229.8</ele><time>2026-04-18T13:20:34.944Z</time></trkpt><trkpt lat="45.3825124" lon="7.5647425"><ele>1233.6</ele><time>2026-04-18T13:20:36.955Z</time></trkpt><trkpt lat="45.3825808" lon="7.5646691"><ele>1237.4</ele><time>2026-04-18T13:20:38.949Z</time></trkpt><trkpt lat="45.3826548" lon="7.5646037"><ele>1241.2</ele><time>2026-04-18T13:20:41.017Z</time></trkpt><trkpt lat="45.3827389" lon="7.564527"><ele>1245.0</ele><time>2026-04-18T13:20:42.945Z</time></trkpt><trkpt lat="45.3828133" lon="7.5644286"><ele>1246.6</ele><time>2026-04-18T13:20:44.965Z</time></trkpt><trkpt lat="45.3828949" lon="7.5642982"><ele>1248.2</ele><time>2026-04-18T13:20:46.949Z</time></trkpt><trkpt lat="45.3829397" lon="7.5642182"><ele>1249.8</ele><time>2026-04-18T13:20:47.944Z</time></trkpt><trkpt lat="45.3830141" lon="7.5640891"><ele>1251.4</ele><time>2026-04-18T13:20:50.014Z</time></trkpt><trkpt lat="45.383083" lon="7.5639642"><ele>1253.0</ele><time>2026-04-18T13:20:52.024Z</time></trkpt><trkpt lat="45.3831221" lon="7.563892"><ele>1254.3333333333335</ele><time>2026-04-18T13:20:52.956Z</time></trkpt><trkpt lat="45.3831806" lon="7.5637659"><ele>1255.6666666666667</ele><time>2026-04-18T13:20:54.958Z</time></trkpt><trkpt lat="45.3832078" lon="7.5636826"><ele>1257.0</ele><time>2026-04-18T13:20:56.951Z</time></trkpt><trkpt lat="45.3831693" lon="7.5636085"><ele>1258.3333333333333</ele><time>2026-04-18T13:22:40.952Z</time></trkpt><trkpt lat="45.3832143" lon="7.5636828"><ele>1259.6666666666665</ele><time>2026-04-18T13:22:51.939Z</time></trkpt><trkpt lat="45.3832711" lon="7.5636165"><ele>1261.0</ele><time>2026-04-18T13:22:59.952Z</time></trkpt><trkpt lat="45.3833654" lon="7.563535"><ele>1266.1999999999998</ele><time>2026-04-18T13:23:01.971Z</time></trkpt><trkpt lat="45.3834253" lon="7.5634998"><ele>1271.3999999999999</ele><time>2026-04-18T13:23:02.954Z</time></trkpt><trkpt lat="45.3834942" lon="7.5634396"><ele>1276.6</ele><time>2026-04-18T13:23:04.011Z</time></trkpt><trkpt lat="45.3835769" lon="7.5633706"><ele>1281.8</ele><time>2026-04-18T13:23:04.948Z</time></trkpt><trkpt lat="45.3836594" lon="7.5632991"><ele>1287.0</ele><time>2026-04-18T13:23:05.947Z</time></trkpt><trkpt lat="45.3837569" lon="7.5632175"><ele>1285.6</ele><time>2026-04-18T13:23:06.956Z</time></trkpt><trkpt lat="45.3838507" lon="7.5631372"><ele>1284.1999999999998</ele><time>2026-04-18T13:23:07.953Z</time></trkpt><trkpt lat="45.3839443" lon="7.5630638"><ele>1282.8</ele><time>2026-04-18T13:23:08.951Z</time></trkpt><trkpt lat="45.3840303" lon="7.5629993"><ele>1281.4</ele><time>2026-04-18T13:23:10.037Z</time></trkpt><trkpt lat="45.384117" lon="7.5629613"><ele>1280.0</ele><time>2026-04-18T13:23:10.959Z</time></trkpt><trkpt lat="45.384222" lon="7.5629538"><ele>1280.0</ele><time>2026-04-18T13:23:11.961Z</time></trkpt><trkpt lat="45.3843373" lon="7.5629278"><ele>1280.0</ele><time>2026-04-18T13:23:12.964Z</time></trkpt><trkpt lat="45.3844313" lon="7.5629014"><ele>1280.0</ele><time>2026-04-18T13:23:13.966Z</time></trkpt><trkpt lat="45.3845211" lon="7.5628671"><ele>1280.0</ele><time>2026-04-18T13:23:14.954Z</time></trkpt><trkpt lat="45.3846118" lon="7.562839"><ele>1280.0</ele><time>2026-04-18T13:23:15.963Z</time></trkpt><trkpt lat="45.3846861" lon="7.5628084"><ele>1286.8</ele><time>2026-04-18T13:23:16.952Z</time></trkpt><trkpt lat="45.3847456" lon="7.5627728"><ele>1293.6</ele><time>2026-04-18T13:23:17.96Z</time></trkpt><trkpt lat="45.3848562" lon="7.5627187"><ele>1300.4</ele><time>2026-04-18T13:23:19.966Z</time></trkpt><trkpt lat="45.3849501" lon="7.5627453"><ele>1307.2</ele><time>2026-04-18T13:23:22.031Z</time></trkpt><trkpt lat="45.3849046" lon="7.5626392"><ele>1314.0</ele><time>2026-04-18T13:23:26.019Z</time></trkpt><trkpt lat="45.3847886" lon="7.5626549"><ele>1314.0</ele><time>2026-04-18T13:23:27.956Z</time></trkpt><trkpt lat="45.3847215" lon="7.56265"><ele>1314.0</ele><time>2026-04-18T13:23:28.954Z</time></trkpt><trkpt lat="45.3846547" lon="7.5626249"><ele>1314.0</ele><time>2026-04-18T13:23:29.954Z</time></trkpt><trkpt lat="45.3845841" lon="7.5625854"><ele>1314.0</ele><time>2026-04-18T13:23:30.952Z</time></trkpt><trkpt lat="45.3845107" lon="7.562536"><ele>1314.0</ele><time>2026-04-18T13:23:31.949Z</time></trkpt><trkpt lat="45.384431" lon="7.5624881"><ele>1314.0</ele><time>2026-04-18T13:23:32.942Z</time></trkpt><trkpt lat="45.3843472" lon="7.5624373"><ele>1313.5</ele><time>2026-04-18T13:23:33.953Z</time></trkpt><trkpt lat="45.3842624" lon="7.5623923"><ele>1313.0</ele><time>2026-04-18T13:23:34.962Z</time></trkpt><trkpt lat="45.3841815" lon="7.5623412"><ele>1312.5</ele><time>2026-04-18T13:23:35.951Z</time></trkpt><trkpt lat="45.384101" lon="7.5622792"><ele>1312.0</ele><time>2026-04-18T13:23:37.046Z</time></trkpt><trkpt lat="45.3840208" lon="7.5622206"><ele>1311.5</ele><time>2026-04-18T13:23:37.958Z</time></trkpt><trkpt lat="45.3839449" lon="7.5621722"><ele>1311.0</ele><time>2026-04-18T13:23:38.955Z</time></trkpt><trkpt lat="45.383879" lon="7.5621395"><ele>1310.8333333333333</ele><time>2026-04-18T13:23:39.954Z</time></trkpt><trkpt lat="45.3838159" lon="7.5621022"><ele>1310.6666666666667</ele><time>2026-04-18T13:23:40.953Z</time></trkpt><trkpt lat="45.3837206" lon="7.5620135"><ele>1310.5</ele><time>2026-04-18T13:23:42.958Z</time></trkpt><trkpt lat="45.3836758" lon="7.5619174"><ele>1310.3333333333335</ele><time>2026-04-18T13:23:45.024Z</time></trkpt><trkpt lat="45.3836739" lon="7.561788"><ele>1310.1666666666667</ele><time>2026-04-18T13:23:46.948Z</time></trkpt><trkpt lat="45.3837048" lon="7.5617095"><ele>1310.0</ele><time>2026-04-18T13:23:48.95Z</time></trkpt><trkpt lat="45.3837635" lon="7.5616412"><ele>1311.0</ele><time>2026-04-18T13:23:51.954Z</time></trkpt><trkpt lat="45.3838051" lon="7.5615711"><ele>1312.0</ele><time>2026-04-18T13:23:53.951Z</time></trkpt><trkpt lat="45.3838919" lon="7.5614941"><ele>1313.0</ele><time>2026-04-18T13:23:55.95Z</time></trkpt><trkpt lat="45.383949" lon="7.5614524"><ele>1314.0</ele><time>2026-04-18T13:23:56.957Z</time></trkpt><trkpt lat="45.3840129" lon="7.5614142"><ele>1315.0</ele><time>2026-04-18T13:23:57.955Z</time></trkpt><trkpt lat="45.3840797" lon="7.5613727"><ele>1316.0</ele><time>2026-04-18T13:23:58.949Z</time></trkpt><trkpt lat="45.3841334" lon="7.5613243"><ele>1317.0</ele><time>2026-04-18T13:23:59.952Z</time></trkpt><trkpt lat="45.3842249" lon="7.5612084"><ele>1319.5</ele><time>2026-04-18T13:24:01.951Z</time></trkpt><trkpt lat="45.3842827" lon="7.5611396"><ele>1322.0</ele><time>2026-04-18T13:24:02.954Z</time></trkpt><trkpt lat="45.3843342" lon="7.5610571"><ele>1324.5</ele><time>2026-04-18T13:24:03.952Z</time></trkpt><trkpt lat="45.3843791" lon="7.5609671"><ele>1327.0</ele><time>2026-04-18T13:24:04.956Z</time></trkpt><trkpt lat="45.3844273" lon="7.5608747"><ele>1329.5</ele><time>2026-04-18T13:24:05.95Z</time></trkpt><trkpt lat="45.3844807" lon="7.5607847"><ele>1332.0</ele><time>2026-04-18T13:24:06.957Z</time></trkpt><trkpt lat="45.3845311" lon="7.5606932"><ele>1332.0</ele><time>2026-04-18T13:24:07.956Z</time></trkpt><trkpt lat="45.3845681" lon="7.5605907"><ele>1332.0</ele><time>2026-04-18T13:24:08.956Z</time></trkpt><trkpt lat="45.3846022" lon="7.560481"><ele>1332.0</ele><time>2026-04-18T13:24:10.013Z</time></trkpt><trkpt lat="45.3846277" lon="7.5603664"><ele>1332.0</ele><time>2026-04-18T13:24:10.985Z</time></trkpt><trkpt lat="45.3846442" lon="7.5602476"><ele>1332.0</ele><time>2026-04-18T13:24:12.017Z</time></trkpt><trkpt lat="45.384662" lon="7.5601293"><ele>1332.0</ele><time>2026-04-18T13:24:12.957Z</time></trkpt><trkpt lat="45.3846799" lon="7.5600352"><ele>1339.3999999999999</ele><time>2026-04-18T13:24:13.947Z</time></trkpt><trkpt lat="45.3847431" lon="7.5598908"><ele>1346.8</ele><time>2026-04-18T13:24:15.946Z</time></trkpt><trkpt lat="45.3847854" lon="7.5598059"><ele>1354.2</ele><time>2026-04-18T13:24:16.956Z</time></trkpt><trkpt lat="45.3848179" lon="7.5596935"><ele>1361.6</ele><time>2026-04-18T13:24:17.96Z</time></trkpt><trkpt lat="45.3848444" lon="7.5595693"><ele>1369.0</ele><time>2026-04-18T13:24:19.033Z</time></trkpt><trkpt lat="45.3848704" lon="7.5594425"><ele>1370.1666666666665</ele><time>2026-04-18T13:24:20.022Z</time></trkpt><trkpt lat="45.3848821" lon="7.559321"><ele>1371.3333333333333</ele><time>2026-04-18T13:24:20.949Z</time></trkpt><trkpt lat="45.3848739" lon="7.5592056"><ele>1372.5</ele><time>2026-04-18T13:24:22.031Z</time></trkpt><trkpt lat="45.3848444" lon="7.5591061"><ele>1373.6666666666667</ele><time>2026-04-18T13:24:22.943Z</time></trkpt><trkpt lat="45.3848071" lon="7.5590193"><ele>1374.8333333333335</ele><time>2026-04-18T13:24:23.948Z</time></trkpt><trkpt lat="45.3847726" lon="7.5589299"><ele>1376.0</ele><time>2026-04-18T13:24:24.962Z</time></trkpt><trkpt lat="45.3847422" lon="7.5588341"><ele>1376.0</ele><time>2026-04-18T13:24:26.022Z</time></trkpt><trkpt lat="45.3847055" lon="7.5586975"><ele>1376.0</ele><time>2026-04-18T13:24:27.949Z</time></trkpt><trkpt lat="45.3847749" lon="7.5586456"><ele>1376.0</ele><time>2026-04-18T13:24:30.948Z</time></trkpt><trkpt lat="45.3848115" lon="7.5587388"><ele>1376.0</ele><time>2026-04-18T13:24:32.948Z</time></trkpt><trkpt lat="45.384871" lon="7.5588564"><ele>1376.0</ele><time>2026-04-18T13:24:35.047Z</time></trkpt><trkpt lat="45.3849203" lon="7.558922"><ele>1376.0</ele><time>2026-04-18T13:24:35.95Z</time></trkpt><trkpt lat="45.3849743" lon="7.5589828"><ele>1376.0</ele><time>2026-04-18T13:24:36.951Z</time></trkpt><trkpt lat="45.3850329" lon="7.559045"><ele>1376.0</ele><time>2026-04-18T13:24:37.958Z</time></trkpt><trkpt lat="45.3850956" lon="7.5591014"><ele>1376.0</ele><time>2026-04-18T13:24:38.957Z</time></trkpt><trkpt lat="45.3851669" lon="7.5591579"><ele>1376.0</ele><time>2026-04-18T13:24:39.952Z</time></trkpt><trkpt lat="45.3852375" lon="7.5592138"><ele>1376.0</ele><time>2026-04-18T13:24:40.963Z</time></trkpt><trkpt lat="45.3853072" lon="7.5592747"><ele>1376.0</ele><time>2026-04-18T13:24:42.031Z</time></trkpt><trkpt lat="45.3853692" lon="7.5593471"><ele>1376.0</ele><time>2026-04-18T13:24:42.949Z</time></trkpt><trkpt lat="45.3854218" lon="7.5594239"><ele>1376.0</ele><time>2026-04-18T13:24:43.958Z</time></trkpt><trkpt lat="45.3854712" lon="7.5595013"><ele>1376.0</ele><time>2026-04-18T13:24:44.972Z</time></trkpt><trkpt lat="45.3855126" lon="7.5595692"><ele>1376.0</ele><time>2026-04-18T13:24:45.948Z</time></trkpt><trkpt lat="45.3855463" lon="7.5597188"><ele>1376.0</ele><time>2026-04-18T13:24:47.952Z</time></trkpt><trkpt lat="45.3855372" lon="7.5598823"><ele>1376.0</ele><time>2026-04-18T13:24:50.016Z</time></trkpt><trkpt lat="45.3855184" lon="7.5599752"><ele>1374.8333333333335</ele><time>2026-04-18T13:24:51.011Z</time></trkpt><trkpt lat="45.385483" lon="7.5601157"><ele>1373.6666666666667</ele><time>2026-04-18T13:24:52.954Z</time></trkpt><trkpt lat="45.3854647" lon="7.5602025"><ele>1372.5</ele><time>2026-04-18T13:24:55.962Z</time></trkpt><trkpt lat="45.385535" lon="7.5602426"><ele>1371.3333333333333</ele><time>2026-04-18T13:24:58.949Z</time></trkpt><trkpt lat="45.3855955" lon="7.5601985"><ele>1370.1666666666665</ele><time>2026-04-18T13:25:00.984Z</time></trkpt><trkpt lat="45.3856534" lon="7.5601229"><ele>1369.0</ele><time>2026-04-18T13:25:02.953Z</time></trkpt><trkpt lat="45.3857243" lon="7.5600206"><ele>1372.1666666666665</ele><time>2026-04-18T13:25:05.033Z</time></trkpt><trkpt lat="45.3857845" lon="7.5599186"><ele>1375.3333333333333</ele><time>2026-04-18T13:25:07.009Z</time></trkpt><trkpt lat="45.385824" lon="7.5598064"><ele>1378.5</ele><time>2026-04-18T13:25:08.959Z</time></trkpt><trkpt lat="45.3858472" lon="7.5596899"><ele>1381.6666666666667</ele><time>2026-04-18T13:25:10.956Z</time></trkpt><trkpt lat="45.3858561" lon="7.559599"><ele>1384.8333333333335</ele><time>2026-04-18T13:25:13.952Z</time></trkpt><trkpt lat="45.3858418" lon="7.5594917"><ele>1388.0</ele><time>2026-04-18T13:26:00.956Z</time></trkpt><trkpt lat="45.3858715" lon="7.5594121"><ele>1392.0</ele><time>2026-04-18T13:26:01.958Z</time></trkpt><trkpt lat="45.3859216" lon="7.5593211"><ele>1396.0</ele><time>2026-04-18T13:26:02.948Z</time></trkpt><trkpt lat="45.3859622" lon="7.559154"><ele>1400.0</ele><time>2026-04-18T13:26:04.949Z</time></trkpt><trkpt lat="45.3859501" lon="7.559065"><ele>1404.0</ele><time>2026-04-18T13:26:05.953Z</time></trkpt><trkpt lat="45.3859093" lon="7.5589149"><ele>1408.0</ele><time>2026-04-18T13:26:07.955Z</time></trkpt><trkpt lat="45.3858686" lon="7.5587839"><ele>1411.2</ele><time>2026-04-18T13:26:09.956Z</time></trkpt><trkpt lat="45.3858306" lon="7.5586641"><ele>1414.4</ele><time>2026-04-18T13:26:11.949Z</time></trkpt><trkpt lat="45.3858016" lon="7.5585243"><ele>1417.6000000000001</ele><time>2026-04-18T13:26:13.959Z</time></trkpt><trkpt lat="45.3857944" lon="7.5583705"><ele>1420.8000000000002</ele><time>2026-04-18T13:26:15.953Z</time></trkpt><trkpt lat="45.3858002" lon="7.558244"><ele>1424.0</ele><time>2026-04-18T13:26:17.952Z</time></trkpt><trkpt lat="45.3858579" lon="7.5581481"><ele>1424.0</ele><time>2026-04-18T13:26:19.939Z</time></trkpt><trkpt lat="45.3859439" lon="7.5581032"><ele>1424.0</ele><time>2026-04-18T13:26:22.026Z</time></trkpt><trkpt lat="45.3860365" lon="7.5580905"><ele>1424.0</ele><time>2026-04-18T13:26:23.955Z</time></trkpt><trkpt lat="45.3861345" lon="7.5580691"><ele>1424.0</ele><time>2026-04-18T13:26:25.954Z</time></trkpt><trkpt lat="45.386235" lon="7.5580261"><ele>1424.0</ele><time>2026-04-18T13:26:27.953Z</time></trkpt><trkpt lat="45.3863501" lon="7.5580025"><ele>1427.8000000000002</ele><time>2026-04-18T13:26:30.06Z</time></trkpt><trkpt lat="45.3864518" lon="7.5579564"><ele>1431.6000000000001</ele><time>2026-04-18T13:26:32.018Z</time></trkpt><trkpt lat="45.3865599" lon="7.5578814"><ele>1435.4</ele><time>2026-04-18T13:26:33.951Z</time></trkpt><trkpt lat="45.3866691" lon="7.5578209"><ele>1439.2</ele><time>2026-04-18T13:26:35.945Z</time></trkpt><trkpt lat="45.3867538" lon="7.5577382"><ele>1443.0</ele><time>2026-04-18T13:26:37.949Z</time></trkpt><trkpt lat="45.3868043" lon="7.5576148"><ele>1445.5</ele><time>2026-04-18T13:26:40.024Z</time></trkpt><trkpt lat="45.3868314" lon="7.5574757"><ele>1448.0</ele><time>2026-04-18T13:26:41.951Z</time></trkpt><trkpt lat="45.3868561" lon="7.5573419"><ele>1450.5</ele><time>2026-04-18T13:26:43.954Z</time></trkpt><trkpt lat="45.3868899" lon="7.5572149"><ele>1453.0</ele><time>2026-04-18T13:26:45.95Z</time></trkpt><trkpt lat="45.3869314" lon="7.5571172"><ele>1455.5</ele><time>2026-04-18T13:26:47.954Z</time></trkpt><trkpt lat="45.3869902" lon="7.5570696"><ele>1458.0</ele><time>2026-04-18T13:28:46.944Z</time></trkpt><trkpt lat="45.3870824" lon="7.5570253"><ele>1459.0</ele><time>2026-04-18T13:28:48.949Z</time></trkpt><trkpt lat="45.3871718" lon="7.5569695"><ele>1460.0</ele><time>2026-04-18T13:28:50.954Z</time></trkpt><trkpt lat="45.3872676" lon="7.5569303"><ele>1461.0</ele><time>2026-04-18T13:28:52.953Z</time></trkpt><trkpt lat="45.3873499" lon="7.5569492"><ele>1462.0</ele><time>2026-04-18T13:28:54.945Z</time></trkpt><trkpt lat="45.3874294" lon="7.5569396"><ele>1463.0</ele><time>2026-04-18T13:28:57.954Z</time></trkpt><trkpt lat="45.3875189" lon="7.5569858"><ele>1466.1666666666667</ele><time>2026-04-18T13:29:01.95Z</time></trkpt><trkpt lat="45.3876086" lon="7.5570243"><ele>1469.3333333333335</ele><time>2026-04-18T13:29:03.952Z</time></trkpt><trkpt lat="45.3876913" lon="7.5570766"><ele>1472.5</ele><time>2026-04-18T13:29:05.948Z</time></trkpt><trkpt lat="45.3877685" lon="7.5571306"><ele>1475.6666666666667</ele><time>2026-04-18T13:29:07.946Z</time></trkpt><trkpt lat="45.3878386" lon="7.5572125"><ele>1478.8333333333333</ele><time>2026-04-18T13:29:09.958Z</time></trkpt><trkpt lat="45.3879077" lon="7.5572682"><ele>1482.0</ele><time>2026-04-18T13:29:11.967Z</time></trkpt><trkpt lat="45.3879843" lon="7.557335"><ele>1488.0</ele><time>2026-04-18T13:29:13.949Z</time></trkpt><trkpt lat="45.3880506" lon="7.5573957"><ele>1494.0</ele><time>2026-04-18T13:29:15.942Z</time></trkpt><trkpt lat="45.3881347" lon="7.557408"><ele>1500.0</ele><time>2026-04-18T13:29:17.948Z</time></trkpt><trkpt lat="45.3882275" lon="7.5574062"><ele>1506.0</ele><time>2026-04-18T13:29:19.948Z</time></trkpt><trkpt lat="45.3883254" lon="7.5573909"><ele>1512.0</ele><time>2026-04-18T13:29:21.954Z</time></trkpt><trkpt lat="45.3884292" lon="7.5573826"><ele>1512.0</ele><time>2026-04-18T13:29:23.954Z</time></trkpt><trkpt lat="45.3885229" lon="7.5573858"><ele>1512.0</ele><time>2026-04-18T13:29:25.956Z</time></trkpt><trkpt lat="45.3886131" lon="7.5573951"><ele>1512.0</ele><time>2026-04-18T13:29:27.951Z</time></trkpt><trkpt lat="45.3887071" lon="7.5574049"><ele>1512.0</ele><time>2026-04-18T13:29:29.943Z</time></trkpt><trkpt lat="45.3887879" lon="7.557421"><ele>1512.0</ele><time>2026-04-18T13:29:31.957Z</time></trkpt><trkpt lat="45.3888722" lon="7.5574251"><ele>1512.0</ele><time>2026-04-18T13:29:33.955Z</time></trkpt><trkpt lat="45.388935" lon="7.557403"><ele>1515.1666666666667</ele><time>2026-04-18T13:29:35.962Z</time></trkpt><trkpt lat="45.3890198" lon="7.5574013"><ele>1518.3333333333333</ele><time>2026-04-18T13:29:37.951Z</time></trkpt><trkpt lat="45.3891089" lon="7.557434"><ele>1521.5</ele><time>2026-04-18T13:29:39.957Z</time></trkpt><trkpt lat="45.3891937" lon="7.5574611"><ele>1524.6666666666665</ele><time>2026-04-18T13:29:41.951Z</time></trkpt><trkpt lat="45.3892807" lon="7.5574599"><ele>1527.8333333333333</ele><time>2026-04-18T13:29:43.951Z</time></trkpt><trkpt lat="45.389355" lon="7.5574154"><ele>1531.0</ele><time>2026-04-18T13:29:45.955Z</time></trkpt><trkpt lat="45.3893894" lon="7.5573173"><ele>1531.0</ele><time>2026-04-18T13:29:47.954Z</time></trkpt><trkpt lat="45.3893317" lon="7.5572324"><ele>1531.0</ele><time>2026-04-18T13:29:50.947Z</time></trkpt><trkpt lat="45.3892987" lon="7.557322"><ele>1531.0</ele><time>2026-04-18T13:32:33.957Z</time></trkpt><trkpt lat="45.3892884" lon="7.5574167"><ele>1531.0</ele><time>2026-04-18T13:32:41.961Z</time></trkpt><trkpt lat="45.3892159" lon="7.5573753"><ele>1531.0</ele><time>2026-04-18T13:33:12.964Z</time></trkpt><trkpt lat="45.3892804" lon="7.5573606"><ele>1531.0</ele><time>2026-04-18T13:39:20.949Z</time></trkpt><trkpt lat="45.3893271" lon="7.5572912"><ele>1531.0</ele><time>2026-04-18T13:39:28.951Z</time></trkpt><trkpt lat="45.3893218" lon="7.5571869"><ele>1531.0</ele><time>2026-04-18T13:43:48.957Z</time></trkpt><trkpt lat="45.3893521" lon="7.5572801"><ele>1531.0</ele><time>2026-04-18T13:46:20.962Z</time></trkpt><trkpt lat="45.3893889" lon="7.5573669"><ele>1531.0</ele><time>2026-04-18T13:46:23.955Z</time></trkpt><trkpt lat="45.3893212" lon="7.5574464"><ele>1531.0</ele><time>2026-04-18T13:46:26.954Z</time></trkpt><trkpt lat="45.3892579" lon="7.5574666"><ele>1531.0</ele><time>2026-04-18T13:46:28.961Z</time></trkpt><trkpt lat="45.3891843" lon="7.5574645"><ele>1531.0</ele><time>2026-04-18T13:46:32.034Z</time></trkpt><trkpt lat="45.3891063" lon="7.5574351"><ele>1531.0</ele><time>2026-04-18T13:46:35.01Z</time></trkpt><trkpt lat="45.3890248" lon="7.5574007"><ele>1531.0</ele><time>2026-04-18T13:46:37.962Z</time></trkpt><trkpt lat="45.3889426" lon="7.5574127"><ele>1531.0</ele><time>2026-04-18T13:46:41.018Z</time></trkpt><trkpt lat="45.3888587" lon="7.5574284"><ele>1531.0</ele><time>2026-04-18T13:46:44.953Z</time></trkpt><trkpt lat="45.3887662" lon="7.5574277"><ele>1531.0</ele><time>2026-04-18T13:46:47.952Z</time></trkpt><trkpt lat="45.3886903" lon="7.5574207"><ele>1531.0</ele><time>2026-04-18T13:46:49.952Z</time></trkpt><trkpt lat="45.3886214" lon="7.5573996"><ele>1528.2857142857142</ele><time>2026-04-18T13:46:52.025Z</time></trkpt><trkpt lat="45.38855" lon="7.5573923"><ele>1525.5714285714287</ele><time>2026-04-18T13:46:53.955Z</time></trkpt><trkpt lat="45.3884781" lon="7.5573961"><ele>1522.857142857143</ele><time>2026-04-18T13:46:55.95Z</time></trkpt><trkpt lat="45.3884078" lon="7.5573858"><ele>1520.142857142857</ele><time>2026-04-18T13:46:57.958Z</time></trkpt><trkpt lat="45.3883384" lon="7.5573925"><ele>1517.4285714285716</ele><time>2026-04-18T13:47:00.035Z</time></trkpt><trkpt lat="45.3882615" lon="7.5574052"><ele>1514.7142857142858</ele><time>2026-04-18T13:47:02.031Z</time></trkpt><trkpt lat="45.3881954" lon="7.5574243"><ele>1512.0</ele><time>2026-04-18T13:47:03.956Z</time></trkpt><trkpt lat="45.3881087" lon="7.5574287"><ele>1512.0</ele><time>2026-04-18T13:47:06.957Z</time></trkpt><trkpt lat="45.388035" lon="7.5574019"><ele>1512.0</ele><time>2026-04-18T13:47:09.96Z</time></trkpt><trkpt lat="45.3879744" lon="7.5573556"><ele>1512.0</ele><time>2026-04-18T13:47:12.956Z</time></trkpt><trkpt lat="45.3879149" lon="7.5572994"><ele>1512.0</ele><time>2026-04-18T13:47:15.952Z</time></trkpt><trkpt lat="45.3878521" lon="7.5572245"><ele>1512.0</ele><time>2026-04-18T13:47:18.948Z</time></trkpt><trkpt lat="45.387788" lon="7.5571747"><ele>1512.0</ele><time>2026-04-18T13:47:21.951Z</time></trkpt><trkpt lat="45.3877131" lon="7.557133"><ele>1510.7142857142858</ele><time>2026-04-18T13:47:24.952Z</time></trkpt><trkpt lat="45.3876576" lon="7.557088"><ele>1509.4285714285716</ele><time>2026-04-18T13:47:26.95Z</time></trkpt><trkpt lat="45.3876009" lon="7.5570257"><ele>1508.142857142857</ele><time>2026-04-18T13:47:28.952Z</time></trkpt><trkpt lat="45.38752" lon="7.5569812"><ele>1506.857142857143</ele><time>2026-04-18T13:47:30.955Z</time></trkpt><trkpt lat="45.3874548" lon="7.5569486"><ele>1505.5714285714287</ele><time>2026-04-18T13:47:32.946Z</time></trkpt><trkpt lat="45.3873767" lon="7.5569424"><ele>1504.2857142857142</ele><time>2026-04-18T13:47:35.957Z</time></trkpt><trkpt lat="45.3873004" lon="7.5569286"><ele>1503.0</ele><time>2026-04-18T13:47:38.95Z</time></trkpt><trkpt lat="45.3872143" lon="7.5569513"><ele>1496.3333333333333</ele><time>2026-04-18T13:47:41.954Z</time></trkpt><trkpt lat="45.3871557" lon="7.5569911"><ele>1489.6666666666667</ele><time>2026-04-18T13:47:43.951Z</time></trkpt><trkpt lat="45.3870943" lon="7.5570278"><ele>1483.0</ele><time>2026-04-18T13:47:46.017Z</time></trkpt><trkpt lat="45.3870161" lon="7.5570673"><ele>1476.3333333333335</ele><time>2026-04-18T13:47:47.957Z</time></trkpt><trkpt lat="45.3869395" lon="7.5571397"><ele>1469.6666666666667</ele><time>2026-04-18T13:47:49.953Z</time></trkpt><trkpt lat="45.3868864" lon="7.5572397"><ele>1463.0</ele><time>2026-04-18T13:47:51.959Z</time></trkpt><trkpt lat="45.3868613" lon="7.5573558"><ele>1462.0</ele><time>2026-04-18T13:47:53.951Z</time></trkpt><trkpt lat="45.386836" lon="7.5574957"><ele>1461.0</ele><time>2026-04-18T13:47:56.016Z</time></trkpt><trkpt lat="45.3868116" lon="7.5576222"><ele>1460.0</ele><time>2026-04-18T13:47:57.954Z</time></trkpt><trkpt lat="45.3867715" lon="7.5577315"><ele>1459.0</ele><time>2026-04-18T13:47:59.957Z</time></trkpt><trkpt lat="45.3866961" lon="7.5578028"><ele>1458.0</ele><time>2026-04-18T13:48:01.951Z</time></trkpt><trkpt lat="45.3865969" lon="7.5578692"><ele>1455.0</ele><time>2026-04-18T13:48:04.015Z</time></trkpt><trkpt lat="45.386489" lon="7.5579297"><ele>1452.0</ele><time>2026-04-18T13:48:05.953Z</time></trkpt><trkpt lat="45.3864055" lon="7.5579892"><ele>1449.0</ele><time>2026-04-18T13:48:07.961Z</time></trkpt><trkpt lat="45.3863263" lon="7.558041"><ele>1446.0</ele><time>2026-04-18T13:48:09.951Z</time></trkpt><trkpt lat="45.3862409" lon="7.5580779"><ele>1443.0</ele><time>2026-04-18T13:48:11.948Z</time></trkpt><trkpt lat="45.386175" lon="7.5580807"><ele>1440.2857142857142</ele><time>2026-04-18T13:48:14.016Z</time></trkpt><trkpt lat="45.3861034" lon="7.5580776"><ele>1437.5714285714287</ele><time>2026-04-18T13:48:15.956Z</time></trkpt><trkpt lat="45.3860247" lon="7.5580897"><ele>1434.8571428571427</ele><time>2026-04-18T13:48:17.953Z</time></trkpt><trkpt lat="45.3859476" lon="7.5581032"><ele>1432.142857142857</ele><time>2026-04-18T13:48:19.952Z</time></trkpt><trkpt lat="45.385876" lon="7.5581229"><ele>1429.4285714285713</ele><time>2026-04-18T13:48:21.953Z</time></trkpt><trkpt lat="45.3858301" lon="7.5582019"><ele>1426.7142857142856</ele><time>2026-04-18T13:48:23.954Z</time></trkpt><trkpt lat="45.3858058" lon="7.5582983"><ele>1424.0</ele><time>2026-04-18T13:48:26.025Z</time></trkpt><trkpt lat="45.3858157" lon="7.5583986"><ele>1423.9999999999998</ele><time>2026-04-18T13:48:27.948Z</time></trkpt><trkpt lat="45.3858417" lon="7.5585015"><ele>1424.0</ele><time>2026-04-18T13:48:29.96Z</time></trkpt><trkpt lat="45.3858531" lon="7.5585953"><ele>1424.0</ele><time>2026-04-18T13:48:32.021Z</time></trkpt><trkpt lat="45.3858735" lon="7.5586839"><ele>1424.0</ele><time>2026-04-18T13:48:33.953Z</time></trkpt><trkpt lat="45.3859014" lon="7.5587836"><ele>1424.0</ele><time>2026-04-18T13:48:35.965Z</time></trkpt><trkpt lat="45.3859455" lon="7.55888"><ele>1423.9999999999998</ele><time>2026-04-18T13:48:37.943Z</time></trkpt><trkpt lat="45.3859793" lon="7.5589831"><ele>1424.0</ele><time>2026-04-18T13:48:40.02Z</time></trkpt><trkpt lat="45.3859913" lon="7.5591002"><ele>1420.8000000000002</ele><time>2026-04-18T13:48:41.955Z</time></trkpt><trkpt lat="45.3859649" lon="7.5592066"><ele>1417.6000000000001</ele><time>2026-04-18T13:48:44.025Z</time></trkpt><trkpt lat="45.3859014" lon="7.5593221"><ele>1414.4</ele><time>2026-04-18T13:48:46.025Z</time></trkpt><trkpt lat="45.3858767" lon="7.5594707"><ele>1411.2</ele><time>2026-04-18T13:48:47.954Z</time></trkpt><trkpt lat="45.3858598" lon="7.5596177"><ele>1408.0</ele><time>2026-04-18T13:48:49.956Z</time></trkpt><trkpt lat="45.3858467" lon="7.5597824"><ele>1403.0</ele><time>2026-04-18T13:48:51.957Z</time></trkpt><trkpt lat="45.3857885" lon="7.5599282"><ele>1398.0</ele><time>2026-04-18T13:48:53.957Z</time></trkpt><trkpt lat="45.3857122" lon="7.5600569"><ele>1393.0</ele><time>2026-04-18T13:48:55.959Z</time></trkpt><trkpt lat="45.3856293" lon="7.5601806"><ele>1388.0</ele><time>2026-04-18T13:48:57.958Z</time></trkpt><trkpt lat="45.3855364" lon="7.5602739"><ele>1384.8333333333335</ele><time>2026-04-18T13:48:59.957Z</time></trkpt><trkpt lat="45.385456" lon="7.5603141"><ele>1381.6666666666667</ele><time>2026-04-18T13:49:02.014Z</time></trkpt><trkpt lat="45.3853929" lon="7.5603586"><ele>1378.5</ele><time>2026-04-18T13:49:03.947Z</time></trkpt><trkpt lat="45.3853325" lon="7.5604287"><ele>1375.3333333333333</ele><time>2026-04-18T13:49:07.009Z</time></trkpt><trkpt lat="45.3852933" lon="7.5605049"><ele>1372.1666666666665</ele><time>2026-04-18T13:49:09.979Z</time></trkpt><trkpt lat="45.3852223" lon="7.5605606"><ele>1369.0</ele><time>2026-04-18T13:49:12.96Z</time></trkpt><trkpt lat="45.3851516" lon="7.5606216"><ele>1368.5</ele><time>2026-04-18T13:49:16.015Z</time></trkpt><trkpt lat="45.3850822" lon="7.5607103"><ele>1368.0</ele><time>2026-04-18T13:49:18.958Z</time></trkpt><trkpt lat="45.3850369" lon="7.5607924"><ele>1367.5</ele><time>2026-04-18T13:49:20.957Z</time></trkpt><trkpt lat="45.384997" lon="7.5608896"><ele>1367.0</ele><time>2026-04-18T13:49:22.956Z</time></trkpt><trkpt lat="45.3849591" lon="7.5609677"><ele>1366.5</ele><time>2026-04-18T13:49:24.96Z</time></trkpt><trkpt lat="45.3848844" lon="7.5610465"><ele>1366.0</ele><time>2026-04-18T13:49:27.951Z</time></trkpt><trkpt lat="45.3848315" lon="7.5611023"><ele>1366.0</ele><time>2026-04-18T13:49:29.956Z</time></trkpt><trkpt lat="45.3847678" lon="7.5611659"><ele>1366.0</ele><time>2026-04-18T13:49:31.954Z</time></trkpt><trkpt lat="45.3847085" lon="7.5612135"><ele>1366.0</ele><time>2026-04-18T13:49:34.01Z</time></trkpt><trkpt lat="45.3846319" lon="7.5612438"><ele>1366.0</ele><time>2026-04-18T13:49:36.037Z</time></trkpt><trkpt lat="45.3845421" lon="7.5612678"><ele>1366.0</ele><time>2026-04-18T13:49:37.954Z</time></trkpt><trkpt lat="45.3844445" lon="7.5613091"><ele>1366.0</ele><time>2026-04-18T13:49:39.959Z</time></trkpt><trkpt lat="45.3843561" lon="7.5613682"><ele>1359.0</ele><time>2026-04-18T13:49:41.96Z</time></trkpt><trkpt lat="45.3842684" lon="7.5614331"><ele>1352.0</ele><time>2026-04-18T13:49:43.955Z</time></trkpt><trkpt lat="45.3841798" lon="7.5614811"><ele>1345.0</ele><time>2026-04-18T13:49:46.023Z</time></trkpt><trkpt lat="45.3840985" lon="7.5615267"><ele>1338.0</ele><time>2026-04-18T13:49:47.958Z</time></trkpt><trkpt lat="45.3840057" lon="7.561556"><ele>1331.0</ele><time>2026-04-18T13:49:50.961Z</time></trkpt><trkpt lat="45.3839254" lon="7.5615763"><ele>1331.0</ele><time>2026-04-18T13:49:52.953Z</time></trkpt><trkpt lat="45.3838578" lon="7.5616127"><ele>1331.0</ele><time>2026-04-18T13:49:54.961Z</time></trkpt><trkpt lat="45.3838051" lon="7.5616645"><ele>1331.0</ele><time>2026-04-18T13:49:56.959Z</time></trkpt><trkpt lat="45.3837342" lon="7.5616717"><ele>1331.0</ele><time>2026-04-18T13:49:58.945Z</time></trkpt><trkpt lat="45.3836799" lon="7.5617438"><ele>1331.0</ele><time>2026-04-18T13:50:00.955Z</time></trkpt><trkpt lat="45.383623" lon="7.5618156"><ele>1331.0</ele><time>2026-04-18T13:50:03.956Z</time></trkpt><trkpt lat="45.3835748" lon="7.5618818"><ele>1331.0</ele><time>2026-04-18T13:50:05.958Z</time></trkpt><trkpt lat="45.3835196" lon="7.561957"><ele>1328.6666666666667</ele><time>2026-04-18T13:50:07.965Z</time></trkpt><trkpt lat="45.3834668" lon="7.5620225"><ele>1326.3333333333335</ele><time>2026-04-18T13:50:09.962Z</time></trkpt><trkpt lat="45.3834255" lon="7.5621422"><ele>1324.0</ele><time>2026-04-18T13:50:12.961Z</time></trkpt><trkpt lat="45.3834023" lon="7.562232"><ele>1321.6666666666667</ele><time>2026-04-18T13:50:14.955Z</time></trkpt><trkpt lat="45.3833491" lon="7.5623233"><ele>1319.3333333333333</ele><time>2026-04-18T13:50:16.959Z</time></trkpt><trkpt lat="45.3832896" lon="7.5623982"><ele>1317.0</ele><time>2026-04-18T13:50:18.963Z</time></trkpt><trkpt lat="45.3832166" lon="7.5624392"><ele>1315.8333333333333</ele><time>2026-04-18T13:50:20.956Z</time></trkpt><trkpt lat="45.3831378" lon="7.5624319"><ele>1314.6666666666667</ele><time>2026-04-18T13:50:22.946Z</time></trkpt><trkpt lat="45.3830598" lon="7.5624331"><ele>1313.5</ele><time>2026-04-18T13:50:24.952Z</time></trkpt><trkpt lat="45.3829737" lon="7.5624226"><ele>1312.3333333333335</ele><time>2026-04-18T13:50:27.963Z</time></trkpt><trkpt lat="45.3828956" lon="7.5624016"><ele>1311.1666666666667</ele><time>2026-04-18T13:50:30.96Z</time></trkpt><trkpt lat="45.3828159" lon="7.562363"><ele>1310.0</ele><time>2026-04-18T13:50:32.967Z</time></trkpt><trkpt lat="45.3827404" lon="7.5623793"><ele>1306.1666666666667</ele><time>2026-04-18T13:50:34.959Z</time></trkpt><trkpt lat="45.3827382" lon="7.5625025"><ele>1302.3333333333335</ele><time>2026-04-18T13:50:37.962Z</time></trkpt><trkpt lat="45.3827733" lon="7.5625935"><ele>1298.5</ele><time>2026-04-18T13:50:39.965Z</time></trkpt><trkpt lat="45.3828127" lon="7.5626871"><ele>1294.6666666666667</ele><time>2026-04-18T13:50:41.959Z</time></trkpt><trkpt lat="45.3828429" lon="7.5627948"><ele>1290.8333333333333</ele><time>2026-04-18T13:50:43.944Z</time></trkpt><trkpt lat="45.3828718" lon="7.5629052"><ele>1287.0</ele><time>2026-04-18T13:50:46.025Z</time></trkpt><trkpt lat="45.3829089" lon="7.5630086"><ele>1287.0</ele><time>2026-04-18T13:50:47.962Z</time></trkpt><trkpt lat="45.3829413" lon="7.5630949"><ele>1287.0</ele><time>2026-04-18T13:50:49.964Z</time></trkpt><trkpt lat="45.38299" lon="7.5631686"><ele>1287.0</ele><time>2026-04-18T13:50:51.945Z</time></trkpt><trkpt lat="45.3830365" lon="7.5632536"><ele>1287.0</ele><time>2026-04-18T13:50:53.955Z</time></trkpt><trkpt lat="45.3830858" lon="7.5633574"><ele>1287.0</ele><time>2026-04-18T13:50:55.984Z</time></trkpt><trkpt lat="45.3831354" lon="7.5634505"><ele>1287.0</ele><time>2026-04-18T13:50:57.966Z</time></trkpt><trkpt lat="45.3831772" lon="7.5635529"><ele>1287.0</ele><time>2026-04-18T13:50:59.986Z</time></trkpt><trkpt lat="45.3832033" lon="7.5636557"><ele>1287.0</ele><time>2026-04-18T13:51:01.955Z</time></trkpt><trkpt lat="45.3831519" lon="7.5637714"><ele>1287.0</ele><time>2026-04-18T13:53:21.962Z</time></trkpt><trkpt lat="45.3830936" lon="7.5639102"><ele>1287.0</ele><time>2026-04-18T13:53:23.962Z</time></trkpt><trkpt lat="45.3830221" lon="7.5640255"><ele>1287.0</ele><time>2026-04-18T13:53:25.956Z</time></trkpt><trkpt lat="45.3829657" lon="7.5641563"><ele>1280.1999999999998</ele><time>2026-04-18T13:53:27.956Z</time></trkpt><trkpt lat="45.3828948" lon="7.5642945"><ele>1273.3999999999999</ele><time>2026-04-18T13:53:29.961Z</time></trkpt><trkpt lat="45.3828524" lon="7.5643648"><ele>1266.6</ele><time>2026-04-18T13:53:30.944Z</time></trkpt><trkpt lat="45.3828118" lon="7.5644349"><ele>1259.8</ele><time>2026-04-18T13:53:31.971Z</time></trkpt><trkpt lat="45.382725" lon="7.564553"><ele>1253.0</ele><time>2026-04-18T13:53:33.96Z</time></trkpt><trkpt lat="45.3826274" lon="7.5646364"><ele>1251.4</ele><time>2026-04-18T13:53:35.956Z</time></trkpt><trkpt lat="45.3825374" lon="7.5647142"><ele>1249.8</ele><time>2026-04-18T13:53:37.957Z</time></trkpt><trkpt lat="45.3824702" lon="7.5647973"><ele>1248.2</ele><time>2026-04-18T13:53:39.965Z</time></trkpt><trkpt lat="45.3824038" lon="7.5648529"><ele>1246.6</ele><time>2026-04-18T13:53:41.954Z</time></trkpt><trkpt lat="45.3823114" lon="7.5649005"><ele>1245.0</ele><time>2026-04-18T13:53:43.956Z</time></trkpt><trkpt lat="45.3822138" lon="7.5649547"><ele>1241.8333333333333</ele><time>2026-04-18T13:53:45.959Z</time></trkpt><trkpt lat="45.3821501" lon="7.5650171"><ele>1238.6666666666667</ele><time>2026-04-18T13:53:47.962Z</time></trkpt><trkpt lat="45.3820987" lon="7.5650815"><ele>1235.5</ele><time>2026-04-18T13:53:49.96Z</time></trkpt><trkpt lat="45.3820338" lon="7.5651063"><ele>1232.3333333333335</ele><time>2026-04-18T13:53:51.96Z</time></trkpt><trkpt lat="45.3819464" lon="7.56512"><ele>1229.1666666666667</ele><time>2026-04-18T13:53:53.959Z</time></trkpt><trkpt lat="45.3818631" lon="7.5651314"><ele>1226.0</ele><time>2026-04-18T13:53:55.96Z</time></trkpt><trkpt lat="45.3817792" lon="7.565152"><ele>1226.0</ele><time>2026-04-18T13:53:57.959Z</time></trkpt><trkpt lat="45.3817113" lon="7.5651646"><ele>1226.0</ele><time>2026-04-18T13:53:59.961Z</time></trkpt><trkpt lat="45.3816461" lon="7.5651885"><ele>1226.0</ele><time>2026-04-18T13:54:02.021Z</time></trkpt><trkpt lat="45.3815859" lon="7.5652274"><ele>1226.0</ele><time>2026-04-18T13:54:03.948Z</time></trkpt><trkpt lat="45.3814889" lon="7.5652344"><ele>1226.0</ele><time>2026-04-18T13:54:06.964Z</time></trkpt><trkpt lat="45.3814168" lon="7.5652323"><ele>1226.0</ele><time>2026-04-18T13:54:08.963Z</time></trkpt><trkpt lat="45.3813517" lon="7.5652392"><ele>1226.0</ele><time>2026-04-18T13:54:11.037Z</time></trkpt><trkpt lat="45.381273" lon="7.5652526"><ele>1222.0</ele><time>2026-04-18T13:54:12.954Z</time></trkpt><trkpt lat="45.3811758" lon="7.5652511"><ele>1218.0</ele><time>2026-04-18T13:54:15.961Z</time></trkpt><trkpt lat="45.3811025" lon="7.5652566"><ele>1214.0</ele><time>2026-04-18T13:54:17.96Z</time></trkpt><trkpt lat="45.3810098" lon="7.5652836"><ele>1210.0</ele><time>2026-04-18T13:54:19.965Z</time></trkpt><trkpt lat="45.3809269" lon="7.5653139"><ele>1206.0</ele><time>2026-04-18T13:54:21.997Z</time></trkpt><trkpt lat="45.3808402" lon="7.5653391"><ele>1202.0</ele><time>2026-04-18T13:54:23.957Z</time></trkpt><trkpt lat="45.3807601" lon="7.5653632"><ele>1202.0</ele><time>2026-04-18T13:54:25.95Z</time></trkpt><trkpt lat="45.3806888" lon="7.5653628"><ele>1202.0</ele><time>2026-04-18T13:54:27.968Z</time></trkpt><trkpt lat="45.3806257" lon="7.5653422"><ele>1202.0</ele><time>2026-04-18T13:54:29.961Z</time></trkpt><trkpt lat="45.3805671" lon="7.5653834"><ele>1202.0</ele><time>2026-04-18T13:55:51.961Z</time></trkpt><trkpt lat="45.3805197" lon="7.565501"><ele>1202.0</ele><time>2026-04-18T13:55:54.957Z</time></trkpt><trkpt lat="45.3804651" lon="7.5655713"><ele>1202.0</ele><time>2026-04-18T13:55:56.952Z</time></trkpt><trkpt lat="45.3804079" lon="7.565647"><ele>1202.0</ele><time>2026-04-18T13:55:58.958Z</time></trkpt><trkpt lat="45.3803446" lon="7.5657293"><ele>1198.0</ele><time>2026-04-18T13:56:00.955Z</time></trkpt><trkpt lat="45.3802829" lon="7.5658229"><ele>1194.0</ele><time>2026-04-18T13:56:02.964Z</time></trkpt><trkpt lat="45.3802367" lon="7.5659316"><ele>1190.0</ele><time>2026-04-18T13:56:04.95Z</time></trkpt><trkpt lat="45.380195" lon="7.5660236"><ele>1186.0</ele><time>2026-04-18T13:56:06.956Z</time></trkpt><trkpt lat="45.3801251" lon="7.5660671"><ele>1182.0</ele><time>2026-04-18T13:56:10.954Z</time></trkpt><trkpt lat="45.3800745" lon="7.5661255"><ele>1178.0</ele><time>2026-04-18T13:56:12.955Z</time></trkpt><trkpt lat="45.3800261" lon="7.5662082"><ele>1178.0</ele><time>2026-04-18T13:56:14.957Z</time></trkpt><trkpt lat="45.379961" lon="7.5663106"><ele>1178.0</ele><time>2026-04-18T13:56:17.959Z</time></trkpt><trkpt lat="45.3798925" lon="7.5663604"><ele>1178.0</ele><time>2026-04-18T13:56:21.957Z</time></trkpt><trkpt lat="45.3798635" lon="7.5664717"><ele>1178.0</ele><time>2026-04-18T13:56:35.961Z</time></trkpt><trkpt lat="45.3798181" lon="7.5665526"><ele>1178.0</ele><time>2026-04-18T13:56:37.96Z</time></trkpt><trkpt lat="45.3797899" lon="7.5666507"><ele>1178.0</ele><time>2026-04-18T13:56:40.958Z</time></trkpt><trkpt lat="45.3797343" lon="7.566702"><ele>1172.7142857142858</ele><time>2026-04-18T13:56:43.961Z</time></trkpt><trkpt lat="45.3796561" lon="7.5666977"><ele>1167.4285714285713</ele><time>2026-04-18T13:56:48.956Z</time></trkpt><trkpt lat="45.3795923" lon="7.5666774"><ele>1162.142857142857</ele><time>2026-04-18T13:56:52.952Z</time></trkpt><trkpt lat="45.3795214" lon="7.5666421"><ele>1156.857142857143</ele><time>2026-04-18T13:56:55.953Z</time></trkpt><trkpt lat="45.3794531" lon="7.5666467"><ele>1151.5714285714284</ele><time>2026-04-18T13:57:15.952Z</time></trkpt><trkpt lat="45.3793829" lon="7.5666548"><ele>1146.2857142857142</ele><time>2026-04-18T13:57:18.959Z</time></trkpt><trkpt lat="45.3793341" lon="7.566596"><ele>1141.0</ele><time>2026-04-18T13:57:26.952Z</time></trkpt><trkpt lat="45.3792917" lon="7.5665063"><ele>1141.0</ele><time>2026-04-18T13:57:31.962Z</time></trkpt><trkpt lat="45.3792509" lon="7.5664281"><ele>1141.0</ele><time>2026-04-18T13:57:35.957Z</time></trkpt><trkpt lat="45.3791767" lon="7.5663865"><ele>1141.0</ele><time>2026-04-18T13:57:38.964Z</time></trkpt><trkpt lat="45.3791203" lon="7.5663163"><ele>1141.0</ele><time>2026-04-18T13:57:41.96Z</time></trkpt><trkpt lat="45.3790891" lon="7.5662297"><ele>1141.0</ele><time>2026-04-18T13:57:44.953Z</time></trkpt><trkpt lat="45.379061" lon="7.5661473"><ele>1141.0</ele><time>2026-04-18T13:57:59.96Z</time></trkpt><trkpt lat="45.3790188" lon="7.5660762"><ele>1141.0</ele><time>2026-04-18T13:58:01.96Z</time></trkpt><trkpt lat="45.3789665" lon="7.5660015"><ele>1140.1666666666665</ele><time>2026-04-18T13:58:03.953Z</time></trkpt><trkpt lat="45.3789004" lon="7.5659773"><ele>1139.3333333333333</ele><time>2026-04-18T13:58:05.958Z</time></trkpt><trkpt lat="45.3788149" lon="7.5659214"><ele>1138.5</ele><time>2026-04-18T13:58:08.958Z</time></trkpt><trkpt lat="45.3787492" lon="7.5658932"><ele>1137.6666666666667</ele><time>2026-04-18T13:58:10.962Z</time></trkpt><trkpt lat="45.3786656" lon="7.5658652"><ele>1136.8333333333335</ele><time>2026-04-18T13:58:12.962Z</time></trkpt><trkpt lat="45.3785984" lon="7.5658563"><ele>1136.0</ele><time>2026-04-18T13:58:14.96Z</time></trkpt><trkpt lat="45.3785234" lon="7.5658342"><ele>1129.1666666666667</ele><time>2026-04-18T13:58:16.979Z</time></trkpt><trkpt lat="45.3784398" lon="7.5657903"><ele>1122.3333333333335</ele><time>2026-04-18T13:58:19.946Z</time></trkpt><trkpt lat="45.3783717" lon="7.5657303"><ele>1115.5</ele><time>2026-04-18T13:58:22.957Z</time></trkpt><trkpt lat="45.3783105" lon="7.5656865"><ele>1108.6666666666667</ele><time>2026-04-18T13:58:25.96Z</time></trkpt><trkpt lat="45.3782995" lon="7.5657861"><ele>1101.8333333333333</ele><time>2026-04-18T14:04:40.959Z</time></trkpt><trkpt lat="45.3783247" lon="7.5659275"><ele>1095.0</ele><time>2026-04-18T14:04:42.956Z</time></trkpt><trkpt lat="45.3783149" lon="7.5660551"><ele>1095.0</ele><time>2026-04-18T14:04:44.962Z</time></trkpt><trkpt lat="45.378286" lon="7.5661757"><ele>1095.0</ele><time>2026-04-18T14:04:46.957Z</time></trkpt><trkpt lat="45.3782458" lon="7.5662876"><ele>1095.0</ele><time>2026-04-18T14:04:48.951Z</time></trkpt><trkpt lat="45.378223" lon="7.5663831"><ele>1095.0</ele><time>2026-04-18T14:04:50.961Z</time></trkpt><trkpt lat="45.3782023" lon="7.5664851"><ele>1095.0</ele><time>2026-04-18T14:04:52.956Z</time></trkpt><trkpt lat="45.3781692" lon="7.5666203"><ele>1095.0</ele><time>2026-04-18T14:04:55.959Z</time></trkpt><trkpt lat="45.3781199" lon="7.566713"><ele>1095.3333333333333</ele><time>2026-04-18T14:04:57.964Z</time></trkpt><trkpt lat="45.3780699" lon="7.5668073"><ele>1095.6666666666667</ele><time>2026-04-18T14:04:59.958Z</time></trkpt><trkpt lat="45.3780055" lon="7.5668753"><ele>1096.0</ele><time>2026-04-18T14:05:01.96Z</time></trkpt><trkpt lat="45.3779302" lon="7.5669354"><ele>1096.3333333333335</ele><time>2026-04-18T14:05:03.961Z</time></trkpt><trkpt lat="45.3778645" lon="7.5669886"><ele>1096.6666666666667</ele><time>2026-04-18T14:05:05.951Z</time></trkpt><trkpt lat="45.3778128" lon="7.5670515"><ele>1097.0</ele><time>2026-04-18T14:05:07.957Z</time></trkpt><trkpt lat="45.3777502" lon="7.5671455"><ele>1091.2</ele><time>2026-04-18T14:05:10.96Z</time></trkpt><trkpt lat="45.377698" lon="7.5672291"><ele>1085.4</ele><time>2026-04-18T14:05:12.967Z</time></trkpt><trkpt lat="45.3776254" lon="7.5673428"><ele>1079.6</ele><time>2026-04-18T14:05:14.952Z</time></trkpt><trkpt lat="45.3775794" lon="7.5674732"><ele>1073.8</ele><time>2026-04-18T14:05:16.952Z</time></trkpt><trkpt lat="45.3775466" lon="7.5675807"><ele>1068.0</ele><time>2026-04-18T14:05:18.962Z</time></trkpt><trkpt lat="45.3775067" lon="7.5677064"><ele>1068.0</ele><time>2026-04-18T14:05:21.966Z</time></trkpt><trkpt lat="45.3774635" lon="7.5677902"><ele>1068.0</ele><time>2026-04-18T14:05:23.965Z</time></trkpt><trkpt lat="45.3774217" lon="7.5678943"><ele>1068.0</ele><time>2026-04-18T14:05:26.964Z</time></trkpt><trkpt lat="45.3773524" lon="7.567922"><ele>1068.0</ele><time>2026-04-18T14:05:30.956Z</time></trkpt><trkpt lat="45.3772627" lon="7.5678724"><ele>1068.0</ele><time>2026-04-18T14:05:33.964Z</time></trkpt><trkpt lat="45.3771882" lon="7.5678348"><ele>1068.0</ele><time>2026-04-18T14:05:35.961Z</time></trkpt><trkpt lat="45.3771245" lon="7.5678548"><ele>1063.8333333333333</ele><time>2026-04-18T14:06:14.962Z</time></trkpt><trkpt lat="45.3770813" lon="7.567932"><ele>1059.6666666666667</ele><time>2026-04-18T14:06:17.955Z</time></trkpt><trkpt lat="45.3770265" lon="7.568008"><ele>1055.5</ele><time>2026-04-18T14:06:19.958Z</time></trkpt><trkpt lat="45.3769502" lon="7.568069"><ele>1051.3333333333335</ele><time>2026-04-18T14:06:21.954Z</time></trkpt><trkpt lat="45.3768621" lon="7.5680635"><ele>1047.1666666666667</ele><time>2026-04-18T14:06:23.955Z</time></trkpt><trkpt lat="45.3767615" lon="7.5680498"><ele>1043.0</ele><time>2026-04-18T14:06:26.04Z</time></trkpt><trkpt lat="45.3765981" lon="7.5680379"><ele>1043.0</ele><time>2026-04-18T14:06:28.95Z</time></trkpt><trkpt lat="45.3764944" lon="7.5681166"><ele>1043.0</ele><time>2026-04-18T14:06:30.948Z</time></trkpt><trkpt lat="45.3764127" lon="7.5682339"><ele>1043.0</ele><time>2026-04-18T14:06:32.955Z</time></trkpt><trkpt lat="45.376312" lon="7.5683126"><ele>1043.0</ele><time>2026-04-18T14:06:35.012Z</time></trkpt><trkpt lat="45.3762238" lon="7.56837"><ele>1043.0</ele><time>2026-04-18T14:06:36.935Z</time></trkpt><trkpt lat="45.3761641" lon="7.5684318"><ele>1038.0</ele><time>2026-04-18T14:06:38.946Z</time></trkpt><trkpt lat="45.3760718" lon="7.5684845"><ele>1033.0</ele><time>2026-04-18T14:06:40.946Z</time></trkpt><trkpt lat="45.3759896" lon="7.5684652"><ele>1028.0</ele><time>2026-04-18T14:06:42.948Z</time></trkpt><trkpt lat="45.3758895" lon="7.5684639"><ele>1023.0</ele><time>2026-04-18T14:06:44.943Z</time></trkpt><trkpt lat="45.3757618" lon="7.5684605"><ele>1018.0</ele><time>2026-04-18T14:06:46.947Z</time></trkpt><trkpt lat="45.3756815" lon="7.5684658"><ele>1017.9999999999999</ele><time>2026-04-18T14:06:47.951Z</time></trkpt><trkpt lat="45.375614" lon="7.5684486"><ele>1018.0</ele><time>2026-04-18T14:06:48.967Z</time></trkpt><trkpt lat="45.3755603" lon="7.5683855"><ele>1018.0</ele><time>2026-04-18T14:06:50.948Z</time></trkpt><trkpt lat="45.3755108" lon="7.568279"><ele>1018.0</ele><time>2026-04-18T14:06:52.948Z</time></trkpt><trkpt lat="45.3754813" lon="7.5681303"><ele>1017.9999999999999</ele><time>2026-04-18T14:06:54.938Z</time></trkpt><trkpt lat="45.3754908" lon="7.5680221"><ele>1018.0</ele><time>2026-04-18T14:06:55.948Z</time></trkpt><trkpt lat="45.3754377" lon="7.567904"><ele>1014.0</ele><time>2026-04-18T14:06:57.946Z</time></trkpt><trkpt lat="45.3753548" lon="7.5678293"><ele>1010.0</ele><time>2026-04-18T14:07:00.021Z</time></trkpt><trkpt lat="45.375271" lon="7.5677697"><ele>1006.0</ele><time>2026-04-18T14:07:01.949Z</time></trkpt><trkpt lat="45.3752054" lon="7.5676605"><ele>1002.0</ele><time>2026-04-18T14:07:03.943Z</time></trkpt><trkpt lat="45.375113" lon="7.567564"><ele>998.0</ele><time>2026-04-18T14:07:05.944Z</time></trkpt><trkpt lat="45.3750505" lon="7.5674452"><ele>998.0000000000001</ele><time>2026-04-18T14:07:07.946Z</time></trkpt><trkpt lat="45.3750162" lon="7.5673576"><ele>998.0</ele><time>2026-04-18T14:07:08.957Z</time></trkpt><trkpt lat="45.3750139" lon="7.5672459"><ele>998.0</ele><time>2026-04-18T14:07:10.948Z</time></trkpt><trkpt lat="45.3749879" lon="7.5671533"><ele>998.0</ele><time>2026-04-18T14:07:12.947Z</time></trkpt><trkpt lat="45.3749834" lon="7.5670046"><ele>998.0000000000001</ele><time>2026-04-18T14:07:14.942Z</time></trkpt><trkpt lat="45.3749583" lon="7.5668862"><ele>998.0</ele><time>2026-04-18T14:07:16.946Z</time></trkpt><trkpt lat="45.3749253" lon="7.5668041"><ele>996.3333333333334</ele><time>2026-04-18T14:07:17.945Z</time></trkpt><trkpt lat="45.3748888" lon="7.566719"><ele>994.6666666666667</ele><time>2026-04-18T14:07:18.947Z</time></trkpt><trkpt lat="45.3748435" lon="7.5666416"><ele>993.0</ele><time>2026-04-18T14:07:19.938Z</time></trkpt><trkpt lat="45.374801" lon="7.5665745"><ele>991.3333333333333</ele><time>2026-04-18T14:07:20.95Z</time></trkpt><trkpt lat="45.3747205" lon="7.5664343"><ele>989.6666666666666</ele><time>2026-04-18T14:07:22.957Z</time></trkpt><trkpt lat="45.3746378" lon="7.5663414"><ele>988.0</ele><time>2026-04-18T14:07:24.946Z</time></trkpt><trkpt lat="45.3745861" lon="7.5662852"><ele>982.8333333333333</ele><time>2026-04-18T14:07:26.032Z</time></trkpt><trkpt lat="45.3745385" lon="7.5662231"><ele>977.6666666666666</ele><time>2026-04-18T14:07:27.033Z</time></trkpt><trkpt lat="45.3744545" lon="7.5661371"><ele>972.5</ele><time>2026-04-18T14:07:29.03Z</time></trkpt><trkpt lat="45.3743907" lon="7.5661031"><ele>967.3333333333333</ele><time>2026-04-18T14:07:30.946Z</time></trkpt><trkpt lat="45.3743495" lon="7.5660338"><ele>962.1666666666666</ele><time>2026-04-18T14:07:34.04Z</time></trkpt><trkpt lat="45.3742878" lon="7.5659681"><ele>957.0</ele><time>2026-04-18T14:07:36.995Z</time></trkpt><trkpt lat="45.3742329" lon="7.5658968"><ele>955.7142857142858</ele><time>2026-04-18T14:09:36.957Z</time></trkpt><trkpt lat="45.3741417" lon="7.5659122"><ele>954.4285714285716</ele><time>2026-04-18T14:09:40.971Z</time></trkpt><trkpt lat="45.3740611" lon="7.5659281"><ele>953.1428571428571</ele><time>2026-04-18T14:09:43.964Z</time></trkpt><trkpt lat="45.3739936" lon="7.5659106"><ele>951.8571428571429</ele><time>2026-04-18T14:09:48.974Z</time></trkpt><trkpt lat="45.3740258" lon="7.5658281"><ele>950.5714285714286</ele><time>2026-04-18T14:09:51.965Z</time></trkpt><trkpt lat="45.374076" lon="7.5657617"><ele>949.2857142857142</ele><time>2026-04-18T14:09:54.971Z</time></trkpt><trkpt lat="45.3741229" lon="7.5657002"><ele>947.9999999999999</ele><time>2026-04-18T14:09:57.047Z</time></trkpt><trkpt lat="45.3741879" lon="7.5656474"><ele>948.0</ele><time>2026-04-18T14:10:00.966Z</time></trkpt><trkpt lat="45.3742465" lon="7.5656074"><ele>948.0</ele><time>2026-04-18T14:10:03.967Z</time></trkpt><trkpt lat="45.3743061" lon="7.5655479"><ele>948.0</ele><time>2026-04-18T14:10:07.032Z</time></trkpt><trkpt lat="45.3743735" lon="7.5655048"><ele>948.0</ele><time>2026-04-18T14:10:08.97Z</time></trkpt><trkpt lat="45.3744584" lon="7.5654413"><ele>948.0</ele><time>2026-04-18T14:10:10.976Z</time></trkpt><trkpt lat="45.3745479" lon="7.5653605"><ele>948.0</ele><time>2026-04-18T14:10:12.967Z</time></trkpt><trkpt lat="45.374607" lon="7.5652654"><ele>946.8333333333334</ele><time>2026-04-18T14:10:14.969Z</time></trkpt><trkpt lat="45.3746638" lon="7.5651731"><ele>945.6666666666667</ele><time>2026-04-18T14:10:16.993Z</time></trkpt><trkpt lat="45.3747063" lon="7.5650983"><ele>944.5</ele><time>2026-04-18T14:10:18.972Z</time></trkpt><trkpt lat="45.3747468" lon="7.5650129"><ele>943.3333333333334</ele><time>2026-04-18T14:10:20.966Z</time></trkpt><trkpt lat="45.3747715" lon="7.5648948"><ele>942.1666666666667</ele><time>2026-04-18T14:10:23.971Z</time></trkpt><trkpt lat="45.3747988" lon="7.5647921"><ele>941.0</ele><time>2026-04-18T14:10:27.97Z</time></trkpt><trkpt lat="45.3748286" lon="7.5647104"><ele>943.8333333333334</ele><time>2026-04-18T14:10:30.967Z</time></trkpt><trkpt lat="45.3748318" lon="7.5646027"><ele>946.6666666666667</ele><time>2026-04-18T14:10:34.97Z</time></trkpt><trkpt lat="45.3748322" lon="7.564479"><ele>949.5</ele><time>2026-04-18T14:10:38.971Z</time></trkpt><trkpt lat="45.374811" lon="7.5643728"><ele>952.3333333333333</ele><time>2026-04-18T14:13:56.972Z</time></trkpt><trkpt lat="45.3747732" lon="7.5642995"><ele>955.1666666666666</ele><time>2026-04-18T14:14:01.972Z</time></trkpt><trkpt lat="45.3747012" lon="7.5642851"><ele>958.0</ele><time>2026-04-18T14:14:07.97Z</time></trkpt><trkpt lat="45.3746352" lon="7.5643451"><ele>957.9999999999999</ele><time>2026-04-18T14:14:12.969Z</time></trkpt><trkpt lat="45.37457" lon="7.5644132"><ele>958.0</ele><time>2026-04-18T14:14:43.963Z</time></trkpt><trkpt lat="45.3746048" lon="7.5643347"><ele>958.0</ele><time>2026-04-18T14:14:53.949Z</time></trkpt><trkpt lat="45.3746548" lon="7.5642649"><ele>958.0</ele><time>2026-04-18T14:15:25.959Z</time></trkpt><trkpt lat="45.3745976" lon="7.5643171"><ele>957.9999999999999</ele><time>2026-04-18T14:16:20.941Z</time></trkpt><trkpt lat="45.3745379" lon="7.5643476"><ele>958.0</ele><time>2026-04-18T14:16:26.861Z</time></trkpt><trkpt lat="45.374389" lon="7.564314"><ele>957.9999999999999</ele><time>2026-04-18T14:17:47.948Z</time></trkpt><trkpt lat="45.3743194" lon="7.5642931"><ele>958.0</ele><time>2026-04-18T14:17:49.959Z</time></trkpt><trkpt lat="45.3742946" lon="7.5641987"><ele>958.0</ele><time>2026-04-18T14:17:54.959Z</time></trkpt><trkpt lat="45.374271" lon="7.5640807"><ele>958.0</ele><time>2026-04-18T14:17:57.955Z</time></trkpt><trkpt lat="45.3742079" lon="7.564022"><ele>957.9999999999999</ele><time>2026-04-18T14:18:00.952Z</time></trkpt><trkpt lat="45.3741235" lon="7.5640082"><ele>958.0</ele><time>2026-04-18T14:18:03.952Z</time></trkpt><trkpt lat="45.3740595" lon="7.563983"><ele>958.0</ele><time>2026-04-18T14:18:04.959Z</time></trkpt><trkpt lat="45.3739967" lon="7.5639958"><ele>958.0</ele><time>2026-04-18T14:18:13.957Z</time></trkpt><trkpt lat="45.3739167" lon="7.5640042"><ele>958.0</ele><time>2026-04-18T14:18:21.955Z</time></trkpt><trkpt lat="45.3738466" lon="7.5640716"><ele>958.0</ele><time>2026-04-18T14:18:24.949Z</time></trkpt><trkpt lat="45.3737931" lon="7.5641706"><ele>958.0</ele><time>2026-04-18T14:18:28.053Z</time></trkpt><trkpt lat="45.3737546" lon="7.5642416"><ele>958.0</ele><time>2026-04-18T14:18:30.034Z</time></trkpt><trkpt lat="45.373694" lon="7.564282"><ele>958.0</ele><time>2026-04-18T14:18:31.953Z</time></trkpt><trkpt lat="45.3736353" lon="7.5643188"><ele>960.3333333333333</ele><time>2026-04-18T14:18:33.898Z</time></trkpt><trkpt lat="45.3735199" lon="7.564298"><ele>962.6666666666666</ele><time>2026-04-18T14:18:35.955Z</time></trkpt><trkpt lat="45.3734547" lon="7.5643062"><ele>965.0</ele><time>2026-04-18T14:18:37.968Z</time></trkpt><trkpt lat="45.3733671" lon="7.5643017"><ele>967.3333333333333</ele><time>2026-04-18T14:18:40.96Z</time></trkpt><trkpt lat="45.3732953" lon="7.5642799"><ele>969.6666666666666</ele><time>2026-04-18T14:18:43.959Z</time></trkpt><trkpt lat="45.3732256" lon="7.5642962"><ele>972.0</ele><time>2026-04-18T14:18:49.962Z</time></trkpt><trkpt lat="45.3731376" lon="7.5642963"><ele>972.0</ele><time>2026-04-18T14:18:58.032Z</time></trkpt><trkpt lat="45.3730652" lon="7.5642964"><ele>972.0</ele><time>2026-04-18T14:19:00.933Z</time></trkpt><trkpt lat="45.3729946" lon="7.5642769"><ele>972.0</ele><time>2026-04-18T14:19:16.016Z</time></trkpt><trkpt lat="45.3730783" lon="7.5643058"><ele>972.0</ele><time>2026-04-18T14:19:30.949Z</time></trkpt><trkpt lat="45.3731425" lon="7.5642607"><ele>972.0</ele><time>2026-04-18T14:19:44.947Z</time></trkpt><trkpt lat="45.3730786" lon="7.5642944"><ele>972.0</ele><time>2026-04-18T14:20:04.946Z</time></trkpt><trkpt lat="45.3730011" lon="7.5642829"><ele>972.0</ele><time>2026-04-18T14:20:09.031Z</time></trkpt><trkpt lat="45.3729361" lon="7.5643015"><ele>973.3333333333334</ele><time>2026-04-18T14:20:11.955Z</time></trkpt><trkpt lat="45.3728505" lon="7.564339"><ele>974.6666666666667</ele><time>2026-04-18T14:20:14.948Z</time></trkpt><trkpt lat="45.3727837" lon="7.5643586"><ele>976.0</ele><time>2026-04-18T14:20:18.032Z</time></trkpt><trkpt lat="45.372707" lon="7.564368"><ele>977.3333333333334</ele><time>2026-04-18T14:20:20.969Z</time></trkpt><trkpt lat="45.3726232" lon="7.5643738"><ele>978.6666666666667</ele><time>2026-04-18T14:20:24.032Z</time></trkpt><trkpt lat="45.372553" lon="7.5644054"><ele>980.0</ele><time>2026-04-18T14:20:27.952Z</time></trkpt><trkpt lat="45.3726286" lon="7.5643921"><ele>980.0000000000001</ele><time>2026-04-18T14:21:15.946Z</time></trkpt><trkpt lat="45.3727265" lon="7.5643745"><ele>980.0</ele><time>2026-04-18T14:21:33.956Z</time></trkpt><trkpt lat="45.3728006" lon="7.5643738"><ele>980.0</ele><time>2026-04-18T14:22:00.945Z</time></trkpt><trkpt lat="45.3728777" lon="7.5643086"><ele>980.0</ele><time>2026-04-18T14:22:30.952Z</time></trkpt><trkpt lat="45.3728128" lon="7.5643253"><ele>980.0000000000001</ele><time>2026-04-18T14:22:37.995Z</time></trkpt><trkpt lat="45.3727472" lon="7.5642865"><ele>980.0</ele><time>2026-04-18T14:22:42.886Z</time></trkpt><trkpt lat="45.3726719" lon="7.5643085"><ele>980.0000000000001</ele><time>2026-04-18T14:22:45.944Z</time></trkpt><trkpt lat="45.3726058" lon="7.5643545"><ele>980.0</ele><time>2026-04-18T14:23:01.938Z</time></trkpt><trkpt lat="45.3725472" lon="7.5644006"><ele>980.0</ele><time>2026-04-18T14:23:05.96Z</time></trkpt><trkpt lat="45.3724874" lon="7.5644558"><ele>980.0</ele><time>2026-04-18T14:23:09.955Z</time></trkpt><trkpt lat="45.3724284" lon="7.5645276"><ele>980.0000000000001</ele><time>2026-04-18T14:23:14.956Z</time></trkpt><trkpt lat="45.3723212" lon="7.5645683"><ele>980.0</ele><time>2026-04-18T14:23:15.944Z</time></trkpt><trkpt lat="45.3722473" lon="7.5646535"><ele>980.1666666666667</ele><time>2026-04-18T14:23:18.959Z</time></trkpt><trkpt lat="45.3721889" lon="7.5647376"><ele>980.3333333333334</ele><time>2026-04-18T14:23:20.954Z</time></trkpt><trkpt lat="45.3721293" lon="7.5648019"><ele>980.5</ele><time>2026-04-18T14:23:22.954Z</time></trkpt><trkpt lat="45.3720674" lon="7.5648745"><ele>980.6666666666667</ele><time>2026-04-18T14:23:24.949Z</time></trkpt><trkpt lat="45.37198" lon="7.5649218"><ele>980.8333333333334</ele><time>2026-04-18T14:23:26.955Z</time></trkpt><trkpt lat="45.3718851" lon="7.5649653"><ele>981.0</ele><time>2026-04-18T14:23:28.958Z</time></trkpt><trkpt lat="45.3717963" lon="7.5650098"><ele>981.0</ele><time>2026-04-18T14:23:30.962Z</time></trkpt><trkpt lat="45.3717296" lon="7.565059"><ele>981.0</ele><time>2026-04-18T14:23:32.953Z</time></trkpt><trkpt lat="45.3716689" lon="7.5651068"><ele>981.0</ele><time>2026-04-18T14:23:34.951Z</time></trkpt><trkpt lat="45.3716008" lon="7.5651792"><ele>981.0</ele><time>2026-04-18T14:23:37.952Z</time></trkpt><trkpt lat="45.3715341" lon="7.5651958"><ele>981.0</ele><time>2026-04-18T14:23:40.951Z</time></trkpt><trkpt lat="45.3715576" lon="7.565093"><ele>981.0</ele><time>2026-04-18T14:23:45.954Z</time></trkpt><trkpt lat="45.3714519" lon="7.5651034"><ele>981.0</ele><time>2026-04-18T14:27:02.955Z</time></trkpt><trkpt lat="45.3713954" lon="7.5651606"><ele>981.0</ele><time>2026-04-18T14:27:06.956Z</time></trkpt><trkpt lat="45.3713383" lon="7.565246"><ele>981.0</ele><time>2026-04-18T14:27:08.947Z</time></trkpt><trkpt lat="45.3712929" lon="7.5653196"><ele>981.0</ele><time>2026-04-18T14:27:10.954Z</time></trkpt><trkpt lat="45.3712059" lon="7.5653643"><ele>981.0</ele><time>2026-04-18T14:27:15.028Z</time></trkpt><trkpt lat="45.3711369" lon="7.5653464"><ele>981.0</ele><time>2026-04-18T14:27:16.965Z</time></trkpt><trkpt lat="45.3710213" lon="7.5652224"><ele>978.5999999999999</ele><time>2026-04-18T14:27:18.963Z</time></trkpt><trkpt lat="45.3709759" lon="7.5651003"><ele>976.1999999999999</ele><time>2026-04-18T14:27:19.96Z</time></trkpt><trkpt lat="45.3709329" lon="7.564992"><ele>973.8000000000001</ele><time>2026-04-18T14:27:20.949Z</time></trkpt><trkpt lat="45.370891" lon="7.5648675"><ele>971.4000000000001</ele><time>2026-04-18T14:27:21.963Z</time></trkpt><trkpt lat="45.3708508" lon="7.5647251"><ele>969.0</ele><time>2026-04-18T14:27:22.962Z</time></trkpt><trkpt lat="45.3708107" lon="7.564626"><ele>971.4000000000001</ele><time>2026-04-18T14:27:23.962Z</time></trkpt><trkpt lat="45.3707509" lon="7.5644929"><ele>973.8000000000001</ele><time>2026-04-18T14:27:25.961Z</time></trkpt><trkpt lat="45.3707022" lon="7.564356"><ele>976.1999999999999</ele><time>2026-04-18T14:27:27.96Z</time></trkpt><trkpt lat="45.3706407" lon="7.5642784"><ele>978.5999999999999</ele><time>2026-04-18T14:27:29.967Z</time></trkpt><trkpt lat="45.3705791" lon="7.5641946"><ele>981.0</ele><time>2026-04-18T14:27:31.959Z</time></trkpt><trkpt lat="45.370523" lon="7.5640468"><ele>976.0</ele><time>2026-04-18T14:27:33.959Z</time></trkpt><trkpt lat="45.3704836" lon="7.5638879"><ele>971.0</ele><time>2026-04-18T14:27:35.959Z</time></trkpt><trkpt lat="45.3704542" lon="7.5638075"><ele>966.0</ele><time>2026-04-18T14:27:36.955Z</time></trkpt><trkpt lat="45.3704137" lon="7.563724"><ele>961.0</ele><time>2026-04-18T14:27:37.964Z</time></trkpt><trkpt lat="45.3703637" lon="7.5636311"><ele>956.0</ele><time>2026-04-18T14:27:38.955Z</time></trkpt><trkpt lat="45.3703101" lon="7.5635557"><ele>951.0</ele><time>2026-04-18T14:27:39.959Z</time></trkpt><trkpt lat="45.3702564" lon="7.5634812"><ele>951.0</ele><time>2026-04-18T14:27:40.948Z</time></trkpt><trkpt lat="45.3701795" lon="7.5634115"><ele>950.9999999999999</ele><time>2026-04-18T14:27:41.963Z</time></trkpt><trkpt lat="45.3701158" lon="7.5633426"><ele>950.9999999999999</ele><time>2026-04-18T14:27:43.026Z</time></trkpt><trkpt lat="45.3700538" lon="7.5632875"><ele>951.0</ele><time>2026-04-18T14:27:43.956Z</time></trkpt><trkpt lat="45.3699587" lon="7.5632007"><ele>951.0</ele><time>2026-04-18T14:27:45.961Z</time></trkpt><trkpt lat="45.3698661" lon="7.5630987"><ele>951.0</ele><time>2026-04-18T14:27:47.949Z</time></trkpt><trkpt lat="45.3697768" lon="7.5630047"><ele>950.9999999999999</ele><time>2026-04-18T14:27:49.955Z</time></trkpt><trkpt lat="45.369698" lon="7.5628904"><ele>950.9999999999999</ele><time>2026-04-18T14:27:51.964Z</time></trkpt><trkpt lat="45.3696348" lon="7.5627762"><ele>951.0</ele><time>2026-04-18T14:27:53.951Z</time></trkpt><trkpt lat="45.369599" lon="7.5626585"><ele>951.0</ele><time>2026-04-18T14:27:55.962Z</time></trkpt><trkpt lat="45.3695916" lon="7.5625598"><ele>951.6666666666666</ele><time>2026-04-18T14:27:57.974Z</time></trkpt><trkpt lat="45.3695823" lon="7.562471"><ele>952.3333333333333</ele><time>2026-04-18T14:27:59.967Z</time></trkpt><trkpt lat="45.369516" lon="7.5624773"><ele>953.0</ele><time>2026-04-18T14:28:04.962Z</time></trkpt><trkpt lat="45.3694383" lon="7.5625216"><ele>953.6666666666666</ele><time>2026-04-18T14:28:30.955Z</time></trkpt><trkpt lat="45.3693724" lon="7.5625693"><ele>954.3333333333333</ele><time>2026-04-18T14:28:32.963Z</time></trkpt><trkpt lat="45.3693286" lon="7.5626363"><ele>955.0</ele><time>2026-04-18T14:28:33.962Z</time></trkpt><trkpt lat="45.3692696" lon="7.5627653"><ele>954.9999999999999</ele><time>2026-04-18T14:28:35.962Z</time></trkpt><trkpt lat="45.3692368" lon="7.5628547"><ele>955.0</ele><time>2026-04-18T14:28:36.952Z</time></trkpt><trkpt lat="45.3692122" lon="7.5629544"><ele>955.0</ele><time>2026-04-18T14:28:38.015Z</time></trkpt><trkpt lat="45.3692051" lon="7.5630614"><ele>955.0</ele><time>2026-04-18T14:28:38.967Z</time></trkpt><trkpt lat="45.3692097" lon="7.5631762"><ele>954.9999999999999</ele><time>2026-04-18T14:28:40.036Z</time></trkpt><trkpt lat="45.3692025" lon="7.5632915"><ele>955.0</ele><time>2026-04-18T14:28:41.026Z</time></trkpt><trkpt lat="45.3691969" lon="7.5634109"><ele>953.9999999999999</ele><time>2026-04-18T14:28:41.973Z</time></trkpt><trkpt lat="45.3691933" lon="7.5635283"><ele>953.0</ele><time>2026-04-18T14:28:43.004Z</time></trkpt><trkpt lat="45.3691917" lon="7.563633"><ele>951.9999999999999</ele><time>2026-04-18T14:28:44.039Z</time></trkpt><trkpt lat="45.369188" lon="7.5637269"><ele>950.9999999999999</ele><time>2026-04-18T14:28:45.047Z</time></trkpt><trkpt lat="45.3691763" lon="7.5638235"><ele>950.0</ele><time>2026-04-18T14:28:46.024Z</time></trkpt><trkpt lat="45.369173" lon="7.563922"><ele>948.9999999999999</ele><time>2026-04-18T14:28:46.947Z</time></trkpt><trkpt lat="45.3691897" lon="7.5640296"><ele>947.9999999999999</ele><time>2026-04-18T14:28:47.953Z</time></trkpt><trkpt lat="45.3691937" lon="7.5641272"><ele>947.5</ele><time>2026-04-18T14:28:48.988Z</time></trkpt><trkpt lat="45.3692122" lon="7.5642339"><ele>947.0</ele><time>2026-04-18T14:28:50.031Z</time></trkpt><trkpt lat="45.3692281" lon="7.5643426"><ele>946.5</ele><time>2026-04-18T14:28:51.031Z</time></trkpt><trkpt lat="45.3692373" lon="7.5644456"><ele>946.0</ele><time>2026-04-18T14:28:51.964Z</time></trkpt><trkpt lat="45.3692427" lon="7.5645396"><ele>945.5</ele><time>2026-04-18T14:28:52.965Z</time></trkpt><trkpt lat="45.3692313" lon="7.5646317"><ele>945.0</ele><time>2026-04-18T14:28:53.958Z</time></trkpt><trkpt lat="45.369223" lon="7.5647996"><ele>943.8</ele><time>2026-04-18T14:28:56.047Z</time></trkpt><trkpt lat="45.3692088" lon="7.5649436"><ele>942.6</ele><time>2026-04-18T14:28:57.955Z</time></trkpt><trkpt lat="45.3691586" lon="7.5650642"><ele>941.4000000000001</ele><time>2026-04-18T14:28:59.96Z</time></trkpt><trkpt lat="45.3690863" lon="7.5651378"><ele>940.2</ele><time>2026-04-18T14:29:01.971Z</time></trkpt><trkpt lat="45.3690151" lon="7.5652276"><ele>939.0</ele><time>2026-04-18T14:29:03.96Z</time></trkpt><trkpt lat="45.3689578" lon="7.565297"><ele>941.1428571428571</ele><time>2026-04-18T14:29:04.968Z</time></trkpt><trkpt lat="45.368901" lon="7.5653645"><ele>943.2857142857142</ele><time>2026-04-18T14:29:05.961Z</time></trkpt><trkpt lat="45.3688476" lon="7.5654265"><ele>945.4285714285713</ele><time>2026-04-18T14:29:06.965Z</time></trkpt><trkpt lat="45.3688041" lon="7.5655"><ele>947.5714285714286</ele><time>2026-04-18T14:29:07.97Z</time></trkpt><trkpt lat="45.3687551" lon="7.5655655"><ele>949.7142857142856</ele><time>2026-04-18T14:29:08.989Z</time></trkpt><trkpt lat="45.3687018" lon="7.5656369"><ele>951.8571428571428</ele><time>2026-04-18T14:29:09.967Z</time></trkpt><trkpt lat="45.3686606" lon="7.5657172"><ele>954.0</ele><time>2026-04-18T14:29:10.967Z</time></trkpt><trkpt lat="45.3686176" lon="7.5657839"><ele>954.0</ele><time>2026-04-18T14:29:11.966Z</time></trkpt><trkpt lat="45.3685673" lon="7.5658468"><ele>954.0000000000001</ele><time>2026-04-18T14:29:12.961Z</time></trkpt><trkpt lat="45.3685381" lon="7.5659924"><ele>954.0000000000001</ele><time>2026-04-18T14:29:14.965Z</time></trkpt><trkpt lat="45.3685311" lon="7.5661346"><ele>954.0</ele><time>2026-04-18T14:29:16.962Z</time></trkpt><trkpt lat="45.3685428" lon="7.5662991"><ele>954.0</ele><time>2026-04-18T14:29:18.965Z</time></trkpt><trkpt lat="45.3685369" lon="7.566396"><ele>951.4285714285713</ele><time>2026-04-18T14:29:19.964Z</time></trkpt><trkpt lat="45.3685394" lon="7.5664895"><ele>948.8571428571428</ele><time>2026-04-18T14:29:20.954Z</time></trkpt><trkpt lat="45.3685305" lon="7.5665947"><ele>946.2857142857142</ele><time>2026-04-18T14:29:21.965Z</time></trkpt><trkpt lat="45.3685275" lon="7.5666891"><ele>943.7142857142858</ele><time>2026-04-18T14:29:22.967Z</time></trkpt><trkpt lat="45.3685212" lon="7.5667789"><ele>941.1428571428572</ele><time>2026-04-18T14:29:23.966Z</time></trkpt><trkpt lat="45.3685177" lon="7.5668838"><ele>938.5714285714287</ele><time>2026-04-18T14:29:24.967Z</time></trkpt><trkpt lat="45.3685146" lon="7.5669939"><ele>936.0</ele><time>2026-04-18T14:29:25.97Z</time></trkpt><trkpt lat="45.3685111" lon="7.5670934"><ele>934.2857142857143</ele><time>2026-04-18T14:29:26.969Z</time></trkpt><trkpt lat="45.3685114" lon="7.5671963"><ele>932.5714285714287</ele><time>2026-04-18T14:29:27.976Z</time></trkpt><trkpt lat="45.3685019" lon="7.5672878"><ele>930.8571428571429</ele><time>2026-04-18T14:29:28.964Z</time></trkpt><trkpt lat="45.3684775" lon="7.5673773"><ele>929.1428571428571</ele><time>2026-04-18T14:29:29.97Z</time></trkpt><trkpt lat="45.3684476" lon="7.5674823"><ele>927.4285714285714</ele><time>2026-04-18T14:29:30.969Z</time></trkpt><trkpt lat="45.3684203" lon="7.5675785"><ele>925.7142857142858</ele><time>2026-04-18T14:29:31.966Z</time></trkpt><trkpt lat="45.368386" lon="7.5676641"><ele>924.0</ele><time>2026-04-18T14:29:32.971Z</time></trkpt><trkpt lat="45.3683484" lon="7.5677445"><ele>924.0</ele><time>2026-04-18T14:29:33.965Z</time></trkpt><trkpt lat="45.3683052" lon="7.567832"><ele>924.0</ele><time>2026-04-18T14:29:34.966Z</time></trkpt><trkpt lat="45.3682574" lon="7.5679218"><ele>924.0</ele><time>2026-04-18T14:29:35.964Z</time></trkpt><trkpt lat="45.3681897" lon="7.5680016"><ele>924.0</ele><time>2026-04-18T14:29:36.969Z</time></trkpt><trkpt lat="45.3681358" lon="7.5680775"><ele>924.0</ele><time>2026-04-18T14:29:37.968Z</time></trkpt><trkpt lat="45.3680844" lon="7.5681447"><ele>924.0</ele><time>2026-04-18T14:29:38.963Z</time></trkpt><trkpt lat="45.3680129" lon="7.568243"><ele>921.6</ele><time>2026-04-18T14:29:41.03Z</time></trkpt><trkpt lat="45.3679362" lon="7.5683178"><ele>919.2</ele><time>2026-04-18T14:29:42.95Z</time></trkpt><trkpt lat="45.3678417" lon="7.5683691"><ele>916.8000000000001</ele><time>2026-04-18T14:29:45.037Z</time></trkpt><trkpt lat="45.3677542" lon="7.5684172"><ele>914.4000000000001</ele><time>2026-04-18T14:29:46.953Z</time></trkpt><trkpt lat="45.3676644" lon="7.5684439"><ele>912.0</ele><time>2026-04-18T14:29:48.952Z</time></trkpt><trkpt lat="45.3675878" lon="7.5684672"><ele>912.0</ele><time>2026-04-18T14:29:50.96Z</time></trkpt><trkpt lat="45.3674935" lon="7.5684884"><ele>912.0</ele><time>2026-04-18T14:29:54.03Z</time></trkpt><trkpt lat="45.3674187" lon="7.5685227"><ele>912.0</ele><time>2026-04-18T14:29:55.961Z</time></trkpt><trkpt lat="45.3673535" lon="7.5686007"><ele>912.0</ele><time>2026-04-18T14:29:57.959Z</time></trkpt><trkpt lat="45.3672976" lon="7.5686661"><ele>912.0</ele><time>2026-04-18T14:30:00.036Z</time></trkpt><trkpt lat="45.3672856" lon="7.5687623"><ele>912.0</ele><time>2026-04-18T14:30:01.962Z</time></trkpt><trkpt lat="45.3672842" lon="7.5688594"><ele>910.4000000000001</ele><time>2026-04-18T14:30:04.958Z</time></trkpt><trkpt lat="45.3672133" lon="7.5689009"><ele>908.8000000000001</ele><time>2026-04-18T14:33:34.015Z</time></trkpt><trkpt lat="45.3672398" lon="7.5690087"><ele>907.2</ele><time>2026-04-18T14:33:35.956Z</time></trkpt><trkpt lat="45.3672773" lon="7.5691806"><ele>905.6</ele><time>2026-04-18T14:33:37.951Z</time></trkpt><trkpt lat="45.3673221" lon="7.5693218"><ele>904.0</ele><time>2026-04-18T14:33:38.961Z</time></trkpt><trkpt lat="45.367373" lon="7.5694622"><ele>904.8000000000001</ele><time>2026-04-18T14:33:39.955Z</time></trkpt><trkpt lat="45.3674244" lon="7.5695774"><ele>905.6000000000001</ele><time>2026-04-18T14:33:40.954Z</time></trkpt><trkpt lat="45.3674729" lon="7.5696628"><ele>906.4</ele><time>2026-04-18T14:33:41.954Z</time></trkpt><trkpt lat="45.3675219" lon="7.5697431"><ele>907.2</ele><time>2026-04-18T14:33:42.955Z</time></trkpt><trkpt lat="45.3675893" lon="7.5698893"><ele>908.0</ele><time>2026-04-18T14:33:44.958Z</time></trkpt><trkpt lat="45.3676296" lon="7.5700334"><ele>908.0</ele><time>2026-04-18T14:33:46.959Z</time></trkpt><trkpt lat="45.367644" lon="7.5701329"><ele>908.0000000000001</ele><time>2026-04-18T14:33:47.959Z</time></trkpt><trkpt lat="45.3676498" lon="7.5702248"><ele>908.0</ele><time>2026-04-18T14:33:48.942Z</time></trkpt><trkpt lat="45.3676484" lon="7.5703154"><ele>908.0</ele><time>2026-04-18T14:33:49.958Z</time></trkpt><trkpt lat="45.3676459" lon="7.5704118"><ele>908.0000000000001</ele><time>2026-04-18T14:33:50.956Z</time></trkpt><trkpt lat="45.3676304" lon="7.5705088"><ele>908.0</ele><time>2026-04-18T14:33:51.954Z</time></trkpt><trkpt lat="45.3676061" lon="7.5705968"><ele>908.0</ele><time>2026-04-18T14:33:52.957Z</time></trkpt><trkpt lat="45.367563" lon="7.5706978"><ele>907.0</ele><time>2026-04-18T14:33:53.959Z</time></trkpt><trkpt lat="45.3674982" lon="7.5707819"><ele>906.0</ele><time>2026-04-18T14:33:54.96Z</time></trkpt><trkpt lat="45.3674346" lon="7.5708786"><ele>905.0</ele><time>2026-04-18T14:33:55.956Z</time></trkpt><trkpt lat="45.367362" lon="7.5709682"><ele>904.0</ele><time>2026-04-18T14:33:56.95Z</time></trkpt><trkpt lat="45.3672986" lon="7.5710736"><ele>903.0</ele><time>2026-04-18T14:33:57.958Z</time></trkpt><trkpt lat="45.3672339" lon="7.5711695"><ele>905.8333333333334</ele><time>2026-04-18T14:33:58.946Z</time></trkpt><trkpt lat="45.3671752" lon="7.5712495"><ele>908.6666666666667</ele><time>2026-04-18T14:33:59.958Z</time></trkpt><trkpt lat="45.3671276" lon="7.5713434"><ele>911.5</ele><time>2026-04-18T14:34:00.961Z</time></trkpt><trkpt lat="45.3670975" lon="7.5714569"><ele>914.3333333333334</ele><time>2026-04-18T14:34:01.953Z</time></trkpt><trkpt lat="45.3670656" lon="7.5715559"><ele>917.1666666666667</ele><time>2026-04-18T14:34:02.956Z</time></trkpt><trkpt lat="45.3670291" lon="7.5716532"><ele>920.0</ele><time>2026-04-18T14:34:03.958Z</time></trkpt><trkpt lat="45.3670102" lon="7.5717471"><ele>920.0000000000001</ele><time>2026-04-18T14:34:04.958Z</time></trkpt><trkpt lat="45.3669978" lon="7.5718472"><ele>920.0</ele><time>2026-04-18T14:34:05.96Z</time></trkpt><trkpt lat="45.3669837" lon="7.5719584"><ele>920.0</ele><time>2026-04-18T14:34:06.948Z</time></trkpt><trkpt lat="45.3669545" lon="7.5720656"><ele>920.0</ele><time>2026-04-18T14:34:07.957Z</time></trkpt><trkpt lat="45.3669305" lon="7.5721749"><ele>920.0000000000001</ele><time>2026-04-18T14:34:08.956Z</time></trkpt><trkpt lat="45.3669025" lon="7.5722804"><ele>920.0</ele><time>2026-04-18T14:34:09.951Z</time></trkpt><trkpt lat="45.3668719" lon="7.5723798"><ele>917.1666666666667</ele><time>2026-04-18T14:34:10.953Z</time></trkpt><trkpt lat="45.3668484" lon="7.5724718"><ele>914.3333333333334</ele><time>2026-04-18T14:34:11.955Z</time></trkpt><trkpt lat="45.3668151" lon="7.5725657"><ele>911.5</ele><time>2026-04-18T14:34:12.947Z</time></trkpt><trkpt lat="45.3667736" lon="7.5726677"><ele>908.6666666666667</ele><time>2026-04-18T14:34:13.947Z</time></trkpt><trkpt lat="45.3667259" lon="7.5727733"><ele>905.8333333333334</ele><time>2026-04-18T14:34:14.957Z</time></trkpt><trkpt lat="45.3666747" lon="7.5728821"><ele>903.0</ele><time>2026-04-18T14:34:15.958Z</time></trkpt><trkpt lat="45.3666191" lon="7.5729842"><ele>899.5999999999999</ele><time>2026-04-18T14:34:16.957Z</time></trkpt><trkpt lat="45.3665704" lon="7.5730908"><ele>896.1999999999999</ele><time>2026-04-18T14:34:17.959Z</time></trkpt><trkpt lat="45.3665423" lon="7.5731855"><ele>892.8</ele><time>2026-04-18T14:34:18.955Z</time></trkpt><trkpt lat="45.3665259" lon="7.5732741"><ele>889.4</ele><time>2026-04-18T14:34:19.954Z</time></trkpt><trkpt lat="45.366474" lon="7.5734219"><ele>886.0</ele><time>2026-04-18T14:34:21.961Z</time></trkpt><trkpt lat="45.3664502" lon="7.5736321"><ele>884.8571428571429</ele><time>2026-04-18T14:34:23.956Z</time></trkpt><trkpt lat="45.3664493" lon="7.5737571"><ele>883.7142857142858</ele><time>2026-04-18T14:34:24.96Z</time></trkpt><trkpt lat="45.3664537" lon="7.5738796"><ele>882.5714285714286</ele><time>2026-04-18T14:34:25.943Z</time></trkpt><trkpt lat="45.3664589" lon="7.5739793"><ele>881.4285714285714</ele><time>2026-04-18T14:34:26.955Z</time></trkpt><trkpt lat="45.3664513" lon="7.5740815"><ele>880.2857142857142</ele><time>2026-04-18T14:34:27.957Z</time></trkpt><trkpt lat="45.3664439" lon="7.5741733"><ele>879.1428571428571</ele><time>2026-04-18T14:34:28.953Z</time></trkpt><trkpt lat="45.3664284" lon="7.5742641"><ele>878.0</ele><time>2026-04-18T14:34:29.953Z</time></trkpt><trkpt lat="45.3663685" lon="7.574429"><ele>879.0000000000001</ele><time>2026-04-18T14:34:31.952Z</time></trkpt><trkpt lat="45.3663349" lon="7.5745161"><ele>880.0</ele><time>2026-04-18T14:34:32.953Z</time></trkpt><trkpt lat="45.3662929" lon="7.5745974"><ele>881.0</ele><time>2026-04-18T14:34:33.955Z</time></trkpt><trkpt lat="45.366239" lon="7.5746742"><ele>882.0</ele><time>2026-04-18T14:34:34.953Z</time></trkpt><trkpt lat="45.3661834" lon="7.574752"><ele>883.0000000000001</ele><time>2026-04-18T14:34:35.955Z</time></trkpt><trkpt lat="45.3661293" lon="7.5748402"><ele>884.0</ele><time>2026-04-18T14:34:36.956Z</time></trkpt><trkpt lat="45.3660809" lon="7.5749512"><ele>884.0000000000001</ele><time>2026-04-18T14:34:37.952Z</time></trkpt><trkpt lat="45.3660345" lon="7.5750577"><ele>884.0</ele><time>2026-04-18T14:34:38.952Z</time></trkpt><trkpt lat="45.3659801" lon="7.5751553"><ele>884.0</ele><time>2026-04-18T14:34:39.956Z</time></trkpt><trkpt lat="45.3659287" lon="7.5752512"><ele>884.0</ele><time>2026-04-18T14:34:40.954Z</time></trkpt><trkpt lat="45.3658671" lon="7.57535"><ele>884.0000000000001</ele><time>2026-04-18T14:34:41.947Z</time></trkpt><trkpt lat="45.3658096" lon="7.5754493"><ele>884.0</ele><time>2026-04-18T14:34:42.958Z</time></trkpt><trkpt lat="45.3657555" lon="7.5755488"><ele>880.6</ele><time>2026-04-18T14:34:43.955Z</time></trkpt><trkpt lat="45.365698" lon="7.5756478"><ele>877.2</ele><time>2026-04-18T14:34:44.96Z</time></trkpt><trkpt lat="45.3656315" lon="7.5757445"><ele>873.8000000000001</ele><time>2026-04-18T14:34:45.961Z</time></trkpt><trkpt lat="45.3655609" lon="7.57584"><ele>870.4000000000001</ele><time>2026-04-18T14:34:46.955Z</time></trkpt><trkpt lat="45.3654986" lon="7.5759327"><ele>867.0</ele><time>2026-04-18T14:34:47.949Z</time></trkpt><trkpt lat="45.3654395" lon="7.5760123"><ele>867.0</ele><time>2026-04-18T14:34:48.961Z</time></trkpt><trkpt lat="45.3653821" lon="7.5760855"><ele>867.0</ele><time>2026-04-18T14:34:49.957Z</time></trkpt><trkpt lat="45.3653315" lon="7.5761587"><ele>867.0</ele><time>2026-04-18T14:34:50.952Z</time></trkpt><trkpt lat="45.3652835" lon="7.5762188"><ele>867.0</ele><time>2026-04-18T14:34:51.945Z</time></trkpt><trkpt lat="45.3651946" lon="7.5763014"><ele>867.0</ele><time>2026-04-18T14:34:53.947Z</time></trkpt><trkpt lat="45.3650595" lon="7.576322"><ele>867.6666666666666</ele><time>2026-04-18T14:34:55.943Z</time></trkpt><trkpt lat="45.3649824" lon="7.5763107"><ele>868.3333333333333</ele><time>2026-04-18T14:34:56.952Z</time></trkpt><trkpt lat="45.3649098" lon="7.5762983"><ele>869.0</ele><time>2026-04-18T14:34:57.956Z</time></trkpt><trkpt lat="45.3647879" lon="7.5762924"><ele>869.6666666666666</ele><time>2026-04-18T14:34:59.937Z</time></trkpt><trkpt lat="45.3646829" lon="7.576319"><ele>870.3333333333333</ele><time>2026-04-18T14:35:01.946Z</time></trkpt><trkpt lat="45.3646275" lon="7.5763759"><ele>871.0</ele><time>2026-04-18T14:35:03.95Z</time></trkpt><trkpt lat="45.3645793" lon="7.5764895"><ele>871.0</ele><time>2026-04-18T14:35:37.963Z</time></trkpt><trkpt lat="45.3645406" lon="7.5766725"><ele>870.9999999999999</ele><time>2026-04-18T14:35:39.953Z</time></trkpt><trkpt lat="45.3645153" lon="7.5767761"><ele>870.9999999999999</ele><time>2026-04-18T14:35:40.952Z</time></trkpt><trkpt lat="45.36449" lon="7.576883"><ele>871.0</ele><time>2026-04-18T14:35:41.951Z</time></trkpt><trkpt lat="45.3644578" lon="7.5769915"><ele>871.0</ele><time>2026-04-18T14:35:42.958Z</time></trkpt><trkpt lat="45.3644255" lon="7.5770914"><ele>867.6666666666666</ele><time>2026-04-18T14:35:43.946Z</time></trkpt><trkpt lat="45.3643852" lon="7.5771938"><ele>864.3333333333333</ele><time>2026-04-18T14:35:44.948Z</time></trkpt><trkpt lat="45.3643431" lon="7.5772845"><ele>861.0</ele><time>2026-04-18T14:35:45.95Z</time></trkpt><trkpt lat="45.3642995" lon="7.5773663"><ele>857.6666666666667</ele><time>2026-04-18T14:35:46.951Z</time></trkpt><trkpt lat="45.3642501" lon="7.5774457"><ele>854.3333333333334</ele><time>2026-04-18T14:35:47.959Z</time></trkpt><trkpt lat="45.3641925" lon="7.5775117"><ele>851.0</ele><time>2026-04-18T14:35:48.957Z</time></trkpt><trkpt lat="45.3641157" lon="7.5775651"><ele>851.0000000000001</ele><time>2026-04-18T14:35:49.955Z</time></trkpt><trkpt lat="45.3640266" lon="7.5775925"><ele>851.0</ele><time>2026-04-18T14:35:50.956Z</time></trkpt><trkpt lat="45.3639443" lon="7.5776052"><ele>851.0</ele><time>2026-04-18T14:35:51.957Z</time></trkpt><trkpt lat="45.3638766" lon="7.5776088"><ele>851.0</ele><time>2026-04-18T14:35:52.957Z</time></trkpt><trkpt lat="45.3637745" lon="7.5776498"><ele>851.0000000000001</ele><time>2026-04-18T14:35:54.961Z</time></trkpt><trkpt lat="45.3636967" lon="7.5777258"><ele>851.0</ele><time>2026-04-18T14:35:56.953Z</time></trkpt><trkpt lat="45.3636502" lon="7.5777995"><ele>853.5000000000001</ele><time>2026-04-18T14:35:58.954Z</time></trkpt><trkpt lat="45.3636328" lon="7.5779507"><ele>856.0</ele><time>2026-04-18T14:36:01.958Z</time></trkpt><trkpt lat="45.3636153" lon="7.5780542"><ele>858.5</ele><time>2026-04-18T14:36:03.96Z</time></trkpt><trkpt lat="45.3636238" lon="7.5781459"><ele>861.0</ele><time>2026-04-18T14:36:06.952Z</time></trkpt><trkpt lat="45.3636954" lon="7.5782444"><ele>863.5000000000001</ele><time>2026-04-18T14:36:08.951Z</time></trkpt><trkpt lat="45.3637482" lon="7.578318"><ele>866.0</ele><time>2026-04-18T14:36:09.958Z</time></trkpt><trkpt lat="45.363803" lon="7.5784083"><ele>866.0000000000001</ele><time>2026-04-18T14:36:10.954Z</time></trkpt><trkpt lat="45.3638528" lon="7.5785095"><ele>866.0</ele><time>2026-04-18T14:36:11.946Z</time></trkpt><trkpt lat="45.3639039" lon="7.5786075"><ele>866.0</ele><time>2026-04-18T14:36:12.959Z</time></trkpt><trkpt lat="45.3639426" lon="7.5787084"><ele>866.0</ele><time>2026-04-18T14:36:13.953Z</time></trkpt><trkpt lat="45.3639688" lon="7.5788152"><ele>866.0000000000001</ele><time>2026-04-18T14:36:14.957Z</time></trkpt><trkpt lat="45.3639857" lon="7.5789269"><ele>866.0</ele><time>2026-04-18T14:36:15.95Z</time></trkpt><trkpt lat="45.3639907" lon="7.5790649"><ele>859.5999999999999</ele><time>2026-04-18T14:36:16.958Z</time></trkpt><trkpt lat="45.3639921" lon="7.5792036"><ele>853.1999999999999</ele><time>2026-04-18T14:36:17.955Z</time></trkpt><trkpt lat="45.3639914" lon="7.5793411"><ele>846.8</ele><time>2026-04-18T14:36:18.962Z</time></trkpt><trkpt lat="45.3639882" lon="7.5794883"><ele>840.4000000000001</ele><time>2026-04-18T14:36:19.96Z</time></trkpt><trkpt lat="45.3639787" lon="7.5796221"><ele>834.0</ele><time>2026-04-18T14:36:20.958Z</time></trkpt><trkpt lat="45.3639568" lon="7.5797437"><ele>834.0</ele><time>2026-04-18T14:36:21.953Z</time></trkpt><trkpt lat="45.3639385" lon="7.5798544"><ele>834.0</ele><time>2026-04-18T14:36:22.958Z</time></trkpt><trkpt lat="45.3639551" lon="7.5799738"><ele>834.0</ele><time>2026-04-18T14:36:23.958Z</time></trkpt><trkpt lat="45.3639798" lon="7.5800884"><ele>834.0</ele><time>2026-04-18T14:36:24.961Z</time></trkpt><trkpt lat="45.3640052" lon="7.5801883"><ele>834.0</ele><time>2026-04-18T14:36:25.952Z</time></trkpt><trkpt lat="45.3640393" lon="7.5802851"><ele>834.0</ele><time>2026-04-18T14:36:26.958Z</time></trkpt><trkpt lat="45.364083" lon="7.5803799"><ele>834.6666666666666</ele><time>2026-04-18T14:36:27.953Z</time></trkpt><trkpt lat="45.3641265" lon="7.5804763"><ele>835.3333333333333</ele><time>2026-04-18T14:36:28.958Z</time></trkpt><trkpt lat="45.36417" lon="7.5805587"><ele>836.0</ele><time>2026-04-18T14:36:29.959Z</time></trkpt><trkpt lat="45.3642117" lon="7.5806434"><ele>836.6666666666666</ele><time>2026-04-18T14:36:30.952Z</time></trkpt><trkpt lat="45.3642573" lon="7.5808057"><ele>837.3333333333333</ele><time>2026-04-18T14:36:32.952Z</time></trkpt><trkpt lat="45.3642818" lon="7.5809039"><ele>838.0</ele><time>2026-04-18T14:36:33.967Z</time></trkpt><trkpt lat="45.3642981" lon="7.5809921"><ele>838.0</ele><time>2026-04-18T14:36:34.952Z</time></trkpt><trkpt lat="45.36432" lon="7.5811481"><ele>838.0</ele><time>2026-04-18T14:36:36.95Z</time></trkpt><trkpt lat="45.3643484" lon="7.5813256"><ele>838.0</ele><time>2026-04-18T14:36:38.952Z</time></trkpt><trkpt lat="45.3643633" lon="7.5814178"><ele>838.0</ele><time>2026-04-18T14:36:39.953Z</time></trkpt><trkpt lat="45.3643834" lon="7.581511"><ele>838.0</ele><time>2026-04-18T14:36:40.954Z</time></trkpt><trkpt lat="45.364417" lon="7.5816675"><ele>838.4285714285713</ele><time>2026-04-18T14:36:42.956Z</time></trkpt><trkpt lat="45.3644358" lon="7.5817579"><ele>838.8571428571429</ele><time>2026-04-18T14:36:43.953Z</time></trkpt><trkpt lat="45.3644614" lon="7.581852"><ele>839.2857142857142</ele><time>2026-04-18T14:36:44.951Z</time></trkpt><trkpt lat="45.3644885" lon="7.5819456"><ele>839.7142857142857</ele><time>2026-04-18T14:36:45.95Z</time></trkpt><trkpt lat="45.3645243" lon="7.582038"><ele>840.1428571428571</ele><time>2026-04-18T14:36:46.956Z</time></trkpt><trkpt lat="45.3645523" lon="7.5821301"><ele>840.5714285714286</ele><time>2026-04-18T14:36:47.953Z</time></trkpt><trkpt lat="45.3645796" lon="7.5822229"><ele>841.0</ele><time>2026-04-18T14:36:48.954Z</time></trkpt><trkpt lat="45.3645994" lon="7.5823277"><ele>841.0</ele><time>2026-04-18T14:36:49.956Z</time></trkpt><trkpt lat="45.3646074" lon="7.582429"><ele>841.0</ele><time>2026-04-18T14:36:50.954Z</time></trkpt><trkpt lat="45.3646213" lon="7.582517"><ele>841.0</ele><time>2026-04-18T14:36:51.963Z</time></trkpt><trkpt lat="45.3646286" lon="7.5826194"><ele>841.0</ele><time>2026-04-18T14:36:52.956Z</time></trkpt><trkpt lat="45.3646311" lon="7.5827192"><ele>841.0</ele><time>2026-04-18T14:36:53.957Z</time></trkpt><trkpt lat="45.3646311" lon="7.5828169"><ele>841.0</ele><time>2026-04-18T14:36:54.955Z</time></trkpt><trkpt lat="45.3646269" lon="7.5829083"><ele>841.0</ele><time>2026-04-18T14:36:55.958Z</time></trkpt><trkpt lat="45.364621" lon="7.5830079"><ele>837.4</ele><time>2026-04-18T14:36:56.954Z</time></trkpt><trkpt lat="45.3646006" lon="7.5831139"><ele>833.8</ele><time>2026-04-18T14:36:57.957Z</time></trkpt><trkpt lat="45.3645653" lon="7.5832378"><ele>830.1999999999999</ele><time>2026-04-18T14:36:58.955Z</time></trkpt><trkpt lat="45.3645327" lon="7.5833643"><ele>826.5999999999999</ele><time>2026-04-18T14:36:59.966Z</time></trkpt><trkpt lat="45.3645023" lon="7.5834948"><ele>823.0</ele><time>2026-04-18T14:37:00.958Z</time></trkpt><trkpt lat="45.3644859" lon="7.5836166"><ele>821.4285714285714</ele><time>2026-04-18T14:37:01.957Z</time></trkpt><trkpt lat="45.364477" lon="7.5837291"><ele>819.8571428571429</ele><time>2026-04-18T14:37:02.96Z</time></trkpt><trkpt lat="45.3644739" lon="7.5838328"><ele>818.2857142857142</ele><time>2026-04-18T14:37:03.957Z</time></trkpt><trkpt lat="45.3644972" lon="7.5839236"><ele>816.7142857142858</ele><time>2026-04-18T14:37:04.959Z</time></trkpt><trkpt lat="45.3645239" lon="7.5840141"><ele>815.1428571428571</ele><time>2026-04-18T14:37:05.951Z</time></trkpt><trkpt lat="45.3645522" lon="7.5841203"><ele>813.5714285714286</ele><time>2026-04-18T14:37:06.944Z</time></trkpt><trkpt lat="45.3645765" lon="7.5842093"><ele>812.0</ele><time>2026-04-18T14:37:07.951Z</time></trkpt><trkpt lat="45.3645984" lon="7.5843088"><ele>812.0000000000001</ele><time>2026-04-18T14:37:08.963Z</time></trkpt><trkpt lat="45.3646185" lon="7.5844133"><ele>812.0</ele><time>2026-04-18T14:37:09.956Z</time></trkpt><trkpt lat="45.3646409" lon="7.5845108"><ele>812.0</ele><time>2026-04-18T14:37:10.954Z</time></trkpt><trkpt lat="45.364664" lon="7.5846119"><ele>812.0</ele><time>2026-04-18T14:37:11.957Z</time></trkpt><trkpt lat="45.3646921" lon="7.584718"><ele>812.0000000000001</ele><time>2026-04-18T14:37:12.954Z</time></trkpt><trkpt lat="45.3647321" lon="7.5848325"><ele>812.0</ele><time>2026-04-18T14:37:13.949Z</time></trkpt><trkpt lat="45.364769" lon="7.5849423"><ele>808.4000000000001</ele><time>2026-04-18T14:37:14.951Z</time></trkpt><trkpt lat="45.3648243" lon="7.5850489"><ele>804.8000000000001</ele><time>2026-04-18T14:37:16.028Z</time></trkpt><trkpt lat="45.3648989" lon="7.5851556"><ele>801.2</ele><time>2026-04-18T14:37:16.951Z</time></trkpt><trkpt lat="45.3649844" lon="7.5852442"><ele>797.6</ele><time>2026-04-18T14:37:17.952Z</time></trkpt><trkpt lat="45.3650673" lon="7.5853298"><ele>794.0</ele><time>2026-04-18T14:37:18.953Z</time></trkpt><trkpt lat="45.3651502" lon="7.5854038"><ele>794.0000000000001</ele><time>2026-04-18T14:37:20.027Z</time></trkpt><trkpt lat="45.365202" lon="7.5854752"><ele>794.0</ele><time>2026-04-18T14:37:21.032Z</time></trkpt><trkpt lat="45.365245" lon="7.5855596"><ele>794.0</ele><time>2026-04-18T14:37:21.955Z</time></trkpt><trkpt lat="45.3652739" lon="7.5856726"><ele>794.0</ele><time>2026-04-18T14:37:22.955Z</time></trkpt><trkpt lat="45.3652861" lon="7.5857996"><ele>794.0000000000001</ele><time>2026-04-18T14:37:23.964Z</time></trkpt><trkpt lat="45.3652808" lon="7.5859357"><ele>794.0</ele><time>2026-04-18T14:37:24.952Z</time></trkpt><trkpt lat="45.3652729" lon="7.586075"><ele>793.6</ele><time>2026-04-18T14:37:25.956Z</time></trkpt><trkpt lat="45.365259" lon="7.5862165"><ele>793.2</ele><time>2026-04-18T14:37:26.955Z</time></trkpt><trkpt lat="45.3652413" lon="7.5863574"><ele>792.8000000000001</ele><time>2026-04-18T14:37:27.956Z</time></trkpt><trkpt lat="45.3652206" lon="7.5864928"><ele>792.4000000000001</ele><time>2026-04-18T14:37:28.995Z</time></trkpt><trkpt lat="45.3651979" lon="7.586631"><ele>792.0</ele><time>2026-04-18T14:37:29.951Z</time></trkpt><trkpt lat="45.3651744" lon="7.5867708"><ele>791.0</ele><time>2026-04-18T14:37:31.073Z</time></trkpt><trkpt lat="45.3651338" lon="7.5870459"><ele>790.0</ele><time>2026-04-18T14:37:32.961Z</time></trkpt><trkpt lat="45.3651249" lon="7.5871734"><ele>789.0</ele><time>2026-04-18T14:37:33.951Z</time></trkpt><trkpt lat="45.365126" lon="7.5872936"><ele>788.0</ele><time>2026-04-18T14:37:34.949Z</time></trkpt><trkpt lat="45.3651411" lon="7.5874129"><ele>788.0</ele><time>2026-04-18T14:37:35.958Z</time></trkpt><trkpt lat="45.3651678" lon="7.5875418"><ele>788.0</ele><time>2026-04-18T14:37:36.961Z</time></trkpt><trkpt lat="45.3651952" lon="7.5876842"><ele>788.0</ele><time>2026-04-18T14:37:38.053Z</time></trkpt><trkpt lat="45.3652097" lon="7.5878431"><ele>788.0</ele><time>2026-04-18T14:37:39.047Z</time></trkpt><trkpt lat="45.3652171" lon="7.588004"><ele>788.0</ele><time>2026-04-18T14:37:39.966Z</time></trkpt><trkpt lat="45.3652223" lon="7.5881648"><ele>788.0</ele><time>2026-04-18T14:37:40.971Z</time></trkpt><trkpt lat="45.3652375" lon="7.5883244"><ele>788.0</ele><time>2026-04-18T14:37:41.968Z</time></trkpt><trkpt lat="45.365258" lon="7.5884814"><ele>788.0</ele><time>2026-04-18T14:37:42.96Z</time></trkpt><trkpt lat="45.3652788" lon="7.5886306"><ele>788.0</ele><time>2026-04-18T14:37:43.964Z</time></trkpt><trkpt lat="45.3652972" lon="7.5887704"><ele>788.0</ele><time>2026-04-18T14:37:44.966Z</time></trkpt><trkpt lat="45.3653255" lon="7.5889072"><ele>786.2</ele><time>2026-04-18T14:37:45.98Z</time></trkpt><trkpt lat="45.3653678" lon="7.5890072"><ele>784.4</ele><time>2026-04-18T14:37:47.01Z</time></trkpt><trkpt lat="45.3654445" lon="7.5891195"><ele>782.6</ele><time>2026-04-18T14:37:47.963Z</time></trkpt><trkpt lat="45.3655243" lon="7.5892357"><ele>780.8000000000001</ele><time>2026-04-18T14:37:49.023Z</time></trkpt><trkpt lat="45.3656119" lon="7.5893502"><ele>779.0</ele><time>2026-04-18T14:37:50.039Z</time></trkpt><trkpt lat="45.3657055" lon="7.5894448"><ele>777.0</ele><time>2026-04-18T14:37:51.027Z</time></trkpt><trkpt lat="45.3657958" lon="7.5895422"><ele>775.0</ele><time>2026-04-18T14:37:51.965Z</time></trkpt><trkpt lat="45.3658796" lon="7.5896466"><ele>773.0</ele><time>2026-04-18T14:37:52.954Z</time></trkpt><trkpt lat="45.3659548" lon="7.5897546"><ele>771.0</ele><time>2026-04-18T14:37:53.989Z</time></trkpt><trkpt lat="45.3660202" lon="7.5898681"><ele>769.0</ele><time>2026-04-18T14:37:54.98Z</time></trkpt><trkpt lat="45.3660804" lon="7.5899769"><ele>769.0</ele><time>2026-04-18T14:37:55.975Z</time></trkpt><trkpt lat="45.3661364" lon="7.5900784"><ele>769.0</ele><time>2026-04-18T14:37:56.97Z</time></trkpt><trkpt lat="45.3661933" lon="7.5901829"><ele>769.0</ele><time>2026-04-18T14:37:58.031Z</time></trkpt><trkpt lat="45.3662514" lon="7.590286"><ele>769.0</ele><time>2026-04-18T14:37:59.049Z</time></trkpt><trkpt lat="45.3663026" lon="7.590398"><ele>769.0</ele><time>2026-04-18T14:38:00.036Z</time></trkpt><trkpt lat="45.3663431" lon="7.5905145"><ele>768.8000000000001</ele><time>2026-04-18T14:38:00.992Z</time></trkpt><trkpt lat="45.3663679" lon="7.5906336"><ele>768.6</ele><time>2026-04-18T14:38:01.949Z</time></trkpt><trkpt lat="45.3663759" lon="7.5907608"><ele>768.4</ele><time>2026-04-18T14:38:02.948Z</time></trkpt><trkpt lat="45.3663654" lon="7.5908936"><ele>768.2</ele><time>2026-04-18T14:38:03.987Z</time></trkpt><trkpt lat="45.366344" lon="7.5910278"><ele>768.0</ele><time>2026-04-18T14:38:04.96Z</time></trkpt><trkpt lat="45.3663114" lon="7.5911705"><ele>767.8</ele><time>2026-04-18T14:38:05.96Z</time></trkpt><trkpt lat="45.3662851" lon="7.5913076"><ele>767.5999999999999</ele><time>2026-04-18T14:38:06.951Z</time></trkpt><trkpt lat="45.3662619" lon="7.5914459"><ele>767.4000000000001</ele><time>2026-04-18T14:38:07.955Z</time></trkpt><trkpt lat="45.3662444" lon="7.5915854"><ele>767.2</ele><time>2026-04-18T14:38:08.952Z</time></trkpt><trkpt lat="45.3662328" lon="7.5917329"><ele>767.0</ele><time>2026-04-18T14:38:09.959Z</time></trkpt><trkpt lat="45.3662213" lon="7.5918826"><ele>767.4000000000001</ele><time>2026-04-18T14:38:11.022Z</time></trkpt><trkpt lat="45.3662154" lon="7.5920262"><ele>767.8000000000001</ele><time>2026-04-18T14:38:11.954Z</time></trkpt><trkpt lat="45.3662252" lon="7.5921747"><ele>768.2</ele><time>2026-04-18T14:38:12.955Z</time></trkpt><trkpt lat="45.3662408" lon="7.5923208"><ele>768.6</ele><time>2026-04-18T14:38:13.95Z</time></trkpt><trkpt lat="45.3662567" lon="7.5924678"><ele>769.0</ele><time>2026-04-18T14:38:14.956Z</time></trkpt><trkpt lat="45.3662707" lon="7.5926226"><ele>769.0</ele><time>2026-04-18T14:38:15.955Z</time></trkpt><trkpt lat="45.3662787" lon="7.5927755"><ele>769.0</ele><time>2026-04-18T14:38:16.945Z</time></trkpt><trkpt lat="45.3662843" lon="7.5929311"><ele>769.0</ele><time>2026-04-18T14:38:17.954Z</time></trkpt><trkpt lat="45.3662801" lon="7.5930808"><ele>769.0</ele><time>2026-04-18T14:38:19.007Z</time></trkpt><trkpt lat="45.3662743" lon="7.5932267"><ele>769.0</ele><time>2026-04-18T14:38:20.058Z</time></trkpt><trkpt lat="45.3662579" lon="7.5933731"><ele>768.8000000000001</ele><time>2026-04-18T14:38:21.039Z</time></trkpt><trkpt lat="45.366224" lon="7.5935081"><ele>768.6</ele><time>2026-04-18T14:38:21.971Z</time></trkpt><trkpt lat="45.366182" lon="7.5936284"><ele>768.4</ele><time>2026-04-18T14:38:22.947Z</time></trkpt><trkpt lat="45.36614" lon="7.593747"><ele>768.2</ele><time>2026-04-18T14:38:23.953Z</time></trkpt><trkpt lat="45.3661118" lon="7.5938643"><ele>768.0</ele><time>2026-04-18T14:38:24.954Z</time></trkpt><trkpt lat="45.3660943" lon="7.593987"><ele>770.2</ele><time>2026-04-18T14:38:25.956Z</time></trkpt><trkpt lat="45.3660967" lon="7.5941142"><ele>772.4</ele><time>2026-04-18T14:38:26.949Z</time></trkpt><trkpt lat="45.3661031" lon="7.5942272"><ele>774.6</ele><time>2026-04-18T14:38:28.023Z</time></trkpt><trkpt lat="45.3661098" lon="7.5943169"><ele>776.8000000000001</ele><time>2026-04-18T14:38:28.951Z</time></trkpt><trkpt lat="45.3661762" lon="7.5944964"><ele>779.0</ele><time>2026-04-18T14:38:30.966Z</time></trkpt><trkpt lat="45.3662326" lon="7.5945681"><ele>780.1666666666667</ele><time>2026-04-18T14:38:31.964Z</time></trkpt><trkpt lat="45.3662816" lon="7.5946335"><ele>781.3333333333334</ele><time>2026-04-18T14:38:32.964Z</time></trkpt><trkpt lat="45.3663527" lon="7.594784"><ele>782.5</ele><time>2026-04-18T14:38:34.978Z</time></trkpt><trkpt lat="45.3663887" lon="7.5948777"><ele>783.6666666666667</ele><time>2026-04-18T14:38:35.967Z</time></trkpt><trkpt lat="45.3664206" lon="7.5949652"><ele>784.8333333333334</ele><time>2026-04-18T14:38:36.968Z</time></trkpt><trkpt lat="45.3664526" lon="7.595058"><ele>786.0</ele><time>2026-04-18T14:38:37.967Z</time></trkpt><trkpt lat="45.3664828" lon="7.5951419"><ele>786.0</ele><time>2026-04-18T14:38:38.98Z</time></trkpt><trkpt lat="45.3665028" lon="7.5952528"><ele>786.0</ele><time>2026-04-18T14:38:39.969Z</time></trkpt><trkpt lat="45.366513" lon="7.5953793"><ele>786.0</ele><time>2026-04-18T14:38:41.032Z</time></trkpt><trkpt lat="45.3665276" lon="7.5954953"><ele>786.0</ele><time>2026-04-18T14:38:41.961Z</time></trkpt><trkpt lat="45.3665223" lon="7.5956186"><ele>786.0</ele><time>2026-04-18T14:38:42.966Z</time></trkpt><trkpt lat="45.3665203" lon="7.5957381"><ele>786.0</ele><time>2026-04-18T14:38:43.976Z</time></trkpt><trkpt lat="45.3665218" lon="7.5958548"><ele>784.5999999999999</ele><time>2026-04-18T14:38:45.017Z</time></trkpt><trkpt lat="45.3665361" lon="7.5959713"><ele>783.2</ele><time>2026-04-18T14:38:45.962Z</time></trkpt><trkpt lat="45.3665574" lon="7.5960951"><ele>781.8</ele><time>2026-04-18T14:38:46.959Z</time></trkpt><trkpt lat="45.3665747" lon="7.5962267"><ele>780.4000000000001</ele><time>2026-04-18T14:38:47.953Z</time></trkpt><trkpt lat="45.3665922" lon="7.5963608"><ele>779.0</ele><time>2026-04-18T14:38:49.029Z</time></trkpt><trkpt lat="45.3665979" lon="7.5964976"><ele>778.4000000000001</ele><time>2026-04-18T14:38:50.026Z</time></trkpt><trkpt lat="45.3665966" lon="7.59665"><ele>777.8</ele><time>2026-04-18T14:38:50.944Z</time></trkpt><trkpt lat="45.3665955" lon="7.5967878"><ele>777.2</ele><time>2026-04-18T14:38:51.953Z</time></trkpt><trkpt lat="45.3665924" lon="7.5969284"><ele>776.5999999999999</ele><time>2026-04-18T14:38:52.983Z</time></trkpt><trkpt lat="45.3665956" lon="7.5970671"><ele>776.0</ele><time>2026-04-18T14:38:53.954Z</time></trkpt><trkpt lat="45.3665891" lon="7.5972057"><ele>775.0</ele><time>2026-04-18T14:38:54.948Z</time></trkpt><trkpt lat="45.3665852" lon="7.5973458"><ele>774.0</ele><time>2026-04-18T14:38:55.951Z</time></trkpt><trkpt lat="45.3665805" lon="7.5975002"><ele>773.0</ele><time>2026-04-18T14:38:56.957Z</time></trkpt><trkpt lat="45.3665824" lon="7.597648"><ele>772.0</ele><time>2026-04-18T14:38:57.948Z</time></trkpt><trkpt lat="45.3665782" lon="7.5978015"><ele>771.0</ele><time>2026-04-18T14:38:58.957Z</time></trkpt><trkpt lat="45.3665681" lon="7.5979615"><ele>769.4</ele><time>2026-04-18T14:39:00.029Z</time></trkpt><trkpt lat="45.3665546" lon="7.5981195"><ele>767.8</ele><time>2026-04-18T14:39:01.037Z</time></trkpt><trkpt lat="45.36654" lon="7.598287"><ele>766.1999999999999</ele><time>2026-04-18T14:39:01.954Z</time></trkpt><trkpt lat="45.3665203" lon="7.5984398"><ele>764.5999999999999</ele><time>2026-04-18T14:39:02.96Z</time></trkpt><trkpt lat="45.3665036" lon="7.5985834"><ele>763.0</ele><time>2026-04-18T14:39:03.968Z</time></trkpt><trkpt lat="45.3664926" lon="7.5987279"><ele>761.2</ele><time>2026-04-18T14:39:04.957Z</time></trkpt><trkpt lat="45.3664662" lon="7.5988716"><ele>759.4</ele><time>2026-04-18T14:39:05.964Z</time></trkpt><trkpt lat="45.3664243" lon="7.5990071"><ele>757.6</ele><time>2026-04-18T14:39:06.961Z</time></trkpt><trkpt lat="45.3664048" lon="7.5991405"><ele>755.8000000000001</ele><time>2026-04-18T14:39:07.957Z</time></trkpt><trkpt lat="45.3663886" lon="7.5992609"><ele>754.0</ele><time>2026-04-18T14:39:09.034Z</time></trkpt><trkpt lat="45.3663611" lon="7.5993761"><ele>753.1428571428571</ele><time>2026-04-18T14:39:09.962Z</time></trkpt><trkpt lat="45.3663345" lon="7.5994882"><ele>752.2857142857142</ele><time>2026-04-18T14:39:10.96Z</time></trkpt><trkpt lat="45.3663031" lon="7.5995906"><ele>751.4285714285713</ele><time>2026-04-18T14:39:11.967Z</time></trkpt><trkpt lat="45.3662686" lon="7.5996828"><ele>750.5714285714286</ele><time>2026-04-18T14:39:12.964Z</time></trkpt><trkpt lat="45.3662368" lon="7.5997813"><ele>749.7142857142858</ele><time>2026-04-18T14:39:13.959Z</time></trkpt><trkpt lat="45.366207" lon="7.5998764"><ele>748.8571428571428</ele><time>2026-04-18T14:39:14.964Z</time></trkpt><trkpt lat="45.3661826" lon="7.5999602"><ele>748.0</ele><time>2026-04-18T14:39:15.968Z</time></trkpt><trkpt lat="45.3661655" lon="7.6000956"><ele>745.5</ele><time>2026-04-18T14:39:17.951Z</time></trkpt><trkpt lat="45.3661901" lon="7.600284"><ele>743.0</ele><time>2026-04-18T14:39:20.034Z</time></trkpt><trkpt lat="45.3662091" lon="7.6004248"><ele>740.5</ele><time>2026-04-18T14:39:21.02Z</time></trkpt><trkpt lat="45.3662207" lon="7.6005828"><ele>738.0</ele><time>2026-04-18T14:39:21.961Z</time></trkpt><trkpt lat="45.3662177" lon="7.6007306"><ele>735.3333333333334</ele><time>2026-04-18T14:39:22.954Z</time></trkpt><trkpt lat="45.366209" lon="7.6008771"><ele>732.6666666666666</ele><time>2026-04-18T14:39:23.965Z</time></trkpt><trkpt lat="45.366191" lon="7.601009"><ele>730.0</ele><time>2026-04-18T14:39:25.031Z</time></trkpt><trkpt lat="45.3661813" lon="7.6011309"><ele>727.3333333333333</ele><time>2026-04-18T14:39:25.964Z</time></trkpt><trkpt lat="45.3661833" lon="7.6012431"><ele>724.6666666666666</ele><time>2026-04-18T14:39:26.961Z</time></trkpt><trkpt lat="45.3661984" lon="7.6013541"><ele>722.0</ele><time>2026-04-18T14:39:27.954Z</time></trkpt><trkpt lat="45.3662273" lon="7.6014684"><ele>721.0</ele><time>2026-04-18T14:39:28.981Z</time></trkpt><trkpt lat="45.3662701" lon="7.6015816"><ele>720.0</ele><time>2026-04-18T14:39:29.957Z</time></trkpt><trkpt lat="45.3663095" lon="7.6016847"><ele>719.0</ele><time>2026-04-18T14:39:31.031Z</time></trkpt><trkpt lat="45.3663378" lon="7.6018165"><ele>718.0</ele><time>2026-04-18T14:39:31.96Z</time></trkpt><trkpt lat="45.366359" lon="7.6019534"><ele>717.0</ele><time>2026-04-18T14:39:32.945Z</time></trkpt><trkpt lat="45.3663778" lon="7.6020967"><ele>717.0</ele><time>2026-04-18T14:39:33.955Z</time></trkpt><trkpt lat="45.3664022" lon="7.6022209"><ele>717.0</ele><time>2026-04-18T14:39:35.025Z</time></trkpt><trkpt lat="45.3664261" lon="7.6023375"><ele>717.0</ele><time>2026-04-18T14:39:36.038Z</time></trkpt><trkpt lat="45.366455" lon="7.602448"><ele>717.0</ele><time>2026-04-18T14:39:36.955Z</time></trkpt><trkpt lat="45.3664973" lon="7.6025486"><ele>717.0</ele><time>2026-04-18T14:39:37.952Z</time></trkpt><trkpt lat="45.3665773" lon="7.6026546"><ele>717.0</ele><time>2026-04-18T14:39:38.987Z</time></trkpt><trkpt lat="45.3666568" lon="7.6027521"><ele>717.0</ele><time>2026-04-18T14:39:40.032Z</time></trkpt><trkpt lat="45.3667305" lon="7.6028226"><ele>717.0</ele><time>2026-04-18T14:39:41.013Z</time></trkpt><trkpt lat="45.3667938" lon="7.6029007"><ele>717.0</ele><time>2026-04-18T14:39:41.953Z</time></trkpt><trkpt lat="45.3668521" lon="7.6029554"><ele>717.0</ele><time>2026-04-18T14:39:42.949Z</time></trkpt><trkpt lat="45.3669096" lon="7.6030206"><ele>717.0</ele><time>2026-04-18T14:39:43.969Z</time></trkpt><trkpt lat="45.3669774" lon="7.6031064"><ele>713.2</ele><time>2026-04-18T14:39:44.957Z</time></trkpt><trkpt lat="45.3670268" lon="7.6032126"><ele>709.4000000000001</ele><time>2026-04-18T14:39:45.939Z</time></trkpt><trkpt lat="45.367041" lon="7.6033662"><ele>705.5999999999999</ele><time>2026-04-18T14:39:46.953Z</time></trkpt><trkpt lat="45.3670406" lon="7.6035309"><ele>701.8</ele><time>2026-04-18T14:39:47.952Z</time></trkpt><trkpt lat="45.3670485" lon="7.6036858"><ele>698.0</ele><time>2026-04-18T14:39:48.952Z</time></trkpt><trkpt lat="45.3670724" lon="7.6038412"><ele>697.2</ele><time>2026-04-18T14:39:50.038Z</time></trkpt><trkpt lat="45.3671111" lon="7.6039769"><ele>696.4</ele><time>2026-04-18T14:39:51.048Z</time></trkpt><trkpt lat="45.367138" lon="7.6041311"><ele>695.6</ele><time>2026-04-18T14:39:51.974Z</time></trkpt><trkpt lat="45.367151" lon="7.6042859"><ele>694.8000000000001</ele><time>2026-04-18T14:39:52.974Z</time></trkpt><trkpt lat="45.3671558" lon="7.6044174"><ele>694.0</ele><time>2026-04-18T14:39:53.977Z</time></trkpt><trkpt lat="45.3671543" lon="7.6045382"><ele>694.0</ele><time>2026-04-18T14:39:54.964Z</time></trkpt><trkpt lat="45.3671685" lon="7.6046562"><ele>694.0</ele><time>2026-04-18T14:39:55.969Z</time></trkpt><trkpt lat="45.3672125" lon="7.6047868"><ele>694.0</ele><time>2026-04-18T14:39:56.962Z</time></trkpt><trkpt lat="45.3672682" lon="7.6049183"><ele>694.0</ele><time>2026-04-18T14:39:57.968Z</time></trkpt><trkpt lat="45.3673386" lon="7.6050623"><ele>694.0</ele><time>2026-04-18T14:39:59.039Z</time></trkpt><trkpt lat="45.3674207" lon="7.6052223"><ele>694.5</ele><time>2026-04-18T14:40:00.03Z</time></trkpt><trkpt lat="45.3675111" lon="7.6053849"><ele>695.0</ele><time>2026-04-18T14:40:01.058Z</time></trkpt><trkpt lat="45.3675997" lon="7.6055378"><ele>695.5</ele><time>2026-04-18T14:40:01.983Z</time></trkpt><trkpt lat="45.3676761" lon="7.6056687"><ele>696.0</ele><time>2026-04-18T14:40:02.956Z</time></trkpt><trkpt lat="45.3677502" lon="7.6057878"><ele>696.0</ele><time>2026-04-18T14:40:04.037Z</time></trkpt><trkpt lat="45.3678205" lon="7.6059272"><ele>696.0</ele><time>2026-04-18T14:40:05.035Z</time></trkpt><trkpt lat="45.3678982" lon="7.6060678"><ele>696.0</ele><time>2026-04-18T14:40:06.03Z</time></trkpt><trkpt lat="45.3679714" lon="7.6061924"><ele>696.0</ele><time>2026-04-18T14:40:06.961Z</time></trkpt><trkpt lat="45.3680434" lon="7.6063102"><ele>690.25</ele><time>2026-04-18T14:40:07.965Z</time></trkpt><trkpt lat="45.3681131" lon="7.6064332"><ele>684.5</ele><time>2026-04-18T14:40:08.991Z</time></trkpt><trkpt lat="45.3681755" lon="7.6065656"><ele>678.75</ele><time>2026-04-18T14:40:10.039Z</time></trkpt><trkpt lat="45.368233" lon="7.6067081"><ele>673.0</ele><time>2026-04-18T14:40:11.032Z</time></trkpt><trkpt lat="45.3682879" lon="7.6068628"><ele>674.0</ele><time>2026-04-18T14:40:11.959Z</time></trkpt><trkpt lat="45.3683346" lon="7.6070172"><ele>675.0</ele><time>2026-04-18T14:40:12.953Z</time></trkpt><trkpt lat="45.3683721" lon="7.6071803"><ele>676.0</ele><time>2026-04-18T14:40:13.955Z</time></trkpt><trkpt lat="45.3683822" lon="7.6073482"><ele>677.0</ele><time>2026-04-18T14:40:15.019Z</time></trkpt><trkpt lat="45.3683976" lon="7.6075362"><ele>677.0</ele><time>2026-04-18T14:40:16.026Z</time></trkpt><trkpt lat="45.3684099" lon="7.6077146"><ele>677.0</ele><time>2026-04-18T14:40:16.956Z</time></trkpt><trkpt lat="45.3684254" lon="7.6078809"><ele>677.0</ele><time>2026-04-18T14:40:17.954Z</time></trkpt><trkpt lat="45.3684483" lon="7.6080458"><ele>677.0</ele><time>2026-04-18T14:40:18.982Z</time></trkpt><trkpt lat="45.3684576" lon="7.6082108"><ele>675.6666666666666</ele><time>2026-04-18T14:40:20.086Z</time></trkpt><trkpt lat="45.3684095" lon="7.6085449"><ele>674.3333333333334</ele><time>2026-04-18T14:40:21.963Z</time></trkpt><trkpt lat="45.368383" lon="7.6087346"><ele>673.0</ele><time>2026-04-18T14:40:22.955Z</time></trkpt><trkpt lat="45.3683618" lon="7.6089251"><ele>669.5</ele><time>2026-04-18T14:40:24.048Z</time></trkpt><trkpt lat="45.3683368" lon="7.6091019"><ele>666.0</ele><time>2026-04-18T14:40:24.977Z</time></trkpt><trkpt lat="45.3683188" lon="7.6092874"><ele>662.5</ele><time>2026-04-18T14:40:25.959Z</time></trkpt><trkpt lat="45.3682976" lon="7.6094632"><ele>659.0</ele><time>2026-04-18T14:40:26.955Z</time></trkpt><trkpt lat="45.3682592" lon="7.6096249"><ele>656.4000000000001</ele><time>2026-04-18T14:40:27.955Z</time></trkpt><trkpt lat="45.3682157" lon="7.6097809"><ele>653.8</ele><time>2026-04-18T14:40:28.953Z</time></trkpt><trkpt lat="45.3681759" lon="7.6099277"><ele>651.2</ele><time>2026-04-18T14:40:29.954Z</time></trkpt><trkpt lat="45.3681522" lon="7.6100777"><ele>648.5999999999999</ele><time>2026-04-18T14:40:31.041Z</time></trkpt><trkpt lat="45.3681365" lon="7.6102335"><ele>646.0</ele><time>2026-04-18T14:40:31.953Z</time></trkpt><trkpt lat="45.3681102" lon="7.6103922"><ele>643.75</ele><time>2026-04-18T14:40:32.958Z</time></trkpt><trkpt lat="45.3680883" lon="7.6105672"><ele>641.5</ele><time>2026-04-18T14:40:33.967Z</time></trkpt><trkpt lat="45.3680671" lon="7.6107332"><ele>639.25</ele><time>2026-04-18T14:40:34.948Z</time></trkpt><trkpt lat="45.3680396" lon="7.6109025"><ele>637.0</ele><time>2026-04-18T14:40:35.952Z</time></trkpt><trkpt lat="45.3680152" lon="7.61107"><ele>642.25</ele><time>2026-04-18T14:40:36.953Z</time></trkpt><trkpt lat="45.368003" lon="7.611235"><ele>647.5</ele><time>2026-04-18T14:40:37.96Z</time></trkpt><trkpt lat="45.3679882" lon="7.6113953"><ele>652.75</ele><time>2026-04-18T14:40:38.947Z</time></trkpt><trkpt lat="45.3679837" lon="7.6115547"><ele>658.0</ele><time>2026-04-18T14:40:39.953Z</time></trkpt><trkpt lat="45.3679684" lon="7.6117097"><ele>658.0</ele><time>2026-04-18T14:40:41.017Z</time></trkpt><trkpt lat="45.3679435" lon="7.6118442"><ele>658.0</ele><time>2026-04-18T14:40:41.94Z</time></trkpt><trkpt lat="45.3679163" lon="7.6119669"><ele>658.0</ele><time>2026-04-18T14:40:42.949Z</time></trkpt><trkpt lat="45.3678785" lon="7.6120878"><ele>658.0</ele><time>2026-04-18T14:40:43.957Z</time></trkpt><trkpt lat="45.3678324" lon="7.6122052"><ele>658.0</ele><time>2026-04-18T14:40:44.954Z</time></trkpt><trkpt lat="45.3677746" lon="7.61229"><ele>653.4</ele><time>2026-04-18T14:40:45.952Z</time></trkpt><trkpt lat="45.3676954" lon="7.6123532"><ele>648.8</ele><time>2026-04-18T14:40:46.956Z</time></trkpt><trkpt lat="45.3676098" lon="7.6124293"><ele>644.2</ele><time>2026-04-18T14:40:47.955Z</time></trkpt><trkpt lat="45.3675408" lon="7.6125289"><ele>639.6</ele><time>2026-04-18T14:40:49.034Z</time></trkpt><trkpt lat="45.367484" lon="7.6126379"><ele>635.0</ele><time>2026-04-18T14:40:50.033Z</time></trkpt><trkpt lat="45.3674244" lon="7.6127452"><ele>634.6</ele><time>2026-04-18T14:40:51.028Z</time></trkpt><trkpt lat="45.3673704" lon="7.6128958"><ele>634.2</ele><time>2026-04-18T14:40:51.961Z</time></trkpt><trkpt lat="45.3673087" lon="7.6130293"><ele>633.8</ele><time>2026-04-18T14:40:52.962Z</time></trkpt><trkpt lat="45.367246" lon="7.6131548"><ele>633.4</ele><time>2026-04-18T14:40:53.965Z</time></trkpt><trkpt lat="45.3671895" lon="7.6132825"><ele>633.0</ele><time>2026-04-18T14:40:55.035Z</time></trkpt><trkpt lat="45.3671354" lon="7.6134284"><ele>633.0</ele><time>2026-04-18T14:40:56.027Z</time></trkpt><trkpt lat="45.3670896" lon="7.6135933"><ele>633.0</ele><time>2026-04-18T14:40:56.999Z</time></trkpt><trkpt lat="45.3670447" lon="7.6137505"><ele>633.0</ele><time>2026-04-18T14:40:58.041Z</time></trkpt><trkpt lat="45.36699" lon="7.6138861"><ele>633.0</ele><time>2026-04-18T14:40:59.038Z</time></trkpt><trkpt lat="45.3669408" lon="7.6140286"><ele>628.1999999999999</ele><time>2026-04-18T14:41:00.036Z</time></trkpt><trkpt lat="45.366903" lon="7.6141626"><ele>623.4</ele><time>2026-04-18T14:41:01.031Z</time></trkpt><trkpt lat="45.3668645" lon="7.6142932"><ele>618.5999999999999</ele><time>2026-04-18T14:41:01.962Z</time></trkpt><trkpt lat="45.3668247" lon="7.6144188"><ele>613.8</ele><time>2026-04-18T14:41:03.038Z</time></trkpt><trkpt lat="45.3667739" lon="7.614532"><ele>609.0</ele><time>2026-04-18T14:41:04.031Z</time></trkpt><trkpt lat="45.3667236" lon="7.6146466"><ele>607.0</ele><time>2026-04-18T14:41:05.035Z</time></trkpt><trkpt lat="45.3666604" lon="7.6147474"><ele>605.0</ele><time>2026-04-18T14:41:05.987Z</time></trkpt><trkpt lat="45.3665853" lon="7.6148165"><ele>603.0</ele><time>2026-04-18T14:41:06.948Z</time></trkpt><trkpt lat="45.3665192" lon="7.614862"><ele>601.0</ele><time>2026-04-18T14:41:07.958Z</time></trkpt><trkpt lat="45.3664595" lon="7.6148907"><ele>599.0</ele><time>2026-04-18T14:41:08.972Z</time></trkpt><trkpt lat="45.3665881" lon="7.6149369"><ele>599.0</ele><time>2026-04-18T14:41:13.035Z</time></trkpt><trkpt lat="45.3666958" lon="7.6149017"><ele>599.0</ele><time>2026-04-18T14:41:14.032Z</time></trkpt><trkpt lat="45.3667844" lon="7.6148638"><ele>599.0</ele><time>2026-04-18T14:41:14.969Z</time></trkpt><trkpt lat="45.3668537" lon="7.6148234"><ele>599.0</ele><time>2026-04-18T14:41:15.955Z</time></trkpt><trkpt lat="45.3669328" lon="7.6148061"><ele>599.0</ele><time>2026-04-18T14:41:17.955Z</time></trkpt><trkpt lat="45.3669611" lon="7.6149754"><ele>599.0</ele><time>2026-04-18T14:41:19.952Z</time></trkpt><trkpt lat="45.3669695" lon="7.6151109"><ele>599.0</ele><time>2026-04-18T14:41:20.956Z</time></trkpt><trkpt lat="45.3670022" lon="7.6152429"><ele>599.0</ele><time>2026-04-18T14:41:21.951Z</time></trkpt><trkpt lat="45.3670401" lon="7.6153483"><ele>599.0</ele><time>2026-04-18T14:41:22.959Z</time></trkpt><trkpt lat="45.3670763" lon="7.6154457"><ele>599.0</ele><time>2026-04-18T14:41:24.031Z</time></trkpt><trkpt lat="45.3671488" lon="7.6155852"><ele>598.0</ele><time>2026-04-18T14:41:25.958Z</time></trkpt><trkpt lat="45.3671997" lon="7.6156951"><ele>597.0</ele><time>2026-04-18T14:41:26.957Z</time></trkpt><trkpt lat="45.3672499" lon="7.6158091"><ele>596.0</ele><time>2026-04-18T14:41:27.961Z</time></trkpt><trkpt lat="45.3673121" lon="7.6159217"><ele>595.0</ele><time>2026-04-18T14:41:28.957Z</time></trkpt><trkpt lat="45.3673702" lon="7.6160583"><ele>594.0</ele><time>2026-04-18T14:41:29.977Z</time></trkpt><trkpt lat="45.3674181" lon="7.6162058"><ele>594.0</ele><time>2026-04-18T14:41:30.96Z</time></trkpt><trkpt lat="45.3674678" lon="7.6163564"><ele>594.0</ele><time>2026-04-18T14:41:31.96Z</time></trkpt><trkpt lat="45.3674993" lon="7.6165036"><ele>594.0</ele><time>2026-04-18T14:41:32.958Z</time></trkpt><trkpt lat="45.3675397" lon="7.6166245"><ele>594.0</ele><time>2026-04-18T14:41:33.954Z</time></trkpt><trkpt lat="45.3675871" lon="7.6167293"><ele>594.0</ele><time>2026-04-18T14:41:34.972Z</time></trkpt><trkpt lat="45.367624" lon="7.6168109"><ele>594.0</ele><time>2026-04-18T14:41:35.957Z</time></trkpt><trkpt lat="45.3677178" lon="7.6168901"><ele>594.0</ele><time>2026-04-18T14:41:38.041Z</time></trkpt><trkpt lat="45.3678267" lon="7.6168372"><ele>594.0</ele><time>2026-04-18T14:41:39.953Z</time></trkpt><trkpt lat="45.3679131" lon="7.6167404"><ele>594.0</ele><time>2026-04-18T14:41:41.958Z</time></trkpt><trkpt lat="45.367981" lon="7.6166658"><ele>594.0</ele><time>2026-04-18T14:41:43.96Z</time></trkpt><trkpt lat="45.3680458" lon="7.6166569"><ele>591.0</ele><time>2026-04-18T14:41:46.947Z</time></trkpt><trkpt lat="45.368091" lon="7.6165927"><ele>591.0</ele><time>2026-04-18T14:45:14.953Z</time></trkpt><trkpt lat="45.3680453" lon="7.6165163"><ele>591.0</ele><time>2026-04-18T14:45:40.955Z</time></trkpt></trkseg></trk></gpx>